<?xml version="1.0" encoding="UTF-8" standalone="no" ?>
<gpx xmlns="http://www.topografix.com/GPX/1/1" xmlns:xsi="http://www.w3.org/2001/XMLSchema-instance" xsi:schemaLocation="http://www.topografix.com/GPX/1/1 http://www.topografix.com/GPX/1/1/gpx.xsd" version="1.1" creator="VisuGPX - https://www.visugpx.com">
  <metadata>
    <name>Bassoues</name>
    <desc><![CDATA[Walkmeter Randonnée 2 juin 2018 à 09:14:34]]></desc>
  </metadata>
  <trk>
    <name><![CDATA[Bassoues R]]></name>
    <trkseg>
      <trkpt lat="43.58223" lon="0.25798">
        <ele>151.7</ele>
        <time>2018-06-02T07:15:07Z</time>
      </trkpt>
      <trkpt lat="43.58222" lon="0.25798">
        <ele>151.7</ele>
        <time>2018-06-02T07:15:11Z</time>
      </trkpt>
      <trkpt lat="43.5822" lon="0.25798">
        <ele>151.7</ele>
        <time>2018-06-02T07:15:13Z</time>
      </trkpt>
      <trkpt lat="43.58218" lon="0.25798">
        <ele>151.7</ele>
        <time>2018-06-02T07:15:15Z</time>
      </trkpt>
      <trkpt lat="43.58214" lon="0.25798">
        <ele>151.7</ele>
        <time>2018-06-02T07:15:18Z</time>
      </trkpt>
      <trkpt lat="43.58212" lon="0.25798">
        <ele>151.7</ele>
        <time>2018-06-02T07:15:20Z</time>
      </trkpt>
      <trkpt lat="43.58209" lon="0.25798">
        <ele>151.7</ele>
        <time>2018-06-02T07:15:23Z</time>
      </trkpt>
      <trkpt lat="43.58207" lon="0.25798">
        <ele>151.7</ele>
        <time>2018-06-02T07:15:24Z</time>
      </trkpt>
      <trkpt lat="43.58205" lon="0.25798">
        <ele>151.7</ele>
        <time>2018-06-02T07:15:26Z</time>
      </trkpt>
      <trkpt lat="43.58203" lon="0.25798">
        <ele>151.8</ele>
        <time>2018-06-02T07:15:28Z</time>
      </trkpt>
      <trkpt lat="43.58199" lon="0.25798">
        <ele>151.8</ele>
        <time>2018-06-02T07:15:31Z</time>
      </trkpt>
      <trkpt lat="43.58197" lon="0.25798">
        <ele>151.8</ele>
        <time>2018-06-02T07:15:33Z</time>
      </trkpt>
      <trkpt lat="43.58193" lon="0.25797">
        <ele>151.8</ele>
        <time>2018-06-02T07:15:36Z</time>
      </trkpt>
      <trkpt lat="43.58191" lon="0.25796">
        <ele>151.8</ele>
        <time>2018-06-02T07:15:38Z</time>
      </trkpt>
      <trkpt lat="43.58187" lon="0.25794">
        <ele>151.8</ele>
        <time>2018-06-02T07:15:41Z</time>
      </trkpt>
      <trkpt lat="43.58182" lon="0.25791">
        <ele>151.8</ele>
        <time>2018-06-02T07:15:45Z</time>
      </trkpt>
      <trkpt lat="43.5818" lon="0.2579">
        <ele>151.8</ele>
        <time>2018-06-02T07:15:47Z</time>
      </trkpt>
      <trkpt lat="43.58179" lon="0.25789">
        <ele>151.9</ele>
        <time>2018-06-02T07:15:48Z</time>
      </trkpt>
      <trkpt lat="43.58177" lon="0.25789">
        <ele>151.9</ele>
        <time>2018-06-02T07:15:51Z</time>
      </trkpt>
      <trkpt lat="43.58175" lon="0.25788">
        <ele>151.9</ele>
        <time>2018-06-02T07:15:54Z</time>
      </trkpt>
      <trkpt lat="43.58173" lon="0.25787">
        <ele>151.9</ele>
        <time>2018-06-02T07:15:58Z</time>
      </trkpt>
      <trkpt lat="43.58171" lon="0.25786">
        <ele>151.9</ele>
        <time>2018-06-02T07:16:01Z</time>
      </trkpt>
      <trkpt lat="43.58169" lon="0.25785">
        <ele>151.9</ele>
        <time>2018-06-02T07:16:04Z</time>
      </trkpt>
      <trkpt lat="43.58167" lon="0.25784">
        <ele>151.9</ele>
        <time>2018-06-02T07:16:07Z</time>
      </trkpt>
      <trkpt lat="43.58158" lon="0.25771">
        <ele>152</ele>
        <time>2018-06-02T07:16:11Z</time>
      </trkpt>
      <trkpt lat="43.58158" lon="0.25771">
        <ele>152</ele>
        <time>2018-06-02T07:16:45Z</time>
      </trkpt>
      <trkpt lat="43.58151" lon="0.2576">
        <ele>152.1</ele>
        <time>2018-06-02T07:16:45Z</time>
      </trkpt>
      <trkpt lat="43.5815" lon="0.25757">
        <ele>152.1</ele>
        <time>2018-06-02T07:16:48Z</time>
      </trkpt>
      <trkpt lat="43.5815" lon="0.25757">
        <ele>152.2</ele>
        <time>2018-06-02T07:16:49Z</time>
      </trkpt>
      <trkpt lat="43.58149" lon="0.25755">
        <ele>152.2</ele>
        <time>2018-06-02T07:16:50Z</time>
      </trkpt>
      <trkpt lat="43.58147" lon="0.25751">
        <ele>152.2</ele>
        <time>2018-06-02T07:16:53Z</time>
      </trkpt>
      <trkpt lat="43.58145" lon="0.25748">
        <ele>152.2</ele>
        <time>2018-06-02T07:16:55Z</time>
      </trkpt>
      <trkpt lat="43.58143" lon="0.25744">
        <ele>152.2</ele>
        <time>2018-06-02T07:16:58Z</time>
      </trkpt>
      <trkpt lat="43.58142" lon="0.25741">
        <ele>152.2</ele>
        <time>2018-06-02T07:17:00Z</time>
      </trkpt>
      <trkpt lat="43.58141" lon="0.25739">
        <ele>152.2</ele>
        <time>2018-06-02T07:17:01Z</time>
      </trkpt>
      <trkpt lat="43.5814" lon="0.25737">
        <ele>152.2</ele>
        <time>2018-06-02T07:17:03Z</time>
      </trkpt>
      <trkpt lat="43.58139" lon="0.25734">
        <ele>152.2</ele>
        <time>2018-06-02T07:17:05Z</time>
      </trkpt>
      <trkpt lat="43.58138" lon="0.2573">
        <ele>152.2</ele>
        <time>2018-06-02T07:17:08Z</time>
      </trkpt>
      <trkpt lat="43.58137" lon="0.25728">
        <ele>152.3</ele>
        <time>2018-06-02T07:17:10Z</time>
      </trkpt>
      <trkpt lat="43.58136" lon="0.25724">
        <ele>152.3</ele>
        <time>2018-06-02T07:17:13Z</time>
      </trkpt>
      <trkpt lat="43.58135" lon="0.25722">
        <ele>152.3</ele>
        <time>2018-06-02T07:17:14Z</time>
      </trkpt>
      <trkpt lat="43.58134" lon="0.2572">
        <ele>152.3</ele>
        <time>2018-06-02T07:17:16Z</time>
      </trkpt>
      <trkpt lat="43.58133" lon="0.25717">
        <ele>152.3</ele>
        <time>2018-06-02T07:17:18Z</time>
      </trkpt>
      <trkpt lat="43.5813" lon="0.25713">
        <ele>152.3</ele>
        <time>2018-06-02T07:17:21Z</time>
      </trkpt>
      <trkpt lat="43.58129" lon="0.2571">
        <ele>152.3</ele>
        <time>2018-06-02T07:17:23Z</time>
      </trkpt>
      <trkpt lat="43.58128" lon="0.25707">
        <ele>152.3</ele>
        <time>2018-06-02T07:17:25Z</time>
      </trkpt>
      <trkpt lat="43.58127" lon="0.25706">
        <ele>152.3</ele>
        <time>2018-06-02T07:17:26Z</time>
      </trkpt>
      <trkpt lat="43.58126" lon="0.25703">
        <ele>152.3</ele>
        <time>2018-06-02T07:17:28Z</time>
      </trkpt>
      <trkpt lat="43.58124" lon="0.25699">
        <ele>152.4</ele>
        <time>2018-06-02T07:17:31Z</time>
      </trkpt>
      <trkpt lat="43.58122" lon="0.25696">
        <ele>152.4</ele>
        <time>2018-06-02T07:17:33Z</time>
      </trkpt>
      <trkpt lat="43.5812" lon="0.25692">
        <ele>152.4</ele>
        <time>2018-06-02T07:17:36Z</time>
      </trkpt>
      <trkpt lat="43.5812" lon="0.25691">
        <ele>152.4</ele>
        <time>2018-06-02T07:17:37Z</time>
      </trkpt>
      <trkpt lat="43.58118" lon="0.25689">
        <ele>152.4</ele>
        <time>2018-06-02T07:17:39Z</time>
      </trkpt>
      <trkpt lat="43.58116" lon="0.25687">
        <ele>152.4</ele>
        <time>2018-06-02T07:17:41Z</time>
      </trkpt>
      <trkpt lat="43.58113" lon="0.25684">
        <ele>152.4</ele>
        <time>2018-06-02T07:17:44Z</time>
      </trkpt>
      <trkpt lat="43.58112" lon="0.25681">
        <ele>152.4</ele>
        <time>2018-06-02T07:17:46Z</time>
      </trkpt>
      <trkpt lat="43.58109" lon="0.25678">
        <ele>152.4</ele>
        <time>2018-06-02T07:17:49Z</time>
      </trkpt>
      <trkpt lat="43.58107" lon="0.25676">
        <ele>152.5</ele>
        <time>2018-06-02T07:17:51Z</time>
      </trkpt>
      <trkpt lat="43.58103" lon="0.25672">
        <ele>152.5</ele>
        <time>2018-06-02T07:17:54Z</time>
      </trkpt>
      <trkpt lat="43.58101" lon="0.25669">
        <ele>152.5</ele>
        <time>2018-06-02T07:17:56Z</time>
      </trkpt>
      <trkpt lat="43.58098" lon="0.25666">
        <ele>152.5</ele>
        <time>2018-06-02T07:17:59Z</time>
      </trkpt>
      <trkpt lat="43.58095" lon="0.25664">
        <ele>152.5</ele>
        <time>2018-06-02T07:18:02Z</time>
      </trkpt>
      <trkpt lat="43.58092" lon="0.25663">
        <ele>152.5</ele>
        <time>2018-06-02T07:18:04Z</time>
      </trkpt>
      <trkpt lat="43.58089" lon="0.25662">
        <ele>152.5</ele>
        <time>2018-06-02T07:18:07Z</time>
      </trkpt>
      <trkpt lat="43.58087" lon="0.25661">
        <ele>152.5</ele>
        <time>2018-06-02T07:18:09Z</time>
      </trkpt>
      <trkpt lat="43.58085" lon="0.2566">
        <ele>152.6</ele>
        <time>2018-06-02T07:18:11Z</time>
      </trkpt>
      <trkpt lat="43.58084" lon="0.2566">
        <ele>152.6</ele>
        <time>2018-06-02T07:18:12Z</time>
      </trkpt>
      <trkpt lat="43.58082" lon="0.25659">
        <ele>152.6</ele>
        <time>2018-06-02T07:18:14Z</time>
      </trkpt>
      <trkpt lat="43.58079" lon="0.25658">
        <ele>152.6</ele>
        <time>2018-06-02T07:18:17Z</time>
      </trkpt>
      <trkpt lat="43.58077" lon="0.25657">
        <ele>152.6</ele>
        <time>2018-06-02T07:18:19Z</time>
      </trkpt>
      <trkpt lat="43.58074" lon="0.25656">
        <ele>152.6</ele>
        <time>2018-06-02T07:18:22Z</time>
      </trkpt>
      <trkpt lat="43.58071" lon="0.25656">
        <ele>152.6</ele>
        <time>2018-06-02T07:18:25Z</time>
      </trkpt>
      <trkpt lat="43.58069" lon="0.25655">
        <ele>152.6</ele>
        <time>2018-06-02T07:18:27Z</time>
      </trkpt>
      <trkpt lat="43.58065" lon="0.25655">
        <ele>152.6</ele>
        <time>2018-06-02T07:18:30Z</time>
      </trkpt>
      <trkpt lat="43.58062" lon="0.25655">
        <ele>152.7</ele>
        <time>2018-06-02T07:18:32Z</time>
      </trkpt>
      <trkpt lat="43.58059" lon="0.25654">
        <ele>152.7</ele>
        <time>2018-06-02T07:18:35Z</time>
      </trkpt>
      <trkpt lat="43.58056" lon="0.25654">
        <ele>152.7</ele>
        <time>2018-06-02T07:18:37Z</time>
      </trkpt>
      <trkpt lat="43.58053" lon="0.25654">
        <ele>152.7</ele>
        <time>2018-06-02T07:18:40Z</time>
      </trkpt>
      <trkpt lat="43.5805" lon="0.25654">
        <ele>152.7</ele>
        <time>2018-06-02T07:18:42Z</time>
      </trkpt>
      <trkpt lat="43.58047" lon="0.25654">
        <ele>152.7</ele>
        <time>2018-06-02T07:18:45Z</time>
      </trkpt>
      <trkpt lat="43.58044" lon="0.25654">
        <ele>152.7</ele>
        <time>2018-06-02T07:18:48Z</time>
      </trkpt>
      <trkpt lat="43.58042" lon="0.25653">
        <ele>152.7</ele>
        <time>2018-06-02T07:18:49Z</time>
      </trkpt>
      <trkpt lat="43.58041" lon="0.25653">
        <ele>152.7</ele>
        <time>2018-06-02T07:18:50Z</time>
      </trkpt>
      <trkpt lat="43.58037" lon="0.25652">
        <ele>152.8</ele>
        <time>2018-06-02T07:18:53Z</time>
      </trkpt>
      <trkpt lat="43.58034" lon="0.25652">
        <ele>152.8</ele>
        <time>2018-06-02T07:18:55Z</time>
      </trkpt>
      <trkpt lat="43.5803" lon="0.25651">
        <ele>152.8</ele>
        <time>2018-06-02T07:18:58Z</time>
      </trkpt>
      <trkpt lat="43.58027" lon="0.2565">
        <ele>152.8</ele>
        <time>2018-06-02T07:19:00Z</time>
      </trkpt>
      <trkpt lat="43.58023" lon="0.25647">
        <ele>152.8</ele>
        <time>2018-06-02T07:19:03Z</time>
      </trkpt>
      <trkpt lat="43.58021" lon="0.25645">
        <ele>152.8</ele>
        <time>2018-06-02T07:19:05Z</time>
      </trkpt>
      <trkpt lat="43.58017" lon="0.25642">
        <ele>152.8</ele>
        <time>2018-06-02T07:19:08Z</time>
      </trkpt>
      <trkpt lat="43.58015" lon="0.25641">
        <ele>152.8</ele>
        <time>2018-06-02T07:19:09Z</time>
      </trkpt>
      <trkpt lat="43.58013" lon="0.2564">
        <ele>152.8</ele>
        <time>2018-06-02T07:19:11Z</time>
      </trkpt>
      <trkpt lat="43.5801" lon="0.25639">
        <ele>152.9</ele>
        <time>2018-06-02T07:19:13Z</time>
      </trkpt>
      <trkpt lat="43.58006" lon="0.25637">
        <ele>152.9</ele>
        <time>2018-06-02T07:19:16Z</time>
      </trkpt>
      <trkpt lat="43.58004" lon="0.25636">
        <ele>152.9</ele>
        <time>2018-06-02T07:19:18Z</time>
      </trkpt>
      <trkpt lat="43.58002" lon="0.25635">
        <ele>152.9</ele>
        <time>2018-06-02T07:19:19Z</time>
      </trkpt>
      <trkpt lat="43.58" lon="0.25632">
        <ele>152.9</ele>
        <time>2018-06-02T07:19:21Z</time>
      </trkpt>
      <trkpt lat="43.57998" lon="0.25629">
        <ele>152.9</ele>
        <time>2018-06-02T07:19:23Z</time>
      </trkpt>
      <trkpt lat="43.57995" lon="0.25624">
        <ele>152.9</ele>
        <time>2018-06-02T07:19:26Z</time>
      </trkpt>
      <trkpt lat="43.57992" lon="0.25621">
        <ele>152.9</ele>
        <time>2018-06-02T07:19:28Z</time>
      </trkpt>
      <trkpt lat="43.57989" lon="0.25617">
        <ele>152.9</ele>
        <time>2018-06-02T07:19:31Z</time>
      </trkpt>
      <trkpt lat="43.57986" lon="0.25612">
        <ele>153</ele>
        <time>2018-06-02T07:19:34Z</time>
      </trkpt>
      <trkpt lat="43.57984" lon="0.25609">
        <ele>153</ele>
        <time>2018-06-02T07:19:36Z</time>
      </trkpt>
      <trkpt lat="43.57983" lon="0.25607">
        <ele>153</ele>
        <time>2018-06-02T07:19:37Z</time>
      </trkpt>
      <trkpt lat="43.57982" lon="0.25602">
        <ele>153</ele>
        <time>2018-06-02T07:19:39Z</time>
      </trkpt>
      <trkpt lat="43.57982" lon="0.25601">
        <ele>153</ele>
        <time>2018-06-02T07:19:40Z</time>
      </trkpt>
      <trkpt lat="43.57981" lon="0.25601">
        <ele>153</ele>
        <time>2018-06-02T07:19:41Z</time>
      </trkpt>
      <trkpt lat="43.57978" lon="0.25602">
        <ele>153</ele>
        <time>2018-06-02T07:19:44Z</time>
      </trkpt>
      <trkpt lat="43.57976" lon="0.25603">
        <ele>153</ele>
        <time>2018-06-02T07:19:46Z</time>
      </trkpt>
      <trkpt lat="43.57973" lon="0.25604">
        <ele>153</ele>
        <time>2018-06-02T07:19:49Z</time>
      </trkpt>
      <trkpt lat="43.57971" lon="0.25606">
        <ele>153</ele>
        <time>2018-06-02T07:19:52Z</time>
      </trkpt>
      <trkpt lat="43.57969" lon="0.25606">
        <ele>153.1</ele>
        <time>2018-06-02T07:19:54Z</time>
      </trkpt>
      <trkpt lat="43.57965" lon="0.25605">
        <ele>153.1</ele>
        <time>2018-06-02T07:19:57Z</time>
      </trkpt>
      <trkpt lat="43.57963" lon="0.25604">
        <ele>153.1</ele>
        <time>2018-06-02T07:19:59Z</time>
      </trkpt>
      <trkpt lat="43.5796" lon="0.25603">
        <ele>153.1</ele>
        <time>2018-06-02T07:20:02Z</time>
      </trkpt>
      <trkpt lat="43.57958" lon="0.25602">
        <ele>153.1</ele>
        <time>2018-06-02T07:20:04Z</time>
      </trkpt>
      <trkpt lat="43.57954" lon="0.25601">
        <ele>153.1</ele>
        <time>2018-06-02T07:20:07Z</time>
      </trkpt>
      <trkpt lat="43.57952" lon="0.256">
        <ele>153.1</ele>
        <time>2018-06-02T07:20:09Z</time>
      </trkpt>
      <trkpt lat="43.57948" lon="0.25599">
        <ele>153.1</ele>
        <time>2018-06-02T07:20:12Z</time>
      </trkpt>
      <trkpt lat="43.57944" lon="0.25597">
        <ele>153.2</ele>
        <time>2018-06-02T07:20:15Z</time>
      </trkpt>
      <trkpt lat="43.57942" lon="0.25597">
        <ele>153.2</ele>
        <time>2018-06-02T07:20:17Z</time>
      </trkpt>
      <trkpt lat="43.57941" lon="0.25596">
        <ele>153.2</ele>
        <time>2018-06-02T07:20:18Z</time>
      </trkpt>
      <trkpt lat="43.57938" lon="0.25597">
        <ele>153.2</ele>
        <time>2018-06-02T07:20:20Z</time>
      </trkpt>
      <trkpt lat="43.57936" lon="0.25598">
        <ele>153.2</ele>
        <time>2018-06-02T07:20:22Z</time>
      </trkpt>
      <trkpt lat="43.57933" lon="0.25599">
        <ele>153.2</ele>
        <time>2018-06-02T07:20:25Z</time>
      </trkpt>
      <trkpt lat="43.57931" lon="0.25599">
        <ele>153.2</ele>
        <time>2018-06-02T07:20:27Z</time>
      </trkpt>
      <trkpt lat="43.57927" lon="0.256">
        <ele>153.2</ele>
        <time>2018-06-02T07:20:30Z</time>
      </trkpt>
      <trkpt lat="43.57926" lon="0.25601">
        <ele>153.2</ele>
        <time>2018-06-02T07:20:31Z</time>
      </trkpt>
      <trkpt lat="43.57925" lon="0.25601">
        <ele>153.2</ele>
        <time>2018-06-02T07:20:32Z</time>
      </trkpt>
      <trkpt lat="43.57922" lon="0.25602">
        <ele>153.3</ele>
        <time>2018-06-02T07:20:35Z</time>
      </trkpt>
      <trkpt lat="43.57918" lon="0.25603">
        <ele>153.3</ele>
        <time>2018-06-02T07:20:38Z</time>
      </trkpt>
      <trkpt lat="43.57916" lon="0.25603">
        <ele>153.3</ele>
        <time>2018-06-02T07:20:40Z</time>
      </trkpt>
      <trkpt lat="43.57914" lon="0.25604">
        <ele>153.3</ele>
        <time>2018-06-02T07:20:42Z</time>
      </trkpt>
      <trkpt lat="43.57913" lon="0.25605">
        <ele>153.3</ele>
        <time>2018-06-02T07:20:43Z</time>
      </trkpt>
      <trkpt lat="43.57912" lon="0.25607">
        <ele>153.3</ele>
        <time>2018-06-02T07:20:45Z</time>
      </trkpt>
      <trkpt lat="43.57909" lon="0.25609">
        <ele>153.3</ele>
        <time>2018-06-02T07:20:48Z</time>
      </trkpt>
      <trkpt lat="43.57908" lon="0.25611">
        <ele>153.3</ele>
        <time>2018-06-02T07:20:50Z</time>
      </trkpt>
      <trkpt lat="43.57906" lon="0.25614">
        <ele>153.3</ele>
        <time>2018-06-02T07:20:53Z</time>
      </trkpt>
      <trkpt lat="43.57905" lon="0.25615">
        <ele>153.4</ele>
        <time>2018-06-02T07:20:55Z</time>
      </trkpt>
      <trkpt lat="43.57902" lon="0.25617">
        <ele>153.4</ele>
        <time>2018-06-02T07:20:58Z</time>
      </trkpt>
      <trkpt lat="43.57899" lon="0.25618">
        <ele>153.4</ele>
        <time>2018-06-02T07:21:01Z</time>
      </trkpt>
      <trkpt lat="43.57896" lon="0.25618">
        <ele>153.4</ele>
        <time>2018-06-02T07:21:03Z</time>
      </trkpt>
      <trkpt lat="43.57893" lon="0.25618">
        <ele>153.4</ele>
        <time>2018-06-02T07:21:06Z</time>
      </trkpt>
      <trkpt lat="43.5789" lon="0.25618">
        <ele>153.4</ele>
        <time>2018-06-02T07:21:08Z</time>
      </trkpt>
      <trkpt lat="43.57889" lon="0.25618">
        <ele>153.4</ele>
        <time>2018-06-02T07:21:09Z</time>
      </trkpt>
      <trkpt lat="43.57889" lon="0.25615">
        <ele>153.4</ele>
        <time>2018-06-02T07:21:11Z</time>
      </trkpt>
      <trkpt lat="43.57889" lon="0.25613">
        <ele>153.4</ele>
        <time>2018-06-02T07:21:13Z</time>
      </trkpt>
      <trkpt lat="43.57889" lon="0.25609">
        <ele>153.5</ele>
        <time>2018-06-02T07:21:16Z</time>
      </trkpt>
      <trkpt lat="43.57889" lon="0.25607">
        <ele>153.5</ele>
        <time>2018-06-02T07:21:18Z</time>
      </trkpt>
      <trkpt lat="43.57889" lon="0.25603">
        <ele>153.5</ele>
        <time>2018-06-02T07:21:21Z</time>
      </trkpt>
      <trkpt lat="43.5789" lon="0.25599">
        <ele>153.5</ele>
        <time>2018-06-02T07:21:24Z</time>
      </trkpt>
      <trkpt lat="43.5789" lon="0.25595">
        <ele>153.5</ele>
        <time>2018-06-02T07:21:26Z</time>
      </trkpt>
      <trkpt lat="43.57891" lon="0.2559">
        <ele>153.5</ele>
        <time>2018-06-02T07:21:29Z</time>
      </trkpt>
      <trkpt lat="43.57892" lon="0.25586">
        <ele>153.5</ele>
        <time>2018-06-02T07:21:31Z</time>
      </trkpt>
      <trkpt lat="43.57893" lon="0.25581">
        <ele>153.5</ele>
        <time>2018-06-02T07:21:34Z</time>
      </trkpt>
      <trkpt lat="43.57893" lon="0.25577">
        <ele>153.6</ele>
        <time>2018-06-02T07:21:36Z</time>
      </trkpt>
      <trkpt lat="43.57893" lon="0.25572">
        <ele>153.6</ele>
        <time>2018-06-02T07:21:39Z</time>
      </trkpt>
      <trkpt lat="43.57894" lon="0.25569">
        <ele>153.6</ele>
        <time>2018-06-02T07:21:41Z</time>
      </trkpt>
      <trkpt lat="43.57894" lon="0.25564">
        <ele>153.6</ele>
        <time>2018-06-02T07:21:44Z</time>
      </trkpt>
      <trkpt lat="43.57894" lon="0.25562">
        <ele>153.6</ele>
        <time>2018-06-02T07:21:45Z</time>
      </trkpt>
      <trkpt lat="43.57895" lon="0.2556">
        <ele>153.6</ele>
        <time>2018-06-02T07:21:47Z</time>
      </trkpt>
      <trkpt lat="43.57895" lon="0.25557">
        <ele>153.6</ele>
        <time>2018-06-02T07:21:49Z</time>
      </trkpt>
      <trkpt lat="43.57895" lon="0.25554">
        <ele>153.6</ele>
        <time>2018-06-02T07:21:52Z</time>
      </trkpt>
      <trkpt lat="43.57892" lon="0.25553">
        <ele>153.6</ele>
        <time>2018-06-02T07:21:54Z</time>
      </trkpt>
      <trkpt lat="43.57888" lon="0.25552">
        <ele>153.7</ele>
        <time>2018-06-02T07:21:57Z</time>
      </trkpt>
      <trkpt lat="43.57886" lon="0.25552">
        <ele>153.7</ele>
        <time>2018-06-02T07:21:59Z</time>
      </trkpt>
      <trkpt lat="43.57882" lon="0.25551">
        <ele>153.7</ele>
        <time>2018-06-02T07:22:02Z</time>
      </trkpt>
      <trkpt lat="43.5788" lon="0.2555">
        <ele>153.7</ele>
        <time>2018-06-02T07:22:03Z</time>
      </trkpt>
      <trkpt lat="43.57879" lon="0.25549">
        <ele>153.7</ele>
        <time>2018-06-02T07:22:04Z</time>
      </trkpt>
      <trkpt lat="43.57874" lon="0.25545">
        <ele>153.7</ele>
        <time>2018-06-02T07:22:07Z</time>
      </trkpt>
      <trkpt lat="43.5787" lon="0.25541">
        <ele>153.7</ele>
        <time>2018-06-02T07:22:10Z</time>
      </trkpt>
      <trkpt lat="43.57868" lon="0.2554">
        <ele>153.7</ele>
        <time>2018-06-02T07:22:11Z</time>
      </trkpt>
      <trkpt lat="43.57867" lon="0.2554">
        <ele>153.7</ele>
        <time>2018-06-02T07:22:12Z</time>
      </trkpt>
      <trkpt lat="43.57863" lon="0.25539">
        <ele>153.7</ele>
        <time>2018-06-02T07:22:15Z</time>
      </trkpt>
      <trkpt lat="43.57861" lon="0.25539">
        <ele>153.8</ele>
        <time>2018-06-02T07:22:17Z</time>
      </trkpt>
      <trkpt lat="43.57857" lon="0.25539">
        <ele>153.8</ele>
        <time>2018-06-02T07:22:20Z</time>
      </trkpt>
      <trkpt lat="43.57855" lon="0.25538">
        <ele>153.8</ele>
        <time>2018-06-02T07:22:22Z</time>
      </trkpt>
      <trkpt lat="43.57853" lon="0.25538">
        <ele>153.8</ele>
        <time>2018-06-02T07:22:23Z</time>
      </trkpt>
      <trkpt lat="43.57851" lon="0.25537">
        <ele>153.8</ele>
        <time>2018-06-02T07:22:25Z</time>
      </trkpt>
      <trkpt lat="43.57848" lon="0.25536">
        <ele>153.8</ele>
        <time>2018-06-02T07:22:27Z</time>
      </trkpt>
      <trkpt lat="43.57844" lon="0.25535">
        <ele>153.8</ele>
        <time>2018-06-02T07:22:30Z</time>
      </trkpt>
      <trkpt lat="43.5784" lon="0.25534">
        <ele>153.8</ele>
        <time>2018-06-02T07:22:33Z</time>
      </trkpt>
      <trkpt lat="43.57839" lon="0.25533">
        <ele>153.8</ele>
        <time>2018-06-02T07:22:35Z</time>
      </trkpt>
      <trkpt lat="43.57837" lon="0.25531">
        <ele>153.9</ele>
        <time>2018-06-02T07:22:38Z</time>
      </trkpt>
      <trkpt lat="43.57837" lon="0.2553">
        <ele>153.9</ele>
        <time>2018-06-02T07:22:40Z</time>
      </trkpt>
      <trkpt lat="43.57835" lon="0.25528">
        <ele>153.9</ele>
        <time>2018-06-02T07:22:43Z</time>
      </trkpt>
      <trkpt lat="43.57834" lon="0.25527">
        <ele>153.9</ele>
        <time>2018-06-02T07:22:45Z</time>
      </trkpt>
      <trkpt lat="43.57833" lon="0.25525">
        <ele>153.9</ele>
        <time>2018-06-02T07:22:48Z</time>
      </trkpt>
      <trkpt lat="43.57832" lon="0.25524">
        <ele>153.9</ele>
        <time>2018-06-02T07:22:50Z</time>
      </trkpt>
      <trkpt lat="43.57831" lon="0.25522">
        <ele>153.9</ele>
        <time>2018-06-02T07:22:53Z</time>
      </trkpt>
      <trkpt lat="43.5783" lon="0.25521">
        <ele>153.9</ele>
        <time>2018-06-02T07:22:55Z</time>
      </trkpt>
      <trkpt lat="43.57828" lon="0.2552">
        <ele>153.9</ele>
        <time>2018-06-02T07:22:56Z</time>
      </trkpt>
      <trkpt lat="43.57825" lon="0.25519">
        <ele>154</ele>
        <time>2018-06-02T07:22:58Z</time>
      </trkpt>
      <trkpt lat="43.57821" lon="0.25517">
        <ele>154</ele>
        <time>2018-06-02T07:23:01Z</time>
      </trkpt>
      <trkpt lat="43.57818" lon="0.25516">
        <ele>154</ele>
        <time>2018-06-02T07:23:03Z</time>
      </trkpt>
      <trkpt lat="43.57817" lon="0.25515">
        <ele>154</ele>
        <time>2018-06-02T07:23:04Z</time>
      </trkpt>
      <trkpt lat="43.57815" lon="0.25514">
        <ele>154</ele>
        <time>2018-06-02T07:23:06Z</time>
      </trkpt>
      <trkpt lat="43.57812" lon="0.25513">
        <ele>154</ele>
        <time>2018-06-02T07:23:08Z</time>
      </trkpt>
      <trkpt lat="43.57809" lon="0.25511">
        <ele>154</ele>
        <time>2018-06-02T07:23:11Z</time>
      </trkpt>
      <trkpt lat="43.57807" lon="0.2551">
        <ele>154</ele>
        <time>2018-06-02T07:23:13Z</time>
      </trkpt>
      <trkpt lat="43.57804" lon="0.25508">
        <ele>154</ele>
        <time>2018-06-02T07:23:16Z</time>
      </trkpt>
      <trkpt lat="43.57803" lon="0.25508">
        <ele>154</ele>
        <time>2018-06-02T07:23:17Z</time>
      </trkpt>
      <trkpt lat="43.578" lon="0.25507">
        <ele>154.1</ele>
        <time>2018-06-02T07:23:19Z</time>
      </trkpt>
      <trkpt lat="43.57798" lon="0.25506">
        <ele>154.1</ele>
        <time>2018-06-02T07:23:21Z</time>
      </trkpt>
      <trkpt lat="43.57794" lon="0.25504">
        <ele>154.1</ele>
        <time>2018-06-02T07:23:24Z</time>
      </trkpt>
      <trkpt lat="43.57791" lon="0.25503">
        <ele>154.1</ele>
        <time>2018-06-02T07:23:26Z</time>
      </trkpt>
      <trkpt lat="43.5779" lon="0.25503">
        <ele>154.1</ele>
        <time>2018-06-02T07:23:27Z</time>
      </trkpt>
      <trkpt lat="43.57788" lon="0.25502">
        <ele>154.1</ele>
        <time>2018-06-02T07:23:29Z</time>
      </trkpt>
      <trkpt lat="43.57787" lon="0.25501">
        <ele>154.1</ele>
        <time>2018-06-02T07:23:31Z</time>
      </trkpt>
      <trkpt lat="43.57784" lon="0.255">
        <ele>154.1</ele>
        <time>2018-06-02T07:23:34Z</time>
      </trkpt>
      <trkpt lat="43.57783" lon="0.25499">
        <ele>154.1</ele>
        <time>2018-06-02T07:23:36Z</time>
      </trkpt>
      <trkpt lat="43.5778" lon="0.25497">
        <ele>154.2</ele>
        <time>2018-06-02T07:23:39Z</time>
      </trkpt>
      <trkpt lat="43.57778" lon="0.25496">
        <ele>154.2</ele>
        <time>2018-06-02T07:23:42Z</time>
      </trkpt>
      <trkpt lat="43.57777" lon="0.25496">
        <ele>154.2</ele>
        <time>2018-06-02T07:23:43Z</time>
      </trkpt>
      <trkpt lat="43.57776" lon="0.25495">
        <ele>154.2</ele>
        <time>2018-06-02T07:23:44Z</time>
      </trkpt>
      <trkpt lat="43.57773" lon="0.25494">
        <ele>154.2</ele>
        <time>2018-06-02T07:23:47Z</time>
      </trkpt>
      <trkpt lat="43.5777" lon="0.25493">
        <ele>154.2</ele>
        <time>2018-06-02T07:23:49Z</time>
      </trkpt>
      <trkpt lat="43.57767" lon="0.25491">
        <ele>154.2</ele>
        <time>2018-06-02T07:23:52Z</time>
      </trkpt>
      <trkpt lat="43.57765" lon="0.2549">
        <ele>154.2</ele>
        <time>2018-06-02T07:23:54Z</time>
      </trkpt>
      <trkpt lat="43.57763" lon="0.25489">
        <ele>154.2</ele>
        <time>2018-06-02T07:23:56Z</time>
      </trkpt>
      <trkpt lat="43.57762" lon="0.25488">
        <ele>154.2</ele>
        <time>2018-06-02T07:23:57Z</time>
      </trkpt>
      <trkpt lat="43.5776" lon="0.25487">
        <ele>154.3</ele>
        <time>2018-06-02T07:23:59Z</time>
      </trkpt>
      <trkpt lat="43.57757" lon="0.25485">
        <ele>154.3</ele>
        <time>2018-06-02T07:24:02Z</time>
      </trkpt>
      <trkpt lat="43.57754" lon="0.25483">
        <ele>154.3</ele>
        <time>2018-06-02T07:24:05Z</time>
      </trkpt>
      <trkpt lat="43.57752" lon="0.25481">
        <ele>154.3</ele>
        <time>2018-06-02T07:24:07Z</time>
      </trkpt>
      <trkpt lat="43.57751" lon="0.25481">
        <ele>154.3</ele>
        <time>2018-06-02T07:24:08Z</time>
      </trkpt>
      <trkpt lat="43.57749" lon="0.2548">
        <ele>154.3</ele>
        <time>2018-06-02T07:24:10Z</time>
      </trkpt>
      <trkpt lat="43.57746" lon="0.2548">
        <ele>154.3</ele>
        <time>2018-06-02T07:24:12Z</time>
      </trkpt>
      <trkpt lat="43.57743" lon="0.25479">
        <ele>154.3</ele>
        <time>2018-06-02T07:24:15Z</time>
      </trkpt>
      <trkpt lat="43.57741" lon="0.25478">
        <ele>154.3</ele>
        <time>2018-06-02T07:24:17Z</time>
      </trkpt>
      <trkpt lat="43.57737" lon="0.25477">
        <ele>154.4</ele>
        <time>2018-06-02T07:24:20Z</time>
      </trkpt>
      <trkpt lat="43.57735" lon="0.25476">
        <ele>154.4</ele>
        <time>2018-06-02T07:24:22Z</time>
      </trkpt>
      <trkpt lat="43.57733" lon="0.25475">
        <ele>154.4</ele>
        <time>2018-06-02T07:24:25Z</time>
      </trkpt>
      <trkpt lat="43.5773" lon="0.25473">
        <ele>154.4</ele>
        <time>2018-06-02T07:24:28Z</time>
      </trkpt>
      <trkpt lat="43.57728" lon="0.25472">
        <ele>154.4</ele>
        <time>2018-06-02T07:24:30Z</time>
      </trkpt>
      <trkpt lat="43.57725" lon="0.25471">
        <ele>154.4</ele>
        <time>2018-06-02T07:24:33Z</time>
      </trkpt>
      <trkpt lat="43.57724" lon="0.25471">
        <ele>154.4</ele>
        <time>2018-06-02T07:24:34Z</time>
      </trkpt>
      <trkpt lat="43.57723" lon="0.2547">
        <ele>154.4</ele>
        <time>2018-06-02T07:24:35Z</time>
      </trkpt>
      <trkpt lat="43.57719" lon="0.25468">
        <ele>154.4</ele>
        <time>2018-06-02T07:24:38Z</time>
      </trkpt>
      <trkpt lat="43.57717" lon="0.25467">
        <ele>154.5</ele>
        <time>2018-06-02T07:24:40Z</time>
      </trkpt>
      <trkpt lat="43.57714" lon="0.25466">
        <ele>154.5</ele>
        <time>2018-06-02T07:24:43Z</time>
      </trkpt>
      <trkpt lat="43.57711" lon="0.25464">
        <ele>154.5</ele>
        <time>2018-06-02T07:24:46Z</time>
      </trkpt>
      <trkpt lat="43.57706" lon="0.25464">
        <ele>154.5</ele>
        <time>2018-06-02T07:24:49Z</time>
      </trkpt>
      <trkpt lat="43.57702" lon="0.25464">
        <ele>154.5</ele>
        <time>2018-06-02T07:24:52Z</time>
      </trkpt>
      <trkpt lat="43.57698" lon="0.25463">
        <ele>154.5</ele>
        <time>2018-06-02T07:24:55Z</time>
      </trkpt>
      <trkpt lat="43.57697" lon="0.25463">
        <ele>154.5</ele>
        <time>2018-06-02T07:24:56Z</time>
      </trkpt>
      <trkpt lat="43.57694" lon="0.25463">
        <ele>154.5</ele>
        <time>2018-06-02T07:24:58Z</time>
      </trkpt>
      <trkpt lat="43.57691" lon="0.25463">
        <ele>154.6</ele>
        <time>2018-06-02T07:25:01Z</time>
      </trkpt>
      <trkpt lat="43.57687" lon="0.25463">
        <ele>154.6</ele>
        <time>2018-06-02T07:25:05Z</time>
      </trkpt>
      <trkpt lat="43.57686" lon="0.25463">
        <ele>154.6</ele>
        <time>2018-06-02T07:25:06Z</time>
      </trkpt>
      <trkpt lat="43.57683" lon="0.25463">
        <ele>154.6</ele>
        <time>2018-06-02T07:25:09Z</time>
      </trkpt>
      <trkpt lat="43.5768" lon="0.25464">
        <ele>154.6</ele>
        <time>2018-06-02T07:25:11Z</time>
      </trkpt>
      <trkpt lat="43.57677" lon="0.25466">
        <ele>154.6</ele>
        <time>2018-06-02T07:25:14Z</time>
      </trkpt>
      <trkpt lat="43.57675" lon="0.25466">
        <ele>154.6</ele>
        <time>2018-06-02T07:25:16Z</time>
      </trkpt>
      <trkpt lat="43.57671" lon="0.25468">
        <ele>154.6</ele>
        <time>2018-06-02T07:25:19Z</time>
      </trkpt>
      <trkpt lat="43.57669" lon="0.25469">
        <ele>154.7</ele>
        <time>2018-06-02T07:25:21Z</time>
      </trkpt>
      <trkpt lat="43.57665" lon="0.25471">
        <ele>154.7</ele>
        <time>2018-06-02T07:25:24Z</time>
      </trkpt>
      <trkpt lat="43.57661" lon="0.25473">
        <ele>154.7</ele>
        <time>2018-06-02T07:25:26Z</time>
      </trkpt>
      <trkpt lat="43.57657" lon="0.25475">
        <ele>154.7</ele>
        <time>2018-06-02T07:25:29Z</time>
      </trkpt>
      <trkpt lat="43.57652" lon="0.25478">
        <ele>154.7</ele>
        <time>2018-06-02T07:25:32Z</time>
      </trkpt>
      <trkpt lat="43.57651" lon="0.25478">
        <ele>154.7</ele>
        <time>2018-06-02T07:25:34Z</time>
      </trkpt>
      <trkpt lat="43.57648" lon="0.25477">
        <ele>154.7</ele>
        <time>2018-06-02T07:25:37Z</time>
      </trkpt>
      <trkpt lat="43.57647" lon="0.25477">
        <ele>154.7</ele>
        <time>2018-06-02T07:25:39Z</time>
      </trkpt>
      <trkpt lat="43.57644" lon="0.25477">
        <ele>154.8</ele>
        <time>2018-06-02T07:25:42Z</time>
      </trkpt>
      <trkpt lat="43.57643" lon="0.25477">
        <ele>154.8</ele>
        <time>2018-06-02T07:25:44Z</time>
      </trkpt>
      <trkpt lat="43.5764" lon="0.25477">
        <ele>154.8</ele>
        <time>2018-06-02T07:25:47Z</time>
      </trkpt>
      <trkpt lat="43.57639" lon="0.25477">
        <ele>154.8</ele>
        <time>2018-06-02T07:25:49Z</time>
      </trkpt>
      <trkpt lat="43.57635" lon="0.25478">
        <ele>154.8</ele>
        <time>2018-06-02T07:25:52Z</time>
      </trkpt>
      <trkpt lat="43.57632" lon="0.25478">
        <ele>154.8</ele>
        <time>2018-06-02T07:25:55Z</time>
      </trkpt>
      <trkpt lat="43.5763" lon="0.25478">
        <ele>154.8</ele>
        <time>2018-06-02T07:25:57Z</time>
      </trkpt>
      <trkpt lat="43.57626" lon="0.25479">
        <ele>154.8</ele>
        <time>2018-06-02T07:26:00Z</time>
      </trkpt>
      <trkpt lat="43.57625" lon="0.25479">
        <ele>154.8</ele>
        <time>2018-06-02T07:26:01Z</time>
      </trkpt>
      <trkpt lat="43.57624" lon="0.2548">
        <ele>154.9</ele>
        <time>2018-06-02T07:26:02Z</time>
      </trkpt>
      <trkpt lat="43.5762" lon="0.25481">
        <ele>154.9</ele>
        <time>2018-06-02T07:26:05Z</time>
      </trkpt>
      <trkpt lat="43.57619" lon="0.25481">
        <ele>154.9</ele>
        <time>2018-06-02T07:26:06Z</time>
      </trkpt>
      <trkpt lat="43.57618" lon="0.25482">
        <ele>154.9</ele>
        <time>2018-06-02T07:26:07Z</time>
      </trkpt>
      <trkpt lat="43.57615" lon="0.25483">
        <ele>154.9</ele>
        <time>2018-06-02T07:26:10Z</time>
      </trkpt>
      <trkpt lat="43.57612" lon="0.25484">
        <ele>154.9</ele>
        <time>2018-06-02T07:26:12Z</time>
      </trkpt>
      <trkpt lat="43.57611" lon="0.25485">
        <ele>154.9</ele>
        <time>2018-06-02T07:26:13Z</time>
      </trkpt>
      <trkpt lat="43.57609" lon="0.25486">
        <ele>154.9</ele>
        <time>2018-06-02T07:26:15Z</time>
      </trkpt>
      <trkpt lat="43.57605" lon="0.25488">
        <ele>155</ele>
        <time>2018-06-02T07:26:18Z</time>
      </trkpt>
      <trkpt lat="43.57603" lon="0.25489">
        <ele>155</ele>
        <time>2018-06-02T07:26:20Z</time>
      </trkpt>
      <trkpt lat="43.576" lon="0.25491">
        <ele>155</ele>
        <time>2018-06-02T07:26:23Z</time>
      </trkpt>
      <trkpt lat="43.57597" lon="0.25492">
        <ele>155</ele>
        <time>2018-06-02T07:26:25Z</time>
      </trkpt>
      <trkpt lat="43.57594" lon="0.25494">
        <ele>155.1</ele>
        <time>2018-06-02T07:26:28Z</time>
      </trkpt>
      <trkpt lat="43.57592" lon="0.25495">
        <ele>155.1</ele>
        <time>2018-06-02T07:26:30Z</time>
      </trkpt>
      <trkpt lat="43.57589" lon="0.25498">
        <ele>155.1</ele>
        <time>2018-06-02T07:26:33Z</time>
      </trkpt>
      <trkpt lat="43.57587" lon="0.25499">
        <ele>155.1</ele>
        <time>2018-06-02T07:26:35Z</time>
      </trkpt>
      <trkpt lat="43.57585" lon="0.25501">
        <ele>155.1</ele>
        <time>2018-06-02T07:26:37Z</time>
      </trkpt>
      <trkpt lat="43.57584" lon="0.25502">
        <ele>155.1</ele>
        <time>2018-06-02T07:26:38Z</time>
      </trkpt>
      <trkpt lat="43.57582" lon="0.25504">
        <ele>155.2</ele>
        <time>2018-06-02T07:26:41Z</time>
      </trkpt>
      <trkpt lat="43.5758" lon="0.25506">
        <ele>155.2</ele>
        <time>2018-06-02T07:26:43Z</time>
      </trkpt>
      <trkpt lat="43.57577" lon="0.25509">
        <ele>155.2</ele>
        <time>2018-06-02T07:26:46Z</time>
      </trkpt>
      <trkpt lat="43.57575" lon="0.25511">
        <ele>155.2</ele>
        <time>2018-06-02T07:26:48Z</time>
      </trkpt>
      <trkpt lat="43.57574" lon="0.25512">
        <ele>155.2</ele>
        <time>2018-06-02T07:26:50Z</time>
      </trkpt>
      <trkpt lat="43.57573" lon="0.25513">
        <ele>155.3</ele>
        <time>2018-06-02T07:26:51Z</time>
      </trkpt>
      <trkpt lat="43.57571" lon="0.25514">
        <ele>155.3</ele>
        <time>2018-06-02T07:26:53Z</time>
      </trkpt>
      <trkpt lat="43.57568" lon="0.25515">
        <ele>155.3</ele>
        <time>2018-06-02T07:26:56Z</time>
      </trkpt>
      <trkpt lat="43.57566" lon="0.25516">
        <ele>155.3</ele>
        <time>2018-06-02T07:26:58Z</time>
      </trkpt>
      <trkpt lat="43.57563" lon="0.25517">
        <ele>155.3</ele>
        <time>2018-06-02T07:27:01Z</time>
      </trkpt>
      <trkpt lat="43.5756" lon="0.25519">
        <ele>155.4</ele>
        <time>2018-06-02T07:27:04Z</time>
      </trkpt>
      <trkpt lat="43.57559" lon="0.2552">
        <ele>155.4</ele>
        <time>2018-06-02T07:27:06Z</time>
      </trkpt>
      <trkpt lat="43.57556" lon="0.25521">
        <ele>155.4</ele>
        <time>2018-06-02T07:27:09Z</time>
      </trkpt>
      <trkpt lat="43.57555" lon="0.25523">
        <ele>155.4</ele>
        <time>2018-06-02T07:27:11Z</time>
      </trkpt>
      <trkpt lat="43.57552" lon="0.25524">
        <ele>155.4</ele>
        <time>2018-06-02T07:27:14Z</time>
      </trkpt>
      <trkpt lat="43.57551" lon="0.25525">
        <ele>155.5</ele>
        <time>2018-06-02T07:27:16Z</time>
      </trkpt>
      <trkpt lat="43.57549" lon="0.25527">
        <ele>155.5</ele>
        <time>2018-06-02T07:27:19Z</time>
      </trkpt>
      <trkpt lat="43.57548" lon="0.25528">
        <ele>155.5</ele>
        <time>2018-06-02T07:27:20Z</time>
      </trkpt>
      <trkpt lat="43.57547" lon="0.25528">
        <ele>155.5</ele>
        <time>2018-06-02T07:27:21Z</time>
      </trkpt>
      <trkpt lat="43.57546" lon="0.25528">
        <ele>155.5</ele>
        <time>2018-06-02T07:27:24Z</time>
      </trkpt>
      <trkpt lat="43.57545" lon="0.25529">
        <ele>155.6</ele>
        <time>2018-06-02T07:27:27Z</time>
      </trkpt>
      <trkpt lat="43.57536" lon="0.25537">
        <ele>155.7</ele>
        <time>2018-06-02T07:27:31Z</time>
      </trkpt>
      <trkpt lat="43.57536" lon="0.25537">
        <ele>155.7</ele>
        <time>2018-06-02T07:28:05Z</time>
      </trkpt>
      <trkpt lat="43.57527" lon="0.25546">
        <ele>155.9</ele>
        <time>2018-06-02T07:28:05Z</time>
      </trkpt>
      <trkpt lat="43.57526" lon="0.25547">
        <ele>155.9</ele>
        <time>2018-06-02T07:28:07Z</time>
      </trkpt>
      <trkpt lat="43.57526" lon="0.25548">
        <ele>155.9</ele>
        <time>2018-06-02T07:28:08Z</time>
      </trkpt>
      <trkpt lat="43.57523" lon="0.25548">
        <ele>155.9</ele>
        <time>2018-06-02T07:28:10Z</time>
      </trkpt>
      <trkpt lat="43.57518" lon="0.25548">
        <ele>155.9</ele>
        <time>2018-06-02T07:28:13Z</time>
      </trkpt>
      <trkpt lat="43.57515" lon="0.25549">
        <ele>156</ele>
        <time>2018-06-02T07:28:15Z</time>
      </trkpt>
      <trkpt lat="43.57512" lon="0.25549">
        <ele>156</ele>
        <time>2018-06-02T07:28:17Z</time>
      </trkpt>
      <trkpt lat="43.57512" lon="0.25547">
        <ele>156</ele>
        <time>2018-06-02T07:28:18Z</time>
      </trkpt>
      <trkpt lat="43.57511" lon="0.25544">
        <ele>156</ele>
        <time>2018-06-02T07:28:20Z</time>
      </trkpt>
      <trkpt lat="43.57509" lon="0.2554">
        <ele>156</ele>
        <time>2018-06-02T07:28:23Z</time>
      </trkpt>
      <trkpt lat="43.57509" lon="0.25537">
        <ele>156</ele>
        <time>2018-06-02T07:28:25Z</time>
      </trkpt>
      <trkpt lat="43.57507" lon="0.25532">
        <ele>156.1</ele>
        <time>2018-06-02T07:28:28Z</time>
      </trkpt>
      <trkpt lat="43.57507" lon="0.25531">
        <ele>156.1</ele>
        <time>2018-06-02T07:28:29Z</time>
      </trkpt>
      <trkpt lat="43.57507" lon="0.25529">
        <ele>156.1</ele>
        <time>2018-06-02T07:28:30Z</time>
      </trkpt>
      <trkpt lat="43.57507" lon="0.25524">
        <ele>156.1</ele>
        <time>2018-06-02T07:28:33Z</time>
      </trkpt>
      <trkpt lat="43.57508" lon="0.2552">
        <ele>156.1</ele>
        <time>2018-06-02T07:28:36Z</time>
      </trkpt>
      <trkpt lat="43.57508" lon="0.25516">
        <ele>156.2</ele>
        <time>2018-06-02T07:28:38Z</time>
      </trkpt>
      <trkpt lat="43.57508" lon="0.25512">
        <ele>156.2</ele>
        <time>2018-06-02T07:28:41Z</time>
      </trkpt>
      <trkpt lat="43.57509" lon="0.25509">
        <ele>156.2</ele>
        <time>2018-06-02T07:28:43Z</time>
      </trkpt>
      <trkpt lat="43.57511" lon="0.25504">
        <ele>156.2</ele>
        <time>2018-06-02T07:28:46Z</time>
      </trkpt>
      <trkpt lat="43.57512" lon="0.25501">
        <ele>156.2</ele>
        <time>2018-06-02T07:28:48Z</time>
      </trkpt>
      <trkpt lat="43.57514" lon="0.25497">
        <ele>156.3</ele>
        <time>2018-06-02T07:28:51Z</time>
      </trkpt>
      <trkpt lat="43.57515" lon="0.25494">
        <ele>156.3</ele>
        <time>2018-06-02T07:28:53Z</time>
      </trkpt>
      <trkpt lat="43.57518" lon="0.25491">
        <ele>156.3</ele>
        <time>2018-06-02T07:28:56Z</time>
      </trkpt>
      <trkpt lat="43.5752" lon="0.25487">
        <ele>156.3</ele>
        <time>2018-06-02T07:28:59Z</time>
      </trkpt>
      <trkpt lat="43.57522" lon="0.25485">
        <ele>156.3</ele>
        <time>2018-06-02T07:29:01Z</time>
      </trkpt>
      <trkpt lat="43.57524" lon="0.25482">
        <ele>156.4</ele>
        <time>2018-06-02T07:29:04Z</time>
      </trkpt>
      <trkpt lat="43.57525" lon="0.25481">
        <ele>156.4</ele>
        <time>2018-06-02T07:29:05Z</time>
      </trkpt>
      <trkpt lat="43.57526" lon="0.25481">
        <ele>156.4</ele>
        <time>2018-06-02T07:29:06Z</time>
      </trkpt>
      <trkpt lat="43.5753" lon="0.2548">
        <ele>156.4</ele>
        <time>2018-06-02T07:29:09Z</time>
      </trkpt>
      <trkpt lat="43.57533" lon="0.25479">
        <ele>156.4</ele>
        <time>2018-06-02T07:29:11Z</time>
      </trkpt>
      <trkpt lat="43.57536" lon="0.25479">
        <ele>156.5</ele>
        <time>2018-06-02T07:29:14Z</time>
      </trkpt>
      <trkpt lat="43.57539" lon="0.25478">
        <ele>156.5</ele>
        <time>2018-06-02T07:29:16Z</time>
      </trkpt>
      <trkpt lat="43.57543" lon="0.25478">
        <ele>156.5</ele>
        <time>2018-06-02T07:29:19Z</time>
      </trkpt>
      <trkpt lat="43.57548" lon="0.25478">
        <ele>156.5</ele>
        <time>2018-06-02T07:29:22Z</time>
      </trkpt>
      <trkpt lat="43.57551" lon="0.25478">
        <ele>156.5</ele>
        <time>2018-06-02T07:29:24Z</time>
      </trkpt>
      <trkpt lat="43.57554" lon="0.25478">
        <ele>156.6</ele>
        <time>2018-06-02T07:29:26Z</time>
      </trkpt>
      <trkpt lat="43.57555" lon="0.25478">
        <ele>156.6</ele>
        <time>2018-06-02T07:29:27Z</time>
      </trkpt>
      <trkpt lat="43.57557" lon="0.25478">
        <ele>156.6</ele>
        <time>2018-06-02T07:29:29Z</time>
      </trkpt>
      <trkpt lat="43.57561" lon="0.25477">
        <ele>156.6</ele>
        <time>2018-06-02T07:29:32Z</time>
      </trkpt>
      <trkpt lat="43.57563" lon="0.25477">
        <ele>156.6</ele>
        <time>2018-06-02T07:29:34Z</time>
      </trkpt>
      <trkpt lat="43.57567" lon="0.25477">
        <ele>156.6</ele>
        <time>2018-06-02T07:29:37Z</time>
      </trkpt>
      <trkpt lat="43.57568" lon="0.25477">
        <ele>156.7</ele>
        <time>2018-06-02T07:29:38Z</time>
      </trkpt>
      <trkpt lat="43.57569" lon="0.25476">
        <ele>156.7</ele>
        <time>2018-06-02T07:29:39Z</time>
      </trkpt>
      <trkpt lat="43.57573" lon="0.25475">
        <ele>156.7</ele>
        <time>2018-06-02T07:29:42Z</time>
      </trkpt>
      <trkpt lat="43.57576" lon="0.25474">
        <ele>156.7</ele>
        <time>2018-06-02T07:29:45Z</time>
      </trkpt>
      <trkpt lat="43.57578" lon="0.25473">
        <ele>156.7</ele>
        <time>2018-06-02T07:29:47Z</time>
      </trkpt>
      <trkpt lat="43.57582" lon="0.25472">
        <ele>156.8</ele>
        <time>2018-06-02T07:29:50Z</time>
      </trkpt>
      <trkpt lat="43.57584" lon="0.25471">
        <ele>156.8</ele>
        <time>2018-06-02T07:29:52Z</time>
      </trkpt>
      <trkpt lat="43.57588" lon="0.2547">
        <ele>156.8</ele>
        <time>2018-06-02T07:29:55Z</time>
      </trkpt>
      <trkpt lat="43.5759" lon="0.25469">
        <ele>156.8</ele>
        <time>2018-06-02T07:29:57Z</time>
      </trkpt>
      <trkpt lat="43.57594" lon="0.25468">
        <ele>156.8</ele>
        <time>2018-06-02T07:30:00Z</time>
      </trkpt>
      <trkpt lat="43.57595" lon="0.25467">
        <ele>156.9</ele>
        <time>2018-06-02T07:30:01Z</time>
      </trkpt>
      <trkpt lat="43.57597" lon="0.25466">
        <ele>156.9</ele>
        <time>2018-06-02T07:30:03Z</time>
      </trkpt>
      <trkpt lat="43.576" lon="0.25466">
        <ele>156.9</ele>
        <time>2018-06-02T07:30:05Z</time>
      </trkpt>
      <trkpt lat="43.57603" lon="0.25465">
        <ele>156.9</ele>
        <time>2018-06-02T07:30:08Z</time>
      </trkpt>
      <trkpt lat="43.57606" lon="0.25464">
        <ele>156.9</ele>
        <time>2018-06-02T07:30:10Z</time>
      </trkpt>
      <trkpt lat="43.57609" lon="0.25463">
        <ele>157</ele>
        <time>2018-06-02T07:30:13Z</time>
      </trkpt>
      <trkpt lat="43.57611" lon="0.25462">
        <ele>157</ele>
        <time>2018-06-02T07:30:15Z</time>
      </trkpt>
      <trkpt lat="43.57614" lon="0.25461">
        <ele>157</ele>
        <time>2018-06-02T07:30:18Z</time>
      </trkpt>
      <trkpt lat="43.57616" lon="0.2546">
        <ele>157</ele>
        <time>2018-06-02T07:30:20Z</time>
      </trkpt>
      <trkpt lat="43.5762" lon="0.25459">
        <ele>157</ele>
        <time>2018-06-02T07:30:23Z</time>
      </trkpt>
      <trkpt lat="43.57623" lon="0.25458">
        <ele>157.1</ele>
        <time>2018-06-02T07:30:26Z</time>
      </trkpt>
      <trkpt lat="43.57625" lon="0.25457">
        <ele>157.1</ele>
        <time>2018-06-02T07:30:28Z</time>
      </trkpt>
      <trkpt lat="43.57628" lon="0.25456">
        <ele>157.1</ele>
        <time>2018-06-02T07:30:31Z</time>
      </trkpt>
      <trkpt lat="43.5763" lon="0.25455">
        <ele>157.1</ele>
        <time>2018-06-02T07:30:33Z</time>
      </trkpt>
      <trkpt lat="43.57634" lon="0.25453">
        <ele>157.1</ele>
        <time>2018-06-02T07:30:36Z</time>
      </trkpt>
      <trkpt lat="43.57636" lon="0.25452">
        <ele>157.2</ele>
        <time>2018-06-02T07:30:38Z</time>
      </trkpt>
      <trkpt lat="43.57639" lon="0.25451">
        <ele>157.2</ele>
        <time>2018-06-02T07:30:41Z</time>
      </trkpt>
      <trkpt lat="43.57641" lon="0.2545">
        <ele>157.2</ele>
        <time>2018-06-02T07:30:43Z</time>
      </trkpt>
      <trkpt lat="43.57644" lon="0.25449">
        <ele>157.2</ele>
        <time>2018-06-02T07:30:46Z</time>
      </trkpt>
      <trkpt lat="43.57647" lon="0.25447">
        <ele>157.3</ele>
        <time>2018-06-02T07:30:49Z</time>
      </trkpt>
      <trkpt lat="43.57649" lon="0.25446">
        <ele>157.3</ele>
        <time>2018-06-02T07:30:51Z</time>
      </trkpt>
      <trkpt lat="43.57649" lon="0.25446">
        <ele>157.3</ele>
        <time>2018-06-02T07:30:52Z</time>
      </trkpt>
      <trkpt lat="43.57651" lon="0.25444">
        <ele>157.3</ele>
        <time>2018-06-02T07:30:54Z</time>
      </trkpt>
      <trkpt lat="43.57653" lon="0.25442">
        <ele>157.3</ele>
        <time>2018-06-02T07:30:56Z</time>
      </trkpt>
      <trkpt lat="43.57656" lon="0.25439">
        <ele>157.3</ele>
        <time>2018-06-02T07:30:59Z</time>
      </trkpt>
      <trkpt lat="43.57658" lon="0.25437">
        <ele>157.4</ele>
        <time>2018-06-02T07:31:01Z</time>
      </trkpt>
      <trkpt lat="43.57661" lon="0.25435">
        <ele>157.4</ele>
        <time>2018-06-02T07:31:04Z</time>
      </trkpt>
      <trkpt lat="43.57664" lon="0.25433">
        <ele>157.4</ele>
        <time>2018-06-02T07:31:06Z</time>
      </trkpt>
      <trkpt lat="43.57667" lon="0.25432">
        <ele>157.4</ele>
        <time>2018-06-02T07:31:09Z</time>
      </trkpt>
      <trkpt lat="43.5767" lon="0.2543">
        <ele>157.5</ele>
        <time>2018-06-02T07:31:12Z</time>
      </trkpt>
      <trkpt lat="43.57672" lon="0.25429">
        <ele>157.5</ele>
        <time>2018-06-02T07:31:14Z</time>
      </trkpt>
      <trkpt lat="43.57674" lon="0.25427">
        <ele>157.5</ele>
        <time>2018-06-02T07:31:16Z</time>
      </trkpt>
      <trkpt lat="43.57675" lon="0.25427">
        <ele>157.5</ele>
        <time>2018-06-02T07:31:17Z</time>
      </trkpt>
      <trkpt lat="43.57675" lon="0.25426">
        <ele>157.5</ele>
        <time>2018-06-02T07:31:19Z</time>
      </trkpt>
      <trkpt lat="43.57677" lon="0.25425">
        <ele>157.5</ele>
        <time>2018-06-02T07:31:22Z</time>
      </trkpt>
      <trkpt lat="43.57677" lon="0.25424">
        <ele>157.6</ele>
        <time>2018-06-02T07:31:24Z</time>
      </trkpt>
      <trkpt lat="43.57679" lon="0.25423">
        <ele>157.6</ele>
        <time>2018-06-02T07:31:27Z</time>
      </trkpt>
      <trkpt lat="43.57679" lon="0.25422">
        <ele>157.6</ele>
        <time>2018-06-02T07:31:29Z</time>
      </trkpt>
      <trkpt lat="43.57681" lon="0.25421">
        <ele>157.6</ele>
        <time>2018-06-02T07:31:32Z</time>
      </trkpt>
      <trkpt lat="43.57682" lon="0.2542">
        <ele>157.6</ele>
        <time>2018-06-02T07:31:35Z</time>
      </trkpt>
      <trkpt lat="43.57683" lon="0.25419">
        <ele>157.7</ele>
        <time>2018-06-02T07:31:37Z</time>
      </trkpt>
      <trkpt lat="43.57684" lon="0.25417">
        <ele>157.7</ele>
        <time>2018-06-02T07:31:40Z</time>
      </trkpt>
      <trkpt lat="43.57685" lon="0.25417">
        <ele>157.7</ele>
        <time>2018-06-02T07:31:42Z</time>
      </trkpt>
      <trkpt lat="43.57686" lon="0.25415">
        <ele>157.7</ele>
        <time>2018-06-02T07:31:45Z</time>
      </trkpt>
      <trkpt lat="43.57686" lon="0.25415">
        <ele>157.7</ele>
        <time>2018-06-02T07:31:46Z</time>
      </trkpt>
      <trkpt lat="43.57686" lon="0.25414">
        <ele>157.7</ele>
        <time>2018-06-02T07:31:47Z</time>
      </trkpt>
      <trkpt lat="43.57687" lon="0.25411">
        <ele>157.8</ele>
        <time>2018-06-02T07:31:50Z</time>
      </trkpt>
      <trkpt lat="43.57687" lon="0.25409">
        <ele>157.8</ele>
        <time>2018-06-02T07:31:52Z</time>
      </trkpt>
      <trkpt lat="43.57687" lon="0.25406">
        <ele>157.8</ele>
        <time>2018-06-02T07:31:55Z</time>
      </trkpt>
      <trkpt lat="43.57688" lon="0.25403">
        <ele>157.8</ele>
        <time>2018-06-02T07:31:58Z</time>
      </trkpt>
      <trkpt lat="43.57688" lon="0.25401">
        <ele>157.9</ele>
        <time>2018-06-02T07:32:00Z</time>
      </trkpt>
      <trkpt lat="43.57688" lon="0.25399">
        <ele>157.9</ele>
        <time>2018-06-02T07:32:02Z</time>
      </trkpt>
      <trkpt lat="43.5769" lon="0.25398">
        <ele>157.9</ele>
        <time>2018-06-02T07:32:03Z</time>
      </trkpt>
      <trkpt lat="43.57694" lon="0.25396">
        <ele>157.9</ele>
        <time>2018-06-02T07:32:06Z</time>
      </trkpt>
      <trkpt lat="43.57697" lon="0.25394">
        <ele>157.9</ele>
        <time>2018-06-02T07:32:08Z</time>
      </trkpt>
      <trkpt lat="43.57699" lon="0.25393">
        <ele>157.9</ele>
        <time>2018-06-02T07:32:10Z</time>
      </trkpt>
      <trkpt lat="43.57702" lon="0.25392">
        <ele>158</ele>
        <time>2018-06-02T07:32:12Z</time>
      </trkpt>
      <trkpt lat="43.57703" lon="0.25391">
        <ele>158</ele>
        <time>2018-06-02T07:32:13Z</time>
      </trkpt>
      <trkpt lat="43.57704" lon="0.25389">
        <ele>158</ele>
        <time>2018-06-02T07:32:15Z</time>
      </trkpt>
      <trkpt lat="43.57706" lon="0.25385">
        <ele>158</ele>
        <time>2018-06-02T07:32:18Z</time>
      </trkpt>
      <trkpt lat="43.57708" lon="0.25382">
        <ele>158</ele>
        <time>2018-06-02T07:32:21Z</time>
      </trkpt>
      <trkpt lat="43.5771" lon="0.2538">
        <ele>158</ele>
        <time>2018-06-02T07:32:23Z</time>
      </trkpt>
      <trkpt lat="43.57712" lon="0.25377">
        <ele>158.1</ele>
        <time>2018-06-02T07:32:26Z</time>
      </trkpt>
      <trkpt lat="43.57712" lon="0.25375">
        <ele>158.1</ele>
        <time>2018-06-02T07:32:28Z</time>
      </trkpt>
      <trkpt lat="43.57713" lon="0.25372">
        <ele>158.1</ele>
        <time>2018-06-02T07:32:31Z</time>
      </trkpt>
      <trkpt lat="43.57713" lon="0.2537">
        <ele>158.1</ele>
        <time>2018-06-02T07:32:33Z</time>
      </trkpt>
      <trkpt lat="43.57713" lon="0.25366">
        <ele>158.2</ele>
        <time>2018-06-02T07:32:36Z</time>
      </trkpt>
      <trkpt lat="43.57714" lon="0.25363">
        <ele>158.2</ele>
        <time>2018-06-02T07:32:39Z</time>
      </trkpt>
      <trkpt lat="43.57714" lon="0.25361">
        <ele>158.2</ele>
        <time>2018-06-02T07:32:41Z</time>
      </trkpt>
      <trkpt lat="43.57715" lon="0.25359">
        <ele>158.2</ele>
        <time>2018-06-02T07:32:43Z</time>
      </trkpt>
      <trkpt lat="43.57715" lon="0.25358">
        <ele>158.2</ele>
        <time>2018-06-02T07:32:44Z</time>
      </trkpt>
      <trkpt lat="43.57715" lon="0.25357">
        <ele>158.4</ele>
        <time>2018-06-02T07:32:46Z</time>
      </trkpt>
      <trkpt lat="43.57715" lon="0.25355">
        <ele>158.7</ele>
        <time>2018-06-02T07:32:49Z</time>
      </trkpt>
      <trkpt lat="43.57716" lon="0.25353">
        <ele>158.9</ele>
        <time>2018-06-02T07:32:51Z</time>
      </trkpt>
      <trkpt lat="43.57716" lon="0.25351">
        <ele>159.1</ele>
        <time>2018-06-02T07:32:54Z</time>
      </trkpt>
      <trkpt lat="43.57717" lon="0.25349">
        <ele>159.3</ele>
        <time>2018-06-02T07:32:56Z</time>
      </trkpt>
      <trkpt lat="43.57717" lon="0.25347">
        <ele>159.5</ele>
        <time>2018-06-02T07:32:59Z</time>
      </trkpt>
      <trkpt lat="43.57718" lon="0.25345">
        <ele>159.8</ele>
        <time>2018-06-02T07:33:02Z</time>
      </trkpt>
      <trkpt lat="43.57718" lon="0.25344">
        <ele>160</ele>
        <time>2018-06-02T07:33:04Z</time>
      </trkpt>
      <trkpt lat="43.57718" lon="0.25341">
        <ele>160.2</ele>
        <time>2018-06-02T07:33:07Z</time>
      </trkpt>
      <trkpt lat="43.57719" lon="0.2534">
        <ele>160.4</ele>
        <time>2018-06-02T07:33:09Z</time>
      </trkpt>
      <trkpt lat="43.57719" lon="0.25337">
        <ele>160.7</ele>
        <time>2018-06-02T07:33:12Z</time>
      </trkpt>
      <trkpt lat="43.57719" lon="0.25336">
        <ele>160.8</ele>
        <time>2018-06-02T07:33:14Z</time>
      </trkpt>
      <trkpt lat="43.5772" lon="0.25333">
        <ele>161.1</ele>
        <time>2018-06-02T07:33:17Z</time>
      </trkpt>
      <trkpt lat="43.5772" lon="0.2533">
        <ele>161.4</ele>
        <time>2018-06-02T07:33:20Z</time>
      </trkpt>
      <trkpt lat="43.5772" lon="0.25329">
        <ele>161.5</ele>
        <time>2018-06-02T07:33:22Z</time>
      </trkpt>
      <trkpt lat="43.57721" lon="0.25326">
        <ele>161.8</ele>
        <time>2018-06-02T07:33:25Z</time>
      </trkpt>
      <trkpt lat="43.57721" lon="0.25325">
        <ele>161.9</ele>
        <time>2018-06-02T07:33:26Z</time>
      </trkpt>
      <trkpt lat="43.57721" lon="0.25324">
        <ele>162</ele>
        <time>2018-06-02T07:33:27Z</time>
      </trkpt>
      <trkpt lat="43.57721" lon="0.25322">
        <ele>162.4</ele>
        <time>2018-06-02T07:33:30Z</time>
      </trkpt>
      <trkpt lat="43.57721" lon="0.25321">
        <ele>162.6</ele>
        <time>2018-06-02T07:33:31Z</time>
      </trkpt>
      <trkpt lat="43.57722" lon="0.2532">
        <ele>162.7</ele>
        <time>2018-06-02T07:33:32Z</time>
      </trkpt>
      <trkpt lat="43.57722" lon="0.25316">
        <ele>163.1</ele>
        <time>2018-06-02T07:33:35Z</time>
      </trkpt>
      <trkpt lat="43.57722" lon="0.25314">
        <ele>163.3</ele>
        <time>2018-06-02T07:33:37Z</time>
      </trkpt>
      <trkpt lat="43.57723" lon="0.25311">
        <ele>163.7</ele>
        <time>2018-06-02T07:33:40Z</time>
      </trkpt>
      <trkpt lat="43.57723" lon="0.25309">
        <ele>164</ele>
        <time>2018-06-02T07:33:42Z</time>
      </trkpt>
      <trkpt lat="43.57723" lon="0.25305">
        <ele>164.4</ele>
        <time>2018-06-02T07:33:45Z</time>
      </trkpt>
      <trkpt lat="43.57724" lon="0.25302">
        <ele>164.8</ele>
        <time>2018-06-02T07:33:48Z</time>
      </trkpt>
      <trkpt lat="43.57724" lon="0.253">
        <ele>165</ele>
        <time>2018-06-02T07:33:50Z</time>
      </trkpt>
      <trkpt lat="43.57725" lon="0.25296">
        <ele>165.4</ele>
        <time>2018-06-02T07:33:53Z</time>
      </trkpt>
      <trkpt lat="43.57726" lon="0.25293">
        <ele>165.7</ele>
        <time>2018-06-02T07:33:55Z</time>
      </trkpt>
      <trkpt lat="43.57726" lon="0.25289">
        <ele>166</ele>
        <time>2018-06-02T07:33:58Z</time>
      </trkpt>
      <trkpt lat="43.57727" lon="0.25287">
        <ele>166.3</ele>
        <time>2018-06-02T07:34:00Z</time>
      </trkpt>
      <trkpt lat="43.57727" lon="0.25284">
        <ele>166.5</ele>
        <time>2018-06-02T07:34:02Z</time>
      </trkpt>
      <trkpt lat="43.57727" lon="0.25283">
        <ele>166.7</ele>
        <time>2018-06-02T07:34:03Z</time>
      </trkpt>
      <trkpt lat="43.57727" lon="0.2528">
        <ele>166.9</ele>
        <time>2018-06-02T07:34:05Z</time>
      </trkpt>
      <trkpt lat="43.57728" lon="0.25276">
        <ele>167.3</ele>
        <time>2018-06-02T07:34:08Z</time>
      </trkpt>
      <trkpt lat="43.57728" lon="0.25272">
        <ele>167.6</ele>
        <time>2018-06-02T07:34:11Z</time>
      </trkpt>
      <trkpt lat="43.57728" lon="0.25269">
        <ele>167.8</ele>
        <time>2018-06-02T07:34:13Z</time>
      </trkpt>
      <trkpt lat="43.57728" lon="0.25265">
        <ele>168</ele>
        <time>2018-06-02T07:34:16Z</time>
      </trkpt>
      <trkpt lat="43.57728" lon="0.25264">
        <ele>168.1</ele>
        <time>2018-06-02T07:34:17Z</time>
      </trkpt>
      <trkpt lat="43.57728" lon="0.25263">
        <ele>168.2</ele>
        <time>2018-06-02T07:34:18Z</time>
      </trkpt>
      <trkpt lat="43.57729" lon="0.2526">
        <ele>168.4</ele>
        <time>2018-06-02T07:34:20Z</time>
      </trkpt>
      <trkpt lat="43.57729" lon="0.25259">
        <ele>168.5</ele>
        <time>2018-06-02T07:34:21Z</time>
      </trkpt>
      <trkpt lat="43.57729" lon="0.25257">
        <ele>168.7</ele>
        <time>2018-06-02T07:34:23Z</time>
      </trkpt>
      <trkpt lat="43.5773" lon="0.25253">
        <ele>169.1</ele>
        <time>2018-06-02T07:34:26Z</time>
      </trkpt>
      <trkpt lat="43.5773" lon="0.25251">
        <ele>169.3</ele>
        <time>2018-06-02T07:34:28Z</time>
      </trkpt>
      <trkpt lat="43.57731" lon="0.25247">
        <ele>169.6</ele>
        <time>2018-06-02T07:34:31Z</time>
      </trkpt>
      <trkpt lat="43.57732" lon="0.25244">
        <ele>170</ele>
        <time>2018-06-02T07:34:34Z</time>
      </trkpt>
      <trkpt lat="43.57732" lon="0.25241">
        <ele>170.2</ele>
        <time>2018-06-02T07:34:36Z</time>
      </trkpt>
      <trkpt lat="43.57733" lon="0.25237">
        <ele>170.5</ele>
        <time>2018-06-02T07:34:39Z</time>
      </trkpt>
      <trkpt lat="43.57733" lon="0.25235">
        <ele>170.7</ele>
        <time>2018-06-02T07:34:41Z</time>
      </trkpt>
      <trkpt lat="43.57733" lon="0.25231">
        <ele>171.1</ele>
        <time>2018-06-02T07:34:44Z</time>
      </trkpt>
      <trkpt lat="43.57734" lon="0.25228">
        <ele>171.3</ele>
        <time>2018-06-02T07:34:46Z</time>
      </trkpt>
      <trkpt lat="43.57734" lon="0.25224">
        <ele>171.6</ele>
        <time>2018-06-02T07:34:49Z</time>
      </trkpt>
      <trkpt lat="43.57735" lon="0.25223">
        <ele>171.7</ele>
        <time>2018-06-02T07:34:50Z</time>
      </trkpt>
      <trkpt lat="43.57735" lon="0.25222">
        <ele>171.8</ele>
        <time>2018-06-02T07:34:51Z</time>
      </trkpt>
      <trkpt lat="43.57736" lon="0.25218">
        <ele>172</ele>
        <time>2018-06-02T07:34:54Z</time>
      </trkpt>
      <trkpt lat="43.57737" lon="0.25214">
        <ele>172.1</ele>
        <time>2018-06-02T07:34:57Z</time>
      </trkpt>
      <trkpt lat="43.57738" lon="0.25212">
        <ele>172.3</ele>
        <time>2018-06-02T07:34:59Z</time>
      </trkpt>
      <trkpt lat="43.57739" lon="0.25208">
        <ele>172.5</ele>
        <time>2018-06-02T07:35:02Z</time>
      </trkpt>
      <trkpt lat="43.5774" lon="0.25206">
        <ele>172.6</ele>
        <time>2018-06-02T07:35:04Z</time>
      </trkpt>
      <trkpt lat="43.57742" lon="0.25201">
        <ele>172.8</ele>
        <time>2018-06-02T07:35:07Z</time>
      </trkpt>
      <trkpt lat="43.57743" lon="0.25199">
        <ele>172.9</ele>
        <time>2018-06-02T07:35:09Z</time>
      </trkpt>
      <trkpt lat="43.57745" lon="0.25195">
        <ele>173.1</ele>
        <time>2018-06-02T07:35:12Z</time>
      </trkpt>
      <trkpt lat="43.57746" lon="0.25192">
        <ele>173.2</ele>
        <time>2018-06-02T07:35:14Z</time>
      </trkpt>
      <trkpt lat="43.57747" lon="0.25189">
        <ele>173.4</ele>
        <time>2018-06-02T07:35:16Z</time>
      </trkpt>
      <trkpt lat="43.57747" lon="0.25187">
        <ele>173.4</ele>
        <time>2018-06-02T07:35:17Z</time>
      </trkpt>
      <trkpt lat="43.57747" lon="0.25182">
        <ele>173.6</ele>
        <time>2018-06-02T07:35:20Z</time>
      </trkpt>
      <trkpt lat="43.57747" lon="0.25179">
        <ele>173.7</ele>
        <time>2018-06-02T07:35:22Z</time>
      </trkpt>
      <trkpt lat="43.57747" lon="0.25174">
        <ele>173.9</ele>
        <time>2018-06-02T07:35:25Z</time>
      </trkpt>
      <trkpt lat="43.57748" lon="0.25171">
        <ele>174.1</ele>
        <time>2018-06-02T07:35:27Z</time>
      </trkpt>
      <trkpt lat="43.57748" lon="0.25169">
        <ele>174.1</ele>
        <time>2018-06-02T07:35:28Z</time>
      </trkpt>
      <trkpt lat="43.57748" lon="0.25167">
        <ele>174.2</ele>
        <time>2018-06-02T07:35:30Z</time>
      </trkpt>
      <trkpt lat="43.57749" lon="0.25164">
        <ele>174.4</ele>
        <time>2018-06-02T07:35:32Z</time>
      </trkpt>
      <trkpt lat="43.5775" lon="0.25161">
        <ele>174.6</ele>
        <time>2018-06-02T07:35:35Z</time>
      </trkpt>
      <trkpt lat="43.57751" lon="0.25158">
        <ele>174.7</ele>
        <time>2018-06-02T07:35:37Z</time>
      </trkpt>
      <trkpt lat="43.57751" lon="0.25157">
        <ele>174.8</ele>
        <time>2018-06-02T07:35:38Z</time>
      </trkpt>
      <trkpt lat="43.57752" lon="0.25155">
        <ele>174.9</ele>
        <time>2018-06-02T07:35:40Z</time>
      </trkpt>
      <trkpt lat="43.57753" lon="0.25151">
        <ele>175.2</ele>
        <time>2018-06-02T07:35:43Z</time>
      </trkpt>
      <trkpt lat="43.57754" lon="0.25148">
        <ele>175.4</ele>
        <time>2018-06-02T07:35:45Z</time>
      </trkpt>
      <trkpt lat="43.57754" lon="0.25144">
        <ele>175.7</ele>
        <time>2018-06-02T07:35:48Z</time>
      </trkpt>
      <trkpt lat="43.57755" lon="0.25141">
        <ele>175.8</ele>
        <time>2018-06-02T07:35:50Z</time>
      </trkpt>
      <trkpt lat="43.57755" lon="0.25136">
        <ele>176.1</ele>
        <time>2018-06-02T07:35:53Z</time>
      </trkpt>
      <trkpt lat="43.57755" lon="0.25134">
        <ele>176.3</ele>
        <time>2018-06-02T07:35:55Z</time>
      </trkpt>
      <trkpt lat="43.57755" lon="0.25132">
        <ele>176.4</ele>
        <time>2018-06-02T07:35:56Z</time>
      </trkpt>
      <trkpt lat="43.57755" lon="0.25129">
        <ele>176.6</ele>
        <time>2018-06-02T07:35:58Z</time>
      </trkpt>
      <trkpt lat="43.57755" lon="0.25127">
        <ele>176.7</ele>
        <time>2018-06-02T07:36:00Z</time>
      </trkpt>
      <trkpt lat="43.57754" lon="0.25123">
        <ele>177</ele>
        <time>2018-06-02T07:36:03Z</time>
      </trkpt>
      <trkpt lat="43.57754" lon="0.25119">
        <ele>177.3</ele>
        <time>2018-06-02T07:36:06Z</time>
      </trkpt>
      <trkpt lat="43.57754" lon="0.25116">
        <ele>177.5</ele>
        <time>2018-06-02T07:36:08Z</time>
      </trkpt>
      <trkpt lat="43.57754" lon="0.25113">
        <ele>177.6</ele>
        <time>2018-06-02T07:36:10Z</time>
      </trkpt>
      <trkpt lat="43.57753" lon="0.25112">
        <ele>177.7</ele>
        <time>2018-06-02T07:36:11Z</time>
      </trkpt>
      <trkpt lat="43.57753" lon="0.25109">
        <ele>177.9</ele>
        <time>2018-06-02T07:36:13Z</time>
      </trkpt>
      <trkpt lat="43.57753" lon="0.25107">
        <ele>178</ele>
        <time>2018-06-02T07:36:14Z</time>
      </trkpt>
      <trkpt lat="43.57753" lon="0.25104">
        <ele>178.1</ele>
        <time>2018-06-02T07:36:16Z</time>
      </trkpt>
      <trkpt lat="43.57753" lon="0.25101">
        <ele>178.3</ele>
        <time>2018-06-02T07:36:18Z</time>
      </trkpt>
      <trkpt lat="43.57753" lon="0.25097">
        <ele>178.5</ele>
        <time>2018-06-02T07:36:21Z</time>
      </trkpt>
      <trkpt lat="43.57753" lon="0.25094">
        <ele>178.6</ele>
        <time>2018-06-02T07:36:23Z</time>
      </trkpt>
      <trkpt lat="43.57753" lon="0.2509">
        <ele>178.8</ele>
        <time>2018-06-02T07:36:26Z</time>
      </trkpt>
      <trkpt lat="43.57754" lon="0.25086">
        <ele>179</ele>
        <time>2018-06-02T07:36:29Z</time>
      </trkpt>
      <trkpt lat="43.57754" lon="0.25083">
        <ele>179.1</ele>
        <time>2018-06-02T07:36:31Z</time>
      </trkpt>
      <trkpt lat="43.57755" lon="0.25079">
        <ele>179.3</ele>
        <time>2018-06-02T07:36:34Z</time>
      </trkpt>
      <trkpt lat="43.57755" lon="0.25076">
        <ele>179.5</ele>
        <time>2018-06-02T07:36:36Z</time>
      </trkpt>
      <trkpt lat="43.57756" lon="0.25073">
        <ele>179.6</ele>
        <time>2018-06-02T07:36:38Z</time>
      </trkpt>
      <trkpt lat="43.57756" lon="0.25072">
        <ele>179.7</ele>
        <time>2018-06-02T07:36:39Z</time>
      </trkpt>
      <trkpt lat="43.57756" lon="0.2507">
        <ele>179.8</ele>
        <time>2018-06-02T07:36:41Z</time>
      </trkpt>
      <trkpt lat="43.57756" lon="0.25066">
        <ele>180</ele>
        <time>2018-06-02T07:36:44Z</time>
      </trkpt>
      <trkpt lat="43.57756" lon="0.25063">
        <ele>180.1</ele>
        <time>2018-06-02T07:36:46Z</time>
      </trkpt>
      <trkpt lat="43.57757" lon="0.2506">
        <ele>180.3</ele>
        <time>2018-06-02T07:36:49Z</time>
      </trkpt>
      <trkpt lat="43.57757" lon="0.25056">
        <ele>180.6</ele>
        <time>2018-06-02T07:36:52Z</time>
      </trkpt>
      <trkpt lat="43.57757" lon="0.25055">
        <ele>180.6</ele>
        <time>2018-06-02T07:36:53Z</time>
      </trkpt>
      <trkpt lat="43.57757" lon="0.25053">
        <ele>180.7</ele>
        <time>2018-06-02T07:36:54Z</time>
      </trkpt>
      <trkpt lat="43.57756" lon="0.25049">
        <ele>180.9</ele>
        <time>2018-06-02T07:36:57Z</time>
      </trkpt>
      <trkpt lat="43.57756" lon="0.25046">
        <ele>181</ele>
        <time>2018-06-02T07:36:59Z</time>
      </trkpt>
      <trkpt lat="43.57756" lon="0.25042">
        <ele>181.2</ele>
        <time>2018-06-02T07:37:02Z</time>
      </trkpt>
      <trkpt lat="43.57756" lon="0.25039">
        <ele>181.3</ele>
        <time>2018-06-02T07:37:04Z</time>
      </trkpt>
      <trkpt lat="43.57755" lon="0.25035">
        <ele>181.5</ele>
        <time>2018-06-02T07:37:07Z</time>
      </trkpt>
      <trkpt lat="43.57756" lon="0.25032">
        <ele>181.6</ele>
        <time>2018-06-02T07:37:09Z</time>
      </trkpt>
      <trkpt lat="43.57756" lon="0.25028">
        <ele>181.8</ele>
        <time>2018-06-02T07:37:12Z</time>
      </trkpt>
      <trkpt lat="43.57756" lon="0.25025">
        <ele>182</ele>
        <time>2018-06-02T07:37:15Z</time>
      </trkpt>
      <trkpt lat="43.57757" lon="0.25022">
        <ele>182.1</ele>
        <time>2018-06-02T07:37:17Z</time>
      </trkpt>
      <trkpt lat="43.57757" lon="0.25018">
        <ele>182.3</ele>
        <time>2018-06-02T07:37:20Z</time>
      </trkpt>
      <trkpt lat="43.57757" lon="0.25016">
        <ele>182.4</ele>
        <time>2018-06-02T07:37:22Z</time>
      </trkpt>
      <trkpt lat="43.57757" lon="0.25015">
        <ele>182.5</ele>
        <time>2018-06-02T07:37:23Z</time>
      </trkpt>
      <trkpt lat="43.57758" lon="0.25012">
        <ele>182.6</ele>
        <time>2018-06-02T07:37:25Z</time>
      </trkpt>
      <trkpt lat="43.57758" lon="0.2501">
        <ele>182.7</ele>
        <time>2018-06-02T07:37:27Z</time>
      </trkpt>
      <trkpt lat="43.57758" lon="0.25006">
        <ele>182.9</ele>
        <time>2018-06-02T07:37:30Z</time>
      </trkpt>
      <trkpt lat="43.57758" lon="0.25003">
        <ele>183.1</ele>
        <time>2018-06-02T07:37:33Z</time>
      </trkpt>
      <trkpt lat="43.57759" lon="0.25">
        <ele>183.2</ele>
        <time>2018-06-02T07:37:35Z</time>
      </trkpt>
      <trkpt lat="43.57759" lon="0.24997">
        <ele>183.4</ele>
        <time>2018-06-02T07:37:38Z</time>
      </trkpt>
      <trkpt lat="43.57759" lon="0.24995">
        <ele>183.4</ele>
        <time>2018-06-02T07:37:39Z</time>
      </trkpt>
      <trkpt lat="43.57759" lon="0.24994">
        <ele>183.5</ele>
        <time>2018-06-02T07:37:40Z</time>
      </trkpt>
      <trkpt lat="43.5776" lon="0.2499">
        <ele>183.7</ele>
        <time>2018-06-02T07:37:43Z</time>
      </trkpt>
      <trkpt lat="43.5776" lon="0.24987">
        <ele>183.8</ele>
        <time>2018-06-02T07:37:45Z</time>
      </trkpt>
      <trkpt lat="43.57761" lon="0.24983">
        <ele>184</ele>
        <time>2018-06-02T07:37:48Z</time>
      </trkpt>
      <trkpt lat="43.57761" lon="0.2498">
        <ele>184.1</ele>
        <time>2018-06-02T07:37:50Z</time>
      </trkpt>
      <trkpt lat="43.57762" lon="0.24976">
        <ele>184.3</ele>
        <time>2018-06-02T07:37:53Z</time>
      </trkpt>
      <trkpt lat="43.57762" lon="0.24973">
        <ele>184.4</ele>
        <time>2018-06-02T07:37:55Z</time>
      </trkpt>
      <trkpt lat="43.57762" lon="0.24972">
        <ele>184.5</ele>
        <time>2018-06-02T07:37:56Z</time>
      </trkpt>
      <trkpt lat="43.57763" lon="0.24969">
        <ele>184.6</ele>
        <time>2018-06-02T07:37:58Z</time>
      </trkpt>
      <trkpt lat="43.57764" lon="0.24964">
        <ele>184.9</ele>
        <time>2018-06-02T07:38:01Z</time>
      </trkpt>
      <trkpt lat="43.57764" lon="0.24961">
        <ele>185.1</ele>
        <time>2018-06-02T07:38:03Z</time>
      </trkpt>
      <trkpt lat="43.57765" lon="0.24957">
        <ele>185.3</ele>
        <time>2018-06-02T07:38:06Z</time>
      </trkpt>
      <trkpt lat="43.57765" lon="0.24954">
        <ele>185.5</ele>
        <time>2018-06-02T07:38:08Z</time>
      </trkpt>
      <trkpt lat="43.57765" lon="0.2495">
        <ele>185.7</ele>
        <time>2018-06-02T07:38:11Z</time>
      </trkpt>
      <trkpt lat="43.57765" lon="0.24948">
        <ele>185.9</ele>
        <time>2018-06-02T07:38:13Z</time>
      </trkpt>
      <trkpt lat="43.57765" lon="0.24944">
        <ele>186.1</ele>
        <time>2018-06-02T07:38:16Z</time>
      </trkpt>
      <trkpt lat="43.57765" lon="0.2494">
        <ele>186.3</ele>
        <time>2018-06-02T07:38:19Z</time>
      </trkpt>
      <trkpt lat="43.57766" lon="0.24937">
        <ele>186.5</ele>
        <time>2018-06-02T07:38:21Z</time>
      </trkpt>
      <trkpt lat="43.57767" lon="0.24934">
        <ele>186.7</ele>
        <time>2018-06-02T07:38:24Z</time>
      </trkpt>
      <trkpt lat="43.57767" lon="0.24932">
        <ele>186.9</ele>
        <time>2018-06-02T07:38:26Z</time>
      </trkpt>
      <trkpt lat="43.57769" lon="0.24928">
        <ele>187.1</ele>
        <time>2018-06-02T07:38:29Z</time>
      </trkpt>
      <trkpt lat="43.57769" lon="0.24926">
        <ele>187.3</ele>
        <time>2018-06-02T07:38:31Z</time>
      </trkpt>
      <trkpt lat="43.5777" lon="0.24923">
        <ele>187.6</ele>
        <time>2018-06-02T07:38:34Z</time>
      </trkpt>
      <trkpt lat="43.57771" lon="0.24922">
        <ele>187.6</ele>
        <time>2018-06-02T07:38:35Z</time>
      </trkpt>
      <trkpt lat="43.57771" lon="0.24921">
        <ele>187.7</ele>
        <time>2018-06-02T07:38:36Z</time>
      </trkpt>
      <trkpt lat="43.57772" lon="0.2492">
        <ele>187.7</ele>
        <time>2018-06-02T07:38:37Z</time>
      </trkpt>
      <trkpt lat="43.57772" lon="0.24917">
        <ele>187.8</ele>
        <time>2018-06-02T07:38:39Z</time>
      </trkpt>
      <trkpt lat="43.57773" lon="0.24913">
        <ele>187.9</ele>
        <time>2018-06-02T07:38:42Z</time>
      </trkpt>
      <trkpt lat="43.57774" lon="0.24911">
        <ele>188</ele>
        <time>2018-06-02T07:38:44Z</time>
      </trkpt>
      <trkpt lat="43.57775" lon="0.24907">
        <ele>188.2</ele>
        <time>2018-06-02T07:38:47Z</time>
      </trkpt>
      <trkpt lat="43.57776" lon="0.24905">
        <ele>188.3</ele>
        <time>2018-06-02T07:38:49Z</time>
      </trkpt>
      <trkpt lat="43.57776" lon="0.24902">
        <ele>188.4</ele>
        <time>2018-06-02T07:38:51Z</time>
      </trkpt>
      <trkpt lat="43.57776" lon="0.24901">
        <ele>188.4</ele>
        <time>2018-06-02T07:38:52Z</time>
      </trkpt>
      <trkpt lat="43.57777" lon="0.24898">
        <ele>188.5</ele>
        <time>2018-06-02T07:38:54Z</time>
      </trkpt>
      <trkpt lat="43.57777" lon="0.24895">
        <ele>188.6</ele>
        <time>2018-06-02T07:38:57Z</time>
      </trkpt>
      <trkpt lat="43.57778" lon="0.24892">
        <ele>188.7</ele>
        <time>2018-06-02T07:38:59Z</time>
      </trkpt>
      <trkpt lat="43.57779" lon="0.24888">
        <ele>188.9</ele>
        <time>2018-06-02T07:39:02Z</time>
      </trkpt>
      <trkpt lat="43.57779" lon="0.24885">
        <ele>189</ele>
        <time>2018-06-02T07:39:05Z</time>
      </trkpt>
      <trkpt lat="43.57779" lon="0.24884">
        <ele>189.1</ele>
        <time>2018-06-02T07:39:06Z</time>
      </trkpt>
      <trkpt lat="43.5778" lon="0.24882">
        <ele>189.1</ele>
        <time>2018-06-02T07:39:07Z</time>
      </trkpt>
      <trkpt lat="43.5778" lon="0.24879">
        <ele>189.3</ele>
        <time>2018-06-02T07:39:10Z</time>
      </trkpt>
      <trkpt lat="43.5778" lon="0.24876">
        <ele>189.3</ele>
        <time>2018-06-02T07:39:12Z</time>
      </trkpt>
      <trkpt lat="43.5778" lon="0.24873">
        <ele>189.5</ele>
        <time>2018-06-02T07:39:15Z</time>
      </trkpt>
      <trkpt lat="43.57781" lon="0.2487">
        <ele>189.6</ele>
        <time>2018-06-02T07:39:17Z</time>
      </trkpt>
      <trkpt lat="43.57781" lon="0.24867">
        <ele>189.7</ele>
        <time>2018-06-02T07:39:20Z</time>
      </trkpt>
      <trkpt lat="43.57781" lon="0.24864">
        <ele>189.8</ele>
        <time>2018-06-02T07:39:22Z</time>
      </trkpt>
      <trkpt lat="43.57781" lon="0.24863">
        <ele>189.9</ele>
        <time>2018-06-02T07:39:23Z</time>
      </trkpt>
      <trkpt lat="43.57782" lon="0.2486">
        <ele>190</ele>
        <time>2018-06-02T07:39:25Z</time>
      </trkpt>
      <trkpt lat="43.57783" lon="0.24855">
        <ele>190.1</ele>
        <time>2018-06-02T07:39:28Z</time>
      </trkpt>
      <trkpt lat="43.57783" lon="0.24852">
        <ele>190.2</ele>
        <time>2018-06-02T07:39:30Z</time>
      </trkpt>
      <trkpt lat="43.57784" lon="0.24848">
        <ele>190.3</ele>
        <time>2018-06-02T07:39:33Z</time>
      </trkpt>
      <trkpt lat="43.57785" lon="0.24845">
        <ele>190.4</ele>
        <time>2018-06-02T07:39:35Z</time>
      </trkpt>
      <trkpt lat="43.57786" lon="0.2484">
        <ele>190.6</ele>
        <time>2018-06-02T07:39:38Z</time>
      </trkpt>
      <trkpt lat="43.57787" lon="0.24837">
        <ele>190.7</ele>
        <time>2018-06-02T07:39:40Z</time>
      </trkpt>
      <trkpt lat="43.57789" lon="0.24832">
        <ele>190.9</ele>
        <time>2018-06-02T07:39:43Z</time>
      </trkpt>
      <trkpt lat="43.5779" lon="0.24828">
        <ele>191</ele>
        <time>2018-06-02T07:39:45Z</time>
      </trkpt>
      <trkpt lat="43.5779" lon="0.24827">
        <ele>191.1</ele>
        <time>2018-06-02T07:39:46Z</time>
      </trkpt>
      <trkpt lat="43.57791" lon="0.24824">
        <ele>191.2</ele>
        <time>2018-06-02T07:39:48Z</time>
      </trkpt>
      <trkpt lat="43.57793" lon="0.24821">
        <ele>191.5</ele>
        <time>2018-06-02T07:39:51Z</time>
      </trkpt>
      <trkpt lat="43.57794" lon="0.24818">
        <ele>191.6</ele>
        <time>2018-06-02T07:39:53Z</time>
      </trkpt>
      <trkpt lat="43.57795" lon="0.24815">
        <ele>191.8</ele>
        <time>2018-06-02T07:39:56Z</time>
      </trkpt>
      <trkpt lat="43.57796" lon="0.24812">
        <ele>192</ele>
        <time>2018-06-02T07:39:58Z</time>
      </trkpt>
      <trkpt lat="43.57797" lon="0.2481">
        <ele>192.1</ele>
        <time>2018-06-02T07:40:00Z</time>
      </trkpt>
      <trkpt lat="43.57798" lon="0.24808">
        <ele>192.2</ele>
        <time>2018-06-02T07:40:01Z</time>
      </trkpt>
      <trkpt lat="43.578" lon="0.24805">
        <ele>192.3</ele>
        <time>2018-06-02T07:40:03Z</time>
      </trkpt>
      <trkpt lat="43.57802" lon="0.24801">
        <ele>192.6</ele>
        <time>2018-06-02T07:40:06Z</time>
      </trkpt>
      <trkpt lat="43.57803" lon="0.24798">
        <ele>192.7</ele>
        <time>2018-06-02T07:40:08Z</time>
      </trkpt>
      <trkpt lat="43.57805" lon="0.24794">
        <ele>192.9</ele>
        <time>2018-06-02T07:40:11Z</time>
      </trkpt>
      <trkpt lat="43.57807" lon="0.24789">
        <ele>193.1</ele>
        <time>2018-06-02T07:40:14Z</time>
      </trkpt>
      <trkpt lat="43.57809" lon="0.24786">
        <ele>193.3</ele>
        <time>2018-06-02T07:40:16Z</time>
      </trkpt>
      <trkpt lat="43.57811" lon="0.24781">
        <ele>193.5</ele>
        <time>2018-06-02T07:40:19Z</time>
      </trkpt>
      <trkpt lat="43.57813" lon="0.24778">
        <ele>193.6</ele>
        <time>2018-06-02T07:40:21Z</time>
      </trkpt>
      <trkpt lat="43.57813" lon="0.24778">
        <ele>193.7</ele>
        <time>2018-06-02T07:40:22Z</time>
      </trkpt>
      <trkpt lat="43.57815" lon="0.24777">
        <ele>193.7</ele>
        <time>2018-06-02T07:40:24Z</time>
      </trkpt>
      <trkpt lat="43.57816" lon="0.24776">
        <ele>193.7</ele>
        <time>2018-06-02T07:40:26Z</time>
      </trkpt>
      <trkpt lat="43.57818" lon="0.24775">
        <ele>193.6</ele>
        <time>2018-06-02T07:40:29Z</time>
      </trkpt>
      <trkpt lat="43.57831" lon="0.24767">
        <ele>192.8</ele>
        <time>2018-06-02T07:40:34Z</time>
      </trkpt>
      <trkpt lat="43.57831" lon="0.24767">
        <ele>192.8</ele>
        <time>2018-06-02T07:42:48Z</time>
      </trkpt>
      <trkpt lat="43.57843" lon="0.2476">
        <ele>191.9</ele>
        <time>2018-06-02T07:42:48Z</time>
      </trkpt>
      <trkpt lat="43.57844" lon="0.2476">
        <ele>191.9</ele>
        <time>2018-06-02T07:42:50Z</time>
      </trkpt>
      <trkpt lat="43.57845" lon="0.2476">
        <ele>191.9</ele>
        <time>2018-06-02T07:42:52Z</time>
      </trkpt>
      <trkpt lat="43.57846" lon="0.24757">
        <ele>191.8</ele>
        <time>2018-06-02T07:42:55Z</time>
      </trkpt>
      <trkpt lat="43.57846" lon="0.24755">
        <ele>191.8</ele>
        <time>2018-06-02T07:42:57Z</time>
      </trkpt>
      <trkpt lat="43.57846" lon="0.24752">
        <ele>191.8</ele>
        <time>2018-06-02T07:43:00Z</time>
      </trkpt>
      <trkpt lat="43.57847" lon="0.2475">
        <ele>191.7</ele>
        <time>2018-06-02T07:43:02Z</time>
      </trkpt>
      <trkpt lat="43.57847" lon="0.24747">
        <ele>191.7</ele>
        <time>2018-06-02T07:43:05Z</time>
      </trkpt>
      <trkpt lat="43.57848" lon="0.24745">
        <ele>191.7</ele>
        <time>2018-06-02T07:43:07Z</time>
      </trkpt>
      <trkpt lat="43.57848" lon="0.24742">
        <ele>191.6</ele>
        <time>2018-06-02T07:43:10Z</time>
      </trkpt>
      <trkpt lat="43.57848" lon="0.24741">
        <ele>191.6</ele>
        <time>2018-06-02T07:43:11Z</time>
      </trkpt>
      <trkpt lat="43.57848" lon="0.24738">
        <ele>191.6</ele>
        <time>2018-06-02T07:43:13Z</time>
      </trkpt>
      <trkpt lat="43.57848" lon="0.24736">
        <ele>191.6</ele>
        <time>2018-06-02T07:43:15Z</time>
      </trkpt>
      <trkpt lat="43.57849" lon="0.24732">
        <ele>191.5</ele>
        <time>2018-06-02T07:43:18Z</time>
      </trkpt>
      <trkpt lat="43.57849" lon="0.24729">
        <ele>191.5</ele>
        <time>2018-06-02T07:43:20Z</time>
      </trkpt>
      <trkpt lat="43.57849" lon="0.24725">
        <ele>191.5</ele>
        <time>2018-06-02T07:43:23Z</time>
      </trkpt>
      <trkpt lat="43.57849" lon="0.24723">
        <ele>191.5</ele>
        <time>2018-06-02T07:43:25Z</time>
      </trkpt>
      <trkpt lat="43.57849" lon="0.24721">
        <ele>191.4</ele>
        <time>2018-06-02T07:43:26Z</time>
      </trkpt>
      <trkpt lat="43.57849" lon="0.24718">
        <ele>191.4</ele>
        <time>2018-06-02T07:43:28Z</time>
      </trkpt>
      <trkpt lat="43.5785" lon="0.24715">
        <ele>191.4</ele>
        <time>2018-06-02T07:43:30Z</time>
      </trkpt>
      <trkpt lat="43.5785" lon="0.24711">
        <ele>191.4</ele>
        <time>2018-06-02T07:43:33Z</time>
      </trkpt>
      <trkpt lat="43.57851" lon="0.24706">
        <ele>191.3</ele>
        <time>2018-06-02T07:43:36Z</time>
      </trkpt>
      <trkpt lat="43.57851" lon="0.24703">
        <ele>191.3</ele>
        <time>2018-06-02T07:43:38Z</time>
      </trkpt>
      <trkpt lat="43.57851" lon="0.24702">
        <ele>191.3</ele>
        <time>2018-06-02T07:43:39Z</time>
      </trkpt>
      <trkpt lat="43.57852" lon="0.24699">
        <ele>191.3</ele>
        <time>2018-06-02T07:43:41Z</time>
      </trkpt>
      <trkpt lat="43.57852" lon="0.24695">
        <ele>191.2</ele>
        <time>2018-06-02T07:43:43Z</time>
      </trkpt>
      <trkpt lat="43.57852" lon="0.24691">
        <ele>191.2</ele>
        <time>2018-06-02T07:43:46Z</time>
      </trkpt>
      <trkpt lat="43.57852" lon="0.24687">
        <ele>191.2</ele>
        <time>2018-06-02T07:43:48Z</time>
      </trkpt>
      <trkpt lat="43.57852" lon="0.24683">
        <ele>191.1</ele>
        <time>2018-06-02T07:43:51Z</time>
      </trkpt>
      <trkpt lat="43.57852" lon="0.2468">
        <ele>191.1</ele>
        <time>2018-06-02T07:43:53Z</time>
      </trkpt>
      <trkpt lat="43.57853" lon="0.24675">
        <ele>191.1</ele>
        <time>2018-06-02T07:43:56Z</time>
      </trkpt>
      <trkpt lat="43.57853" lon="0.2467">
        <ele>191</ele>
        <time>2018-06-02T07:43:59Z</time>
      </trkpt>
      <trkpt lat="43.57853" lon="0.24667">
        <ele>191</ele>
        <time>2018-06-02T07:44:01Z</time>
      </trkpt>
      <trkpt lat="43.57853" lon="0.24662">
        <ele>191</ele>
        <time>2018-06-02T07:44:04Z</time>
      </trkpt>
      <trkpt lat="43.57853" lon="0.24659">
        <ele>191</ele>
        <time>2018-06-02T07:44:06Z</time>
      </trkpt>
      <trkpt lat="43.57853" lon="0.24655">
        <ele>190.9</ele>
        <time>2018-06-02T07:44:09Z</time>
      </trkpt>
      <trkpt lat="43.57854" lon="0.24652">
        <ele>190.9</ele>
        <time>2018-06-02T07:44:11Z</time>
      </trkpt>
      <trkpt lat="43.57854" lon="0.24647">
        <ele>190.9</ele>
        <time>2018-06-02T07:44:14Z</time>
      </trkpt>
      <trkpt lat="43.57854" lon="0.24644">
        <ele>190.8</ele>
        <time>2018-06-02T07:44:16Z</time>
      </trkpt>
      <trkpt lat="43.57855" lon="0.24639">
        <ele>190.8</ele>
        <time>2018-06-02T07:44:19Z</time>
      </trkpt>
      <trkpt lat="43.57855" lon="0.24633">
        <ele>190.8</ele>
        <time>2018-06-02T07:44:22Z</time>
      </trkpt>
      <trkpt lat="43.57856" lon="0.2463">
        <ele>190.7</ele>
        <time>2018-06-02T07:44:24Z</time>
      </trkpt>
      <trkpt lat="43.57856" lon="0.24624">
        <ele>190.7</ele>
        <time>2018-06-02T07:44:27Z</time>
      </trkpt>
      <trkpt lat="43.57856" lon="0.24621">
        <ele>190.7</ele>
        <time>2018-06-02T07:44:29Z</time>
      </trkpt>
      <trkpt lat="43.57856" lon="0.24616">
        <ele>190.6</ele>
        <time>2018-06-02T07:44:32Z</time>
      </trkpt>
      <trkpt lat="43.57856" lon="0.24613">
        <ele>190.6</ele>
        <time>2018-06-02T07:44:34Z</time>
      </trkpt>
      <trkpt lat="43.57857" lon="0.24608">
        <ele>190.6</ele>
        <time>2018-06-02T07:44:37Z</time>
      </trkpt>
      <trkpt lat="43.57857" lon="0.24605">
        <ele>190.6</ele>
        <time>2018-06-02T07:44:39Z</time>
      </trkpt>
      <trkpt lat="43.57857" lon="0.246">
        <ele>190.5</ele>
        <time>2018-06-02T07:44:42Z</time>
      </trkpt>
      <trkpt lat="43.57858" lon="0.24595">
        <ele>190.5</ele>
        <time>2018-06-02T07:44:45Z</time>
      </trkpt>
      <trkpt lat="43.57859" lon="0.24592">
        <ele>190.5</ele>
        <time>2018-06-02T07:44:47Z</time>
      </trkpt>
      <trkpt lat="43.57859" lon="0.24587">
        <ele>190.4</ele>
        <time>2018-06-02T07:44:50Z</time>
      </trkpt>
      <trkpt lat="43.5786" lon="0.24585">
        <ele>190.4</ele>
        <time>2018-06-02T07:44:51Z</time>
      </trkpt>
      <trkpt lat="43.5786" lon="0.24583">
        <ele>190.4</ele>
        <time>2018-06-02T07:44:52Z</time>
      </trkpt>
      <trkpt lat="43.5786" lon="0.24578">
        <ele>190.6</ele>
        <time>2018-06-02T07:44:55Z</time>
      </trkpt>
      <trkpt lat="43.57861" lon="0.24574">
        <ele>190.7</ele>
        <time>2018-06-02T07:44:57Z</time>
      </trkpt>
      <trkpt lat="43.57862" lon="0.24569">
        <ele>190.9</ele>
        <time>2018-06-02T07:45:00Z</time>
      </trkpt>
      <trkpt lat="43.57862" lon="0.24565">
        <ele>191</ele>
        <time>2018-06-02T07:45:02Z</time>
      </trkpt>
      <trkpt lat="43.57862" lon="0.24564">
        <ele>191.1</ele>
        <time>2018-06-02T07:45:03Z</time>
      </trkpt>
      <trkpt lat="43.57862" lon="0.24561">
        <ele>191.2</ele>
        <time>2018-06-02T07:45:05Z</time>
      </trkpt>
      <trkpt lat="43.57863" lon="0.24557">
        <ele>191.4</ele>
        <time>2018-06-02T07:45:08Z</time>
      </trkpt>
      <trkpt lat="43.57863" lon="0.24554">
        <ele>191.5</ele>
        <time>2018-06-02T07:45:10Z</time>
      </trkpt>
      <trkpt lat="43.57863" lon="0.2455">
        <ele>191.7</ele>
        <time>2018-06-02T07:45:13Z</time>
      </trkpt>
      <trkpt lat="43.57863" lon="0.24548">
        <ele>191.8</ele>
        <time>2018-06-02T07:45:15Z</time>
      </trkpt>
      <trkpt lat="43.57863" lon="0.24546">
        <ele>191.9</ele>
        <time>2018-06-02T07:45:16Z</time>
      </trkpt>
      <trkpt lat="43.57863" lon="0.24543">
        <ele>192</ele>
        <time>2018-06-02T07:45:18Z</time>
      </trkpt>
      <trkpt lat="43.57863" lon="0.2454">
        <ele>192.1</ele>
        <time>2018-06-02T07:45:20Z</time>
      </trkpt>
      <trkpt lat="43.57863" lon="0.24536">
        <ele>192.3</ele>
        <time>2018-06-02T07:45:23Z</time>
      </trkpt>
      <trkpt lat="43.57863" lon="0.24531">
        <ele>192.5</ele>
        <time>2018-06-02T07:45:26Z</time>
      </trkpt>
      <trkpt lat="43.57863" lon="0.24528">
        <ele>192.6</ele>
        <time>2018-06-02T07:45:28Z</time>
      </trkpt>
      <trkpt lat="43.57863" lon="0.24526">
        <ele>192.7</ele>
        <time>2018-06-02T07:45:29Z</time>
      </trkpt>
      <trkpt lat="43.57863" lon="0.24523">
        <ele>192.8</ele>
        <time>2018-06-02T07:45:31Z</time>
      </trkpt>
      <trkpt lat="43.57863" lon="0.2452">
        <ele>192.9</ele>
        <time>2018-06-02T07:45:33Z</time>
      </trkpt>
      <trkpt lat="43.57864" lon="0.24516">
        <ele>193.1</ele>
        <time>2018-06-02T07:45:36Z</time>
      </trkpt>
      <trkpt lat="43.57864" lon="0.24512">
        <ele>193.2</ele>
        <time>2018-06-02T07:45:38Z</time>
      </trkpt>
      <trkpt lat="43.57864" lon="0.24508">
        <ele>193.4</ele>
        <time>2018-06-02T07:45:41Z</time>
      </trkpt>
      <trkpt lat="43.57864" lon="0.24505">
        <ele>193.5</ele>
        <time>2018-06-02T07:45:43Z</time>
      </trkpt>
      <trkpt lat="43.57865" lon="0.24504">
        <ele>193.6</ele>
        <time>2018-06-02T07:45:44Z</time>
      </trkpt>
      <trkpt lat="43.57865" lon="0.24501">
        <ele>193.6</ele>
        <time>2018-06-02T07:45:46Z</time>
      </trkpt>
      <trkpt lat="43.57865" lon="0.24497">
        <ele>193.7</ele>
        <time>2018-06-02T07:45:49Z</time>
      </trkpt>
      <trkpt lat="43.57865" lon="0.24495">
        <ele>193.8</ele>
        <time>2018-06-02T07:45:51Z</time>
      </trkpt>
      <trkpt lat="43.57866" lon="0.24491">
        <ele>193.9</ele>
        <time>2018-06-02T07:45:54Z</time>
      </trkpt>
      <trkpt lat="43.57866" lon="0.24489">
        <ele>193.9</ele>
        <time>2018-06-02T07:45:55Z</time>
      </trkpt>
      <trkpt lat="43.57866" lon="0.24488">
        <ele>193.9</ele>
        <time>2018-06-02T07:45:56Z</time>
      </trkpt>
      <trkpt lat="43.57867" lon="0.24484">
        <ele>194</ele>
        <time>2018-06-02T07:45:59Z</time>
      </trkpt>
      <trkpt lat="43.57867" lon="0.24481">
        <ele>194.1</ele>
        <time>2018-06-02T07:46:01Z</time>
      </trkpt>
      <trkpt lat="43.57868" lon="0.24477">
        <ele>194.2</ele>
        <time>2018-06-02T07:46:04Z</time>
      </trkpt>
      <trkpt lat="43.57868" lon="0.24474">
        <ele>194.2</ele>
        <time>2018-06-02T07:46:06Z</time>
      </trkpt>
      <trkpt lat="43.57868" lon="0.24471">
        <ele>194.3</ele>
        <time>2018-06-02T07:46:08Z</time>
      </trkpt>
      <trkpt lat="43.57868" lon="0.24469">
        <ele>194.3</ele>
        <time>2018-06-02T07:46:09Z</time>
      </trkpt>
      <trkpt lat="43.57869" lon="0.24464">
        <ele>194.4</ele>
        <time>2018-06-02T07:46:12Z</time>
      </trkpt>
      <trkpt lat="43.57869" lon="0.24461">
        <ele>194.5</ele>
        <time>2018-06-02T07:46:14Z</time>
      </trkpt>
      <trkpt lat="43.5787" lon="0.24456">
        <ele>194.6</ele>
        <time>2018-06-02T07:46:17Z</time>
      </trkpt>
      <trkpt lat="43.5787" lon="0.24453">
        <ele>194.6</ele>
        <time>2018-06-02T07:46:19Z</time>
      </trkpt>
      <trkpt lat="43.57871" lon="0.24451">
        <ele>194.6</ele>
        <time>2018-06-02T07:46:20Z</time>
      </trkpt>
      <trkpt lat="43.57871" lon="0.24449">
        <ele>194.7</ele>
        <time>2018-06-02T07:46:22Z</time>
      </trkpt>
      <trkpt lat="43.57871" lon="0.24446">
        <ele>194.8</ele>
        <time>2018-06-02T07:46:24Z</time>
      </trkpt>
      <trkpt lat="43.57871" lon="0.24441">
        <ele>194.8</ele>
        <time>2018-06-02T07:46:27Z</time>
      </trkpt>
      <trkpt lat="43.57871" lon="0.24439">
        <ele>194.9</ele>
        <time>2018-06-02T07:46:29Z</time>
      </trkpt>
      <trkpt lat="43.57871" lon="0.24434">
        <ele>195</ele>
        <time>2018-06-02T07:46:32Z</time>
      </trkpt>
      <trkpt lat="43.57871" lon="0.24433">
        <ele>195</ele>
        <time>2018-06-02T07:46:33Z</time>
      </trkpt>
      <trkpt lat="43.57871" lon="0.24429">
        <ele>195.1</ele>
        <time>2018-06-02T07:46:35Z</time>
      </trkpt>
      <trkpt lat="43.57871" lon="0.24426">
        <ele>195.1</ele>
        <time>2018-06-02T07:46:37Z</time>
      </trkpt>
      <trkpt lat="43.57872" lon="0.24421">
        <ele>195.2</ele>
        <time>2018-06-02T07:46:40Z</time>
      </trkpt>
      <trkpt lat="43.57872" lon="0.24417">
        <ele>195.3</ele>
        <time>2018-06-02T07:46:42Z</time>
      </trkpt>
      <trkpt lat="43.57872" lon="0.24414">
        <ele>195.3</ele>
        <time>2018-06-02T07:46:44Z</time>
      </trkpt>
      <trkpt lat="43.57872" lon="0.24412">
        <ele>195.4</ele>
        <time>2018-06-02T07:46:45Z</time>
      </trkpt>
      <trkpt lat="43.57873" lon="0.24409">
        <ele>195.4</ele>
        <time>2018-06-02T07:46:47Z</time>
      </trkpt>
      <trkpt lat="43.57873" lon="0.24404">
        <ele>195.5</ele>
        <time>2018-06-02T07:46:50Z</time>
      </trkpt>
      <trkpt lat="43.57873" lon="0.24401">
        <ele>195.6</ele>
        <time>2018-06-02T07:46:52Z</time>
      </trkpt>
      <trkpt lat="43.57874" lon="0.24396">
        <ele>195.7</ele>
        <time>2018-06-02T07:46:55Z</time>
      </trkpt>
      <trkpt lat="43.57874" lon="0.24394">
        <ele>195.7</ele>
        <time>2018-06-02T07:46:56Z</time>
      </trkpt>
      <trkpt lat="43.57874" lon="0.24391">
        <ele>195.7</ele>
        <time>2018-06-02T07:46:58Z</time>
      </trkpt>
      <trkpt lat="43.57875" lon="0.24388">
        <ele>195.8</ele>
        <time>2018-06-02T07:47:00Z</time>
      </trkpt>
      <trkpt lat="43.57875" lon="0.24383">
        <ele>195.9</ele>
        <time>2018-06-02T07:47:03Z</time>
      </trkpt>
      <trkpt lat="43.57875" lon="0.24379">
        <ele>196</ele>
        <time>2018-06-02T07:47:05Z</time>
      </trkpt>
      <trkpt lat="43.57876" lon="0.24376">
        <ele>196</ele>
        <time>2018-06-02T07:47:07Z</time>
      </trkpt>
      <trkpt lat="43.57876" lon="0.24374">
        <ele>196</ele>
        <time>2018-06-02T07:47:08Z</time>
      </trkpt>
      <trkpt lat="43.57876" lon="0.2437">
        <ele>196.1</ele>
        <time>2018-06-02T07:47:10Z</time>
      </trkpt>
      <trkpt lat="43.57877" lon="0.24365">
        <ele>196.2</ele>
        <time>2018-06-02T07:47:13Z</time>
      </trkpt>
      <trkpt lat="43.57878" lon="0.24362">
        <ele>196.2</ele>
        <time>2018-06-02T07:47:15Z</time>
      </trkpt>
      <trkpt lat="43.57878" lon="0.24357">
        <ele>196.3</ele>
        <time>2018-06-02T07:47:18Z</time>
      </trkpt>
      <trkpt lat="43.57878" lon="0.24351">
        <ele>196.4</ele>
        <time>2018-06-02T07:47:21Z</time>
      </trkpt>
      <trkpt lat="43.57878" lon="0.24348">
        <ele>196.5</ele>
        <time>2018-06-02T07:47:23Z</time>
      </trkpt>
      <trkpt lat="43.57878" lon="0.24343">
        <ele>196.6</ele>
        <time>2018-06-02T07:47:26Z</time>
      </trkpt>
      <trkpt lat="43.57877" lon="0.24339">
        <ele>196.6</ele>
        <time>2018-06-02T07:47:28Z</time>
      </trkpt>
      <trkpt lat="43.57877" lon="0.24338">
        <ele>196.6</ele>
        <time>2018-06-02T07:47:29Z</time>
      </trkpt>
      <trkpt lat="43.57877" lon="0.24336">
        <ele>196.7</ele>
        <time>2018-06-02T07:47:30Z</time>
      </trkpt>
      <trkpt lat="43.57877" lon="0.24334">
        <ele>196.8</ele>
        <time>2018-06-02T07:47:31Z</time>
      </trkpt>
      <trkpt lat="43.57877" lon="0.24331">
        <ele>197</ele>
        <time>2018-06-02T07:47:33Z</time>
      </trkpt>
      <trkpt lat="43.57877" lon="0.24326">
        <ele>197.3</ele>
        <time>2018-06-02T07:47:36Z</time>
      </trkpt>
      <trkpt lat="43.57877" lon="0.24323">
        <ele>197.5</ele>
        <time>2018-06-02T07:47:38Z</time>
      </trkpt>
      <trkpt lat="43.57877" lon="0.24318">
        <ele>197.8</ele>
        <time>2018-06-02T07:47:41Z</time>
      </trkpt>
      <trkpt lat="43.57879" lon="0.24314">
        <ele>198.1</ele>
        <time>2018-06-02T07:47:44Z</time>
      </trkpt>
      <trkpt lat="43.5788" lon="0.24311">
        <ele>198.3</ele>
        <time>2018-06-02T07:47:46Z</time>
      </trkpt>
      <trkpt lat="43.57882" lon="0.24307">
        <ele>198.6</ele>
        <time>2018-06-02T07:47:49Z</time>
      </trkpt>
      <trkpt lat="43.57883" lon="0.24304">
        <ele>198.8</ele>
        <time>2018-06-02T07:47:51Z</time>
      </trkpt>
      <trkpt lat="43.57885" lon="0.243">
        <ele>199.1</ele>
        <time>2018-06-02T07:47:54Z</time>
      </trkpt>
      <trkpt lat="43.57887" lon="0.24299">
        <ele>199.3</ele>
        <time>2018-06-02T07:47:56Z</time>
      </trkpt>
      <trkpt lat="43.5789" lon="0.24297">
        <ele>199.6</ele>
        <time>2018-06-02T07:47:59Z</time>
      </trkpt>
      <trkpt lat="43.57892" lon="0.24295">
        <ele>199.8</ele>
        <time>2018-06-02T07:48:01Z</time>
      </trkpt>
      <trkpt lat="43.57895" lon="0.24293">
        <ele>200</ele>
        <time>2018-06-02T07:48:04Z</time>
      </trkpt>
      <trkpt lat="43.57897" lon="0.24292">
        <ele>200.3</ele>
        <time>2018-06-02T07:48:06Z</time>
      </trkpt>
      <trkpt lat="43.57898" lon="0.24291">
        <ele>200.4</ele>
        <time>2018-06-02T07:48:07Z</time>
      </trkpt>
      <trkpt lat="43.579" lon="0.2429">
        <ele>200.7</ele>
        <time>2018-06-02T07:48:09Z</time>
      </trkpt>
      <trkpt lat="43.57904" lon="0.24288">
        <ele>201.1</ele>
        <time>2018-06-02T07:48:12Z</time>
      </trkpt>
      <trkpt lat="43.57906" lon="0.24287">
        <ele>201.4</ele>
        <time>2018-06-02T07:48:14Z</time>
      </trkpt>
      <trkpt lat="43.57909" lon="0.24285">
        <ele>201.8</ele>
        <time>2018-06-02T07:48:17Z</time>
      </trkpt>
      <trkpt lat="43.57911" lon="0.24283">
        <ele>202.1</ele>
        <time>2018-06-02T07:48:19Z</time>
      </trkpt>
      <trkpt lat="43.57914" lon="0.24281">
        <ele>202.6</ele>
        <time>2018-06-02T07:48:22Z</time>
      </trkpt>
      <trkpt lat="43.57916" lon="0.2428">
        <ele>202.8</ele>
        <time>2018-06-02T07:48:24Z</time>
      </trkpt>
      <trkpt lat="43.57918" lon="0.24278">
        <ele>203.3</ele>
        <time>2018-06-02T07:48:27Z</time>
      </trkpt>
      <trkpt lat="43.57921" lon="0.24276">
        <ele>203.7</ele>
        <time>2018-06-02T07:48:30Z</time>
      </trkpt>
      <trkpt lat="43.57923" lon="0.24278">
        <ele>203.9</ele>
        <time>2018-06-02T07:48:32Z</time>
      </trkpt>
      <trkpt lat="43.57925" lon="0.24282">
        <ele>204.3</ele>
        <time>2018-06-02T07:48:35Z</time>
      </trkpt>
      <trkpt lat="43.57926" lon="0.24284">
        <ele>204.6</ele>
        <time>2018-06-02T07:48:37Z</time>
      </trkpt>
      <trkpt lat="43.57928" lon="0.24287">
        <ele>204.9</ele>
        <time>2018-06-02T07:48:40Z</time>
      </trkpt>
      <trkpt lat="43.5793" lon="0.2429">
        <ele>205.2</ele>
        <time>2018-06-02T07:48:42Z</time>
      </trkpt>
      <trkpt lat="43.57931" lon="0.2429">
        <ele>205.2</ele>
        <time>2018-06-02T07:48:43Z</time>
      </trkpt>
      <trkpt lat="43.57931" lon="0.24291">
        <ele>205.2</ele>
        <time>2018-06-02T07:48:45Z</time>
      </trkpt>
      <trkpt lat="43.57932" lon="0.24291">
        <ele>205.3</ele>
        <time>2018-06-02T07:48:47Z</time>
      </trkpt>
      <trkpt lat="43.57932" lon="0.24292">
        <ele>205.3</ele>
        <time>2018-06-02T07:48:48Z</time>
      </trkpt>
      <trkpt lat="43.57932" lon="0.24292">
        <ele>205.3</ele>
        <time>2018-06-02T07:48:50Z</time>
      </trkpt>
      <trkpt lat="43.57933" lon="0.24292">
        <ele>205.3</ele>
        <time>2018-06-02T07:48:53Z</time>
      </trkpt>
      <trkpt lat="43.57933" lon="0.24289">
        <ele>205.3</ele>
        <time>2018-06-02T07:48:55Z</time>
      </trkpt>
      <trkpt lat="43.57932" lon="0.24285">
        <ele>205.4</ele>
        <time>2018-06-02T07:48:58Z</time>
      </trkpt>
      <trkpt lat="43.57932" lon="0.24282">
        <ele>205.4</ele>
        <time>2018-06-02T07:49:00Z</time>
      </trkpt>
      <trkpt lat="43.57931" lon="0.24277">
        <ele>205.4</ele>
        <time>2018-06-02T07:49:03Z</time>
      </trkpt>
      <trkpt lat="43.57931" lon="0.24274">
        <ele>205.5</ele>
        <time>2018-06-02T07:49:05Z</time>
      </trkpt>
      <trkpt lat="43.57931" lon="0.24273">
        <ele>205.5</ele>
        <time>2018-06-02T07:49:06Z</time>
      </trkpt>
      <trkpt lat="43.57932" lon="0.24271">
        <ele>205.5</ele>
        <time>2018-06-02T07:49:08Z</time>
      </trkpt>
      <trkpt lat="43.57934" lon="0.24269">
        <ele>205.5</ele>
        <time>2018-06-02T07:49:11Z</time>
      </trkpt>
      <trkpt lat="43.57935" lon="0.24268">
        <ele>205.5</ele>
        <time>2018-06-02T07:49:13Z</time>
      </trkpt>
      <trkpt lat="43.57936" lon="0.24265">
        <ele>205.6</ele>
        <time>2018-06-02T07:49:16Z</time>
      </trkpt>
      <trkpt lat="43.57937" lon="0.24264">
        <ele>205.6</ele>
        <time>2018-06-02T07:49:18Z</time>
      </trkpt>
      <trkpt lat="43.57936" lon="0.24259">
        <ele>205.6</ele>
        <time>2018-06-02T07:49:21Z</time>
      </trkpt>
      <trkpt lat="43.57936" lon="0.24257">
        <ele>205.6</ele>
        <time>2018-06-02T07:49:23Z</time>
      </trkpt>
      <trkpt lat="43.57935" lon="0.24253">
        <ele>205.7</ele>
        <time>2018-06-02T07:49:26Z</time>
      </trkpt>
      <trkpt lat="43.57934" lon="0.2425">
        <ele>205.7</ele>
        <time>2018-06-02T07:49:28Z</time>
      </trkpt>
      <trkpt lat="43.57934" lon="0.24246">
        <ele>205.7</ele>
        <time>2018-06-02T07:49:31Z</time>
      </trkpt>
      <trkpt lat="43.57933" lon="0.24244">
        <ele>205.7</ele>
        <time>2018-06-02T07:49:32Z</time>
      </trkpt>
      <trkpt lat="43.57933" lon="0.24241">
        <ele>205.8</ele>
        <time>2018-06-02T07:49:34Z</time>
      </trkpt>
      <trkpt lat="43.57932" lon="0.24238">
        <ele>205.8</ele>
        <time>2018-06-02T07:49:36Z</time>
      </trkpt>
      <trkpt lat="43.57931" lon="0.24233">
        <ele>205.8</ele>
        <time>2018-06-02T07:49:39Z</time>
      </trkpt>
      <trkpt lat="43.57931" lon="0.2423">
        <ele>205.8</ele>
        <time>2018-06-02T07:49:41Z</time>
      </trkpt>
      <trkpt lat="43.5793" lon="0.24226">
        <ele>205.9</ele>
        <time>2018-06-02T07:49:44Z</time>
      </trkpt>
      <trkpt lat="43.5793" lon="0.24223">
        <ele>205.9</ele>
        <time>2018-06-02T07:49:46Z</time>
      </trkpt>
      <trkpt lat="43.5793" lon="0.24218">
        <ele>205.9</ele>
        <time>2018-06-02T07:49:49Z</time>
      </trkpt>
      <trkpt lat="43.5793" lon="0.24215">
        <ele>205.9</ele>
        <time>2018-06-02T07:49:51Z</time>
      </trkpt>
      <trkpt lat="43.57929" lon="0.24211">
        <ele>206</ele>
        <time>2018-06-02T07:49:54Z</time>
      </trkpt>
      <trkpt lat="43.57929" lon="0.24207">
        <ele>206</ele>
        <time>2018-06-02T07:49:57Z</time>
      </trkpt>
      <trkpt lat="43.57929" lon="0.24203">
        <ele>206</ele>
        <time>2018-06-02T07:49:59Z</time>
      </trkpt>
      <trkpt lat="43.57929" lon="0.24198">
        <ele>206.1</ele>
        <time>2018-06-02T07:50:02Z</time>
      </trkpt>
      <trkpt lat="43.57929" lon="0.24195">
        <ele>206.1</ele>
        <time>2018-06-02T07:50:04Z</time>
      </trkpt>
      <trkpt lat="43.57929" lon="0.2419">
        <ele>206.1</ele>
        <time>2018-06-02T07:50:07Z</time>
      </trkpt>
      <trkpt lat="43.57929" lon="0.24187">
        <ele>206.1</ele>
        <time>2018-06-02T07:50:09Z</time>
      </trkpt>
      <trkpt lat="43.57928" lon="0.24182">
        <ele>206.2</ele>
        <time>2018-06-02T07:50:12Z</time>
      </trkpt>
      <trkpt lat="43.57928" lon="0.24179">
        <ele>206.2</ele>
        <time>2018-06-02T07:50:14Z</time>
      </trkpt>
      <trkpt lat="43.57928" lon="0.24174">
        <ele>206.2</ele>
        <time>2018-06-02T07:50:17Z</time>
      </trkpt>
      <trkpt lat="43.57928" lon="0.2417">
        <ele>206.2</ele>
        <time>2018-06-02T07:50:20Z</time>
      </trkpt>
      <trkpt lat="43.57927" lon="0.24167">
        <ele>206.3</ele>
        <time>2018-06-02T07:50:22Z</time>
      </trkpt>
      <trkpt lat="43.57926" lon="0.24162">
        <ele>206.3</ele>
        <time>2018-06-02T07:50:25Z</time>
      </trkpt>
      <trkpt lat="43.57926" lon="0.24159">
        <ele>206.3</ele>
        <time>2018-06-02T07:50:27Z</time>
      </trkpt>
      <trkpt lat="43.57925" lon="0.24155">
        <ele>206.3</ele>
        <time>2018-06-02T07:50:30Z</time>
      </trkpt>
      <trkpt lat="43.57924" lon="0.24152">
        <ele>206.4</ele>
        <time>2018-06-02T07:50:32Z</time>
      </trkpt>
      <trkpt lat="43.57923" lon="0.24149">
        <ele>206.4</ele>
        <time>2018-06-02T07:50:34Z</time>
      </trkpt>
      <trkpt lat="43.57923" lon="0.24147">
        <ele>206.4</ele>
        <time>2018-06-02T07:50:35Z</time>
      </trkpt>
      <trkpt lat="43.57922" lon="0.24144">
        <ele>206.4</ele>
        <time>2018-06-02T07:50:37Z</time>
      </trkpt>
      <trkpt lat="43.57921" lon="0.2414">
        <ele>206.5</ele>
        <time>2018-06-02T07:50:40Z</time>
      </trkpt>
      <trkpt lat="43.5792" lon="0.24135">
        <ele>206.5</ele>
        <time>2018-06-02T07:50:43Z</time>
      </trkpt>
      <trkpt lat="43.5792" lon="0.24132">
        <ele>206.5</ele>
        <time>2018-06-02T07:50:45Z</time>
      </trkpt>
      <trkpt lat="43.57919" lon="0.24131">
        <ele>206.5</ele>
        <time>2018-06-02T07:50:46Z</time>
      </trkpt>
      <trkpt lat="43.57918" lon="0.24128">
        <ele>206.5</ele>
        <time>2018-06-02T07:50:48Z</time>
      </trkpt>
      <trkpt lat="43.57918" lon="0.24125">
        <ele>206.6</ele>
        <time>2018-06-02T07:50:50Z</time>
      </trkpt>
      <trkpt lat="43.57916" lon="0.2412">
        <ele>206.6</ele>
        <time>2018-06-02T07:50:53Z</time>
      </trkpt>
      <trkpt lat="43.57916" lon="0.24118">
        <ele>206.6</ele>
        <time>2018-06-02T07:50:55Z</time>
      </trkpt>
      <trkpt lat="43.57914" lon="0.24113">
        <ele>206.6</ele>
        <time>2018-06-02T07:50:58Z</time>
      </trkpt>
      <trkpt lat="43.57914" lon="0.24112">
        <ele>206.7</ele>
        <time>2018-06-02T07:50:59Z</time>
      </trkpt>
      <trkpt lat="43.57914" lon="0.2411">
        <ele>206.7</ele>
        <time>2018-06-02T07:51:00Z</time>
      </trkpt>
      <trkpt lat="43.57913" lon="0.24105">
        <ele>206.7</ele>
        <time>2018-06-02T07:51:03Z</time>
      </trkpt>
      <trkpt lat="43.57912" lon="0.24101">
        <ele>206.7</ele>
        <time>2018-06-02T07:51:06Z</time>
      </trkpt>
      <trkpt lat="43.57911" lon="0.24098">
        <ele>206.8</ele>
        <time>2018-06-02T07:51:08Z</time>
      </trkpt>
      <trkpt lat="43.5791" lon="0.24093">
        <ele>206.8</ele>
        <time>2018-06-02T07:51:11Z</time>
      </trkpt>
      <trkpt lat="43.57909" lon="0.2409">
        <ele>206.8</ele>
        <time>2018-06-02T07:51:13Z</time>
      </trkpt>
      <trkpt lat="43.57908" lon="0.24085">
        <ele>206.8</ele>
        <time>2018-06-02T07:51:16Z</time>
      </trkpt>
      <trkpt lat="43.57907" lon="0.24082">
        <ele>206.9</ele>
        <time>2018-06-02T07:51:18Z</time>
      </trkpt>
      <trkpt lat="43.57905" lon="0.24078">
        <ele>206.9</ele>
        <time>2018-06-02T07:51:21Z</time>
      </trkpt>
      <trkpt lat="43.57904" lon="0.24075">
        <ele>206.9</ele>
        <time>2018-06-02T07:51:23Z</time>
      </trkpt>
      <trkpt lat="43.57904" lon="0.2407">
        <ele>206.9</ele>
        <time>2018-06-02T07:51:26Z</time>
      </trkpt>
      <trkpt lat="43.57903" lon="0.24066">
        <ele>207</ele>
        <time>2018-06-02T07:51:29Z</time>
      </trkpt>
      <trkpt lat="43.57902" lon="0.24063">
        <ele>207</ele>
        <time>2018-06-02T07:51:31Z</time>
      </trkpt>
      <trkpt lat="43.57901" lon="0.24058">
        <ele>207</ele>
        <time>2018-06-02T07:51:34Z</time>
      </trkpt>
      <trkpt lat="43.57901" lon="0.24055">
        <ele>207</ele>
        <time>2018-06-02T07:51:36Z</time>
      </trkpt>
      <trkpt lat="43.579" lon="0.2405">
        <ele>207.1</ele>
        <time>2018-06-02T07:51:39Z</time>
      </trkpt>
      <trkpt lat="43.57899" lon="0.24047">
        <ele>207.1</ele>
        <time>2018-06-02T07:51:41Z</time>
      </trkpt>
      <trkpt lat="43.57898" lon="0.24043">
        <ele>207.1</ele>
        <time>2018-06-02T07:51:44Z</time>
      </trkpt>
      <trkpt lat="43.57898" lon="0.2404">
        <ele>207.2</ele>
        <time>2018-06-02T07:51:46Z</time>
      </trkpt>
      <trkpt lat="43.57897" lon="0.24036">
        <ele>207.2</ele>
        <time>2018-06-02T07:51:48Z</time>
      </trkpt>
      <trkpt lat="43.57897" lon="0.24035">
        <ele>207.2</ele>
        <time>2018-06-02T07:51:49Z</time>
      </trkpt>
      <trkpt lat="43.57896" lon="0.2403">
        <ele>207.2</ele>
        <time>2018-06-02T07:51:52Z</time>
      </trkpt>
      <trkpt lat="43.57895" lon="0.24027">
        <ele>207.2</ele>
        <time>2018-06-02T07:51:54Z</time>
      </trkpt>
      <trkpt lat="43.57894" lon="0.24023">
        <ele>207.3</ele>
        <time>2018-06-02T07:51:57Z</time>
      </trkpt>
      <trkpt lat="43.57893" lon="0.2402">
        <ele>207.3</ele>
        <time>2018-06-02T07:51:59Z</time>
      </trkpt>
      <trkpt lat="43.57892" lon="0.24018">
        <ele>207.3</ele>
        <time>2018-06-02T07:52:00Z</time>
      </trkpt>
      <trkpt lat="43.57891" lon="0.24015">
        <ele>207.3</ele>
        <time>2018-06-02T07:52:02Z</time>
      </trkpt>
      <trkpt lat="43.5789" lon="0.24012">
        <ele>207.3</ele>
        <time>2018-06-02T07:52:04Z</time>
      </trkpt>
      <trkpt lat="43.57889" lon="0.24007">
        <ele>207.4</ele>
        <time>2018-06-02T07:52:07Z</time>
      </trkpt>
      <trkpt lat="43.57888" lon="0.24004">
        <ele>207.4</ele>
        <time>2018-06-02T07:52:09Z</time>
      </trkpt>
      <trkpt lat="43.57887" lon="0.24001">
        <ele>207.4</ele>
        <time>2018-06-02T07:52:11Z</time>
      </trkpt>
      <trkpt lat="43.57887" lon="0.23999">
        <ele>207.4</ele>
        <time>2018-06-02T07:52:12Z</time>
      </trkpt>
      <trkpt lat="43.57886" lon="0.23995">
        <ele>207.5</ele>
        <time>2018-06-02T07:52:15Z</time>
      </trkpt>
      <trkpt lat="43.57885" lon="0.23992">
        <ele>207.5</ele>
        <time>2018-06-02T07:52:17Z</time>
      </trkpt>
      <trkpt lat="43.57884" lon="0.23987">
        <ele>207.5</ele>
        <time>2018-06-02T07:52:20Z</time>
      </trkpt>
      <trkpt lat="43.57884" lon="0.23984">
        <ele>207.5</ele>
        <time>2018-06-02T07:52:22Z</time>
      </trkpt>
      <trkpt lat="43.57883" lon="0.23981">
        <ele>207.6</ele>
        <time>2018-06-02T07:52:24Z</time>
      </trkpt>
      <trkpt lat="43.57883" lon="0.2398">
        <ele>207.6</ele>
        <time>2018-06-02T07:52:25Z</time>
      </trkpt>
      <trkpt lat="43.57882" lon="0.23977">
        <ele>207.6</ele>
        <time>2018-06-02T07:52:27Z</time>
      </trkpt>
      <trkpt lat="43.57881" lon="0.23973">
        <ele>207.6</ele>
        <time>2018-06-02T07:52:30Z</time>
      </trkpt>
      <trkpt lat="43.5788" lon="0.2397">
        <ele>207.6</ele>
        <time>2018-06-02T07:52:32Z</time>
      </trkpt>
      <trkpt lat="43.57879" lon="0.23966">
        <ele>207.7</ele>
        <time>2018-06-02T07:52:35Z</time>
      </trkpt>
      <trkpt lat="43.57878" lon="0.23961">
        <ele>207.7</ele>
        <time>2018-06-02T07:52:38Z</time>
      </trkpt>
      <trkpt lat="43.57877" lon="0.23958">
        <ele>207.7</ele>
        <time>2018-06-02T07:52:40Z</time>
      </trkpt>
      <trkpt lat="43.57876" lon="0.23954">
        <ele>207.8</ele>
        <time>2018-06-02T07:52:43Z</time>
      </trkpt>
      <trkpt lat="43.57875" lon="0.23951">
        <ele>207.8</ele>
        <time>2018-06-02T07:52:45Z</time>
      </trkpt>
      <trkpt lat="43.57874" lon="0.23946">
        <ele>207.8</ele>
        <time>2018-06-02T07:52:48Z</time>
      </trkpt>
      <trkpt lat="43.57874" lon="0.23943">
        <ele>207.8</ele>
        <time>2018-06-02T07:52:50Z</time>
      </trkpt>
      <trkpt lat="43.57873" lon="0.23938">
        <ele>207.9</ele>
        <time>2018-06-02T07:52:53Z</time>
      </trkpt>
      <trkpt lat="43.57871" lon="0.23933">
        <ele>207.9</ele>
        <time>2018-06-02T07:52:56Z</time>
      </trkpt>
      <trkpt lat="43.57871" lon="0.23929">
        <ele>207.9</ele>
        <time>2018-06-02T07:52:58Z</time>
      </trkpt>
      <trkpt lat="43.5787" lon="0.23924">
        <ele>207.9</ele>
        <time>2018-06-02T07:53:01Z</time>
      </trkpt>
      <trkpt lat="43.57868" lon="0.23921">
        <ele>208</ele>
        <time>2018-06-02T07:53:03Z</time>
      </trkpt>
      <trkpt lat="43.57867" lon="0.23916">
        <ele>208</ele>
        <time>2018-06-02T07:53:06Z</time>
      </trkpt>
      <trkpt lat="43.57866" lon="0.23912">
        <ele>208</ele>
        <time>2018-06-02T07:53:08Z</time>
      </trkpt>
      <trkpt lat="43.57864" lon="0.23907">
        <ele>208</ele>
        <time>2018-06-02T07:53:11Z</time>
      </trkpt>
      <trkpt lat="43.57864" lon="0.23906">
        <ele>208.1</ele>
        <time>2018-06-02T07:53:12Z</time>
      </trkpt>
      <trkpt lat="43.57863" lon="0.23904">
        <ele>208.1</ele>
        <time>2018-06-02T07:53:13Z</time>
      </trkpt>
      <trkpt lat="43.57862" lon="0.239">
        <ele>208.1</ele>
        <time>2018-06-02T07:53:16Z</time>
      </trkpt>
      <trkpt lat="43.5786" lon="0.23895">
        <ele>208.1</ele>
        <time>2018-06-02T07:53:19Z</time>
      </trkpt>
      <trkpt lat="43.57859" lon="0.23892">
        <ele>208.2</ele>
        <time>2018-06-02T07:53:21Z</time>
      </trkpt>
      <trkpt lat="43.57857" lon="0.23888">
        <ele>208.2</ele>
        <time>2018-06-02T07:53:24Z</time>
      </trkpt>
      <trkpt lat="43.57857" lon="0.23884">
        <ele>208.2</ele>
        <time>2018-06-02T07:53:26Z</time>
      </trkpt>
      <trkpt lat="43.57856" lon="0.23879">
        <ele>208.2</ele>
        <time>2018-06-02T07:53:29Z</time>
      </trkpt>
      <trkpt lat="43.57855" lon="0.23875">
        <ele>208.3</ele>
        <time>2018-06-02T07:53:31Z</time>
      </trkpt>
      <trkpt lat="43.57855" lon="0.2387">
        <ele>208.3</ele>
        <time>2018-06-02T07:53:34Z</time>
      </trkpt>
      <trkpt lat="43.57854" lon="0.23868">
        <ele>208.3</ele>
        <time>2018-06-02T07:53:35Z</time>
      </trkpt>
      <trkpt lat="43.57854" lon="0.23867">
        <ele>208.3</ele>
        <time>2018-06-02T07:53:36Z</time>
      </trkpt>
      <trkpt lat="43.57853" lon="0.23862">
        <ele>208.3</ele>
        <time>2018-06-02T07:53:39Z</time>
      </trkpt>
      <trkpt lat="43.57852" lon="0.23858">
        <ele>208.4</ele>
        <time>2018-06-02T07:53:42Z</time>
      </trkpt>
      <trkpt lat="43.57851" lon="0.23854">
        <ele>208.4</ele>
        <time>2018-06-02T07:53:44Z</time>
      </trkpt>
      <trkpt lat="43.5785" lon="0.2385">
        <ele>208.4</ele>
        <time>2018-06-02T07:53:47Z</time>
      </trkpt>
      <trkpt lat="43.5785" lon="0.23847">
        <ele>208.4</ele>
        <time>2018-06-02T07:53:49Z</time>
      </trkpt>
      <trkpt lat="43.57849" lon="0.23843">
        <ele>208.5</ele>
        <time>2018-06-02T07:53:52Z</time>
      </trkpt>
      <trkpt lat="43.57848" lon="0.2384">
        <ele>208.5</ele>
        <time>2018-06-02T07:53:54Z</time>
      </trkpt>
      <trkpt lat="43.57848" lon="0.23835">
        <ele>208.5</ele>
        <time>2018-06-02T07:53:57Z</time>
      </trkpt>
      <trkpt lat="43.57847" lon="0.23833">
        <ele>208.6</ele>
        <time>2018-06-02T07:53:59Z</time>
      </trkpt>
      <trkpt lat="43.57847" lon="0.23831">
        <ele>208.6</ele>
        <time>2018-06-02T07:54:00Z</time>
      </trkpt>
      <trkpt lat="43.57846" lon="0.23829">
        <ele>208.6</ele>
        <time>2018-06-02T07:54:02Z</time>
      </trkpt>
      <trkpt lat="43.57845" lon="0.23826">
        <ele>208.6</ele>
        <time>2018-06-02T07:54:05Z</time>
      </trkpt>
      <trkpt lat="43.57845" lon="0.23824">
        <ele>208.6</ele>
        <time>2018-06-02T07:54:07Z</time>
      </trkpt>
      <trkpt lat="43.57844" lon="0.2382">
        <ele>208.7</ele>
        <time>2018-06-02T07:54:10Z</time>
      </trkpt>
      <trkpt lat="43.57844" lon="0.23818">
        <ele>208.7</ele>
        <time>2018-06-02T07:54:12Z</time>
      </trkpt>
      <trkpt lat="43.57843" lon="0.23815">
        <ele>208.7</ele>
        <time>2018-06-02T07:54:15Z</time>
      </trkpt>
      <trkpt lat="43.57842" lon="0.23813">
        <ele>208.7</ele>
        <time>2018-06-02T07:54:17Z</time>
      </trkpt>
      <trkpt lat="43.57842" lon="0.23812">
        <ele>208.8</ele>
        <time>2018-06-02T07:54:18Z</time>
      </trkpt>
      <trkpt lat="43.57842" lon="0.23809">
        <ele>208.8</ele>
        <time>2018-06-02T07:54:20Z</time>
      </trkpt>
      <trkpt lat="43.57841" lon="0.23806">
        <ele>209</ele>
        <time>2018-06-02T07:54:22Z</time>
      </trkpt>
      <trkpt lat="43.57841" lon="0.23802">
        <ele>209.3</ele>
        <time>2018-06-02T07:54:25Z</time>
      </trkpt>
      <trkpt lat="43.5784" lon="0.23797">
        <ele>209.6</ele>
        <time>2018-06-02T07:54:28Z</time>
      </trkpt>
      <trkpt lat="43.57839" lon="0.23795">
        <ele>209.8</ele>
        <time>2018-06-02T07:54:30Z</time>
      </trkpt>
      <trkpt lat="43.57839" lon="0.23793">
        <ele>209.9</ele>
        <time>2018-06-02T07:54:31Z</time>
      </trkpt>
      <trkpt lat="43.57838" lon="0.2379">
        <ele>210.1</ele>
        <time>2018-06-02T07:54:33Z</time>
      </trkpt>
      <trkpt lat="43.57837" lon="0.23786">
        <ele>210.3</ele>
        <time>2018-06-02T07:54:35Z</time>
      </trkpt>
      <trkpt lat="43.57836" lon="0.23781">
        <ele>210.6</ele>
        <time>2018-06-02T07:54:38Z</time>
      </trkpt>
      <trkpt lat="43.57835" lon="0.23778">
        <ele>210.8</ele>
        <time>2018-06-02T07:54:40Z</time>
      </trkpt>
      <trkpt lat="43.57835" lon="0.23774">
        <ele>211</ele>
        <time>2018-06-02T07:54:42Z</time>
      </trkpt>
      <trkpt lat="43.57834" lon="0.23773">
        <ele>211.1</ele>
        <time>2018-06-02T07:54:43Z</time>
      </trkpt>
      <trkpt lat="43.57834" lon="0.2377">
        <ele>211.3</ele>
        <time>2018-06-02T07:54:45Z</time>
      </trkpt>
      <trkpt lat="43.57833" lon="0.23765">
        <ele>211.6</ele>
        <time>2018-06-02T07:54:48Z</time>
      </trkpt>
      <trkpt lat="43.57832" lon="0.2376">
        <ele>211.9</ele>
        <time>2018-06-02T07:54:51Z</time>
      </trkpt>
      <trkpt lat="43.57832" lon="0.23757">
        <ele>212.1</ele>
        <time>2018-06-02T07:54:53Z</time>
      </trkpt>
      <trkpt lat="43.57832" lon="0.23756">
        <ele>212.2</ele>
        <time>2018-06-02T07:54:54Z</time>
      </trkpt>
      <trkpt lat="43.57831" lon="0.23752">
        <ele>212.4</ele>
        <time>2018-06-02T07:54:56Z</time>
      </trkpt>
      <trkpt lat="43.57831" lon="0.23749">
        <ele>212.6</ele>
        <time>2018-06-02T07:54:58Z</time>
      </trkpt>
      <trkpt lat="43.57831" lon="0.23744">
        <ele>212.8</ele>
        <time>2018-06-02T07:55:01Z</time>
      </trkpt>
      <trkpt lat="43.5783" lon="0.23741">
        <ele>213</ele>
        <time>2018-06-02T07:55:03Z</time>
      </trkpt>
      <trkpt lat="43.5783" lon="0.23736">
        <ele>213.3</ele>
        <time>2018-06-02T07:55:06Z</time>
      </trkpt>
      <trkpt lat="43.57829" lon="0.23733">
        <ele>213.5</ele>
        <time>2018-06-02T07:55:08Z</time>
      </trkpt>
      <trkpt lat="43.57829" lon="0.23728">
        <ele>213.8</ele>
        <time>2018-06-02T07:55:11Z</time>
      </trkpt>
      <trkpt lat="43.57828" lon="0.23724">
        <ele>214.1</ele>
        <time>2018-06-02T07:55:14Z</time>
      </trkpt>
      <trkpt lat="43.57827" lon="0.23721">
        <ele>214.2</ele>
        <time>2018-06-02T07:55:16Z</time>
      </trkpt>
      <trkpt lat="43.57827" lon="0.23716">
        <ele>214.5</ele>
        <time>2018-06-02T07:55:19Z</time>
      </trkpt>
      <trkpt lat="43.57826" lon="0.23714">
        <ele>214.7</ele>
        <time>2018-06-02T07:55:21Z</time>
      </trkpt>
      <trkpt lat="43.57826" lon="0.2371">
        <ele>215</ele>
        <time>2018-06-02T07:55:24Z</time>
      </trkpt>
      <trkpt lat="43.57825" lon="0.23707">
        <ele>215.2</ele>
        <time>2018-06-02T07:55:26Z</time>
      </trkpt>
      <trkpt lat="43.57825" lon="0.23703">
        <ele>215.5</ele>
        <time>2018-06-02T07:55:29Z</time>
      </trkpt>
      <trkpt lat="43.57824" lon="0.23701">
        <ele>215.6</ele>
        <time>2018-06-02T07:55:31Z</time>
      </trkpt>
      <trkpt lat="43.57824" lon="0.23699">
        <ele>215.7</ele>
        <time>2018-06-02T07:55:32Z</time>
      </trkpt>
      <trkpt lat="43.57824" lon="0.23697">
        <ele>215.9</ele>
        <time>2018-06-02T07:55:34Z</time>
      </trkpt>
      <trkpt lat="43.57824" lon="0.23692">
        <ele>216.1</ele>
        <time>2018-06-02T07:55:37Z</time>
      </trkpt>
      <trkpt lat="43.57824" lon="0.2369">
        <ele>216.3</ele>
        <time>2018-06-02T07:55:39Z</time>
      </trkpt>
      <trkpt lat="43.57824" lon="0.23685">
        <ele>216.6</ele>
        <time>2018-06-02T07:55:42Z</time>
      </trkpt>
      <trkpt lat="43.57824" lon="0.23683">
        <ele>216.7</ele>
        <time>2018-06-02T07:55:44Z</time>
      </trkpt>
      <trkpt lat="43.57824" lon="0.23678">
        <ele>217</ele>
        <time>2018-06-02T07:55:47Z</time>
      </trkpt>
      <trkpt lat="43.57824" lon="0.23677">
        <ele>217.1</ele>
        <time>2018-06-02T07:55:48Z</time>
      </trkpt>
      <trkpt lat="43.57824" lon="0.23676">
        <ele>217.1</ele>
        <time>2018-06-02T07:55:49Z</time>
      </trkpt>
      <trkpt lat="43.57823" lon="0.23671">
        <ele>217.4</ele>
        <time>2018-06-02T07:55:52Z</time>
      </trkpt>
      <trkpt lat="43.57823" lon="0.23669">
        <ele>217.6</ele>
        <time>2018-06-02T07:55:54Z</time>
      </trkpt>
      <trkpt lat="43.57823" lon="0.23664">
        <ele>217.8</ele>
        <time>2018-06-02T07:55:57Z</time>
      </trkpt>
      <trkpt lat="43.57823" lon="0.2366">
        <ele>218.1</ele>
        <time>2018-06-02T07:56:00Z</time>
      </trkpt>
      <trkpt lat="43.57823" lon="0.23657">
        <ele>218.2</ele>
        <time>2018-06-02T07:56:02Z</time>
      </trkpt>
      <trkpt lat="43.57823" lon="0.23653">
        <ele>218.5</ele>
        <time>2018-06-02T07:56:05Z</time>
      </trkpt>
      <trkpt lat="43.57824" lon="0.23649">
        <ele>218.6</ele>
        <time>2018-06-02T07:56:07Z</time>
      </trkpt>
      <trkpt lat="43.57824" lon="0.23645">
        <ele>218.9</ele>
        <time>2018-06-02T07:56:10Z</time>
      </trkpt>
      <trkpt lat="43.57825" lon="0.23641">
        <ele>219</ele>
        <time>2018-06-02T07:56:12Z</time>
      </trkpt>
      <trkpt lat="43.57825" lon="0.23638">
        <ele>219.2</ele>
        <time>2018-06-02T07:56:14Z</time>
      </trkpt>
      <trkpt lat="43.57825" lon="0.23636">
        <ele>219.3</ele>
        <time>2018-06-02T07:56:15Z</time>
      </trkpt>
      <trkpt lat="43.57825" lon="0.23633">
        <ele>219.4</ele>
        <time>2018-06-02T07:56:17Z</time>
      </trkpt>
      <trkpt lat="43.57824" lon="0.23627">
        <ele>219.7</ele>
        <time>2018-06-02T07:56:20Z</time>
      </trkpt>
      <trkpt lat="43.57824" lon="0.23622">
        <ele>219.9</ele>
        <time>2018-06-02T07:56:23Z</time>
      </trkpt>
      <trkpt lat="43.57824" lon="0.23618">
        <ele>220</ele>
        <time>2018-06-02T07:56:25Z</time>
      </trkpt>
      <trkpt lat="43.57824" lon="0.23613">
        <ele>220.3</ele>
        <time>2018-06-02T07:56:28Z</time>
      </trkpt>
      <trkpt lat="43.57825" lon="0.23609">
        <ele>220.4</ele>
        <time>2018-06-02T07:56:30Z</time>
      </trkpt>
      <trkpt lat="43.57825" lon="0.23603">
        <ele>220.7</ele>
        <time>2018-06-02T07:56:33Z</time>
      </trkpt>
      <trkpt lat="43.57826" lon="0.23599">
        <ele>220.8</ele>
        <time>2018-06-02T07:56:35Z</time>
      </trkpt>
      <trkpt lat="43.57826" lon="0.23594">
        <ele>221</ele>
        <time>2018-06-02T07:56:38Z</time>
      </trkpt>
      <trkpt lat="43.57826" lon="0.2359">
        <ele>221.2</ele>
        <time>2018-06-02T07:56:40Z</time>
      </trkpt>
      <trkpt lat="43.57827" lon="0.23584">
        <ele>221.4</ele>
        <time>2018-06-02T07:56:43Z</time>
      </trkpt>
      <trkpt lat="43.57827" lon="0.23581">
        <ele>221.6</ele>
        <time>2018-06-02T07:56:45Z</time>
      </trkpt>
      <trkpt lat="43.57827" lon="0.23579">
        <ele>221.6</ele>
        <time>2018-06-02T07:56:46Z</time>
      </trkpt>
      <trkpt lat="43.57826" lon="0.23576">
        <ele>221.8</ele>
        <time>2018-06-02T07:56:48Z</time>
      </trkpt>
      <trkpt lat="43.57826" lon="0.2357">
        <ele>222</ele>
        <time>2018-06-02T07:56:51Z</time>
      </trkpt>
      <trkpt lat="43.57825" lon="0.23567">
        <ele>222.2</ele>
        <time>2018-06-02T07:56:53Z</time>
      </trkpt>
      <trkpt lat="43.57824" lon="0.23562">
        <ele>222.4</ele>
        <time>2018-06-02T07:56:56Z</time>
      </trkpt>
      <trkpt lat="43.57824" lon="0.23559">
        <ele>222.5</ele>
        <time>2018-06-02T07:56:58Z</time>
      </trkpt>
      <trkpt lat="43.57824" lon="0.23553">
        <ele>222.7</ele>
        <time>2018-06-02T07:57:01Z</time>
      </trkpt>
      <trkpt lat="43.57824" lon="0.23548">
        <ele>222.9</ele>
        <time>2018-06-02T07:57:04Z</time>
      </trkpt>
      <trkpt lat="43.57824" lon="0.23545">
        <ele>223</ele>
        <time>2018-06-02T07:57:06Z</time>
      </trkpt>
      <trkpt lat="43.57823" lon="0.23543">
        <ele>223.1</ele>
        <time>2018-06-02T07:57:07Z</time>
      </trkpt>
      <trkpt lat="43.57824" lon="0.2354">
        <ele>223.2</ele>
        <time>2018-06-02T07:57:09Z</time>
      </trkpt>
      <trkpt lat="43.57824" lon="0.23536">
        <ele>223.4</ele>
        <time>2018-06-02T07:57:11Z</time>
      </trkpt>
      <trkpt lat="43.57824" lon="0.23531">
        <ele>223.5</ele>
        <time>2018-06-02T07:57:14Z</time>
      </trkpt>
      <trkpt lat="43.57825" lon="0.23528">
        <ele>223.7</ele>
        <time>2018-06-02T07:57:16Z</time>
      </trkpt>
      <trkpt lat="43.57825" lon="0.23523">
        <ele>223.9</ele>
        <time>2018-06-02T07:57:19Z</time>
      </trkpt>
      <trkpt lat="43.57825" lon="0.23519">
        <ele>224</ele>
        <time>2018-06-02T07:57:21Z</time>
      </trkpt>
      <trkpt lat="43.57825" lon="0.23514">
        <ele>224.2</ele>
        <time>2018-06-02T07:57:24Z</time>
      </trkpt>
      <trkpt lat="43.57824" lon="0.23509">
        <ele>224.4</ele>
        <time>2018-06-02T07:57:27Z</time>
      </trkpt>
      <trkpt lat="43.57824" lon="0.23505">
        <ele>224.5</ele>
        <time>2018-06-02T07:57:29Z</time>
      </trkpt>
      <trkpt lat="43.57824" lon="0.23504">
        <ele>224.6</ele>
        <time>2018-06-02T07:57:30Z</time>
      </trkpt>
      <trkpt lat="43.57824" lon="0.235">
        <ele>224.7</ele>
        <time>2018-06-02T07:57:32Z</time>
      </trkpt>
      <trkpt lat="43.57824" lon="0.23497">
        <ele>224.8</ele>
        <time>2018-06-02T07:57:34Z</time>
      </trkpt>
      <trkpt lat="43.57825" lon="0.23492">
        <ele>225</ele>
        <time>2018-06-02T07:57:37Z</time>
      </trkpt>
      <trkpt lat="43.57825" lon="0.23488">
        <ele>225.1</ele>
        <time>2018-06-02T07:57:39Z</time>
      </trkpt>
      <trkpt lat="43.57825" lon="0.23485">
        <ele>225.3</ele>
        <time>2018-06-02T07:57:41Z</time>
      </trkpt>
      <trkpt lat="43.57824" lon="0.23484">
        <ele>225.3</ele>
        <time>2018-06-02T07:57:42Z</time>
      </trkpt>
      <trkpt lat="43.57824" lon="0.23481">
        <ele>225.4</ele>
        <time>2018-06-02T07:57:44Z</time>
      </trkpt>
      <trkpt lat="43.57823" lon="0.23477">
        <ele>225.6</ele>
        <time>2018-06-02T07:57:47Z</time>
      </trkpt>
      <trkpt lat="43.57822" lon="0.23473">
        <ele>225.8</ele>
        <time>2018-06-02T07:57:50Z</time>
      </trkpt>
      <trkpt lat="43.57822" lon="0.23471">
        <ele>226</ele>
        <time>2018-06-02T07:57:52Z</time>
      </trkpt>
      <trkpt lat="43.57821" lon="0.23467">
        <ele>226.2</ele>
        <time>2018-06-02T07:57:55Z</time>
      </trkpt>
      <trkpt lat="43.57822" lon="0.23464">
        <ele>226.3</ele>
        <time>2018-06-02T07:57:57Z</time>
      </trkpt>
      <trkpt lat="43.57822" lon="0.23459">
        <ele>226.5</ele>
        <time>2018-06-02T07:58:00Z</time>
      </trkpt>
      <trkpt lat="43.57823" lon="0.23456">
        <ele>226.6</ele>
        <time>2018-06-02T07:58:02Z</time>
      </trkpt>
      <trkpt lat="43.57823" lon="0.23451">
        <ele>226.8</ele>
        <time>2018-06-02T07:58:05Z</time>
      </trkpt>
      <trkpt lat="43.57824" lon="0.23448">
        <ele>227</ele>
        <time>2018-06-02T07:58:07Z</time>
      </trkpt>
      <trkpt lat="43.57824" lon="0.23443">
        <ele>227.2</ele>
        <time>2018-06-02T07:58:10Z</time>
      </trkpt>
      <trkpt lat="43.57825" lon="0.23438">
        <ele>227.4</ele>
        <time>2018-06-02T07:58:13Z</time>
      </trkpt>
      <trkpt lat="43.57825" lon="0.23435">
        <ele>227.5</ele>
        <time>2018-06-02T07:58:15Z</time>
      </trkpt>
      <trkpt lat="43.57825" lon="0.2343">
        <ele>227.7</ele>
        <time>2018-06-02T07:58:18Z</time>
      </trkpt>
      <trkpt lat="43.57825" lon="0.23428">
        <ele>227.8</ele>
        <time>2018-06-02T07:58:19Z</time>
      </trkpt>
      <trkpt lat="43.57825" lon="0.23427">
        <ele>227.9</ele>
        <time>2018-06-02T07:58:20Z</time>
      </trkpt>
      <trkpt lat="43.57825" lon="0.23421">
        <ele>228.1</ele>
        <time>2018-06-02T07:58:23Z</time>
      </trkpt>
      <trkpt lat="43.57825" lon="0.23418">
        <ele>228.2</ele>
        <time>2018-06-02T07:58:25Z</time>
      </trkpt>
      <trkpt lat="43.57825" lon="0.23413">
        <ele>228.4</ele>
        <time>2018-06-02T07:58:28Z</time>
      </trkpt>
      <trkpt lat="43.57825" lon="0.23409">
        <ele>228.5</ele>
        <time>2018-06-02T07:58:30Z</time>
      </trkpt>
      <trkpt lat="43.57825" lon="0.23404">
        <ele>228.7</ele>
        <time>2018-06-02T07:58:33Z</time>
      </trkpt>
      <trkpt lat="43.57825" lon="0.23398">
        <ele>228.9</ele>
        <time>2018-06-02T07:58:36Z</time>
      </trkpt>
      <trkpt lat="43.57825" lon="0.23395">
        <ele>229.1</ele>
        <time>2018-06-02T07:58:38Z</time>
      </trkpt>
      <trkpt lat="43.57825" lon="0.23389">
        <ele>229</ele>
        <time>2018-06-02T07:58:41Z</time>
      </trkpt>
      <trkpt lat="43.57823" lon="0.23385">
        <ele>229</ele>
        <time>2018-06-02T07:58:43Z</time>
      </trkpt>
      <trkpt lat="43.57821" lon="0.23379">
        <ele>229</ele>
        <time>2018-06-02T07:58:46Z</time>
      </trkpt>
      <trkpt lat="43.5782" lon="0.23375">
        <ele>229</ele>
        <time>2018-06-02T07:58:48Z</time>
      </trkpt>
      <trkpt lat="43.57818" lon="0.23371">
        <ele>228.9</ele>
        <time>2018-06-02T07:58:50Z</time>
      </trkpt>
      <trkpt lat="43.57818" lon="0.23369">
        <ele>228.9</ele>
        <time>2018-06-02T07:58:51Z</time>
      </trkpt>
      <trkpt lat="43.57817" lon="0.23365">
        <ele>228.9</ele>
        <time>2018-06-02T07:58:53Z</time>
      </trkpt>
      <trkpt lat="43.57816" lon="0.23359">
        <ele>228.9</ele>
        <time>2018-06-02T07:58:56Z</time>
      </trkpt>
      <trkpt lat="43.57814" lon="0.23353">
        <ele>228.9</ele>
        <time>2018-06-02T07:58:59Z</time>
      </trkpt>
      <trkpt lat="43.57814" lon="0.23352">
        <ele>228.8</ele>
        <time>2018-06-02T07:59:01Z</time>
      </trkpt>
      <trkpt lat="43.57814" lon="0.23349">
        <ele>228.8</ele>
        <time>2018-06-02T07:59:04Z</time>
      </trkpt>
      <trkpt lat="43.57813" lon="0.23348">
        <ele>228.8</ele>
        <time>2018-06-02T07:59:06Z</time>
      </trkpt>
      <trkpt lat="43.57813" lon="0.23346">
        <ele>228.8</ele>
        <time>2018-06-02T07:59:09Z</time>
      </trkpt>
      <trkpt lat="43.57813" lon="0.23344">
        <ele>228.8</ele>
        <time>2018-06-02T07:59:11Z</time>
      </trkpt>
      <trkpt lat="43.57813" lon="0.23342">
        <ele>228.7</ele>
        <time>2018-06-02T07:59:14Z</time>
      </trkpt>
      <trkpt lat="43.57812" lon="0.2334">
        <ele>228.7</ele>
        <time>2018-06-02T07:59:16Z</time>
      </trkpt>
      <trkpt lat="43.57812" lon="0.23338">
        <ele>228.7</ele>
        <time>2018-06-02T07:59:19Z</time>
      </trkpt>
      <trkpt lat="43.57812" lon="0.23335">
        <ele>228.7</ele>
        <time>2018-06-02T07:59:22Z</time>
      </trkpt>
      <trkpt lat="43.57812" lon="0.23335">
        <ele>228.7</ele>
        <time>2018-06-02T07:59:23Z</time>
      </trkpt>
      <trkpt lat="43.57811" lon="0.23334">
        <ele>228.6</ele>
        <time>2018-06-02T07:59:24Z</time>
      </trkpt>
      <trkpt lat="43.57811" lon="0.2333">
        <ele>228.6</ele>
        <time>2018-06-02T07:59:27Z</time>
      </trkpt>
      <trkpt lat="43.57811" lon="0.23328">
        <ele>228.6</ele>
        <time>2018-06-02T07:59:29Z</time>
      </trkpt>
      <trkpt lat="43.5781" lon="0.23325">
        <ele>228.6</ele>
        <time>2018-06-02T07:59:32Z</time>
      </trkpt>
      <trkpt lat="43.5781" lon="0.23323">
        <ele>228.6</ele>
        <time>2018-06-02T07:59:34Z</time>
      </trkpt>
      <trkpt lat="43.5781" lon="0.2332">
        <ele>228.5</ele>
        <time>2018-06-02T07:59:37Z</time>
      </trkpt>
      <trkpt lat="43.57809" lon="0.23317">
        <ele>228.5</ele>
        <time>2018-06-02T07:59:40Z</time>
      </trkpt>
      <trkpt lat="43.57809" lon="0.23315">
        <ele>228.5</ele>
        <time>2018-06-02T07:59:42Z</time>
      </trkpt>
      <trkpt lat="43.57809" lon="0.23318">
        <ele>228.5</ele>
        <time>2018-06-02T07:59:45Z</time>
      </trkpt>
      <trkpt lat="43.5781" lon="0.2332">
        <ele>228.4</ele>
        <time>2018-06-02T07:59:47Z</time>
      </trkpt>
      <trkpt lat="43.5781" lon="0.23323">
        <ele>228.4</ele>
        <time>2018-06-02T07:59:50Z</time>
      </trkpt>
      <trkpt lat="43.5781" lon="0.23325">
        <ele>228.4</ele>
        <time>2018-06-02T07:59:52Z</time>
      </trkpt>
      <trkpt lat="43.57813" lon="0.2334">
        <ele>227.8</ele>
        <time>2018-06-02T07:59:56Z</time>
      </trkpt>
      <trkpt lat="43.57813" lon="0.2334">
        <ele>227.8</ele>
        <time>2018-06-02T08:02:14Z</time>
      </trkpt>
      <trkpt lat="43.57815" lon="0.23353">
        <ele>227.1</ele>
        <time>2018-06-02T08:02:15Z</time>
      </trkpt>
      <trkpt lat="43.57817" lon="0.23357">
        <ele>227.1</ele>
        <time>2018-06-02T08:02:18Z</time>
      </trkpt>
      <trkpt lat="43.5782" lon="0.23361">
        <ele>227.1</ele>
        <time>2018-06-02T08:02:22Z</time>
      </trkpt>
      <trkpt lat="43.57821" lon="0.23362">
        <ele>227.1</ele>
        <time>2018-06-02T08:02:23Z</time>
      </trkpt>
      <trkpt lat="43.57823" lon="0.23366">
        <ele>227</ele>
        <time>2018-06-02T08:02:26Z</time>
      </trkpt>
      <trkpt lat="43.57824" lon="0.23368">
        <ele>227</ele>
        <time>2018-06-02T08:02:28Z</time>
      </trkpt>
      <trkpt lat="43.57826" lon="0.23366">
        <ele>227</ele>
        <time>2018-06-02T08:02:31Z</time>
      </trkpt>
      <trkpt lat="43.57827" lon="0.23365">
        <ele>227</ele>
        <time>2018-06-02T08:02:33Z</time>
      </trkpt>
      <trkpt lat="43.57828" lon="0.23363">
        <ele>226.9</ele>
        <time>2018-06-02T08:02:36Z</time>
      </trkpt>
      <trkpt lat="43.57829" lon="0.23347">
        <ele>226.6</ele>
        <time>2018-06-02T08:02:40Z</time>
      </trkpt>
      <trkpt lat="43.57829" lon="0.23347">
        <ele>226.6</ele>
        <time>2018-06-02T08:03:41Z</time>
      </trkpt>
      <trkpt lat="43.57829" lon="0.23331">
        <ele>226.4</ele>
        <time>2018-06-02T08:03:43Z</time>
      </trkpt>
      <trkpt lat="43.57829" lon="0.23329">
        <ele>226.3</ele>
        <time>2018-06-02T08:03:45Z</time>
      </trkpt>
      <trkpt lat="43.57829" lon="0.23326">
        <ele>226.3</ele>
        <time>2018-06-02T08:03:47Z</time>
      </trkpt>
      <trkpt lat="43.57836" lon="0.23316">
        <ele>226</ele>
        <time>2018-06-02T08:03:52Z</time>
      </trkpt>
      <trkpt lat="43.57836" lon="0.23316">
        <ele>226</ele>
        <time>2018-06-02T08:04:51Z</time>
      </trkpt>
      <trkpt lat="43.57843" lon="0.2331">
        <ele>225.8</ele>
        <time>2018-06-02T08:04:51Z</time>
      </trkpt>
      <trkpt lat="43.57845" lon="0.2331">
        <ele>225.7</ele>
        <time>2018-06-02T08:04:54Z</time>
      </trkpt>
      <trkpt lat="43.57846" lon="0.2331">
        <ele>225.7</ele>
        <time>2018-06-02T08:04:56Z</time>
      </trkpt>
      <trkpt lat="43.57848" lon="0.2331">
        <ele>225.7</ele>
        <time>2018-06-02T08:04:59Z</time>
      </trkpt>
      <trkpt lat="43.5785" lon="0.2331">
        <ele>225.7</ele>
        <time>2018-06-02T08:05:02Z</time>
      </trkpt>
      <trkpt lat="43.57851" lon="0.2331">
        <ele>225.6</ele>
        <time>2018-06-02T08:05:04Z</time>
      </trkpt>
      <trkpt lat="43.57853" lon="0.23311">
        <ele>225.3</ele>
        <time>2018-06-02T08:05:07Z</time>
      </trkpt>
      <trkpt lat="43.57855" lon="0.23311">
        <ele>225.1</ele>
        <time>2018-06-02T08:05:09Z</time>
      </trkpt>
      <trkpt lat="43.57857" lon="0.23311">
        <ele>224.7</ele>
        <time>2018-06-02T08:05:12Z</time>
      </trkpt>
      <trkpt lat="43.57858" lon="0.23311">
        <ele>224.5</ele>
        <time>2018-06-02T08:05:14Z</time>
      </trkpt>
      <trkpt lat="43.5786" lon="0.23311">
        <ele>224.2</ele>
        <time>2018-06-02T08:05:17Z</time>
      </trkpt>
      <trkpt lat="43.57862" lon="0.23311">
        <ele>223.8</ele>
        <time>2018-06-02T08:05:20Z</time>
      </trkpt>
      <trkpt lat="43.57863" lon="0.23312">
        <ele>223.7</ele>
        <time>2018-06-02T08:05:21Z</time>
      </trkpt>
      <trkpt lat="43.57863" lon="0.23312">
        <ele>223.6</ele>
        <time>2018-06-02T08:05:22Z</time>
      </trkpt>
      <trkpt lat="43.57865" lon="0.23313">
        <ele>223.2</ele>
        <time>2018-06-02T08:05:25Z</time>
      </trkpt>
      <trkpt lat="43.57866" lon="0.23314">
        <ele>223</ele>
        <time>2018-06-02T08:05:27Z</time>
      </trkpt>
      <trkpt lat="43.57867" lon="0.23315">
        <ele>222.6</ele>
        <time>2018-06-02T08:05:30Z</time>
      </trkpt>
      <trkpt lat="43.57868" lon="0.23316">
        <ele>222.3</ele>
        <time>2018-06-02T08:05:32Z</time>
      </trkpt>
      <trkpt lat="43.5787" lon="0.23317">
        <ele>221.9</ele>
        <time>2018-06-02T08:05:35Z</time>
      </trkpt>
      <trkpt lat="43.57871" lon="0.23318">
        <ele>221.7</ele>
        <time>2018-06-02T08:05:37Z</time>
      </trkpt>
      <trkpt lat="43.57872" lon="0.23319">
        <ele>221.3</ele>
        <time>2018-06-02T08:05:40Z</time>
      </trkpt>
      <trkpt lat="43.57873" lon="0.23319">
        <ele>221</ele>
        <time>2018-06-02T08:05:42Z</time>
      </trkpt>
      <trkpt lat="43.57874" lon="0.23321">
        <ele>220.6</ele>
        <time>2018-06-02T08:05:45Z</time>
      </trkpt>
      <trkpt lat="43.57876" lon="0.23322">
        <ele>220.2</ele>
        <time>2018-06-02T08:05:48Z</time>
      </trkpt>
      <trkpt lat="43.57878" lon="0.23322">
        <ele>220</ele>
        <time>2018-06-02T08:05:50Z</time>
      </trkpt>
      <trkpt lat="43.5788" lon="0.23322">
        <ele>219.7</ele>
        <time>2018-06-02T08:05:52Z</time>
      </trkpt>
      <trkpt lat="43.57881" lon="0.23322">
        <ele>219.5</ele>
        <time>2018-06-02T08:05:53Z</time>
      </trkpt>
      <trkpt lat="43.57883" lon="0.23323">
        <ele>219</ele>
        <time>2018-06-02T08:05:55Z</time>
      </trkpt>
      <trkpt lat="43.57886" lon="0.23323">
        <ele>218.4</ele>
        <time>2018-06-02T08:05:58Z</time>
      </trkpt>
      <trkpt lat="43.57888" lon="0.23324">
        <ele>218</ele>
        <time>2018-06-02T08:06:00Z</time>
      </trkpt>
      <trkpt lat="43.5789" lon="0.23324">
        <ele>217.6</ele>
        <time>2018-06-02T08:06:02Z</time>
      </trkpt>
      <trkpt lat="43.57891" lon="0.23324">
        <ele>217.4</ele>
        <time>2018-06-02T08:06:03Z</time>
      </trkpt>
      <trkpt lat="43.57893" lon="0.23325">
        <ele>216.9</ele>
        <time>2018-06-02T08:06:05Z</time>
      </trkpt>
      <trkpt lat="43.57896" lon="0.23326">
        <ele>216.3</ele>
        <time>2018-06-02T08:06:08Z</time>
      </trkpt>
      <trkpt lat="43.57898" lon="0.23327">
        <ele>215.9</ele>
        <time>2018-06-02T08:06:10Z</time>
      </trkpt>
      <trkpt lat="43.57899" lon="0.23328">
        <ele>215.7</ele>
        <time>2018-06-02T08:06:11Z</time>
      </trkpt>
      <trkpt lat="43.57901" lon="0.23328">
        <ele>215.4</ele>
        <time>2018-06-02T08:06:13Z</time>
      </trkpt>
      <trkpt lat="43.57904" lon="0.2333">
        <ele>214.9</ele>
        <time>2018-06-02T08:06:16Z</time>
      </trkpt>
      <trkpt lat="43.57907" lon="0.2333">
        <ele>214.5</ele>
        <time>2018-06-02T08:06:18Z</time>
      </trkpt>
      <trkpt lat="43.57912" lon="0.23331">
        <ele>214</ele>
        <time>2018-06-02T08:06:21Z</time>
      </trkpt>
      <trkpt lat="43.57915" lon="0.23332">
        <ele>213.7</ele>
        <time>2018-06-02T08:06:23Z</time>
      </trkpt>
      <trkpt lat="43.57919" lon="0.23333">
        <ele>213.2</ele>
        <time>2018-06-02T08:06:26Z</time>
      </trkpt>
      <trkpt lat="43.5792" lon="0.23333">
        <ele>213</ele>
        <time>2018-06-02T08:06:27Z</time>
      </trkpt>
      <trkpt lat="43.57931" lon="0.23328">
        <ele>212.1</ele>
        <time>2018-06-02T08:06:31Z</time>
      </trkpt>
      <trkpt lat="43.57931" lon="0.23328">
        <ele>212.1</ele>
        <time>2018-06-02T08:07:34Z</time>
      </trkpt>
      <trkpt lat="43.57942" lon="0.23323">
        <ele>211.2</ele>
        <time>2018-06-02T08:07:35Z</time>
      </trkpt>
      <trkpt lat="43.57944" lon="0.23319">
        <ele>211.2</ele>
        <time>2018-06-02T08:07:37Z</time>
      </trkpt>
      <trkpt lat="43.57946" lon="0.23314">
        <ele>211.1</ele>
        <time>2018-06-02T08:07:40Z</time>
      </trkpt>
      <trkpt lat="43.57947" lon="0.23311">
        <ele>211</ele>
        <time>2018-06-02T08:07:42Z</time>
      </trkpt>
      <trkpt lat="43.57949" lon="0.23306">
        <ele>210.9</ele>
        <time>2018-06-02T08:07:45Z</time>
      </trkpt>
      <trkpt lat="43.5795" lon="0.23304">
        <ele>210.9</ele>
        <time>2018-06-02T08:07:46Z</time>
      </trkpt>
      <trkpt lat="43.57951" lon="0.23301">
        <ele>210.8</ele>
        <time>2018-06-02T08:07:48Z</time>
      </trkpt>
      <trkpt lat="43.57952" lon="0.23298">
        <ele>210.8</ele>
        <time>2018-06-02T08:07:50Z</time>
      </trkpt>
      <trkpt lat="43.57954" lon="0.23294">
        <ele>210.7</ele>
        <time>2018-06-02T08:07:53Z</time>
      </trkpt>
      <trkpt lat="43.57956" lon="0.23291">
        <ele>210.6</ele>
        <time>2018-06-02T08:07:55Z</time>
      </trkpt>
      <trkpt lat="43.57957" lon="0.23288">
        <ele>210.5</ele>
        <time>2018-06-02T08:07:57Z</time>
      </trkpt>
      <trkpt lat="43.57958" lon="0.23287">
        <ele>210.5</ele>
        <time>2018-06-02T08:07:58Z</time>
      </trkpt>
      <trkpt lat="43.57959" lon="0.23284">
        <ele>210.4</ele>
        <time>2018-06-02T08:08:00Z</time>
      </trkpt>
      <trkpt lat="43.5796" lon="0.23281">
        <ele>210.3</ele>
        <time>2018-06-02T08:08:03Z</time>
      </trkpt>
      <trkpt lat="43.57962" lon="0.23277">
        <ele>210.2</ele>
        <time>2018-06-02T08:08:06Z</time>
      </trkpt>
      <trkpt lat="43.57963" lon="0.23274">
        <ele>210.2</ele>
        <time>2018-06-02T08:08:08Z</time>
      </trkpt>
      <trkpt lat="43.57964" lon="0.23271">
        <ele>210.1</ele>
        <time>2018-06-02T08:08:11Z</time>
      </trkpt>
      <trkpt lat="43.57966" lon="0.23268">
        <ele>210</ele>
        <time>2018-06-02T08:08:13Z</time>
      </trkpt>
      <trkpt lat="43.57969" lon="0.23263">
        <ele>209.9</ele>
        <time>2018-06-02T08:08:16Z</time>
      </trkpt>
      <trkpt lat="43.5797" lon="0.2326">
        <ele>209.8</ele>
        <time>2018-06-02T08:08:18Z</time>
      </trkpt>
      <trkpt lat="43.57973" lon="0.23255">
        <ele>209.7</ele>
        <time>2018-06-02T08:08:21Z</time>
      </trkpt>
      <trkpt lat="43.57975" lon="0.23252">
        <ele>209.7</ele>
        <time>2018-06-02T08:08:23Z</time>
      </trkpt>
      <trkpt lat="43.57977" lon="0.23247">
        <ele>209.6</ele>
        <time>2018-06-02T08:08:26Z</time>
      </trkpt>
      <trkpt lat="43.57979" lon="0.23243">
        <ele>209.5</ele>
        <time>2018-06-02T08:08:29Z</time>
      </trkpt>
      <trkpt lat="43.57981" lon="0.2324">
        <ele>209.3</ele>
        <time>2018-06-02T08:08:31Z</time>
      </trkpt>
      <trkpt lat="43.57982" lon="0.23237">
        <ele>209.1</ele>
        <time>2018-06-02T08:08:34Z</time>
      </trkpt>
      <trkpt lat="43.57984" lon="0.23234">
        <ele>208.9</ele>
        <time>2018-06-02T08:08:36Z</time>
      </trkpt>
      <trkpt lat="43.57985" lon="0.23231">
        <ele>208.7</ele>
        <time>2018-06-02T08:08:39Z</time>
      </trkpt>
      <trkpt lat="43.57987" lon="0.23229">
        <ele>208.6</ele>
        <time>2018-06-02T08:08:41Z</time>
      </trkpt>
      <trkpt lat="43.57988" lon="0.23226">
        <ele>208.3</ele>
        <time>2018-06-02T08:08:44Z</time>
      </trkpt>
      <trkpt lat="43.5799" lon="0.23223">
        <ele>208.2</ele>
        <time>2018-06-02T08:08:46Z</time>
      </trkpt>
      <trkpt lat="43.57993" lon="0.23218">
        <ele>208</ele>
        <time>2018-06-02T08:08:49Z</time>
      </trkpt>
      <trkpt lat="43.57996" lon="0.23214">
        <ele>207.7</ele>
        <time>2018-06-02T08:08:52Z</time>
      </trkpt>
      <trkpt lat="43.57998" lon="0.2321">
        <ele>207.6</ele>
        <time>2018-06-02T08:08:54Z</time>
      </trkpt>
      <trkpt lat="43.57999" lon="0.23209">
        <ele>207.5</ele>
        <time>2018-06-02T08:08:55Z</time>
      </trkpt>
      <trkpt lat="43.58001" lon="0.23207">
        <ele>207.4</ele>
        <time>2018-06-02T08:08:57Z</time>
      </trkpt>
      <trkpt lat="43.58003" lon="0.23205">
        <ele>207.2</ele>
        <time>2018-06-02T08:08:59Z</time>
      </trkpt>
      <trkpt lat="43.58006" lon="0.23201">
        <ele>207</ele>
        <time>2018-06-02T08:09:02Z</time>
      </trkpt>
      <trkpt lat="43.58008" lon="0.23199">
        <ele>206.8</ele>
        <time>2018-06-02T08:09:04Z</time>
      </trkpt>
      <trkpt lat="43.5801" lon="0.23197">
        <ele>206.7</ele>
        <time>2018-06-02T08:09:06Z</time>
      </trkpt>
      <trkpt lat="43.5801" lon="0.23196">
        <ele>206.6</ele>
        <time>2018-06-02T08:09:07Z</time>
      </trkpt>
      <trkpt lat="43.58012" lon="0.23194">
        <ele>206.5</ele>
        <time>2018-06-02T08:09:09Z</time>
      </trkpt>
      <trkpt lat="43.58013" lon="0.23192">
        <ele>206.3</ele>
        <time>2018-06-02T08:09:11Z</time>
      </trkpt>
      <trkpt lat="43.58014" lon="0.23191">
        <ele>206.3</ele>
        <time>2018-06-02T08:09:12Z</time>
      </trkpt>
      <trkpt lat="43.58017" lon="0.23187">
        <ele>206.1</ele>
        <time>2018-06-02T08:09:15Z</time>
      </trkpt>
      <trkpt lat="43.58018" lon="0.23185">
        <ele>206</ele>
        <time>2018-06-02T08:09:17Z</time>
      </trkpt>
      <trkpt lat="43.5802" lon="0.23183">
        <ele>205.9</ele>
        <time>2018-06-02T08:09:19Z</time>
      </trkpt>
      <trkpt lat="43.58021" lon="0.23182">
        <ele>205.8</ele>
        <time>2018-06-02T08:09:20Z</time>
      </trkpt>
      <trkpt lat="43.58022" lon="0.23181">
        <ele>205.7</ele>
        <time>2018-06-02T08:09:22Z</time>
      </trkpt>
      <trkpt lat="43.58025" lon="0.23178">
        <ele>205.5</ele>
        <time>2018-06-02T08:09:25Z</time>
      </trkpt>
      <trkpt lat="43.58027" lon="0.23177">
        <ele>205.4</ele>
        <time>2018-06-02T08:09:27Z</time>
      </trkpt>
      <trkpt lat="43.58029" lon="0.23174">
        <ele>205.2</ele>
        <time>2018-06-02T08:09:30Z</time>
      </trkpt>
      <trkpt lat="43.58031" lon="0.23173">
        <ele>205.1</ele>
        <time>2018-06-02T08:09:32Z</time>
      </trkpt>
      <trkpt lat="43.58035" lon="0.23172">
        <ele>205</ele>
        <time>2018-06-02T08:09:35Z</time>
      </trkpt>
      <trkpt lat="43.58038" lon="0.23171">
        <ele>204.8</ele>
        <time>2018-06-02T08:09:38Z</time>
      </trkpt>
      <trkpt lat="43.58041" lon="0.23171">
        <ele>204.7</ele>
        <time>2018-06-02T08:09:40Z</time>
      </trkpt>
      <trkpt lat="43.58044" lon="0.2317">
        <ele>204.5</ele>
        <time>2018-06-02T08:09:43Z</time>
      </trkpt>
      <trkpt lat="43.58047" lon="0.23171">
        <ele>204.4</ele>
        <time>2018-06-02T08:09:45Z</time>
      </trkpt>
      <trkpt lat="43.58051" lon="0.23172">
        <ele>204.2</ele>
        <time>2018-06-02T08:09:48Z</time>
      </trkpt>
      <trkpt lat="43.58053" lon="0.23173">
        <ele>204.1</ele>
        <time>2018-06-02T08:09:50Z</time>
      </trkpt>
      <trkpt lat="43.58057" lon="0.23174">
        <ele>203.9</ele>
        <time>2018-06-02T08:09:53Z</time>
      </trkpt>
      <trkpt lat="43.58058" lon="0.23174">
        <ele>203.9</ele>
        <time>2018-06-02T08:09:54Z</time>
      </trkpt>
      <trkpt lat="43.5806" lon="0.23174">
        <ele>203.8</ele>
        <time>2018-06-02T08:09:55Z</time>
      </trkpt>
      <trkpt lat="43.58064" lon="0.23173">
        <ele>203.7</ele>
        <time>2018-06-02T08:09:58Z</time>
      </trkpt>
      <trkpt lat="43.58068" lon="0.23172">
        <ele>203.5</ele>
        <time>2018-06-02T08:10:01Z</time>
      </trkpt>
      <trkpt lat="43.58071" lon="0.23172">
        <ele>203.4</ele>
        <time>2018-06-02T08:10:03Z</time>
      </trkpt>
      <trkpt lat="43.58072" lon="0.23171">
        <ele>203.3</ele>
        <time>2018-06-02T08:10:04Z</time>
      </trkpt>
      <trkpt lat="43.58073" lon="0.23172">
        <ele>203.3</ele>
        <time>2018-06-02T08:10:05Z</time>
      </trkpt>
      <trkpt lat="43.58075" lon="0.23172">
        <ele>203.2</ele>
        <time>2018-06-02T08:10:06Z</time>
      </trkpt>
      <trkpt lat="43.58078" lon="0.23172">
        <ele>203.1</ele>
        <time>2018-06-02T08:10:08Z</time>
      </trkpt>
      <trkpt lat="43.58082" lon="0.23172">
        <ele>202.9</ele>
        <time>2018-06-02T08:10:11Z</time>
      </trkpt>
      <trkpt lat="43.58084" lon="0.23172">
        <ele>202.8</ele>
        <time>2018-06-02T08:10:13Z</time>
      </trkpt>
      <trkpt lat="43.58086" lon="0.23172">
        <ele>202.8</ele>
        <time>2018-06-02T08:10:14Z</time>
      </trkpt>
      <trkpt lat="43.58088" lon="0.23172">
        <ele>202.7</ele>
        <time>2018-06-02T08:10:16Z</time>
      </trkpt>
      <trkpt lat="43.58091" lon="0.23171">
        <ele>202.5</ele>
        <time>2018-06-02T08:10:18Z</time>
      </trkpt>
      <trkpt lat="43.58094" lon="0.2317">
        <ele>202.4</ele>
        <time>2018-06-02T08:10:21Z</time>
      </trkpt>
      <trkpt lat="43.58098" lon="0.23169">
        <ele>202.2</ele>
        <time>2018-06-02T08:10:24Z</time>
      </trkpt>
      <trkpt lat="43.581" lon="0.23168">
        <ele>202.1</ele>
        <time>2018-06-02T08:10:26Z</time>
      </trkpt>
      <trkpt lat="43.58101" lon="0.23168">
        <ele>202</ele>
        <time>2018-06-02T08:10:27Z</time>
      </trkpt>
      <trkpt lat="43.58103" lon="0.23167">
        <ele>201.9</ele>
        <time>2018-06-02T08:10:29Z</time>
      </trkpt>
      <trkpt lat="43.58105" lon="0.23167">
        <ele>201.8</ele>
        <time>2018-06-02T08:10:31Z</time>
      </trkpt>
      <trkpt lat="43.58108" lon="0.23167">
        <ele>201.7</ele>
        <time>2018-06-02T08:10:34Z</time>
      </trkpt>
      <trkpt lat="43.5811" lon="0.23166">
        <ele>201.5</ele>
        <time>2018-06-02T08:10:36Z</time>
      </trkpt>
      <trkpt lat="43.58113" lon="0.23166">
        <ele>201.4</ele>
        <time>2018-06-02T08:10:39Z</time>
      </trkpt>
      <trkpt lat="43.58115" lon="0.23165">
        <ele>201.3</ele>
        <time>2018-06-02T08:10:41Z</time>
      </trkpt>
      <trkpt lat="43.58119" lon="0.23166">
        <ele>201.1</ele>
        <time>2018-06-02T08:10:44Z</time>
      </trkpt>
      <trkpt lat="43.58123" lon="0.23166">
        <ele>200.9</ele>
        <time>2018-06-02T08:10:47Z</time>
      </trkpt>
      <trkpt lat="43.58125" lon="0.23166">
        <ele>200.8</ele>
        <time>2018-06-02T08:10:49Z</time>
      </trkpt>
      <trkpt lat="43.58129" lon="0.23166">
        <ele>200.7</ele>
        <time>2018-06-02T08:10:52Z</time>
      </trkpt>
      <trkpt lat="43.58132" lon="0.23167">
        <ele>200.5</ele>
        <time>2018-06-02T08:10:54Z</time>
      </trkpt>
      <trkpt lat="43.58136" lon="0.23167">
        <ele>200.4</ele>
        <time>2018-06-02T08:10:57Z</time>
      </trkpt>
      <trkpt lat="43.58139" lon="0.23167">
        <ele>200.3</ele>
        <time>2018-06-02T08:10:59Z</time>
      </trkpt>
      <trkpt lat="43.58144" lon="0.23168">
        <ele>200.1</ele>
        <time>2018-06-02T08:11:02Z</time>
      </trkpt>
      <trkpt lat="43.58146" lon="0.23167">
        <ele>200</ele>
        <time>2018-06-02T08:11:04Z</time>
      </trkpt>
      <trkpt lat="43.58147" lon="0.23166">
        <ele>199.9</ele>
        <time>2018-06-02T08:11:05Z</time>
      </trkpt>
      <trkpt lat="43.58149" lon="0.23166">
        <ele>199.8</ele>
        <time>2018-06-02T08:11:07Z</time>
      </trkpt>
      <trkpt lat="43.58153" lon="0.23164">
        <ele>199.7</ele>
        <time>2018-06-02T08:11:10Z</time>
      </trkpt>
      <trkpt lat="43.58155" lon="0.23163">
        <ele>199.5</ele>
        <time>2018-06-02T08:11:12Z</time>
      </trkpt>
      <trkpt lat="43.58157" lon="0.23162">
        <ele>199.4</ele>
        <time>2018-06-02T08:11:14Z</time>
      </trkpt>
      <trkpt lat="43.58158" lon="0.23162">
        <ele>199.4</ele>
        <time>2018-06-02T08:11:15Z</time>
      </trkpt>
      <trkpt lat="43.5816" lon="0.23161">
        <ele>199.3</ele>
        <time>2018-06-02T08:11:17Z</time>
      </trkpt>
      <trkpt lat="43.58164" lon="0.2316">
        <ele>199.1</ele>
        <time>2018-06-02T08:11:20Z</time>
      </trkpt>
      <trkpt lat="43.58166" lon="0.23159">
        <ele>199</ele>
        <time>2018-06-02T08:11:22Z</time>
      </trkpt>
      <trkpt lat="43.58169" lon="0.23158">
        <ele>198.8</ele>
        <time>2018-06-02T08:11:25Z</time>
      </trkpt>
      <trkpt lat="43.5817" lon="0.23157">
        <ele>198.8</ele>
        <time>2018-06-02T08:11:26Z</time>
      </trkpt>
      <trkpt lat="43.58171" lon="0.23156">
        <ele>198.7</ele>
        <time>2018-06-02T08:11:27Z</time>
      </trkpt>
      <trkpt lat="43.58174" lon="0.23154">
        <ele>198.5</ele>
        <time>2018-06-02T08:11:30Z</time>
      </trkpt>
      <trkpt lat="43.58177" lon="0.23152">
        <ele>198.4</ele>
        <time>2018-06-02T08:11:33Z</time>
      </trkpt>
      <trkpt lat="43.58179" lon="0.2315">
        <ele>198.3</ele>
        <time>2018-06-02T08:11:35Z</time>
      </trkpt>
      <trkpt lat="43.58182" lon="0.23148">
        <ele>198.1</ele>
        <time>2018-06-02T08:11:38Z</time>
      </trkpt>
      <trkpt lat="43.58184" lon="0.23146">
        <ele>198</ele>
        <time>2018-06-02T08:11:40Z</time>
      </trkpt>
      <trkpt lat="43.58187" lon="0.23144">
        <ele>197.8</ele>
        <time>2018-06-02T08:11:43Z</time>
      </trkpt>
      <trkpt lat="43.58188" lon="0.23142">
        <ele>197.7</ele>
        <time>2018-06-02T08:11:45Z</time>
      </trkpt>
      <trkpt lat="43.58191" lon="0.23139">
        <ele>197.5</ele>
        <time>2018-06-02T08:11:48Z</time>
      </trkpt>
      <trkpt lat="43.58193" lon="0.23137">
        <ele>197.4</ele>
        <time>2018-06-02T08:11:50Z</time>
      </trkpt>
      <trkpt lat="43.58194" lon="0.23136">
        <ele>197.4</ele>
        <time>2018-06-02T08:11:51Z</time>
      </trkpt>
      <trkpt lat="43.58196" lon="0.23134">
        <ele>197.2</ele>
        <time>2018-06-02T08:11:53Z</time>
      </trkpt>
      <trkpt lat="43.58198" lon="0.23131">
        <ele>197.1</ele>
        <time>2018-06-02T08:11:56Z</time>
      </trkpt>
      <trkpt lat="43.582" lon="0.23129">
        <ele>197</ele>
        <time>2018-06-02T08:11:58Z</time>
      </trkpt>
      <trkpt lat="43.58201" lon="0.23128">
        <ele>196.9</ele>
        <time>2018-06-02T08:11:59Z</time>
      </trkpt>
      <trkpt lat="43.58203" lon="0.23126">
        <ele>196.8</ele>
        <time>2018-06-02T08:12:01Z</time>
      </trkpt>
      <trkpt lat="43.58204" lon="0.23124">
        <ele>196.6</ele>
        <time>2018-06-02T08:12:03Z</time>
      </trkpt>
      <trkpt lat="43.58207" lon="0.2312">
        <ele>196.4</ele>
        <time>2018-06-02T08:12:06Z</time>
      </trkpt>
      <trkpt lat="43.58209" lon="0.23118">
        <ele>196.3</ele>
        <time>2018-06-02T08:12:08Z</time>
      </trkpt>
      <trkpt lat="43.58211" lon="0.23115">
        <ele>196.1</ele>
        <time>2018-06-02T08:12:11Z</time>
      </trkpt>
      <trkpt lat="43.58213" lon="0.23113">
        <ele>195.9</ele>
        <time>2018-06-02T08:12:13Z</time>
      </trkpt>
      <trkpt lat="43.58215" lon="0.2311">
        <ele>195.8</ele>
        <time>2018-06-02T08:12:15Z</time>
      </trkpt>
      <trkpt lat="43.58215" lon="0.23109">
        <ele>195.7</ele>
        <time>2018-06-02T08:12:16Z</time>
      </trkpt>
      <trkpt lat="43.58217" lon="0.23106">
        <ele>195.5</ele>
        <time>2018-06-02T08:12:19Z</time>
      </trkpt>
      <trkpt lat="43.58219" lon="0.23104">
        <ele>195.4</ele>
        <time>2018-06-02T08:12:21Z</time>
      </trkpt>
      <trkpt lat="43.58221" lon="0.23101">
        <ele>195.2</ele>
        <time>2018-06-02T08:12:24Z</time>
      </trkpt>
      <trkpt lat="43.58222" lon="0.23099">
        <ele>195.1</ele>
        <time>2018-06-02T08:12:26Z</time>
      </trkpt>
      <trkpt lat="43.58224" lon="0.23095">
        <ele>194.8</ele>
        <time>2018-06-02T08:12:29Z</time>
      </trkpt>
      <trkpt lat="43.58226" lon="0.23094">
        <ele>194.7</ele>
        <time>2018-06-02T08:12:31Z</time>
      </trkpt>
      <trkpt lat="43.58229" lon="0.23091">
        <ele>194.5</ele>
        <time>2018-06-02T08:12:34Z</time>
      </trkpt>
      <trkpt lat="43.58231" lon="0.23089">
        <ele>194.4</ele>
        <time>2018-06-02T08:12:36Z</time>
      </trkpt>
      <trkpt lat="43.58234" lon="0.23087">
        <ele>194.2</ele>
        <time>2018-06-02T08:12:39Z</time>
      </trkpt>
      <trkpt lat="43.58236" lon="0.23085">
        <ele>194</ele>
        <time>2018-06-02T08:12:41Z</time>
      </trkpt>
      <trkpt lat="43.58237" lon="0.23084">
        <ele>194</ele>
        <time>2018-06-02T08:12:42Z</time>
      </trkpt>
      <trkpt lat="43.58239" lon="0.23083">
        <ele>193.8</ele>
        <time>2018-06-02T08:12:44Z</time>
      </trkpt>
      <trkpt lat="43.58242" lon="0.2308">
        <ele>193.6</ele>
        <time>2018-06-02T08:12:47Z</time>
      </trkpt>
      <trkpt lat="43.58244" lon="0.23079">
        <ele>193.5</ele>
        <time>2018-06-02T08:12:49Z</time>
      </trkpt>
      <trkpt lat="43.58247" lon="0.23076">
        <ele>193.4</ele>
        <time>2018-06-02T08:12:52Z</time>
      </trkpt>
      <trkpt lat="43.58248" lon="0.23075">
        <ele>193.4</ele>
        <time>2018-06-02T08:12:53Z</time>
      </trkpt>
      <trkpt lat="43.58249" lon="0.23074">
        <ele>193.4</ele>
        <time>2018-06-02T08:12:54Z</time>
      </trkpt>
      <trkpt lat="43.58253" lon="0.23072">
        <ele>193.2</ele>
        <time>2018-06-02T08:12:57Z</time>
      </trkpt>
      <trkpt lat="43.58255" lon="0.2307">
        <ele>193.2</ele>
        <time>2018-06-02T08:12:59Z</time>
      </trkpt>
      <trkpt lat="43.58258" lon="0.23068">
        <ele>193</ele>
        <time>2018-06-02T08:13:02Z</time>
      </trkpt>
      <trkpt lat="43.5826" lon="0.23066">
        <ele>193</ele>
        <time>2018-06-02T08:13:04Z</time>
      </trkpt>
      <trkpt lat="43.58261" lon="0.23066">
        <ele>192.9</ele>
        <time>2018-06-02T08:13:05Z</time>
      </trkpt>
      <trkpt lat="43.58264" lon="0.23064">
        <ele>192.9</ele>
        <time>2018-06-02T08:13:07Z</time>
      </trkpt>
      <trkpt lat="43.58267" lon="0.23062">
        <ele>192.7</ele>
        <time>2018-06-02T08:13:10Z</time>
      </trkpt>
      <trkpt lat="43.58269" lon="0.23061">
        <ele>192.7</ele>
        <time>2018-06-02T08:13:12Z</time>
      </trkpt>
      <trkpt lat="43.58273" lon="0.23059">
        <ele>192.5</ele>
        <time>2018-06-02T08:13:15Z</time>
      </trkpt>
      <trkpt lat="43.58275" lon="0.23058">
        <ele>192.5</ele>
        <time>2018-06-02T08:13:17Z</time>
      </trkpt>
      <trkpt lat="43.58279" lon="0.23056">
        <ele>192.4</ele>
        <time>2018-06-02T08:13:20Z</time>
      </trkpt>
      <trkpt lat="43.58281" lon="0.23055">
        <ele>192.3</ele>
        <time>2018-06-02T08:13:22Z</time>
      </trkpt>
      <trkpt lat="43.58284" lon="0.23053">
        <ele>192.2</ele>
        <time>2018-06-02T08:13:25Z</time>
      </trkpt>
      <trkpt lat="43.58286" lon="0.23053">
        <ele>192.1</ele>
        <time>2018-06-02T08:13:26Z</time>
      </trkpt>
      <trkpt lat="43.58287" lon="0.23053">
        <ele>192</ele>
        <time>2018-06-02T08:13:28Z</time>
      </trkpt>
      <trkpt lat="43.58288" lon="0.23053">
        <ele>192</ele>
        <time>2018-06-02T08:13:30Z</time>
      </trkpt>
      <trkpt lat="43.5829" lon="0.23053">
        <ele>191.9</ele>
        <time>2018-06-02T08:13:33Z</time>
      </trkpt>
      <trkpt lat="43.58291" lon="0.23052">
        <ele>191.8</ele>
        <time>2018-06-02T08:13:35Z</time>
      </trkpt>
      <trkpt lat="43.58293" lon="0.23052">
        <ele>191.7</ele>
        <time>2018-06-02T08:13:38Z</time>
      </trkpt>
      <trkpt lat="43.58295" lon="0.23052">
        <ele>191.6</ele>
        <time>2018-06-02T08:13:40Z</time>
      </trkpt>
      <trkpt lat="43.58296" lon="0.23052">
        <ele>191.5</ele>
        <time>2018-06-02T08:13:43Z</time>
      </trkpt>
      <trkpt lat="43.58298" lon="0.23052">
        <ele>191.4</ele>
        <time>2018-06-02T08:13:45Z</time>
      </trkpt>
      <trkpt lat="43.58299" lon="0.23052">
        <ele>191.3</ele>
        <time>2018-06-02T08:13:47Z</time>
      </trkpt>
      <trkpt lat="43.583" lon="0.23052">
        <ele>191.3</ele>
        <time>2018-06-02T08:13:48Z</time>
      </trkpt>
      <trkpt lat="43.58304" lon="0.23052">
        <ele>191.2</ele>
        <time>2018-06-02T08:13:51Z</time>
      </trkpt>
      <trkpt lat="43.58306" lon="0.23052">
        <ele>191.1</ele>
        <time>2018-06-02T08:13:53Z</time>
      </trkpt>
      <trkpt lat="43.58309" lon="0.23052">
        <ele>191</ele>
        <time>2018-06-02T08:13:56Z</time>
      </trkpt>
      <trkpt lat="43.58312" lon="0.23052">
        <ele>190.9</ele>
        <time>2018-06-02T08:13:58Z</time>
      </trkpt>
      <trkpt lat="43.58314" lon="0.23052">
        <ele>190.8</ele>
        <time>2018-06-02T08:14:00Z</time>
      </trkpt>
      <trkpt lat="43.58315" lon="0.23052">
        <ele>190.8</ele>
        <time>2018-06-02T08:14:01Z</time>
      </trkpt>
      <trkpt lat="43.58318" lon="0.23052">
        <ele>190.7</ele>
        <time>2018-06-02T08:14:03Z</time>
      </trkpt>
      <trkpt lat="43.58322" lon="0.23052">
        <ele>190.6</ele>
        <time>2018-06-02T08:14:06Z</time>
      </trkpt>
      <trkpt lat="43.58324" lon="0.23052">
        <ele>190.5</ele>
        <time>2018-06-02T08:14:07Z</time>
      </trkpt>
      <trkpt lat="43.58325" lon="0.23052">
        <ele>190.5</ele>
        <time>2018-06-02T08:14:08Z</time>
      </trkpt>
      <trkpt lat="43.58328" lon="0.23051">
        <ele>190.4</ele>
        <time>2018-06-02T08:14:10Z</time>
      </trkpt>
      <trkpt lat="43.58329" lon="0.23051">
        <ele>190.3</ele>
        <time>2018-06-02T08:14:11Z</time>
      </trkpt>
      <trkpt lat="43.58334" lon="0.23051">
        <ele>190.1</ele>
        <time>2018-06-02T08:14:14Z</time>
      </trkpt>
      <trkpt lat="43.58337" lon="0.23051">
        <ele>190</ele>
        <time>2018-06-02T08:14:16Z</time>
      </trkpt>
      <trkpt lat="43.58341" lon="0.23051">
        <ele>189.8</ele>
        <time>2018-06-02T08:14:19Z</time>
      </trkpt>
      <trkpt lat="43.58342" lon="0.23051">
        <ele>189.7</ele>
        <time>2018-06-02T08:14:20Z</time>
      </trkpt>
      <trkpt lat="43.58344" lon="0.23051">
        <ele>189.6</ele>
        <time>2018-06-02T08:14:21Z</time>
      </trkpt>
      <trkpt lat="43.58348" lon="0.23051">
        <ele>189.5</ele>
        <time>2018-06-02T08:14:24Z</time>
      </trkpt>
      <trkpt lat="43.58351" lon="0.23051">
        <ele>189.3</ele>
        <time>2018-06-02T08:14:26Z</time>
      </trkpt>
      <trkpt lat="43.58355" lon="0.23051">
        <ele>189.1</ele>
        <time>2018-06-02T08:14:29Z</time>
      </trkpt>
      <trkpt lat="43.58356" lon="0.23051">
        <ele>189.1</ele>
        <time>2018-06-02T08:14:30Z</time>
      </trkpt>
      <trkpt lat="43.58357" lon="0.23051">
        <ele>189</ele>
        <time>2018-06-02T08:14:31Z</time>
      </trkpt>
      <trkpt lat="43.58362" lon="0.23051">
        <ele>188.8</ele>
        <time>2018-06-02T08:14:34Z</time>
      </trkpt>
      <trkpt lat="43.58366" lon="0.2305">
        <ele>188.6</ele>
        <time>2018-06-02T08:14:37Z</time>
      </trkpt>
      <trkpt lat="43.58368" lon="0.2305">
        <ele>188.5</ele>
        <time>2018-06-02T08:14:39Z</time>
      </trkpt>
      <trkpt lat="43.5837" lon="0.2305">
        <ele>188.4</ele>
        <time>2018-06-02T08:14:40Z</time>
      </trkpt>
      <trkpt lat="43.58372" lon="0.23049">
        <ele>188.3</ele>
        <time>2018-06-02T08:14:42Z</time>
      </trkpt>
      <trkpt lat="43.58374" lon="0.23049">
        <ele>188.2</ele>
        <time>2018-06-02T08:14:44Z</time>
      </trkpt>
      <trkpt lat="43.58378" lon="0.23048">
        <ele>188</ele>
        <time>2018-06-02T08:14:47Z</time>
      </trkpt>
      <trkpt lat="43.5838" lon="0.23047">
        <ele>187.8</ele>
        <time>2018-06-02T08:14:49Z</time>
      </trkpt>
      <trkpt lat="43.58384" lon="0.23046">
        <ele>187.7</ele>
        <time>2018-06-02T08:14:52Z</time>
      </trkpt>
      <trkpt lat="43.58387" lon="0.23044">
        <ele>187.5</ele>
        <time>2018-06-02T08:14:55Z</time>
      </trkpt>
      <trkpt lat="43.58389" lon="0.23043">
        <ele>187.3</ele>
        <time>2018-06-02T08:14:57Z</time>
      </trkpt>
      <trkpt lat="43.58393" lon="0.2304">
        <ele>187.1</ele>
        <time>2018-06-02T08:15:00Z</time>
      </trkpt>
      <trkpt lat="43.58395" lon="0.23039">
        <ele>186.9</ele>
        <time>2018-06-02T08:15:02Z</time>
      </trkpt>
      <trkpt lat="43.58396" lon="0.23038">
        <ele>186.9</ele>
        <time>2018-06-02T08:15:03Z</time>
      </trkpt>
      <trkpt lat="43.58399" lon="0.23037">
        <ele>186.7</ele>
        <time>2018-06-02T08:15:05Z</time>
      </trkpt>
      <trkpt lat="43.58401" lon="0.23035">
        <ele>186.6</ele>
        <time>2018-06-02T08:15:07Z</time>
      </trkpt>
      <trkpt lat="43.58404" lon="0.23032">
        <ele>186.4</ele>
        <time>2018-06-02T08:15:10Z</time>
      </trkpt>
      <trkpt lat="43.58406" lon="0.2303">
        <ele>186.2</ele>
        <time>2018-06-02T08:15:12Z</time>
      </trkpt>
      <trkpt lat="43.58408" lon="0.23029">
        <ele>186.1</ele>
        <time>2018-06-02T08:15:14Z</time>
      </trkpt>
      <trkpt lat="43.58409" lon="0.23028">
        <ele>186</ele>
        <time>2018-06-02T08:15:15Z</time>
      </trkpt>
      <trkpt lat="43.58411" lon="0.23026">
        <ele>185.8</ele>
        <time>2018-06-02T08:15:17Z</time>
      </trkpt>
      <trkpt lat="43.58414" lon="0.23024">
        <ele>185.6</ele>
        <time>2018-06-02T08:15:20Z</time>
      </trkpt>
      <trkpt lat="43.58417" lon="0.23022">
        <ele>185.4</ele>
        <time>2018-06-02T08:15:23Z</time>
      </trkpt>
      <trkpt lat="43.58419" lon="0.2302">
        <ele>185.3</ele>
        <time>2018-06-02T08:15:25Z</time>
      </trkpt>
      <trkpt lat="43.5842" lon="0.2302">
        <ele>185.2</ele>
        <time>2018-06-02T08:15:26Z</time>
      </trkpt>
      <trkpt lat="43.58423" lon="0.23018">
        <ele>185</ele>
        <time>2018-06-02T08:15:28Z</time>
      </trkpt>
      <trkpt lat="43.58425" lon="0.23017">
        <ele>184.9</ele>
        <time>2018-06-02T08:15:30Z</time>
      </trkpt>
      <trkpt lat="43.58428" lon="0.23015">
        <ele>184.7</ele>
        <time>2018-06-02T08:15:33Z</time>
      </trkpt>
      <trkpt lat="43.5843" lon="0.23014">
        <ele>184.5</ele>
        <time>2018-06-02T08:15:35Z</time>
      </trkpt>
      <trkpt lat="43.58432" lon="0.23013">
        <ele>184.4</ele>
        <time>2018-06-02T08:15:37Z</time>
      </trkpt>
      <trkpt lat="43.58433" lon="0.23013">
        <ele>184.3</ele>
        <time>2018-06-02T08:15:38Z</time>
      </trkpt>
      <trkpt lat="43.58434" lon="0.23012">
        <ele>184.3</ele>
        <time>2018-06-02T08:15:39Z</time>
      </trkpt>
      <trkpt lat="43.58436" lon="0.23012">
        <ele>184.1</ele>
        <time>2018-06-02T08:15:41Z</time>
      </trkpt>
      <trkpt lat="43.58439" lon="0.23012">
        <ele>184</ele>
        <time>2018-06-02T08:15:43Z</time>
      </trkpt>
      <trkpt lat="43.58443" lon="0.23012">
        <ele>183.9</ele>
        <time>2018-06-02T08:15:46Z</time>
      </trkpt>
      <trkpt lat="43.58445" lon="0.23012">
        <ele>183.7</ele>
        <time>2018-06-02T08:15:48Z</time>
      </trkpt>
      <trkpt lat="43.58449" lon="0.23011">
        <ele>183.6</ele>
        <time>2018-06-02T08:15:51Z</time>
      </trkpt>
      <trkpt lat="43.58451" lon="0.23012">
        <ele>183.4</ele>
        <time>2018-06-02T08:15:53Z</time>
      </trkpt>
      <trkpt lat="43.58455" lon="0.23013">
        <ele>183.3</ele>
        <time>2018-06-02T08:15:56Z</time>
      </trkpt>
      <trkpt lat="43.58458" lon="0.23014">
        <ele>183.2</ele>
        <time>2018-06-02T08:15:58Z</time>
      </trkpt>
      <trkpt lat="43.58462" lon="0.23014">
        <ele>183</ele>
        <time>2018-06-02T08:16:01Z</time>
      </trkpt>
      <trkpt lat="43.58463" lon="0.23015">
        <ele>182.9</ele>
        <time>2018-06-02T08:16:02Z</time>
      </trkpt>
      <trkpt lat="43.58465" lon="0.23016">
        <ele>182.8</ele>
        <time>2018-06-02T08:16:04Z</time>
      </trkpt>
      <trkpt lat="43.58467" lon="0.23017">
        <ele>182.7</ele>
        <time>2018-06-02T08:16:06Z</time>
      </trkpt>
      <trkpt lat="43.5847" lon="0.23019">
        <ele>182.5</ele>
        <time>2018-06-02T08:16:09Z</time>
      </trkpt>
      <trkpt lat="43.58472" lon="0.23021">
        <ele>182.4</ele>
        <time>2018-06-02T08:16:11Z</time>
      </trkpt>
      <trkpt lat="43.58475" lon="0.23022">
        <ele>182.2</ele>
        <time>2018-06-02T08:16:14Z</time>
      </trkpt>
      <trkpt lat="43.58477" lon="0.23024">
        <ele>182.1</ele>
        <time>2018-06-02T08:16:16Z</time>
      </trkpt>
      <trkpt lat="43.58481" lon="0.23026">
        <ele>181.9</ele>
        <time>2018-06-02T08:16:19Z</time>
      </trkpt>
      <trkpt lat="43.58483" lon="0.23028">
        <ele>181.8</ele>
        <time>2018-06-02T08:16:21Z</time>
      </trkpt>
      <trkpt lat="43.58486" lon="0.2303">
        <ele>181.6</ele>
        <time>2018-06-02T08:16:24Z</time>
      </trkpt>
      <trkpt lat="43.58488" lon="0.23032">
        <ele>181.5</ele>
        <time>2018-06-02T08:16:26Z</time>
      </trkpt>
      <trkpt lat="43.58489" lon="0.23033">
        <ele>181.5</ele>
        <time>2018-06-02T08:16:27Z</time>
      </trkpt>
      <trkpt lat="43.58491" lon="0.23034">
        <ele>181.4</ele>
        <time>2018-06-02T08:16:29Z</time>
      </trkpt>
      <trkpt lat="43.58492" lon="0.23036">
        <ele>181.2</ele>
        <time>2018-06-02T08:16:31Z</time>
      </trkpt>
      <trkpt lat="43.58493" lon="0.23037">
        <ele>181.2</ele>
        <time>2018-06-02T08:16:32Z</time>
      </trkpt>
      <trkpt lat="43.58495" lon="0.23038">
        <ele>181.1</ele>
        <time>2018-06-02T08:16:34Z</time>
      </trkpt>
      <trkpt lat="43.58498" lon="0.23041">
        <ele>181</ele>
        <time>2018-06-02T08:16:37Z</time>
      </trkpt>
      <trkpt lat="43.585" lon="0.23042">
        <ele>180.9</ele>
        <time>2018-06-02T08:16:39Z</time>
      </trkpt>
      <trkpt lat="43.58503" lon="0.23044">
        <ele>180.8</ele>
        <time>2018-06-02T08:16:42Z</time>
      </trkpt>
      <trkpt lat="43.58506" lon="0.23045">
        <ele>180.7</ele>
        <time>2018-06-02T08:16:44Z</time>
      </trkpt>
      <trkpt lat="43.58509" lon="0.23046">
        <ele>180.5</ele>
        <time>2018-06-02T08:16:47Z</time>
      </trkpt>
      <trkpt lat="43.58512" lon="0.23048">
        <ele>180.4</ele>
        <time>2018-06-02T08:16:50Z</time>
      </trkpt>
      <trkpt lat="43.58513" lon="0.23048">
        <ele>180.4</ele>
        <time>2018-06-02T08:16:51Z</time>
      </trkpt>
      <trkpt lat="43.58515" lon="0.23048">
        <ele>180.3</ele>
        <time>2018-06-02T08:16:52Z</time>
      </trkpt>
      <trkpt lat="43.58519" lon="0.23048">
        <ele>180.2</ele>
        <time>2018-06-02T08:16:55Z</time>
      </trkpt>
      <trkpt lat="43.58521" lon="0.23049">
        <ele>180.1</ele>
        <time>2018-06-02T08:16:57Z</time>
      </trkpt>
      <trkpt lat="43.58525" lon="0.23049">
        <ele>179.9</ele>
        <time>2018-06-02T08:17:00Z</time>
      </trkpt>
      <trkpt lat="43.58528" lon="0.23049">
        <ele>179.9</ele>
        <time>2018-06-02T08:17:02Z</time>
      </trkpt>
      <trkpt lat="43.5853" lon="0.23049">
        <ele>179.7</ele>
        <time>2018-06-02T08:17:05Z</time>
      </trkpt>
      <trkpt lat="43.58531" lon="0.23049">
        <ele>179.6</ele>
        <time>2018-06-02T08:17:07Z</time>
      </trkpt>
      <trkpt lat="43.58533" lon="0.23048">
        <ele>179.5</ele>
        <time>2018-06-02T08:17:10Z</time>
      </trkpt>
      <trkpt lat="43.58534" lon="0.23048">
        <ele>179.4</ele>
        <time>2018-06-02T08:17:13Z</time>
      </trkpt>
      <trkpt lat="43.58536" lon="0.23048">
        <ele>179.3</ele>
        <time>2018-06-02T08:17:15Z</time>
      </trkpt>
      <trkpt lat="43.58537" lon="0.23048">
        <ele>179.1</ele>
        <time>2018-06-02T08:17:18Z</time>
      </trkpt>
      <trkpt lat="43.58539" lon="0.23047">
        <ele>179.1</ele>
        <time>2018-06-02T08:17:20Z</time>
      </trkpt>
      <trkpt lat="43.5854" lon="0.23047">
        <ele>178.9</ele>
        <time>2018-06-02T08:17:23Z</time>
      </trkpt>
      <trkpt lat="43.58542" lon="0.23047">
        <ele>178.8</ele>
        <time>2018-06-02T08:17:25Z</time>
      </trkpt>
      <trkpt lat="43.58544" lon="0.23045">
        <ele>178.7</ele>
        <time>2018-06-02T08:17:28Z</time>
      </trkpt>
      <trkpt lat="43.58546" lon="0.23044">
        <ele>178.6</ele>
        <time>2018-06-02T08:17:30Z</time>
      </trkpt>
      <trkpt lat="43.58549" lon="0.23043">
        <ele>178.5</ele>
        <time>2018-06-02T08:17:33Z</time>
      </trkpt>
      <trkpt lat="43.58551" lon="0.23041">
        <ele>178.3</ele>
        <time>2018-06-02T08:17:36Z</time>
      </trkpt>
      <trkpt lat="43.58553" lon="0.2304">
        <ele>178.2</ele>
        <time>2018-06-02T08:17:38Z</time>
      </trkpt>
      <trkpt lat="43.58555" lon="0.23039">
        <ele>178.2</ele>
        <time>2018-06-02T08:17:40Z</time>
      </trkpt>
      <trkpt lat="43.58556" lon="0.23037">
        <ele>178.1</ele>
        <time>2018-06-02T08:17:41Z</time>
      </trkpt>
      <trkpt lat="43.58558" lon="0.23035">
        <ele>178</ele>
        <time>2018-06-02T08:17:43Z</time>
      </trkpt>
      <trkpt lat="43.58562" lon="0.23031">
        <ele>178</ele>
        <time>2018-06-02T08:17:46Z</time>
      </trkpt>
      <trkpt lat="43.58564" lon="0.23029">
        <ele>178</ele>
        <time>2018-06-02T08:17:48Z</time>
      </trkpt>
      <trkpt lat="43.58567" lon="0.23026">
        <ele>178</ele>
        <time>2018-06-02T08:17:50Z</time>
      </trkpt>
      <trkpt lat="43.58568" lon="0.23025">
        <ele>177.9</ele>
        <time>2018-06-02T08:17:51Z</time>
      </trkpt>
      <trkpt lat="43.5857" lon="0.23023">
        <ele>177.9</ele>
        <time>2018-06-02T08:17:53Z</time>
      </trkpt>
      <trkpt lat="43.58574" lon="0.2302">
        <ele>177.9</ele>
        <time>2018-06-02T08:17:56Z</time>
      </trkpt>
      <trkpt lat="43.58577" lon="0.23017">
        <ele>177.9</ele>
        <time>2018-06-02T08:17:59Z</time>
      </trkpt>
      <trkpt lat="43.58578" lon="0.23016">
        <ele>177.8</ele>
        <time>2018-06-02T08:18:00Z</time>
      </trkpt>
      <trkpt lat="43.58579" lon="0.23015">
        <ele>177.8</ele>
        <time>2018-06-02T08:18:01Z</time>
      </trkpt>
      <trkpt lat="43.58583" lon="0.23012">
        <ele>177.8</ele>
        <time>2018-06-02T08:18:04Z</time>
      </trkpt>
      <trkpt lat="43.58585" lon="0.23009">
        <ele>177.8</ele>
        <time>2018-06-02T08:18:06Z</time>
      </trkpt>
      <trkpt lat="43.58589" lon="0.23005">
        <ele>177.7</ele>
        <time>2018-06-02T08:18:09Z</time>
      </trkpt>
      <trkpt lat="43.5859" lon="0.23004">
        <ele>177.7</ele>
        <time>2018-06-02T08:18:10Z</time>
      </trkpt>
      <trkpt lat="43.58591" lon="0.23003">
        <ele>177.7</ele>
        <time>2018-06-02T08:18:11Z</time>
      </trkpt>
      <trkpt lat="43.58594" lon="0.23001">
        <ele>177.7</ele>
        <time>2018-06-02T08:18:14Z</time>
      </trkpt>
      <trkpt lat="43.58597" lon="0.22999">
        <ele>177.7</ele>
        <time>2018-06-02T08:18:16Z</time>
      </trkpt>
      <trkpt lat="43.586" lon="0.22996">
        <ele>177.6</ele>
        <time>2018-06-02T08:18:19Z</time>
      </trkpt>
      <trkpt lat="43.58602" lon="0.22995">
        <ele>177.6</ele>
        <time>2018-06-02T08:18:20Z</time>
      </trkpt>
      <trkpt lat="43.58604" lon="0.22992">
        <ele>177.6</ele>
        <time>2018-06-02T08:18:22Z</time>
      </trkpt>
      <trkpt lat="43.58607" lon="0.2299">
        <ele>177.6</ele>
        <time>2018-06-02T08:18:24Z</time>
      </trkpt>
      <trkpt lat="43.5861" lon="0.22986">
        <ele>177.6</ele>
        <time>2018-06-02T08:18:27Z</time>
      </trkpt>
      <trkpt lat="43.58613" lon="0.22984">
        <ele>177.5</ele>
        <time>2018-06-02T08:18:29Z</time>
      </trkpt>
      <trkpt lat="43.58617" lon="0.22981">
        <ele>177.5</ele>
        <time>2018-06-02T08:18:32Z</time>
      </trkpt>
      <trkpt lat="43.58619" lon="0.2298">
        <ele>177.5</ele>
        <time>2018-06-02T08:18:34Z</time>
      </trkpt>
      <trkpt lat="43.58623" lon="0.22977">
        <ele>177.4</ele>
        <time>2018-06-02T08:18:37Z</time>
      </trkpt>
      <trkpt lat="43.58626" lon="0.22975">
        <ele>177.4</ele>
        <time>2018-06-02T08:18:39Z</time>
      </trkpt>
      <trkpt lat="43.58629" lon="0.22973">
        <ele>177.4</ele>
        <time>2018-06-02T08:18:42Z</time>
      </trkpt>
      <trkpt lat="43.58632" lon="0.22971">
        <ele>177.4</ele>
        <time>2018-06-02T08:18:45Z</time>
      </trkpt>
      <trkpt lat="43.58635" lon="0.22969">
        <ele>177.3</ele>
        <time>2018-06-02T08:18:47Z</time>
      </trkpt>
      <trkpt lat="43.58638" lon="0.22967">
        <ele>177.3</ele>
        <time>2018-06-02T08:18:50Z</time>
      </trkpt>
      <trkpt lat="43.5864" lon="0.22965">
        <ele>177.3</ele>
        <time>2018-06-02T08:18:52Z</time>
      </trkpt>
      <trkpt lat="43.58644" lon="0.22962">
        <ele>177.2</ele>
        <time>2018-06-02T08:18:55Z</time>
      </trkpt>
      <trkpt lat="43.58646" lon="0.2296">
        <ele>177.2</ele>
        <time>2018-06-02T08:18:57Z</time>
      </trkpt>
      <trkpt lat="43.58649" lon="0.22957">
        <ele>177.2</ele>
        <time>2018-06-02T08:19:00Z</time>
      </trkpt>
      <trkpt lat="43.5865" lon="0.22956">
        <ele>177.2</ele>
        <time>2018-06-02T08:19:01Z</time>
      </trkpt>
      <trkpt lat="43.58651" lon="0.22955">
        <ele>177.2</ele>
        <time>2018-06-02T08:19:02Z</time>
      </trkpt>
      <trkpt lat="43.58654" lon="0.22953">
        <ele>177.1</ele>
        <time>2018-06-02T08:19:05Z</time>
      </trkpt>
      <trkpt lat="43.58658" lon="0.22951">
        <ele>177.1</ele>
        <time>2018-06-02T08:19:08Z</time>
      </trkpt>
      <trkpt lat="43.5866" lon="0.2295">
        <ele>177.1</ele>
        <time>2018-06-02T08:19:10Z</time>
      </trkpt>
      <trkpt lat="43.58663" lon="0.22948">
        <ele>177</ele>
        <time>2018-06-02T08:19:13Z</time>
      </trkpt>
      <trkpt lat="43.58665" lon="0.22946">
        <ele>177</ele>
        <time>2018-06-02T08:19:15Z</time>
      </trkpt>
      <trkpt lat="43.58668" lon="0.22943">
        <ele>177</ele>
        <time>2018-06-02T08:19:18Z</time>
      </trkpt>
      <trkpt lat="43.5867" lon="0.22941">
        <ele>177</ele>
        <time>2018-06-02T08:19:20Z</time>
      </trkpt>
      <trkpt lat="43.58673" lon="0.22939">
        <ele>176.9</ele>
        <time>2018-06-02T08:19:23Z</time>
      </trkpt>
      <trkpt lat="43.58675" lon="0.22937">
        <ele>176.9</ele>
        <time>2018-06-02T08:19:25Z</time>
      </trkpt>
      <trkpt lat="43.58678" lon="0.22934">
        <ele>176.9</ele>
        <time>2018-06-02T08:19:28Z</time>
      </trkpt>
      <trkpt lat="43.58681" lon="0.22931">
        <ele>176.9</ele>
        <time>2018-06-02T08:19:31Z</time>
      </trkpt>
      <trkpt lat="43.58683" lon="0.2293">
        <ele>176.8</ele>
        <time>2018-06-02T08:19:33Z</time>
      </trkpt>
      <trkpt lat="43.58686" lon="0.22927">
        <ele>176.8</ele>
        <time>2018-06-02T08:19:36Z</time>
      </trkpt>
      <trkpt lat="43.58687" lon="0.22926">
        <ele>176.8</ele>
        <time>2018-06-02T08:19:37Z</time>
      </trkpt>
      <trkpt lat="43.58688" lon="0.22925">
        <ele>176.8</ele>
        <time>2018-06-02T08:19:38Z</time>
      </trkpt>
      <trkpt lat="43.58691" lon="0.22923">
        <ele>176.7</ele>
        <time>2018-06-02T08:19:41Z</time>
      </trkpt>
      <trkpt lat="43.58693" lon="0.22921">
        <ele>176.7</ele>
        <time>2018-06-02T08:19:43Z</time>
      </trkpt>
      <trkpt lat="43.58697" lon="0.22919">
        <ele>176.7</ele>
        <time>2018-06-02T08:19:46Z</time>
      </trkpt>
      <trkpt lat="43.58699" lon="0.22918">
        <ele>176.7</ele>
        <time>2018-06-02T08:19:48Z</time>
      </trkpt>
      <trkpt lat="43.587" lon="0.22917">
        <ele>176.7</ele>
        <time>2018-06-02T08:19:49Z</time>
      </trkpt>
      <trkpt lat="43.58702" lon="0.22915">
        <ele>176.6</ele>
        <time>2018-06-02T08:19:51Z</time>
      </trkpt>
      <trkpt lat="43.58705" lon="0.22913">
        <ele>176.6</ele>
        <time>2018-06-02T08:19:54Z</time>
      </trkpt>
      <trkpt lat="43.58707" lon="0.22911">
        <ele>176.6</ele>
        <time>2018-06-02T08:19:56Z</time>
      </trkpt>
      <trkpt lat="43.58711" lon="0.22909">
        <ele>176.5</ele>
        <time>2018-06-02T08:19:59Z</time>
      </trkpt>
      <trkpt lat="43.58713" lon="0.22907">
        <ele>176.5</ele>
        <time>2018-06-02T08:20:01Z</time>
      </trkpt>
      <trkpt lat="43.58716" lon="0.22904">
        <ele>176.5</ele>
        <time>2018-06-02T08:20:04Z</time>
      </trkpt>
      <trkpt lat="43.58718" lon="0.22903">
        <ele>176.5</ele>
        <time>2018-06-02T08:20:06Z</time>
      </trkpt>
      <trkpt lat="43.5872" lon="0.229">
        <ele>176.4</ele>
        <time>2018-06-02T08:20:09Z</time>
      </trkpt>
      <trkpt lat="43.58722" lon="0.22898">
        <ele>176.4</ele>
        <time>2018-06-02T08:20:11Z</time>
      </trkpt>
      <trkpt lat="43.58725" lon="0.22896">
        <ele>176.4</ele>
        <time>2018-06-02T08:20:14Z</time>
      </trkpt>
      <trkpt lat="43.58728" lon="0.22893">
        <ele>176.3</ele>
        <time>2018-06-02T08:20:17Z</time>
      </trkpt>
      <trkpt lat="43.5873" lon="0.22891">
        <ele>176.3</ele>
        <time>2018-06-02T08:20:19Z</time>
      </trkpt>
      <trkpt lat="43.58733" lon="0.22888">
        <ele>176.3</ele>
        <time>2018-06-02T08:20:22Z</time>
      </trkpt>
      <trkpt lat="43.58735" lon="0.22886">
        <ele>176.3</ele>
        <time>2018-06-02T08:20:24Z</time>
      </trkpt>
      <trkpt lat="43.58737" lon="0.22884">
        <ele>176.3</ele>
        <time>2018-06-02T08:20:26Z</time>
      </trkpt>
      <trkpt lat="43.58738" lon="0.22884">
        <ele>176.2</ele>
        <time>2018-06-02T08:20:27Z</time>
      </trkpt>
      <trkpt lat="43.5874" lon="0.22883">
        <ele>176.2</ele>
        <time>2018-06-02T08:20:29Z</time>
      </trkpt>
      <trkpt lat="43.58744" lon="0.22881">
        <ele>176.2</ele>
        <time>2018-06-02T08:20:32Z</time>
      </trkpt>
      <trkpt lat="43.58746" lon="0.22879">
        <ele>176.2</ele>
        <time>2018-06-02T08:20:34Z</time>
      </trkpt>
      <trkpt lat="43.58749" lon="0.22877">
        <ele>176.1</ele>
        <time>2018-06-02T08:20:37Z</time>
      </trkpt>
      <trkpt lat="43.5875" lon="0.22877">
        <ele>176.1</ele>
        <time>2018-06-02T08:20:38Z</time>
      </trkpt>
      <trkpt lat="43.58752" lon="0.22875">
        <ele>176.1</ele>
        <time>2018-06-02T08:20:40Z</time>
      </trkpt>
      <trkpt lat="43.58754" lon="0.22873">
        <ele>176.1</ele>
        <time>2018-06-02T08:20:42Z</time>
      </trkpt>
      <trkpt lat="43.58758" lon="0.22871">
        <ele>176</ele>
        <time>2018-06-02T08:20:45Z</time>
      </trkpt>
      <trkpt lat="43.5876" lon="0.22869">
        <ele>176</ele>
        <time>2018-06-02T08:20:47Z</time>
      </trkpt>
      <trkpt lat="43.58763" lon="0.22867">
        <ele>176</ele>
        <time>2018-06-02T08:20:50Z</time>
      </trkpt>
      <trkpt lat="43.58765" lon="0.22866">
        <ele>176</ele>
        <time>2018-06-02T08:20:52Z</time>
      </trkpt>
      <trkpt lat="43.58768" lon="0.22863">
        <ele>175.9</ele>
        <time>2018-06-02T08:20:55Z</time>
      </trkpt>
      <trkpt lat="43.5877" lon="0.22862">
        <ele>175.9</ele>
        <time>2018-06-02T08:20:57Z</time>
      </trkpt>
      <trkpt lat="43.58774" lon="0.22859">
        <ele>175.9</ele>
        <time>2018-06-02T08:21:00Z</time>
      </trkpt>
      <trkpt lat="43.58775" lon="0.22859">
        <ele>175.9</ele>
        <time>2018-06-02T08:21:01Z</time>
      </trkpt>
      <trkpt lat="43.58777" lon="0.22858">
        <ele>175.8</ele>
        <time>2018-06-02T08:21:03Z</time>
      </trkpt>
      <trkpt lat="43.5878" lon="0.22856">
        <ele>175.8</ele>
        <time>2018-06-02T08:21:05Z</time>
      </trkpt>
      <trkpt lat="43.58783" lon="0.22854">
        <ele>175.8</ele>
        <time>2018-06-02T08:21:08Z</time>
      </trkpt>
      <trkpt lat="43.58786" lon="0.22853">
        <ele>175.8</ele>
        <time>2018-06-02T08:21:10Z</time>
      </trkpt>
      <trkpt lat="43.58788" lon="0.22852">
        <ele>175.7</ele>
        <time>2018-06-02T08:21:12Z</time>
      </trkpt>
      <trkpt lat="43.58789" lon="0.22852">
        <ele>175.7</ele>
        <time>2018-06-02T08:21:13Z</time>
      </trkpt>
      <trkpt lat="43.58792" lon="0.22851">
        <ele>175.7</ele>
        <time>2018-06-02T08:21:15Z</time>
      </trkpt>
      <trkpt lat="43.58795" lon="0.22849">
        <ele>175.7</ele>
        <time>2018-06-02T08:21:18Z</time>
      </trkpt>
      <trkpt lat="43.58798" lon="0.22848">
        <ele>175.7</ele>
        <time>2018-06-02T08:21:20Z</time>
      </trkpt>
      <trkpt lat="43.58801" lon="0.22846">
        <ele>175.6</ele>
        <time>2018-06-02T08:21:23Z</time>
      </trkpt>
      <trkpt lat="43.58805" lon="0.22845">
        <ele>175.6</ele>
        <time>2018-06-02T08:21:26Z</time>
      </trkpt>
      <trkpt lat="43.58807" lon="0.22845">
        <ele>175.6</ele>
        <time>2018-06-02T08:21:28Z</time>
      </trkpt>
      <trkpt lat="43.58811" lon="0.22844">
        <ele>175.5</ele>
        <time>2018-06-02T08:21:31Z</time>
      </trkpt>
      <trkpt lat="43.58813" lon="0.22843">
        <ele>175.5</ele>
        <time>2018-06-02T08:21:33Z</time>
      </trkpt>
      <trkpt lat="43.58815" lon="0.22842">
        <ele>175.5</ele>
        <time>2018-06-02T08:21:34Z</time>
      </trkpt>
      <trkpt lat="43.58817" lon="0.22842">
        <ele>175.5</ele>
        <time>2018-06-02T08:21:36Z</time>
      </trkpt>
      <trkpt lat="43.58819" lon="0.22841">
        <ele>175.5</ele>
        <time>2018-06-02T08:21:38Z</time>
      </trkpt>
      <trkpt lat="43.58822" lon="0.22841">
        <ele>175.4</ele>
        <time>2018-06-02T08:21:41Z</time>
      </trkpt>
      <trkpt lat="43.58825" lon="0.2284">
        <ele>175.4</ele>
        <time>2018-06-02T08:21:43Z</time>
      </trkpt>
      <trkpt lat="43.58828" lon="0.22839">
        <ele>175.4</ele>
        <time>2018-06-02T08:21:46Z</time>
      </trkpt>
      <trkpt lat="43.58829" lon="0.22839">
        <ele>175.4</ele>
        <time>2018-06-02T08:21:47Z</time>
      </trkpt>
      <trkpt lat="43.58832" lon="0.22839">
        <ele>175.3</ele>
        <time>2018-06-02T08:21:49Z</time>
      </trkpt>
      <trkpt lat="43.58834" lon="0.22838">
        <ele>175.3</ele>
        <time>2018-06-02T08:21:51Z</time>
      </trkpt>
      <trkpt lat="43.58838" lon="0.22837">
        <ele>175.3</ele>
        <time>2018-06-02T08:21:54Z</time>
      </trkpt>
      <trkpt lat="43.5884" lon="0.22837">
        <ele>175.3</ele>
        <time>2018-06-02T08:21:56Z</time>
      </trkpt>
      <trkpt lat="43.58843" lon="0.22837">
        <ele>175.2</ele>
        <time>2018-06-02T08:21:58Z</time>
      </trkpt>
      <trkpt lat="43.58844" lon="0.22836">
        <ele>175.2</ele>
        <time>2018-06-02T08:21:59Z</time>
      </trkpt>
      <trkpt lat="43.58847" lon="0.22836">
        <ele>175.2</ele>
        <time>2018-06-02T08:22:01Z</time>
      </trkpt>
      <trkpt lat="43.5885" lon="0.22836">
        <ele>175.2</ele>
        <time>2018-06-02T08:22:04Z</time>
      </trkpt>
      <trkpt lat="43.58853" lon="0.22836">
        <ele>175.2</ele>
        <time>2018-06-02T08:22:06Z</time>
      </trkpt>
      <trkpt lat="43.58857" lon="0.22835">
        <ele>175.1</ele>
        <time>2018-06-02T08:22:09Z</time>
      </trkpt>
      <trkpt lat="43.58861" lon="0.22834">
        <ele>175.1</ele>
        <time>2018-06-02T08:22:12Z</time>
      </trkpt>
      <trkpt lat="43.58864" lon="0.22833">
        <ele>175.1</ele>
        <time>2018-06-02T08:22:14Z</time>
      </trkpt>
      <trkpt lat="43.58869" lon="0.22831">
        <ele>175</ele>
        <time>2018-06-02T08:22:17Z</time>
      </trkpt>
      <trkpt lat="43.58872" lon="0.2283">
        <ele>175</ele>
        <time>2018-06-02T08:22:19Z</time>
      </trkpt>
      <trkpt lat="43.58873" lon="0.2283">
        <ele>175</ele>
        <time>2018-06-02T08:22:20Z</time>
      </trkpt>
      <trkpt lat="43.58874" lon="0.2283">
        <ele>175</ele>
        <time>2018-06-02T08:22:21Z</time>
      </trkpt>
      <trkpt lat="43.58875" lon="0.2283">
        <ele>175</ele>
        <time>2018-06-02T08:22:22Z</time>
      </trkpt>
      <trkpt lat="43.58877" lon="0.2283">
        <ele>175</ele>
        <time>2018-06-02T08:22:24Z</time>
      </trkpt>
      <trkpt lat="43.5888" lon="0.2283">
        <ele>175</ele>
        <time>2018-06-02T08:22:27Z</time>
      </trkpt>
      <trkpt lat="43.58882" lon="0.2283">
        <ele>175.1</ele>
        <time>2018-06-02T08:22:29Z</time>
      </trkpt>
      <trkpt lat="43.58884" lon="0.2283">
        <ele>175.1</ele>
        <time>2018-06-02T08:22:32Z</time>
      </trkpt>
      <trkpt lat="43.58887" lon="0.2283">
        <ele>175.1</ele>
        <time>2018-06-02T08:22:35Z</time>
      </trkpt>
      <trkpt lat="43.58889" lon="0.2283">
        <ele>175.1</ele>
        <time>2018-06-02T08:22:37Z</time>
      </trkpt>
      <trkpt lat="43.58893" lon="0.22829">
        <ele>175.2</ele>
        <time>2018-06-02T08:22:40Z</time>
      </trkpt>
      <trkpt lat="43.58895" lon="0.22829">
        <ele>175.2</ele>
        <time>2018-06-02T08:22:42Z</time>
      </trkpt>
      <trkpt lat="43.58899" lon="0.22829">
        <ele>175.2</ele>
        <time>2018-06-02T08:22:45Z</time>
      </trkpt>
      <trkpt lat="43.58901" lon="0.22829">
        <ele>175.2</ele>
        <time>2018-06-02T08:22:47Z</time>
      </trkpt>
      <trkpt lat="43.58905" lon="0.22828">
        <ele>175.2</ele>
        <time>2018-06-02T08:22:50Z</time>
      </trkpt>
      <trkpt lat="43.58908" lon="0.22828">
        <ele>175.2</ele>
        <time>2018-06-02T08:22:52Z</time>
      </trkpt>
      <trkpt lat="43.58911" lon="0.22827">
        <ele>175.3</ele>
        <time>2018-06-02T08:22:55Z</time>
      </trkpt>
      <trkpt lat="43.58915" lon="0.22827">
        <ele>175.3</ele>
        <time>2018-06-02T08:22:58Z</time>
      </trkpt>
      <trkpt lat="43.58917" lon="0.22827">
        <ele>175.3</ele>
        <time>2018-06-02T08:23:00Z</time>
      </trkpt>
      <trkpt lat="43.58921" lon="0.22826">
        <ele>175.3</ele>
        <time>2018-06-02T08:23:03Z</time>
      </trkpt>
      <trkpt lat="43.58923" lon="0.22826">
        <ele>175.4</ele>
        <time>2018-06-02T08:23:05Z</time>
      </trkpt>
      <trkpt lat="43.58927" lon="0.22825">
        <ele>175.4</ele>
        <time>2018-06-02T08:23:08Z</time>
      </trkpt>
      <trkpt lat="43.58929" lon="0.22825">
        <ele>175.4</ele>
        <time>2018-06-02T08:23:10Z</time>
      </trkpt>
      <trkpt lat="43.5893" lon="0.22825">
        <ele>175.4</ele>
        <time>2018-06-02T08:23:11Z</time>
      </trkpt>
      <trkpt lat="43.58932" lon="0.22824">
        <ele>175.4</ele>
        <time>2018-06-02T08:23:13Z</time>
      </trkpt>
      <trkpt lat="43.58936" lon="0.22823">
        <ele>175.4</ele>
        <time>2018-06-02T08:23:16Z</time>
      </trkpt>
      <trkpt lat="43.58938" lon="0.22823">
        <ele>175.5</ele>
        <time>2018-06-02T08:23:18Z</time>
      </trkpt>
      <trkpt lat="43.58942" lon="0.22822">
        <ele>175.5</ele>
        <time>2018-06-02T08:23:21Z</time>
      </trkpt>
      <trkpt lat="43.58943" lon="0.22821">
        <ele>175.5</ele>
        <time>2018-06-02T08:23:22Z</time>
      </trkpt>
      <trkpt lat="43.58944" lon="0.22821">
        <ele>175.5</ele>
        <time>2018-06-02T08:23:23Z</time>
      </trkpt>
      <trkpt lat="43.58948" lon="0.22821">
        <ele>175.5</ele>
        <time>2018-06-02T08:23:26Z</time>
      </trkpt>
      <trkpt lat="43.5895" lon="0.2282">
        <ele>175.5</ele>
        <time>2018-06-02T08:23:28Z</time>
      </trkpt>
      <trkpt lat="43.58954" lon="0.2282">
        <ele>175.6</ele>
        <time>2018-06-02T08:23:31Z</time>
      </trkpt>
      <trkpt lat="43.58956" lon="0.22819">
        <ele>175.6</ele>
        <time>2018-06-02T08:23:33Z</time>
      </trkpt>
      <trkpt lat="43.58958" lon="0.22819">
        <ele>175.6</ele>
        <time>2018-06-02T08:23:34Z</time>
      </trkpt>
      <trkpt lat="43.5896" lon="0.22819">
        <ele>175.6</ele>
        <time>2018-06-02T08:23:36Z</time>
      </trkpt>
      <trkpt lat="43.58963" lon="0.22818">
        <ele>175.6</ele>
        <time>2018-06-02T08:23:39Z</time>
      </trkpt>
      <trkpt lat="43.58966" lon="0.22818">
        <ele>175.6</ele>
        <time>2018-06-02T08:23:41Z</time>
      </trkpt>
      <trkpt lat="43.58969" lon="0.22817">
        <ele>175.7</ele>
        <time>2018-06-02T08:23:44Z</time>
      </trkpt>
      <trkpt lat="43.58971" lon="0.22817">
        <ele>175.7</ele>
        <time>2018-06-02T08:23:46Z</time>
      </trkpt>
      <trkpt lat="43.58975" lon="0.22817">
        <ele>175.7</ele>
        <time>2018-06-02T08:23:49Z</time>
      </trkpt>
      <trkpt lat="43.58977" lon="0.22817">
        <ele>175.7</ele>
        <time>2018-06-02T08:23:51Z</time>
      </trkpt>
      <trkpt lat="43.5898" lon="0.22817">
        <ele>175.7</ele>
        <time>2018-06-02T08:23:54Z</time>
      </trkpt>
      <trkpt lat="43.58982" lon="0.22816">
        <ele>175.8</ele>
        <time>2018-06-02T08:23:56Z</time>
      </trkpt>
      <trkpt lat="43.58985" lon="0.22816">
        <ele>175.8</ele>
        <time>2018-06-02T08:23:59Z</time>
      </trkpt>
      <trkpt lat="43.58988" lon="0.22816">
        <ele>175.8</ele>
        <time>2018-06-02T08:24:02Z</time>
      </trkpt>
      <trkpt lat="43.58991" lon="0.22816">
        <ele>175.8</ele>
        <time>2018-06-02T08:24:04Z</time>
      </trkpt>
      <trkpt lat="43.58994" lon="0.22815">
        <ele>175.8</ele>
        <time>2018-06-02T08:24:07Z</time>
      </trkpt>
      <trkpt lat="43.58996" lon="0.22815">
        <ele>175.9</ele>
        <time>2018-06-02T08:24:09Z</time>
      </trkpt>
      <trkpt lat="43.58999" lon="0.22814">
        <ele>175.9</ele>
        <time>2018-06-02T08:24:12Z</time>
      </trkpt>
      <trkpt lat="43.59002" lon="0.22814">
        <ele>175.9</ele>
        <time>2018-06-02T08:24:14Z</time>
      </trkpt>
      <trkpt lat="43.59005" lon="0.22813">
        <ele>175.9</ele>
        <time>2018-06-02T08:24:17Z</time>
      </trkpt>
      <trkpt lat="43.59007" lon="0.22812">
        <ele>175.9</ele>
        <time>2018-06-02T08:24:19Z</time>
      </trkpt>
      <trkpt lat="43.59011" lon="0.22811">
        <ele>176</ele>
        <time>2018-06-02T08:24:22Z</time>
      </trkpt>
      <trkpt lat="43.59013" lon="0.2281">
        <ele>176</ele>
        <time>2018-06-02T08:24:24Z</time>
      </trkpt>
      <trkpt lat="43.59014" lon="0.2281">
        <ele>176</ele>
        <time>2018-06-02T08:24:25Z</time>
      </trkpt>
      <trkpt lat="43.59016" lon="0.22809">
        <ele>176</ele>
        <time>2018-06-02T08:24:27Z</time>
      </trkpt>
      <trkpt lat="43.5902" lon="0.22807">
        <ele>176</ele>
        <time>2018-06-02T08:24:30Z</time>
      </trkpt>
      <trkpt lat="43.59022" lon="0.22806">
        <ele>176</ele>
        <time>2018-06-02T08:24:32Z</time>
      </trkpt>
      <trkpt lat="43.59025" lon="0.22804">
        <ele>176.1</ele>
        <time>2018-06-02T08:24:35Z</time>
      </trkpt>
      <trkpt lat="43.59026" lon="0.22804">
        <ele>176.1</ele>
        <time>2018-06-02T08:24:36Z</time>
      </trkpt>
      <trkpt lat="43.59027" lon="0.22803">
        <ele>176.1</ele>
        <time>2018-06-02T08:24:37Z</time>
      </trkpt>
      <trkpt lat="43.5903" lon="0.228">
        <ele>176.1</ele>
        <time>2018-06-02T08:24:40Z</time>
      </trkpt>
      <trkpt lat="43.59032" lon="0.22799">
        <ele>176.1</ele>
        <time>2018-06-02T08:24:42Z</time>
      </trkpt>
      <trkpt lat="43.59035" lon="0.22796">
        <ele>176.2</ele>
        <time>2018-06-02T08:24:45Z</time>
      </trkpt>
      <trkpt lat="43.59039" lon="0.22794">
        <ele>176.2</ele>
        <time>2018-06-02T08:24:48Z</time>
      </trkpt>
      <trkpt lat="43.59041" lon="0.22794">
        <ele>176.2</ele>
        <time>2018-06-02T08:24:50Z</time>
      </trkpt>
      <trkpt lat="43.59045" lon="0.22794">
        <ele>176.2</ele>
        <time>2018-06-02T08:24:53Z</time>
      </trkpt>
      <trkpt lat="43.59047" lon="0.22793">
        <ele>176.2</ele>
        <time>2018-06-02T08:24:55Z</time>
      </trkpt>
      <trkpt lat="43.59051" lon="0.22793">
        <ele>176.3</ele>
        <time>2018-06-02T08:24:58Z</time>
      </trkpt>
      <trkpt lat="43.59053" lon="0.22793">
        <ele>176.3</ele>
        <time>2018-06-02T08:25:00Z</time>
      </trkpt>
      <trkpt lat="43.59056" lon="0.22795">
        <ele>176.3</ele>
        <time>2018-06-02T08:25:03Z</time>
      </trkpt>
      <trkpt lat="43.59058" lon="0.22797">
        <ele>176.3</ele>
        <time>2018-06-02T08:25:05Z</time>
      </trkpt>
      <trkpt lat="43.59062" lon="0.22799">
        <ele>176.3</ele>
        <time>2018-06-02T08:25:08Z</time>
      </trkpt>
      <trkpt lat="43.59065" lon="0.22801">
        <ele>176.4</ele>
        <time>2018-06-02T08:25:11Z</time>
      </trkpt>
      <trkpt lat="43.59068" lon="0.22801">
        <ele>176.4</ele>
        <time>2018-06-02T08:25:13Z</time>
      </trkpt>
      <trkpt lat="43.59072" lon="0.22801">
        <ele>176.4</ele>
        <time>2018-06-02T08:25:16Z</time>
      </trkpt>
      <trkpt lat="43.59075" lon="0.22801">
        <ele>176.4</ele>
        <time>2018-06-02T08:25:18Z</time>
      </trkpt>
      <trkpt lat="43.59079" lon="0.22801">
        <ele>176.4</ele>
        <time>2018-06-02T08:25:21Z</time>
      </trkpt>
      <trkpt lat="43.59081" lon="0.22801">
        <ele>176.5</ele>
        <time>2018-06-02T08:25:23Z</time>
      </trkpt>
      <trkpt lat="43.59085" lon="0.22801">
        <ele>176.5</ele>
        <time>2018-06-02T08:25:26Z</time>
      </trkpt>
      <trkpt lat="43.59087" lon="0.22801">
        <ele>176.5</ele>
        <time>2018-06-02T08:25:28Z</time>
      </trkpt>
      <trkpt lat="43.59091" lon="0.228">
        <ele>176.5</ele>
        <time>2018-06-02T08:25:31Z</time>
      </trkpt>
      <trkpt lat="43.59093" lon="0.228">
        <ele>176.5</ele>
        <time>2018-06-02T08:25:33Z</time>
      </trkpt>
      <trkpt lat="43.59094" lon="0.228">
        <ele>176.5</ele>
        <time>2018-06-02T08:25:34Z</time>
      </trkpt>
      <trkpt lat="43.59097" lon="0.228">
        <ele>176.6</ele>
        <time>2018-06-02T08:25:36Z</time>
      </trkpt>
      <trkpt lat="43.591" lon="0.22801">
        <ele>176.6</ele>
        <time>2018-06-02T08:25:39Z</time>
      </trkpt>
      <trkpt lat="43.59103" lon="0.22801">
        <ele>176.6</ele>
        <time>2018-06-02T08:25:41Z</time>
      </trkpt>
      <trkpt lat="43.59106" lon="0.22801">
        <ele>176.6</ele>
        <time>2018-06-02T08:25:44Z</time>
      </trkpt>
      <trkpt lat="43.59107" lon="0.22801">
        <ele>176.6</ele>
        <time>2018-06-02T08:25:45Z</time>
      </trkpt>
      <trkpt lat="43.59108" lon="0.22802">
        <ele>176.6</ele>
        <time>2018-06-02T08:25:46Z</time>
      </trkpt>
      <trkpt lat="43.59111" lon="0.22803">
        <ele>176.7</ele>
        <time>2018-06-02T08:25:49Z</time>
      </trkpt>
      <trkpt lat="43.59113" lon="0.22803">
        <ele>176.7</ele>
        <time>2018-06-02T08:25:51Z</time>
      </trkpt>
      <trkpt lat="43.59117" lon="0.22804">
        <ele>176.7</ele>
        <time>2018-06-02T08:25:54Z</time>
      </trkpt>
      <trkpt lat="43.5912" lon="0.22805">
        <ele>176.7</ele>
        <time>2018-06-02T08:25:57Z</time>
      </trkpt>
      <trkpt lat="43.59121" lon="0.22805">
        <ele>176.7</ele>
        <time>2018-06-02T08:25:58Z</time>
      </trkpt>
      <trkpt lat="43.59122" lon="0.22805">
        <ele>176.7</ele>
        <time>2018-06-02T08:25:59Z</time>
      </trkpt>
      <trkpt lat="43.59126" lon="0.22805">
        <ele>176.8</ele>
        <time>2018-06-02T08:26:02Z</time>
      </trkpt>
      <trkpt lat="43.59128" lon="0.22805">
        <ele>176.8</ele>
        <time>2018-06-02T08:26:04Z</time>
      </trkpt>
      <trkpt lat="43.59132" lon="0.22805">
        <ele>176.8</ele>
        <time>2018-06-02T08:26:07Z</time>
      </trkpt>
      <trkpt lat="43.59135" lon="0.22805">
        <ele>176.8</ele>
        <time>2018-06-02T08:26:09Z</time>
      </trkpt>
      <trkpt lat="43.59139" lon="0.22805">
        <ele>176.9</ele>
        <time>2018-06-02T08:26:12Z</time>
      </trkpt>
      <trkpt lat="43.59141" lon="0.22805">
        <ele>176.9</ele>
        <time>2018-06-02T08:26:14Z</time>
      </trkpt>
      <trkpt lat="43.59145" lon="0.22805">
        <ele>176.9</ele>
        <time>2018-06-02T08:26:17Z</time>
      </trkpt>
      <trkpt lat="43.59148" lon="0.22804">
        <ele>176.9</ele>
        <time>2018-06-02T08:26:20Z</time>
      </trkpt>
      <trkpt lat="43.5915" lon="0.22804">
        <ele>176.9</ele>
        <time>2018-06-02T08:26:21Z</time>
      </trkpt>
      <trkpt lat="43.59151" lon="0.22804">
        <ele>176.9</ele>
        <time>2018-06-02T08:26:22Z</time>
      </trkpt>
      <trkpt lat="43.59155" lon="0.22805">
        <ele>177</ele>
        <time>2018-06-02T08:26:25Z</time>
      </trkpt>
      <trkpt lat="43.59157" lon="0.22805">
        <ele>177</ele>
        <time>2018-06-02T08:26:27Z</time>
      </trkpt>
      <trkpt lat="43.59161" lon="0.22806">
        <ele>177</ele>
        <time>2018-06-02T08:26:30Z</time>
      </trkpt>
      <trkpt lat="43.59164" lon="0.22806">
        <ele>177</ele>
        <time>2018-06-02T08:26:32Z</time>
      </trkpt>
      <trkpt lat="43.59167" lon="0.22806">
        <ele>177</ele>
        <time>2018-06-02T08:26:35Z</time>
      </trkpt>
      <trkpt lat="43.59169" lon="0.22806">
        <ele>177.1</ele>
        <time>2018-06-02T08:26:37Z</time>
      </trkpt>
      <trkpt lat="43.59172" lon="0.22806">
        <ele>177.1</ele>
        <time>2018-06-02T08:26:40Z</time>
      </trkpt>
      <trkpt lat="43.59176" lon="0.22806">
        <ele>177.1</ele>
        <time>2018-06-02T08:26:43Z</time>
      </trkpt>
      <trkpt lat="43.59178" lon="0.22806">
        <ele>177.1</ele>
        <time>2018-06-02T08:26:45Z</time>
      </trkpt>
      <trkpt lat="43.59181" lon="0.22806">
        <ele>177.1</ele>
        <time>2018-06-02T08:26:48Z</time>
      </trkpt>
      <trkpt lat="43.59183" lon="0.22806">
        <ele>177.2</ele>
        <time>2018-06-02T08:26:50Z</time>
      </trkpt>
      <trkpt lat="43.59187" lon="0.22807">
        <ele>177.2</ele>
        <time>2018-06-02T08:26:53Z</time>
      </trkpt>
      <trkpt lat="43.59189" lon="0.22807">
        <ele>177.2</ele>
        <time>2018-06-02T08:26:55Z</time>
      </trkpt>
      <trkpt lat="43.59192" lon="0.22808">
        <ele>177.2</ele>
        <time>2018-06-02T08:26:58Z</time>
      </trkpt>
      <trkpt lat="43.59195" lon="0.22808">
        <ele>177.2</ele>
        <time>2018-06-02T08:27:00Z</time>
      </trkpt>
      <trkpt lat="43.59199" lon="0.22808">
        <ele>177.3</ele>
        <time>2018-06-02T08:27:03Z</time>
      </trkpt>
      <trkpt lat="43.59202" lon="0.22809">
        <ele>177.3</ele>
        <time>2018-06-02T08:27:06Z</time>
      </trkpt>
      <trkpt lat="43.59205" lon="0.22809">
        <ele>177.3</ele>
        <time>2018-06-02T08:27:08Z</time>
      </trkpt>
      <trkpt lat="43.59207" lon="0.22809">
        <ele>177.3</ele>
        <time>2018-06-02T08:27:10Z</time>
      </trkpt>
      <trkpt lat="43.59208" lon="0.22809">
        <ele>177.3</ele>
        <time>2018-06-02T08:27:11Z</time>
      </trkpt>
      <trkpt lat="43.59211" lon="0.22809">
        <ele>177.3</ele>
        <time>2018-06-02T08:27:13Z</time>
      </trkpt>
      <trkpt lat="43.59215" lon="0.22809">
        <ele>177.4</ele>
        <time>2018-06-02T08:27:16Z</time>
      </trkpt>
      <trkpt lat="43.59217" lon="0.22809">
        <ele>177.4</ele>
        <time>2018-06-02T08:27:18Z</time>
      </trkpt>
      <trkpt lat="43.59221" lon="0.22809">
        <ele>177.4</ele>
        <time>2018-06-02T08:27:21Z</time>
      </trkpt>
      <trkpt lat="43.59223" lon="0.22809">
        <ele>177.4</ele>
        <time>2018-06-02T08:27:23Z</time>
      </trkpt>
      <trkpt lat="43.59227" lon="0.2281">
        <ele>177.4</ele>
        <time>2018-06-02T08:27:26Z</time>
      </trkpt>
      <trkpt lat="43.5923" lon="0.2281">
        <ele>177.5</ele>
        <time>2018-06-02T08:27:29Z</time>
      </trkpt>
      <trkpt lat="43.59233" lon="0.2281">
        <ele>177.5</ele>
        <time>2018-06-02T08:27:31Z</time>
      </trkpt>
      <trkpt lat="43.59235" lon="0.22811">
        <ele>177.5</ele>
        <time>2018-06-02T08:27:33Z</time>
      </trkpt>
      <trkpt lat="43.59236" lon="0.22811">
        <ele>177.5</ele>
        <time>2018-06-02T08:27:34Z</time>
      </trkpt>
      <trkpt lat="43.59239" lon="0.22811">
        <ele>177.5</ele>
        <time>2018-06-02T08:27:36Z</time>
      </trkpt>
      <trkpt lat="43.59243" lon="0.22811">
        <ele>177.5</ele>
        <time>2018-06-02T08:27:39Z</time>
      </trkpt>
      <trkpt lat="43.59245" lon="0.22811">
        <ele>177.6</ele>
        <time>2018-06-02T08:27:41Z</time>
      </trkpt>
      <trkpt lat="43.59249" lon="0.22811">
        <ele>177.6</ele>
        <time>2018-06-02T08:27:44Z</time>
      </trkpt>
      <trkpt lat="43.59251" lon="0.22811">
        <ele>177.6</ele>
        <time>2018-06-02T08:27:46Z</time>
      </trkpt>
      <trkpt lat="43.59255" lon="0.22811">
        <ele>177.6</ele>
        <time>2018-06-02T08:27:49Z</time>
      </trkpt>
      <trkpt lat="43.59259" lon="0.22811">
        <ele>177.7</ele>
        <time>2018-06-02T08:27:52Z</time>
      </trkpt>
      <trkpt lat="43.59261" lon="0.22811">
        <ele>177.7</ele>
        <time>2018-06-02T08:27:54Z</time>
      </trkpt>
      <trkpt lat="43.59263" lon="0.22811">
        <ele>177.7</ele>
        <time>2018-06-02T08:27:55Z</time>
      </trkpt>
      <trkpt lat="43.59265" lon="0.22811">
        <ele>177.7</ele>
        <time>2018-06-02T08:27:57Z</time>
      </trkpt>
      <trkpt lat="43.59268" lon="0.22812">
        <ele>177.7</ele>
        <time>2018-06-02T08:27:59Z</time>
      </trkpt>
      <trkpt lat="43.59271" lon="0.22812">
        <ele>177.7</ele>
        <time>2018-06-02T08:28:02Z</time>
      </trkpt>
      <trkpt lat="43.59274" lon="0.22813">
        <ele>177.7</ele>
        <time>2018-06-02T08:28:04Z</time>
      </trkpt>
      <trkpt lat="43.59277" lon="0.22813">
        <ele>177.8</ele>
        <time>2018-06-02T08:28:07Z</time>
      </trkpt>
      <trkpt lat="43.59279" lon="0.22813">
        <ele>177.8</ele>
        <time>2018-06-02T08:28:09Z</time>
      </trkpt>
      <trkpt lat="43.59283" lon="0.22814">
        <ele>177.8</ele>
        <time>2018-06-02T08:28:12Z</time>
      </trkpt>
      <trkpt lat="43.59286" lon="0.22814">
        <ele>177.8</ele>
        <time>2018-06-02T08:28:15Z</time>
      </trkpt>
      <trkpt lat="43.59288" lon="0.22815">
        <ele>177.9</ele>
        <time>2018-06-02T08:28:17Z</time>
      </trkpt>
      <trkpt lat="43.59291" lon="0.22815">
        <ele>177.9</ele>
        <time>2018-06-02T08:28:20Z</time>
      </trkpt>
      <trkpt lat="43.59292" lon="0.22815">
        <ele>177.9</ele>
        <time>2018-06-02T08:28:22Z</time>
      </trkpt>
      <trkpt lat="43.5931" lon="0.22819">
        <ele>176.5</ele>
        <time>2018-06-02T08:28:27Z</time>
      </trkpt>
      <trkpt lat="43.5931" lon="0.22819">
        <ele>176.5</ele>
        <time>2018-06-02T08:35:44Z</time>
      </trkpt>
      <trkpt lat="43.59326" lon="0.22824">
        <ele>175.1</ele>
        <time>2018-06-02T08:35:45Z</time>
      </trkpt>
      <trkpt lat="43.59327" lon="0.22824">
        <ele>175.1</ele>
        <time>2018-06-02T08:35:46Z</time>
      </trkpt>
      <trkpt lat="43.5933" lon="0.22824">
        <ele>175.1</ele>
        <time>2018-06-02T08:35:50Z</time>
      </trkpt>
      <trkpt lat="43.59331" lon="0.22825">
        <ele>175.1</ele>
        <time>2018-06-02T08:35:52Z</time>
      </trkpt>
      <trkpt lat="43.59333" lon="0.22825">
        <ele>175.1</ele>
        <time>2018-06-02T08:35:55Z</time>
      </trkpt>
      <trkpt lat="43.59335" lon="0.22825">
        <ele>175.1</ele>
        <time>2018-06-02T08:35:57Z</time>
      </trkpt>
      <trkpt lat="43.59337" lon="0.22826">
        <ele>175</ele>
        <time>2018-06-02T08:36:00Z</time>
      </trkpt>
      <trkpt lat="43.59338" lon="0.22826">
        <ele>175</ele>
        <time>2018-06-02T08:36:02Z</time>
      </trkpt>
      <trkpt lat="43.5934" lon="0.22826">
        <ele>175</ele>
        <time>2018-06-02T08:36:05Z</time>
      </trkpt>
      <trkpt lat="43.59344" lon="0.22826">
        <ele>175</ele>
        <time>2018-06-02T08:36:08Z</time>
      </trkpt>
      <trkpt lat="43.59346" lon="0.22826">
        <ele>175</ele>
        <time>2018-06-02T08:36:10Z</time>
      </trkpt>
      <trkpt lat="43.59349" lon="0.22826">
        <ele>174.9</ele>
        <time>2018-06-02T08:36:13Z</time>
      </trkpt>
      <trkpt lat="43.59351" lon="0.22826">
        <ele>174.9</ele>
        <time>2018-06-02T08:36:15Z</time>
      </trkpt>
      <trkpt lat="43.59355" lon="0.22826">
        <ele>174.9</ele>
        <time>2018-06-02T08:36:18Z</time>
      </trkpt>
      <trkpt lat="43.59357" lon="0.22826">
        <ele>175</ele>
        <time>2018-06-02T08:36:20Z</time>
      </trkpt>
      <trkpt lat="43.59361" lon="0.22826">
        <ele>175.1</ele>
        <time>2018-06-02T08:36:23Z</time>
      </trkpt>
      <trkpt lat="43.59363" lon="0.22826">
        <ele>175.2</ele>
        <time>2018-06-02T08:36:25Z</time>
      </trkpt>
      <trkpt lat="43.59367" lon="0.22826">
        <ele>175.3</ele>
        <time>2018-06-02T08:36:28Z</time>
      </trkpt>
      <trkpt lat="43.59369" lon="0.22826">
        <ele>175.3</ele>
        <time>2018-06-02T08:36:30Z</time>
      </trkpt>
      <trkpt lat="43.5937" lon="0.22826">
        <ele>175.4</ele>
        <time>2018-06-02T08:36:31Z</time>
      </trkpt>
      <trkpt lat="43.59372" lon="0.22827">
        <ele>175.4</ele>
        <time>2018-06-02T08:36:33Z</time>
      </trkpt>
      <trkpt lat="43.59375" lon="0.22828">
        <ele>175.5</ele>
        <time>2018-06-02T08:36:36Z</time>
      </trkpt>
      <trkpt lat="43.59377" lon="0.22829">
        <ele>175.6</ele>
        <time>2018-06-02T08:36:38Z</time>
      </trkpt>
      <trkpt lat="43.59381" lon="0.2283">
        <ele>175.7</ele>
        <time>2018-06-02T08:36:41Z</time>
      </trkpt>
      <trkpt lat="43.59383" lon="0.22831">
        <ele>175.8</ele>
        <time>2018-06-02T08:36:43Z</time>
      </trkpt>
      <trkpt lat="43.59386" lon="0.22832">
        <ele>175.9</ele>
        <time>2018-06-02T08:36:46Z</time>
      </trkpt>
      <trkpt lat="43.59388" lon="0.22833">
        <ele>175.9</ele>
        <time>2018-06-02T08:36:48Z</time>
      </trkpt>
      <trkpt lat="43.59391" lon="0.22833">
        <ele>176</ele>
        <time>2018-06-02T08:36:51Z</time>
      </trkpt>
      <trkpt lat="43.59394" lon="0.22834">
        <ele>176.1</ele>
        <time>2018-06-02T08:36:54Z</time>
      </trkpt>
      <trkpt lat="43.59396" lon="0.22834">
        <ele>176.2</ele>
        <time>2018-06-02T08:36:56Z</time>
      </trkpt>
      <trkpt lat="43.59397" lon="0.22835">
        <ele>176.2</ele>
        <time>2018-06-02T08:36:57Z</time>
      </trkpt>
      <trkpt lat="43.594" lon="0.22835">
        <ele>176.3</ele>
        <time>2018-06-02T08:36:59Z</time>
      </trkpt>
      <trkpt lat="43.59402" lon="0.22835">
        <ele>176.4</ele>
        <time>2018-06-02T08:37:01Z</time>
      </trkpt>
      <trkpt lat="43.59407" lon="0.22835">
        <ele>176.5</ele>
        <time>2018-06-02T08:37:04Z</time>
      </trkpt>
      <trkpt lat="43.59409" lon="0.22836">
        <ele>176.5</ele>
        <time>2018-06-02T08:37:06Z</time>
      </trkpt>
      <trkpt lat="43.59413" lon="0.22836">
        <ele>176.6</ele>
        <time>2018-06-02T08:37:09Z</time>
      </trkpt>
      <trkpt lat="43.59416" lon="0.22836">
        <ele>176.7</ele>
        <time>2018-06-02T08:37:11Z</time>
      </trkpt>
      <trkpt lat="43.59419" lon="0.22837">
        <ele>176.8</ele>
        <time>2018-06-02T08:37:14Z</time>
      </trkpt>
      <trkpt lat="43.59422" lon="0.22838">
        <ele>176.9</ele>
        <time>2018-06-02T08:37:17Z</time>
      </trkpt>
      <trkpt lat="43.59424" lon="0.22838">
        <ele>177</ele>
        <time>2018-06-02T08:37:19Z</time>
      </trkpt>
      <trkpt lat="43.59427" lon="0.22839">
        <ele>177.1</ele>
        <time>2018-06-02T08:37:22Z</time>
      </trkpt>
      <trkpt lat="43.59429" lon="0.22839">
        <ele>177.1</ele>
        <time>2018-06-02T08:37:24Z</time>
      </trkpt>
      <trkpt lat="43.59432" lon="0.2284">
        <ele>177.2</ele>
        <time>2018-06-02T08:37:27Z</time>
      </trkpt>
      <trkpt lat="43.59434" lon="0.2284">
        <ele>177.3</ele>
        <time>2018-06-02T08:37:29Z</time>
      </trkpt>
      <trkpt lat="43.59437" lon="0.22841">
        <ele>177.4</ele>
        <time>2018-06-02T08:37:32Z</time>
      </trkpt>
      <trkpt lat="43.59439" lon="0.22841">
        <ele>177.5</ele>
        <time>2018-06-02T08:37:34Z</time>
      </trkpt>
      <trkpt lat="43.59441" lon="0.22842">
        <ele>177.5</ele>
        <time>2018-06-02T08:37:36Z</time>
      </trkpt>
      <trkpt lat="43.59442" lon="0.22841">
        <ele>177.6</ele>
        <time>2018-06-02T08:37:37Z</time>
      </trkpt>
      <trkpt lat="43.59443" lon="0.22841">
        <ele>177.7</ele>
        <time>2018-06-02T08:37:40Z</time>
      </trkpt>
      <trkpt lat="43.59444" lon="0.2284">
        <ele>177.7</ele>
        <time>2018-06-02T08:37:42Z</time>
      </trkpt>
      <trkpt lat="43.59446" lon="0.22839">
        <ele>177.8</ele>
        <time>2018-06-02T08:37:45Z</time>
      </trkpt>
      <trkpt lat="43.59447" lon="0.22839">
        <ele>177.9</ele>
        <time>2018-06-02T08:37:47Z</time>
      </trkpt>
      <trkpt lat="43.59448" lon="0.22838">
        <ele>178</ele>
        <time>2018-06-02T08:37:50Z</time>
      </trkpt>
      <trkpt lat="43.59449" lon="0.22837">
        <ele>178.1</ele>
        <time>2018-06-02T08:37:52Z</time>
      </trkpt>
      <trkpt lat="43.59449" lon="0.22837">
        <ele>178.1</ele>
        <time>2018-06-02T08:37:53Z</time>
      </trkpt>
      <trkpt lat="43.59449" lon="0.22835">
        <ele>178.2</ele>
        <time>2018-06-02T08:37:54Z</time>
      </trkpt>
      <trkpt lat="43.5945" lon="0.22834">
        <ele>178.2</ele>
        <time>2018-06-02T08:37:55Z</time>
      </trkpt>
      <trkpt lat="43.5945" lon="0.2283">
        <ele>178.4</ele>
        <time>2018-06-02T08:37:58Z</time>
      </trkpt>
      <trkpt lat="43.5945" lon="0.22827">
        <ele>178.5</ele>
        <time>2018-06-02T08:38:00Z</time>
      </trkpt>
      <trkpt lat="43.5945" lon="0.22823">
        <ele>178.7</ele>
        <time>2018-06-02T08:38:03Z</time>
      </trkpt>
      <trkpt lat="43.5945" lon="0.22821">
        <ele>178.9</ele>
        <time>2018-06-02T08:38:05Z</time>
      </trkpt>
      <trkpt lat="43.5945" lon="0.22817">
        <ele>179</ele>
        <time>2018-06-02T08:38:08Z</time>
      </trkpt>
      <trkpt lat="43.5945" lon="0.22814">
        <ele>179.2</ele>
        <time>2018-06-02T08:38:10Z</time>
      </trkpt>
      <trkpt lat="43.59451" lon="0.2281">
        <ele>179.4</ele>
        <time>2018-06-02T08:38:13Z</time>
      </trkpt>
      <trkpt lat="43.59451" lon="0.22807">
        <ele>179.5</ele>
        <time>2018-06-02T08:38:15Z</time>
      </trkpt>
      <trkpt lat="43.59451" lon="0.22803">
        <ele>179.7</ele>
        <time>2018-06-02T08:38:18Z</time>
      </trkpt>
      <trkpt lat="43.59451" lon="0.22801">
        <ele>179.8</ele>
        <time>2018-06-02T08:38:20Z</time>
      </trkpt>
      <trkpt lat="43.59451" lon="0.22797">
        <ele>180</ele>
        <time>2018-06-02T08:38:23Z</time>
      </trkpt>
      <trkpt lat="43.5945" lon="0.22792">
        <ele>180.2</ele>
        <time>2018-06-02T08:38:26Z</time>
      </trkpt>
      <trkpt lat="43.5945" lon="0.22789">
        <ele>180.3</ele>
        <time>2018-06-02T08:38:28Z</time>
      </trkpt>
      <trkpt lat="43.59449" lon="0.22784">
        <ele>180.5</ele>
        <time>2018-06-02T08:38:31Z</time>
      </trkpt>
      <trkpt lat="43.59449" lon="0.22781">
        <ele>180.6</ele>
        <time>2018-06-02T08:38:33Z</time>
      </trkpt>
      <trkpt lat="43.59448" lon="0.22778">
        <ele>180.8</ele>
        <time>2018-06-02T08:38:35Z</time>
      </trkpt>
      <trkpt lat="43.59449" lon="0.22777">
        <ele>180.8</ele>
        <time>2018-06-02T08:38:36Z</time>
      </trkpt>
      <trkpt lat="43.59449" lon="0.22775">
        <ele>181</ele>
        <time>2018-06-02T08:38:38Z</time>
      </trkpt>
      <trkpt lat="43.5945" lon="0.22771">
        <ele>181.1</ele>
        <time>2018-06-02T08:38:41Z</time>
      </trkpt>
      <trkpt lat="43.5945" lon="0.2277">
        <ele>181.2</ele>
        <time>2018-06-02T08:38:42Z</time>
      </trkpt>
      <trkpt lat="43.5945" lon="0.22769">
        <ele>181.3</ele>
        <time>2018-06-02T08:38:43Z</time>
      </trkpt>
      <trkpt lat="43.5945" lon="0.22765">
        <ele>181.6</ele>
        <time>2018-06-02T08:38:46Z</time>
      </trkpt>
      <trkpt lat="43.59451" lon="0.22762">
        <ele>181.8</ele>
        <time>2018-06-02T08:38:49Z</time>
      </trkpt>
      <trkpt lat="43.59451" lon="0.22759">
        <ele>182</ele>
        <time>2018-06-02T08:38:51Z</time>
      </trkpt>
      <trkpt lat="43.59452" lon="0.22754">
        <ele>182.2</ele>
        <time>2018-06-02T08:38:54Z</time>
      </trkpt>
      <trkpt lat="43.59452" lon="0.2275">
        <ele>182.4</ele>
        <time>2018-06-02T08:38:56Z</time>
      </trkpt>
      <trkpt lat="43.59453" lon="0.22745">
        <ele>182.7</ele>
        <time>2018-06-02T08:38:59Z</time>
      </trkpt>
      <trkpt lat="43.59453" lon="0.22742">
        <ele>182.8</ele>
        <time>2018-06-02T08:39:01Z</time>
      </trkpt>
      <trkpt lat="43.59453" lon="0.2274">
        <ele>182.9</ele>
        <time>2018-06-02T08:39:02Z</time>
      </trkpt>
      <trkpt lat="43.59454" lon="0.22737">
        <ele>183.1</ele>
        <time>2018-06-02T08:39:04Z</time>
      </trkpt>
      <trkpt lat="43.59454" lon="0.22733">
        <ele>183.2</ele>
        <time>2018-06-02T08:39:06Z</time>
      </trkpt>
      <trkpt lat="43.59454" lon="0.22728">
        <ele>183.5</ele>
        <time>2018-06-02T08:39:09Z</time>
      </trkpt>
      <trkpt lat="43.59455" lon="0.22723">
        <ele>183.7</ele>
        <time>2018-06-02T08:39:12Z</time>
      </trkpt>
      <trkpt lat="43.59455" lon="0.2272">
        <ele>183.9</ele>
        <time>2018-06-02T08:39:14Z</time>
      </trkpt>
      <trkpt lat="43.59455" lon="0.22716">
        <ele>184.2</ele>
        <time>2018-06-02T08:39:17Z</time>
      </trkpt>
      <trkpt lat="43.59455" lon="0.22714">
        <ele>184.3</ele>
        <time>2018-06-02T08:39:18Z</time>
      </trkpt>
      <trkpt lat="43.59456" lon="0.22713">
        <ele>184.3</ele>
        <time>2018-06-02T08:39:19Z</time>
      </trkpt>
      <trkpt lat="43.59456" lon="0.22708">
        <ele>184.6</ele>
        <time>2018-06-02T08:39:22Z</time>
      </trkpt>
      <trkpt lat="43.59456" lon="0.22705">
        <ele>184.8</ele>
        <time>2018-06-02T08:39:24Z</time>
      </trkpt>
      <trkpt lat="43.59457" lon="0.22701">
        <ele>185</ele>
        <time>2018-06-02T08:39:27Z</time>
      </trkpt>
      <trkpt lat="43.59457" lon="0.22698">
        <ele>185.2</ele>
        <time>2018-06-02T08:39:29Z</time>
      </trkpt>
      <trkpt lat="43.59457" lon="0.22694">
        <ele>185.5</ele>
        <time>2018-06-02T08:39:32Z</time>
      </trkpt>
      <trkpt lat="43.59457" lon="0.22689">
        <ele>185.8</ele>
        <time>2018-06-02T08:39:35Z</time>
      </trkpt>
      <trkpt lat="43.59457" lon="0.22687">
        <ele>185.9</ele>
        <time>2018-06-02T08:39:37Z</time>
      </trkpt>
      <trkpt lat="43.59457" lon="0.22682">
        <ele>186.2</ele>
        <time>2018-06-02T08:39:40Z</time>
      </trkpt>
      <trkpt lat="43.59457" lon="0.22681">
        <ele>186.3</ele>
        <time>2018-06-02T08:39:41Z</time>
      </trkpt>
      <trkpt lat="43.59458" lon="0.22679">
        <ele>186.4</ele>
        <time>2018-06-02T08:39:42Z</time>
      </trkpt>
      <trkpt lat="43.59458" lon="0.22673">
        <ele>186.6</ele>
        <time>2018-06-02T08:39:45Z</time>
      </trkpt>
      <trkpt lat="43.59458" lon="0.2267">
        <ele>186.8</ele>
        <time>2018-06-02T08:39:47Z</time>
      </trkpt>
      <trkpt lat="43.59458" lon="0.22664">
        <ele>187.1</ele>
        <time>2018-06-02T08:39:50Z</time>
      </trkpt>
      <trkpt lat="43.59458" lon="0.22662">
        <ele>187.2</ele>
        <time>2018-06-02T08:39:51Z</time>
      </trkpt>
      <trkpt lat="43.59458" lon="0.22661">
        <ele>187.3</ele>
        <time>2018-06-02T08:39:52Z</time>
      </trkpt>
      <trkpt lat="43.59458" lon="0.22657">
        <ele>187.4</ele>
        <time>2018-06-02T08:39:54Z</time>
      </trkpt>
      <trkpt lat="43.59458" lon="0.22656">
        <ele>187.5</ele>
        <time>2018-06-02T08:39:55Z</time>
      </trkpt>
      <trkpt lat="43.59458" lon="0.22651">
        <ele>187.8</ele>
        <time>2018-06-02T08:39:58Z</time>
      </trkpt>
      <trkpt lat="43.59458" lon="0.22648">
        <ele>188</ele>
        <time>2018-06-02T08:40:00Z</time>
      </trkpt>
      <trkpt lat="43.59458" lon="0.22643">
        <ele>188.4</ele>
        <time>2018-06-02T08:40:03Z</time>
      </trkpt>
      <trkpt lat="43.59457" lon="0.2264">
        <ele>188.6</ele>
        <time>2018-06-02T08:40:05Z</time>
      </trkpt>
      <trkpt lat="43.59457" lon="0.22636">
        <ele>188.9</ele>
        <time>2018-06-02T08:40:08Z</time>
      </trkpt>
      <trkpt lat="43.59456" lon="0.22633">
        <ele>189.1</ele>
        <time>2018-06-02T08:40:10Z</time>
      </trkpt>
      <trkpt lat="43.59456" lon="0.22629">
        <ele>189.4</ele>
        <time>2018-06-02T08:40:13Z</time>
      </trkpt>
      <trkpt lat="43.59455" lon="0.22626">
        <ele>189.6</ele>
        <time>2018-06-02T08:40:15Z</time>
      </trkpt>
      <trkpt lat="43.59455" lon="0.22624">
        <ele>189.7</ele>
        <time>2018-06-02T08:40:16Z</time>
      </trkpt>
      <trkpt lat="43.59455" lon="0.22622">
        <ele>189.9</ele>
        <time>2018-06-02T08:40:18Z</time>
      </trkpt>
      <trkpt lat="43.59456" lon="0.22617">
        <ele>190.2</ele>
        <time>2018-06-02T08:40:21Z</time>
      </trkpt>
      <trkpt lat="43.59456" lon="0.22614">
        <ele>190.4</ele>
        <time>2018-06-02T08:40:23Z</time>
      </trkpt>
      <trkpt lat="43.59457" lon="0.2261">
        <ele>190.7</ele>
        <time>2018-06-02T08:40:26Z</time>
      </trkpt>
      <trkpt lat="43.59457" lon="0.22607">
        <ele>190.9</ele>
        <time>2018-06-02T08:40:28Z</time>
      </trkpt>
      <trkpt lat="43.59457" lon="0.22605">
        <ele>191</ele>
        <time>2018-06-02T08:40:29Z</time>
      </trkpt>
      <trkpt lat="43.59457" lon="0.22604">
        <ele>191.1</ele>
        <time>2018-06-02T08:40:30Z</time>
      </trkpt>
      <trkpt lat="43.59457" lon="0.22602">
        <ele>191.2</ele>
        <time>2018-06-02T08:40:31Z</time>
      </trkpt>
      <trkpt lat="43.59457" lon="0.22598">
        <ele>191.4</ele>
        <time>2018-06-02T08:40:33Z</time>
      </trkpt>
      <trkpt lat="43.59457" lon="0.22593">
        <ele>191.7</ele>
        <time>2018-06-02T08:40:36Z</time>
      </trkpt>
      <trkpt lat="43.59456" lon="0.2259">
        <ele>192</ele>
        <time>2018-06-02T08:40:38Z</time>
      </trkpt>
      <trkpt lat="43.59456" lon="0.22586">
        <ele>192.2</ele>
        <time>2018-06-02T08:40:40Z</time>
      </trkpt>
      <trkpt lat="43.59456" lon="0.22585">
        <ele>192.3</ele>
        <time>2018-06-02T08:40:41Z</time>
      </trkpt>
      <trkpt lat="43.59457" lon="0.2258">
        <ele>192.6</ele>
        <time>2018-06-02T08:40:44Z</time>
      </trkpt>
      <trkpt lat="43.59457" lon="0.22577">
        <ele>192.8</ele>
        <time>2018-06-02T08:40:46Z</time>
      </trkpt>
      <trkpt lat="43.59457" lon="0.22572">
        <ele>193.1</ele>
        <time>2018-06-02T08:40:49Z</time>
      </trkpt>
      <trkpt lat="43.59457" lon="0.22569">
        <ele>193.3</ele>
        <time>2018-06-02T08:40:51Z</time>
      </trkpt>
      <trkpt lat="43.59457" lon="0.22568">
        <ele>193.4</ele>
        <time>2018-06-02T08:40:52Z</time>
      </trkpt>
      <trkpt lat="43.59457" lon="0.22565">
        <ele>193.6</ele>
        <time>2018-06-02T08:40:54Z</time>
      </trkpt>
      <trkpt lat="43.59457" lon="0.22562">
        <ele>193.8</ele>
        <time>2018-06-02T08:40:56Z</time>
      </trkpt>
      <trkpt lat="43.59457" lon="0.22558">
        <ele>194.1</ele>
        <time>2018-06-02T08:40:59Z</time>
      </trkpt>
      <trkpt lat="43.59457" lon="0.22556">
        <ele>194.2</ele>
        <time>2018-06-02T08:41:00Z</time>
      </trkpt>
      <trkpt lat="43.59457" lon="0.22554">
        <ele>194.4</ele>
        <time>2018-06-02T08:41:02Z</time>
      </trkpt>
      <trkpt lat="43.59457" lon="0.22551">
        <ele>194.6</ele>
        <time>2018-06-02T08:41:04Z</time>
      </trkpt>
      <trkpt lat="43.59457" lon="0.22548">
        <ele>194.8</ele>
        <time>2018-06-02T08:41:06Z</time>
      </trkpt>
      <trkpt lat="43.59457" lon="0.22547">
        <ele>194.9</ele>
        <time>2018-06-02T08:41:07Z</time>
      </trkpt>
      <trkpt lat="43.59458" lon="0.22544">
        <ele>195.1</ele>
        <time>2018-06-02T08:41:09Z</time>
      </trkpt>
      <trkpt lat="43.59458" lon="0.2254">
        <ele>195.4</ele>
        <time>2018-06-02T08:41:12Z</time>
      </trkpt>
      <trkpt lat="43.59458" lon="0.22537">
        <ele>195.6</ele>
        <time>2018-06-02T08:41:14Z</time>
      </trkpt>
      <trkpt lat="43.59458" lon="0.22533">
        <ele>195.9</ele>
        <time>2018-06-02T08:41:17Z</time>
      </trkpt>
      <trkpt lat="43.59459" lon="0.22531">
        <ele>196.1</ele>
        <time>2018-06-02T08:41:19Z</time>
      </trkpt>
      <trkpt lat="43.59459" lon="0.22529">
        <ele>196.2</ele>
        <time>2018-06-02T08:41:20Z</time>
      </trkpt>
      <trkpt lat="43.59459" lon="0.22526">
        <ele>196.4</ele>
        <time>2018-06-02T08:41:22Z</time>
      </trkpt>
      <trkpt lat="43.59459" lon="0.22522">
        <ele>196.7</ele>
        <time>2018-06-02T08:41:25Z</time>
      </trkpt>
      <trkpt lat="43.59459" lon="0.22519">
        <ele>196.9</ele>
        <time>2018-06-02T08:41:27Z</time>
      </trkpt>
      <trkpt lat="43.59459" lon="0.22514">
        <ele>197.2</ele>
        <time>2018-06-02T08:41:30Z</time>
      </trkpt>
      <trkpt lat="43.59459" lon="0.22512">
        <ele>197.4</ele>
        <time>2018-06-02T08:41:32Z</time>
      </trkpt>
      <trkpt lat="43.59459" lon="0.2251">
        <ele>197.5</ele>
        <time>2018-06-02T08:41:33Z</time>
      </trkpt>
      <trkpt lat="43.59459" lon="0.22507">
        <ele>197.7</ele>
        <time>2018-06-02T08:41:35Z</time>
      </trkpt>
      <trkpt lat="43.59459" lon="0.22505">
        <ele>197.8</ele>
        <time>2018-06-02T08:41:36Z</time>
      </trkpt>
      <trkpt lat="43.59459" lon="0.22503">
        <ele>197.9</ele>
        <time>2018-06-02T08:41:37Z</time>
      </trkpt>
      <trkpt lat="43.5946" lon="0.22499">
        <ele>198.2</ele>
        <time>2018-06-02T08:41:40Z</time>
      </trkpt>
      <trkpt lat="43.5946" lon="0.22495">
        <ele>198.4</ele>
        <time>2018-06-02T08:41:42Z</time>
      </trkpt>
      <trkpt lat="43.59461" lon="0.22491">
        <ele>198.6</ele>
        <time>2018-06-02T08:41:45Z</time>
      </trkpt>
      <trkpt lat="43.59461" lon="0.22487">
        <ele>198.9</ele>
        <time>2018-06-02T08:41:48Z</time>
      </trkpt>
      <trkpt lat="43.59461" lon="0.22485">
        <ele>199.1</ele>
        <time>2018-06-02T08:41:50Z</time>
      </trkpt>
      <trkpt lat="43.59461" lon="0.22482">
        <ele>199.4</ele>
        <time>2018-06-02T08:41:53Z</time>
      </trkpt>
      <trkpt lat="43.59462" lon="0.2248">
        <ele>199.6</ele>
        <time>2018-06-02T08:41:55Z</time>
      </trkpt>
      <trkpt lat="43.59462" lon="0.22477">
        <ele>199.9</ele>
        <time>2018-06-02T08:41:58Z</time>
      </trkpt>
      <trkpt lat="43.59462" lon="0.22475">
        <ele>200</ele>
        <time>2018-06-02T08:42:00Z</time>
      </trkpt>
      <trkpt lat="43.59462" lon="0.22472">
        <ele>200.3</ele>
        <time>2018-06-02T08:42:03Z</time>
      </trkpt>
      <trkpt lat="43.59463" lon="0.22471">
        <ele>200.4</ele>
        <time>2018-06-02T08:42:04Z</time>
      </trkpt>
      <trkpt lat="43.59462" lon="0.22469">
        <ele>200.5</ele>
        <time>2018-06-02T08:42:05Z</time>
      </trkpt>
      <trkpt lat="43.59462" lon="0.22464">
        <ele>200.8</ele>
        <time>2018-06-02T08:42:08Z</time>
      </trkpt>
      <trkpt lat="43.59462" lon="0.22459">
        <ele>201.1</ele>
        <time>2018-06-02T08:42:11Z</time>
      </trkpt>
      <trkpt lat="43.59462" lon="0.22458">
        <ele>201.1</ele>
        <time>2018-06-02T08:42:12Z</time>
      </trkpt>
      <trkpt lat="43.59462" lon="0.22456">
        <ele>201.2</ele>
        <time>2018-06-02T08:42:13Z</time>
      </trkpt>
      <trkpt lat="43.59461" lon="0.22451">
        <ele>201.2</ele>
        <time>2018-06-02T08:42:16Z</time>
      </trkpt>
      <trkpt lat="43.59465" lon="0.22422">
        <ele>202.9</ele>
        <time>2018-06-02T08:42:21Z</time>
      </trkpt>
      <trkpt lat="43.59465" lon="0.22422">
        <ele>202.9</ele>
        <time>2018-06-02T08:44:41Z</time>
      </trkpt>
      <trkpt lat="43.59468" lon="0.22394">
        <ele>204.5</ele>
        <time>2018-06-02T08:44:43Z</time>
      </trkpt>
      <trkpt lat="43.59468" lon="0.22393">
        <ele>204.5</ele>
        <time>2018-06-02T08:44:44Z</time>
      </trkpt>
      <trkpt lat="43.59468" lon="0.22389">
        <ele>204.6</ele>
        <time>2018-06-02T08:44:46Z</time>
      </trkpt>
      <trkpt lat="43.59468" lon="0.22383">
        <ele>204.7</ele>
        <time>2018-06-02T08:44:49Z</time>
      </trkpt>
      <trkpt lat="43.59468" lon="0.22377">
        <ele>204.8</ele>
        <time>2018-06-02T08:44:52Z</time>
      </trkpt>
      <trkpt lat="43.59468" lon="0.22375">
        <ele>204.8</ele>
        <time>2018-06-02T08:44:53Z</time>
      </trkpt>
      <trkpt lat="43.59469" lon="0.22374">
        <ele>204.8</ele>
        <time>2018-06-02T08:44:54Z</time>
      </trkpt>
      <trkpt lat="43.5947" lon="0.22369">
        <ele>204.9</ele>
        <time>2018-06-02T08:44:57Z</time>
      </trkpt>
      <trkpt lat="43.5947" lon="0.22366">
        <ele>205</ele>
        <time>2018-06-02T08:44:59Z</time>
      </trkpt>
      <trkpt lat="43.59471" lon="0.22362">
        <ele>205</ele>
        <time>2018-06-02T08:45:02Z</time>
      </trkpt>
      <trkpt lat="43.59472" lon="0.22359">
        <ele>205.1</ele>
        <time>2018-06-02T08:45:04Z</time>
      </trkpt>
      <trkpt lat="43.59472" lon="0.22356">
        <ele>205.2</ele>
        <time>2018-06-02T08:45:06Z</time>
      </trkpt>
      <trkpt lat="43.59472" lon="0.22354">
        <ele>205.2</ele>
        <time>2018-06-02T08:45:07Z</time>
      </trkpt>
      <trkpt lat="43.59473" lon="0.22351">
        <ele>205.2</ele>
        <time>2018-06-02T08:45:09Z</time>
      </trkpt>
      <trkpt lat="43.59474" lon="0.22347">
        <ele>205.3</ele>
        <time>2018-06-02T08:45:12Z</time>
      </trkpt>
      <trkpt lat="43.59475" lon="0.22342">
        <ele>205.4</ele>
        <time>2018-06-02T08:45:15Z</time>
      </trkpt>
      <trkpt lat="43.59476" lon="0.22339">
        <ele>205.5</ele>
        <time>2018-06-02T08:45:17Z</time>
      </trkpt>
      <trkpt lat="43.59476" lon="0.22338">
        <ele>205.5</ele>
        <time>2018-06-02T08:45:18Z</time>
      </trkpt>
      <trkpt lat="43.59476" lon="0.22334">
        <ele>205.5</ele>
        <time>2018-06-02T08:45:20Z</time>
      </trkpt>
      <trkpt lat="43.59477" lon="0.22331">
        <ele>205.6</ele>
        <time>2018-06-02T08:45:22Z</time>
      </trkpt>
      <trkpt lat="43.59477" lon="0.22326">
        <ele>205.7</ele>
        <time>2018-06-02T08:45:25Z</time>
      </trkpt>
      <trkpt lat="43.59477" lon="0.22323">
        <ele>205.7</ele>
        <time>2018-06-02T08:45:27Z</time>
      </trkpt>
      <trkpt lat="43.59477" lon="0.22319">
        <ele>205.8</ele>
        <time>2018-06-02T08:45:29Z</time>
      </trkpt>
      <trkpt lat="43.59478" lon="0.22318">
        <ele>205.8</ele>
        <time>2018-06-02T08:45:30Z</time>
      </trkpt>
      <trkpt lat="43.59478" lon="0.22315">
        <ele>205.9</ele>
        <time>2018-06-02T08:45:32Z</time>
      </trkpt>
      <trkpt lat="43.59479" lon="0.2231">
        <ele>206</ele>
        <time>2018-06-02T08:45:35Z</time>
      </trkpt>
      <trkpt lat="43.59479" lon="0.22306">
        <ele>206</ele>
        <time>2018-06-02T08:45:38Z</time>
      </trkpt>
      <trkpt lat="43.5948" lon="0.22303">
        <ele>206.1</ele>
        <time>2018-06-02T08:45:40Z</time>
      </trkpt>
      <trkpt lat="43.5948" lon="0.223">
        <ele>206.1</ele>
        <time>2018-06-02T08:45:42Z</time>
      </trkpt>
      <trkpt lat="43.5948" lon="0.22298">
        <ele>206.2</ele>
        <time>2018-06-02T08:45:43Z</time>
      </trkpt>
      <trkpt lat="43.59481" lon="0.22295">
        <ele>206.2</ele>
        <time>2018-06-02T08:45:45Z</time>
      </trkpt>
      <trkpt lat="43.59481" lon="0.2229">
        <ele>206.3</ele>
        <time>2018-06-02T08:45:48Z</time>
      </trkpt>
      <trkpt lat="43.59482" lon="0.22287">
        <ele>206.4</ele>
        <time>2018-06-02T08:45:50Z</time>
      </trkpt>
      <trkpt lat="43.59482" lon="0.22282">
        <ele>206.5</ele>
        <time>2018-06-02T08:45:53Z</time>
      </trkpt>
      <trkpt lat="43.59482" lon="0.2228">
        <ele>206.5</ele>
        <time>2018-06-02T08:45:54Z</time>
      </trkpt>
      <trkpt lat="43.59483" lon="0.22279">
        <ele>206.5</ele>
        <time>2018-06-02T08:45:55Z</time>
      </trkpt>
      <trkpt lat="43.59483" lon="0.22274">
        <ele>206.6</ele>
        <time>2018-06-02T08:45:58Z</time>
      </trkpt>
      <trkpt lat="43.59484" lon="0.2227">
        <ele>206.7</ele>
        <time>2018-06-02T08:46:01Z</time>
      </trkpt>
      <trkpt lat="43.59484" lon="0.22267">
        <ele>206.7</ele>
        <time>2018-06-02T08:46:03Z</time>
      </trkpt>
      <trkpt lat="43.59485" lon="0.22262">
        <ele>206.8</ele>
        <time>2018-06-02T08:46:06Z</time>
      </trkpt>
      <trkpt lat="43.59485" lon="0.2226">
        <ele>206.8</ele>
        <time>2018-06-02T08:46:07Z</time>
      </trkpt>
      <trkpt lat="43.59485" lon="0.22259">
        <ele>206.9</ele>
        <time>2018-06-02T08:46:08Z</time>
      </trkpt>
      <trkpt lat="43.59485" lon="0.22254">
        <ele>207</ele>
        <time>2018-06-02T08:46:11Z</time>
      </trkpt>
      <trkpt lat="43.59486" lon="0.22251">
        <ele>207</ele>
        <time>2018-06-02T08:46:13Z</time>
      </trkpt>
      <trkpt lat="43.59486" lon="0.22246">
        <ele>207.1</ele>
        <time>2018-06-02T08:46:16Z</time>
      </trkpt>
      <trkpt lat="43.59486" lon="0.22243">
        <ele>207.1</ele>
        <time>2018-06-02T08:46:18Z</time>
      </trkpt>
      <trkpt lat="43.59486" lon="0.22241">
        <ele>207.2</ele>
        <time>2018-06-02T08:46:19Z</time>
      </trkpt>
      <trkpt lat="43.59487" lon="0.22238">
        <ele>207.2</ele>
        <time>2018-06-02T08:46:21Z</time>
      </trkpt>
      <trkpt lat="43.59487" lon="0.22233">
        <ele>207.3</ele>
        <time>2018-06-02T08:46:24Z</time>
      </trkpt>
      <trkpt lat="43.59487" lon="0.2223">
        <ele>207.4</ele>
        <time>2018-06-02T08:46:26Z</time>
      </trkpt>
      <trkpt lat="43.59487" lon="0.22226">
        <ele>207.5</ele>
        <time>2018-06-02T08:46:29Z</time>
      </trkpt>
      <trkpt lat="43.59487" lon="0.22223">
        <ele>207.5</ele>
        <time>2018-06-02T08:46:31Z</time>
      </trkpt>
      <trkpt lat="43.59487" lon="0.22221">
        <ele>207.5</ele>
        <time>2018-06-02T08:46:32Z</time>
      </trkpt>
      <trkpt lat="43.59488" lon="0.22218">
        <ele>207.6</ele>
        <time>2018-06-02T08:46:34Z</time>
      </trkpt>
      <trkpt lat="43.59489" lon="0.22215">
        <ele>207.7</ele>
        <time>2018-06-02T08:46:36Z</time>
      </trkpt>
      <trkpt lat="43.5949" lon="0.22211">
        <ele>207.9</ele>
        <time>2018-06-02T08:46:39Z</time>
      </trkpt>
      <trkpt lat="43.59491" lon="0.22206">
        <ele>208</ele>
        <time>2018-06-02T08:46:42Z</time>
      </trkpt>
      <trkpt lat="43.59491" lon="0.22205">
        <ele>208</ele>
        <time>2018-06-02T08:46:43Z</time>
      </trkpt>
      <trkpt lat="43.59491" lon="0.22203">
        <ele>208.1</ele>
        <time>2018-06-02T08:46:44Z</time>
      </trkpt>
      <trkpt lat="43.59491" lon="0.22198">
        <ele>208.2</ele>
        <time>2018-06-02T08:46:47Z</time>
      </trkpt>
      <trkpt lat="43.59491" lon="0.22195">
        <ele>208.3</ele>
        <time>2018-06-02T08:46:49Z</time>
      </trkpt>
      <trkpt lat="43.59491" lon="0.22191">
        <ele>208.4</ele>
        <time>2018-06-02T08:46:52Z</time>
      </trkpt>
      <trkpt lat="43.59491" lon="0.22188">
        <ele>208.5</ele>
        <time>2018-06-02T08:46:54Z</time>
      </trkpt>
      <trkpt lat="43.59492" lon="0.22186">
        <ele>208.6</ele>
        <time>2018-06-02T08:46:55Z</time>
      </trkpt>
      <trkpt lat="43.59492" lon="0.22184">
        <ele>208.7</ele>
        <time>2018-06-02T08:46:57Z</time>
      </trkpt>
      <trkpt lat="43.59493" lon="0.22181">
        <ele>208.8</ele>
        <time>2018-06-02T08:46:59Z</time>
      </trkpt>
      <trkpt lat="43.59494" lon="0.22177">
        <ele>208.9</ele>
        <time>2018-06-02T08:47:02Z</time>
      </trkpt>
      <trkpt lat="43.59495" lon="0.22174">
        <ele>209</ele>
        <time>2018-06-02T08:47:05Z</time>
      </trkpt>
      <trkpt lat="43.59495" lon="0.22171">
        <ele>209.1</ele>
        <time>2018-06-02T08:47:07Z</time>
      </trkpt>
      <trkpt lat="43.59496" lon="0.22167">
        <ele>209.2</ele>
        <time>2018-06-02T08:47:10Z</time>
      </trkpt>
      <trkpt lat="43.59497" lon="0.22164">
        <ele>209.3</ele>
        <time>2018-06-02T08:47:12Z</time>
      </trkpt>
      <trkpt lat="43.59498" lon="0.22158">
        <ele>209.5</ele>
        <time>2018-06-02T08:47:15Z</time>
      </trkpt>
      <trkpt lat="43.59498" lon="0.22155">
        <ele>209.6</ele>
        <time>2018-06-02T08:47:17Z</time>
      </trkpt>
      <trkpt lat="43.59499" lon="0.22149">
        <ele>209.7</ele>
        <time>2018-06-02T08:47:20Z</time>
      </trkpt>
      <trkpt lat="43.59499" lon="0.22148">
        <ele>209.7</ele>
        <time>2018-06-02T08:47:21Z</time>
      </trkpt>
      <trkpt lat="43.59499" lon="0.22146">
        <ele>209.8</ele>
        <time>2018-06-02T08:47:22Z</time>
      </trkpt>
      <trkpt lat="43.595" lon="0.22141">
        <ele>209.9</ele>
        <time>2018-06-02T08:47:25Z</time>
      </trkpt>
      <trkpt lat="43.595" lon="0.22136">
        <ele>210.1</ele>
        <time>2018-06-02T08:47:28Z</time>
      </trkpt>
      <trkpt lat="43.59501" lon="0.22133">
        <ele>210.1</ele>
        <time>2018-06-02T08:47:30Z</time>
      </trkpt>
      <trkpt lat="43.59501" lon="0.22129">
        <ele>210.2</ele>
        <time>2018-06-02T08:47:32Z</time>
      </trkpt>
      <trkpt lat="43.59502" lon="0.22128">
        <ele>210.3</ele>
        <time>2018-06-02T08:47:33Z</time>
      </trkpt>
      <trkpt lat="43.59502" lon="0.22126">
        <ele>210.4</ele>
        <time>2018-06-02T08:47:35Z</time>
      </trkpt>
      <trkpt lat="43.59503" lon="0.22122">
        <ele>210.5</ele>
        <time>2018-06-02T08:47:38Z</time>
      </trkpt>
      <trkpt lat="43.59504" lon="0.22119">
        <ele>210.6</ele>
        <time>2018-06-02T08:47:40Z</time>
      </trkpt>
      <trkpt lat="43.59505" lon="0.22115">
        <ele>210.7</ele>
        <time>2018-06-02T08:47:43Z</time>
      </trkpt>
      <trkpt lat="43.59506" lon="0.22114">
        <ele>210.8</ele>
        <time>2018-06-02T08:47:44Z</time>
      </trkpt>
      <trkpt lat="43.59506" lon="0.22113">
        <ele>210.8</ele>
        <time>2018-06-02T08:47:45Z</time>
      </trkpt>
      <trkpt lat="43.59507" lon="0.22112">
        <ele>210.9</ele>
        <time>2018-06-02T08:47:46Z</time>
      </trkpt>
      <trkpt lat="43.59507" lon="0.22109">
        <ele>211</ele>
        <time>2018-06-02T08:47:48Z</time>
      </trkpt>
      <trkpt lat="43.59508" lon="0.22105">
        <ele>211.1</ele>
        <time>2018-06-02T08:47:51Z</time>
      </trkpt>
      <trkpt lat="43.59508" lon="0.22103">
        <ele>211.2</ele>
        <time>2018-06-02T08:47:53Z</time>
      </trkpt>
      <trkpt lat="43.59509" lon="0.22099">
        <ele>211.3</ele>
        <time>2018-06-02T08:47:56Z</time>
      </trkpt>
      <trkpt lat="43.59509" lon="0.22096">
        <ele>211.4</ele>
        <time>2018-06-02T08:47:58Z</time>
      </trkpt>
      <trkpt lat="43.5951" lon="0.22092">
        <ele>211.5</ele>
        <time>2018-06-02T08:48:01Z</time>
      </trkpt>
      <trkpt lat="43.59511" lon="0.22089">
        <ele>211.6</ele>
        <time>2018-06-02T08:48:03Z</time>
      </trkpt>
      <trkpt lat="43.59512" lon="0.22085">
        <ele>211.7</ele>
        <time>2018-06-02T08:48:06Z</time>
      </trkpt>
      <trkpt lat="43.59513" lon="0.22082">
        <ele>211.8</ele>
        <time>2018-06-02T08:48:08Z</time>
      </trkpt>
      <trkpt lat="43.59514" lon="0.22077">
        <ele>212</ele>
        <time>2018-06-02T08:48:11Z</time>
      </trkpt>
      <trkpt lat="43.59515" lon="0.22075">
        <ele>212.1</ele>
        <time>2018-06-02T08:48:13Z</time>
      </trkpt>
      <trkpt lat="43.59515" lon="0.22073">
        <ele>212.1</ele>
        <time>2018-06-02T08:48:14Z</time>
      </trkpt>
      <trkpt lat="43.59516" lon="0.2207">
        <ele>212.2</ele>
        <time>2018-06-02T08:48:16Z</time>
      </trkpt>
      <trkpt lat="43.59517" lon="0.22066">
        <ele>212.3</ele>
        <time>2018-06-02T08:48:19Z</time>
      </trkpt>
      <trkpt lat="43.59518" lon="0.22063">
        <ele>212.4</ele>
        <time>2018-06-02T08:48:21Z</time>
      </trkpt>
      <trkpt lat="43.59519" lon="0.22059">
        <ele>212.5</ele>
        <time>2018-06-02T08:48:24Z</time>
      </trkpt>
      <trkpt lat="43.5952" lon="0.22056">
        <ele>212.6</ele>
        <time>2018-06-02T08:48:26Z</time>
      </trkpt>
      <trkpt lat="43.59521" lon="0.22052">
        <ele>212.8</ele>
        <time>2018-06-02T08:48:29Z</time>
      </trkpt>
      <trkpt lat="43.59522" lon="0.22049">
        <ele>212.8</ele>
        <time>2018-06-02T08:48:31Z</time>
      </trkpt>
      <trkpt lat="43.59523" lon="0.22044">
        <ele>213</ele>
        <time>2018-06-02T08:48:34Z</time>
      </trkpt>
      <trkpt lat="43.59524" lon="0.2204">
        <ele>213.1</ele>
        <time>2018-06-02T08:48:37Z</time>
      </trkpt>
      <trkpt lat="43.59525" lon="0.22038">
        <ele>213.1</ele>
        <time>2018-06-02T08:48:38Z</time>
      </trkpt>
      <trkpt lat="43.59525" lon="0.22037">
        <ele>213.2</ele>
        <time>2018-06-02T08:48:39Z</time>
      </trkpt>
      <trkpt lat="43.59526" lon="0.22033">
        <ele>213.3</ele>
        <time>2018-06-02T08:48:42Z</time>
      </trkpt>
      <trkpt lat="43.59526" lon="0.2203">
        <ele>213.4</ele>
        <time>2018-06-02T08:48:44Z</time>
      </trkpt>
      <trkpt lat="43.59527" lon="0.22025">
        <ele>213.5</ele>
        <time>2018-06-02T08:48:47Z</time>
      </trkpt>
      <trkpt lat="43.59527" lon="0.22022">
        <ele>213.6</ele>
        <time>2018-06-02T08:48:49Z</time>
      </trkpt>
      <trkpt lat="43.59527" lon="0.2202">
        <ele>213.7</ele>
        <time>2018-06-02T08:48:51Z</time>
      </trkpt>
      <trkpt lat="43.59528" lon="0.22018">
        <ele>213.8</ele>
        <time>2018-06-02T08:48:52Z</time>
      </trkpt>
      <trkpt lat="43.59528" lon="0.22015">
        <ele>213.8</ele>
        <time>2018-06-02T08:48:54Z</time>
      </trkpt>
      <trkpt lat="43.59529" lon="0.22012">
        <ele>213.9</ele>
        <time>2018-06-02T08:48:56Z</time>
      </trkpt>
      <trkpt lat="43.59529" lon="0.22011">
        <ele>214</ele>
        <time>2018-06-02T08:48:57Z</time>
      </trkpt>
      <trkpt lat="43.59529" lon="0.22007">
        <ele>214.1</ele>
        <time>2018-06-02T08:49:00Z</time>
      </trkpt>
      <trkpt lat="43.5953" lon="0.22004">
        <ele>214.2</ele>
        <time>2018-06-02T08:49:02Z</time>
      </trkpt>
      <trkpt lat="43.5953" lon="0.22001">
        <ele>214.3</ele>
        <time>2018-06-02T08:49:04Z</time>
      </trkpt>
      <trkpt lat="43.5953" lon="0.22">
        <ele>214.3</ele>
        <time>2018-06-02T08:49:05Z</time>
      </trkpt>
      <trkpt lat="43.59531" lon="0.21998">
        <ele>214.4</ele>
        <time>2018-06-02T08:49:07Z</time>
      </trkpt>
      <trkpt lat="43.59531" lon="0.21994">
        <ele>214.5</ele>
        <time>2018-06-02T08:49:10Z</time>
      </trkpt>
      <trkpt lat="43.59531" lon="0.21992">
        <ele>214.6</ele>
        <time>2018-06-02T08:49:12Z</time>
      </trkpt>
      <trkpt lat="43.59531" lon="0.21989">
        <ele>214.8</ele>
        <time>2018-06-02T08:49:15Z</time>
      </trkpt>
      <trkpt lat="43.59531" lon="0.21986">
        <ele>214.9</ele>
        <time>2018-06-02T08:49:17Z</time>
      </trkpt>
      <trkpt lat="43.59532" lon="0.21983">
        <ele>215</ele>
        <time>2018-06-02T08:49:20Z</time>
      </trkpt>
      <trkpt lat="43.59532" lon="0.21982">
        <ele>215</ele>
        <time>2018-06-02T08:49:21Z</time>
      </trkpt>
      <trkpt lat="43.59532" lon="0.21979">
        <ele>215.1</ele>
        <time>2018-06-02T08:49:23Z</time>
      </trkpt>
      <trkpt lat="43.59533" lon="0.21976">
        <ele>215.2</ele>
        <time>2018-06-02T08:49:25Z</time>
      </trkpt>
      <trkpt lat="43.59534" lon="0.21972">
        <ele>215.3</ele>
        <time>2018-06-02T08:49:28Z</time>
      </trkpt>
      <trkpt lat="43.59534" lon="0.21969">
        <ele>215.4</ele>
        <time>2018-06-02T08:49:30Z</time>
      </trkpt>
      <trkpt lat="43.59535" lon="0.21965">
        <ele>215.5</ele>
        <time>2018-06-02T08:49:33Z</time>
      </trkpt>
      <trkpt lat="43.59535" lon="0.21963">
        <ele>215.6</ele>
        <time>2018-06-02T08:49:34Z</time>
      </trkpt>
      <trkpt lat="43.59535" lon="0.21962">
        <ele>215.6</ele>
        <time>2018-06-02T08:49:35Z</time>
      </trkpt>
      <trkpt lat="43.59536" lon="0.21959">
        <ele>215.8</ele>
        <time>2018-06-02T08:49:38Z</time>
      </trkpt>
      <trkpt lat="43.59536" lon="0.21957">
        <ele>215.9</ele>
        <time>2018-06-02T08:49:40Z</time>
      </trkpt>
      <trkpt lat="43.59536" lon="0.21954">
        <ele>216</ele>
        <time>2018-06-02T08:49:43Z</time>
      </trkpt>
      <trkpt lat="43.59537" lon="0.2195">
        <ele>216.1</ele>
        <time>2018-06-02T08:49:46Z</time>
      </trkpt>
      <trkpt lat="43.59537" lon="0.21948">
        <ele>216.2</ele>
        <time>2018-06-02T08:49:48Z</time>
      </trkpt>
      <trkpt lat="43.59537" lon="0.21945">
        <ele>216.3</ele>
        <time>2018-06-02T08:49:51Z</time>
      </trkpt>
      <trkpt lat="43.59537" lon="0.21944">
        <ele>216.4</ele>
        <time>2018-06-02T08:49:53Z</time>
      </trkpt>
      <trkpt lat="43.59538" lon="0.21941">
        <ele>216.5</ele>
        <time>2018-06-02T08:49:56Z</time>
      </trkpt>
      <trkpt lat="43.59538" lon="0.2194">
        <ele>216.6</ele>
        <time>2018-06-02T08:49:58Z</time>
      </trkpt>
      <trkpt lat="43.59539" lon="0.21937">
        <ele>216.8</ele>
        <time>2018-06-02T08:50:01Z</time>
      </trkpt>
      <trkpt lat="43.59539" lon="0.21936">
        <ele>216.9</ele>
        <time>2018-06-02T08:50:03Z</time>
      </trkpt>
      <trkpt lat="43.59539" lon="0.21933">
        <ele>217</ele>
        <time>2018-06-02T08:50:06Z</time>
      </trkpt>
      <trkpt lat="43.59539" lon="0.21932">
        <ele>217</ele>
        <time>2018-06-02T08:50:08Z</time>
      </trkpt>
      <trkpt lat="43.59547" lon="0.2192">
        <ele>215.9</ele>
        <time>2018-06-02T08:50:11Z</time>
      </trkpt>
      <trkpt lat="43.59547" lon="0.2192">
        <ele>215.9</ele>
        <time>2018-06-02T08:50:56Z</time>
      </trkpt>
      <trkpt lat="43.59555" lon="0.21909">
        <ele>214.8</ele>
        <time>2018-06-02T08:50:57Z</time>
      </trkpt>
      <trkpt lat="43.59557" lon="0.21908">
        <ele>214.7</ele>
        <time>2018-06-02T08:51:00Z</time>
      </trkpt>
      <trkpt lat="43.59558" lon="0.21907">
        <ele>214.6</ele>
        <time>2018-06-02T08:51:02Z</time>
      </trkpt>
      <trkpt lat="43.5956" lon="0.21906">
        <ele>214.5</ele>
        <time>2018-06-02T08:51:05Z</time>
      </trkpt>
      <trkpt lat="43.59562" lon="0.21905">
        <ele>214.4</ele>
        <time>2018-06-02T08:51:07Z</time>
      </trkpt>
      <trkpt lat="43.59564" lon="0.21908">
        <ele>214.2</ele>
        <time>2018-06-02T08:51:10Z</time>
      </trkpt>
      <trkpt lat="43.59565" lon="0.2191">
        <ele>214.2</ele>
        <time>2018-06-02T08:51:12Z</time>
      </trkpt>
      <trkpt lat="43.59567" lon="0.21912">
        <ele>214</ele>
        <time>2018-06-02T08:51:15Z</time>
      </trkpt>
      <trkpt lat="43.59569" lon="0.21915">
        <ele>213.9</ele>
        <time>2018-06-02T08:51:18Z</time>
      </trkpt>
      <trkpt lat="43.5957" lon="0.21917">
        <ele>213.8</ele>
        <time>2018-06-02T08:51:20Z</time>
      </trkpt>
      <trkpt lat="43.59571" lon="0.21918">
        <ele>213.7</ele>
        <time>2018-06-02T08:51:21Z</time>
      </trkpt>
      <trkpt lat="43.59572" lon="0.21919">
        <ele>213.7</ele>
        <time>2018-06-02T08:51:22Z</time>
      </trkpt>
      <trkpt lat="43.59572" lon="0.21919">
        <ele>213.6</ele>
        <time>2018-06-02T08:51:23Z</time>
      </trkpt>
      <trkpt lat="43.59572" lon="0.21921">
        <ele>213.4</ele>
        <time>2018-06-02T08:51:25Z</time>
      </trkpt>
      <trkpt lat="43.59573" lon="0.21923">
        <ele>213.1</ele>
        <time>2018-06-02T08:51:28Z</time>
      </trkpt>
      <trkpt lat="43.59574" lon="0.21924">
        <ele>213</ele>
        <time>2018-06-02T08:51:30Z</time>
      </trkpt>
      <trkpt lat="43.59575" lon="0.21926">
        <ele>212.7</ele>
        <time>2018-06-02T08:51:33Z</time>
      </trkpt>
      <trkpt lat="43.59575" lon="0.21928">
        <ele>212.6</ele>
        <time>2018-06-02T08:51:35Z</time>
      </trkpt>
      <trkpt lat="43.59576" lon="0.2193">
        <ele>212.3</ele>
        <time>2018-06-02T08:51:38Z</time>
      </trkpt>
      <trkpt lat="43.59577" lon="0.21932">
        <ele>212</ele>
        <time>2018-06-02T08:51:41Z</time>
      </trkpt>
      <trkpt lat="43.59578" lon="0.21933">
        <ele>211.9</ele>
        <time>2018-06-02T08:51:43Z</time>
      </trkpt>
      <trkpt lat="43.59579" lon="0.21936">
        <ele>211.6</ele>
        <time>2018-06-02T08:51:46Z</time>
      </trkpt>
      <trkpt lat="43.5958" lon="0.21937">
        <ele>211.5</ele>
        <time>2018-06-02T08:51:48Z</time>
      </trkpt>
      <trkpt lat="43.59581" lon="0.2194">
        <ele>211.2</ele>
        <time>2018-06-02T08:51:51Z</time>
      </trkpt>
      <trkpt lat="43.59582" lon="0.21942">
        <ele>211</ele>
        <time>2018-06-02T08:51:53Z</time>
      </trkpt>
      <trkpt lat="43.59584" lon="0.21945">
        <ele>210.8</ele>
        <time>2018-06-02T08:51:56Z</time>
      </trkpt>
      <trkpt lat="43.59586" lon="0.21948">
        <ele>210.5</ele>
        <time>2018-06-02T08:51:59Z</time>
      </trkpt>
      <trkpt lat="43.59587" lon="0.21949">
        <ele>210.4</ele>
        <time>2018-06-02T08:52:01Z</time>
      </trkpt>
      <trkpt lat="43.59587" lon="0.2195">
        <ele>210.3</ele>
        <time>2018-06-02T08:52:02Z</time>
      </trkpt>
      <trkpt lat="43.59588" lon="0.21951">
        <ele>210.2</ele>
        <time>2018-06-02T08:52:03Z</time>
      </trkpt>
      <trkpt lat="43.59588" lon="0.21952">
        <ele>210.1</ele>
        <time>2018-06-02T08:52:04Z</time>
      </trkpt>
      <trkpt lat="43.59589" lon="0.21955">
        <ele>210</ele>
        <time>2018-06-02T08:52:06Z</time>
      </trkpt>
      <trkpt lat="43.59591" lon="0.21958">
        <ele>209.7</ele>
        <time>2018-06-02T08:52:09Z</time>
      </trkpt>
      <trkpt lat="43.59592" lon="0.2196">
        <ele>209.6</ele>
        <time>2018-06-02T08:52:11Z</time>
      </trkpt>
      <trkpt lat="43.59594" lon="0.21963">
        <ele>209.3</ele>
        <time>2018-06-02T08:52:14Z</time>
      </trkpt>
      <trkpt lat="43.59595" lon="0.21965">
        <ele>209.2</ele>
        <time>2018-06-02T08:52:16Z</time>
      </trkpt>
      <trkpt lat="43.59595" lon="0.21967">
        <ele>209.1</ele>
        <time>2018-06-02T08:52:17Z</time>
      </trkpt>
      <trkpt lat="43.59597" lon="0.21968">
        <ele>209</ele>
        <time>2018-06-02T08:52:19Z</time>
      </trkpt>
      <trkpt lat="43.59599" lon="0.21971">
        <ele>208.7</ele>
        <time>2018-06-02T08:52:22Z</time>
      </trkpt>
      <trkpt lat="43.596" lon="0.21973">
        <ele>208.6</ele>
        <time>2018-06-02T08:52:24Z</time>
      </trkpt>
      <trkpt lat="43.59602" lon="0.21976">
        <ele>208.3</ele>
        <time>2018-06-02T08:52:27Z</time>
      </trkpt>
      <trkpt lat="43.59604" lon="0.21978">
        <ele>208.2</ele>
        <time>2018-06-02T08:52:29Z</time>
      </trkpt>
      <trkpt lat="43.59606" lon="0.21981">
        <ele>208</ele>
        <time>2018-06-02T08:52:32Z</time>
      </trkpt>
      <trkpt lat="43.59607" lon="0.21983">
        <ele>207.8</ele>
        <time>2018-06-02T08:52:34Z</time>
      </trkpt>
      <trkpt lat="43.59608" lon="0.21987">
        <ele>207.6</ele>
        <time>2018-06-02T08:52:37Z</time>
      </trkpt>
      <trkpt lat="43.59609" lon="0.21989">
        <ele>207.4</ele>
        <time>2018-06-02T08:52:39Z</time>
      </trkpt>
      <trkpt lat="43.59611" lon="0.21992">
        <ele>207.2</ele>
        <time>2018-06-02T08:52:42Z</time>
      </trkpt>
      <trkpt lat="43.59612" lon="0.21995">
        <ele>207</ele>
        <time>2018-06-02T08:52:44Z</time>
      </trkpt>
      <trkpt lat="43.59612" lon="0.21996">
        <ele>207</ele>
        <time>2018-06-02T08:52:45Z</time>
      </trkpt>
      <trkpt lat="43.59613" lon="0.21998">
        <ele>206.9</ele>
        <time>2018-06-02T08:52:47Z</time>
      </trkpt>
      <trkpt lat="43.59615" lon="0.22">
        <ele>206.8</ele>
        <time>2018-06-02T08:52:50Z</time>
      </trkpt>
      <trkpt lat="43.59617" lon="0.22001">
        <ele>206.8</ele>
        <time>2018-06-02T08:52:52Z</time>
      </trkpt>
      <trkpt lat="43.59619" lon="0.22004">
        <ele>206.7</ele>
        <time>2018-06-02T08:52:55Z</time>
      </trkpt>
      <trkpt lat="43.59621" lon="0.22005">
        <ele>206.6</ele>
        <time>2018-06-02T08:52:57Z</time>
      </trkpt>
      <trkpt lat="43.59623" lon="0.22007">
        <ele>206.5</ele>
        <time>2018-06-02T08:53:00Z</time>
      </trkpt>
      <trkpt lat="43.59624" lon="0.22009">
        <ele>206.4</ele>
        <time>2018-06-02T08:53:02Z</time>
      </trkpt>
      <trkpt lat="43.59625" lon="0.2201">
        <ele>206.4</ele>
        <time>2018-06-02T08:53:03Z</time>
      </trkpt>
      <trkpt lat="43.59626" lon="0.22011">
        <ele>206.3</ele>
        <time>2018-06-02T08:53:05Z</time>
      </trkpt>
      <trkpt lat="43.59628" lon="0.22014">
        <ele>206.2</ele>
        <time>2018-06-02T08:53:08Z</time>
      </trkpt>
      <trkpt lat="43.59629" lon="0.22016">
        <ele>206.2</ele>
        <time>2018-06-02T08:53:10Z</time>
      </trkpt>
      <trkpt lat="43.59631" lon="0.22019">
        <ele>206.1</ele>
        <time>2018-06-02T08:53:13Z</time>
      </trkpt>
      <trkpt lat="43.59632" lon="0.22021">
        <ele>206</ele>
        <time>2018-06-02T08:53:15Z</time>
      </trkpt>
      <trkpt lat="43.59634" lon="0.22024">
        <ele>205.9</ele>
        <time>2018-06-02T08:53:18Z</time>
      </trkpt>
      <trkpt lat="43.59634" lon="0.22025">
        <ele>205.9</ele>
        <time>2018-06-02T08:53:19Z</time>
      </trkpt>
      <trkpt lat="43.59635" lon="0.22026">
        <ele>205.9</ele>
        <time>2018-06-02T08:53:20Z</time>
      </trkpt>
      <trkpt lat="43.59636" lon="0.22029">
        <ele>205.8</ele>
        <time>2018-06-02T08:53:23Z</time>
      </trkpt>
      <trkpt lat="43.59637" lon="0.22031">
        <ele>205.7</ele>
        <time>2018-06-02T08:53:25Z</time>
      </trkpt>
      <trkpt lat="43.59638" lon="0.22033">
        <ele>205.6</ele>
        <time>2018-06-02T08:53:28Z</time>
      </trkpt>
      <trkpt lat="43.59639" lon="0.22035">
        <ele>205.5</ele>
        <time>2018-06-02T08:53:30Z</time>
      </trkpt>
      <trkpt lat="43.5964" lon="0.22038">
        <ele>205.5</ele>
        <time>2018-06-02T08:53:33Z</time>
      </trkpt>
      <trkpt lat="43.59641" lon="0.22041">
        <ele>205.4</ele>
        <time>2018-06-02T08:53:36Z</time>
      </trkpt>
      <trkpt lat="43.59642" lon="0.22043">
        <ele>205.3</ele>
        <time>2018-06-02T08:53:38Z</time>
      </trkpt>
      <trkpt lat="43.59643" lon="0.22046">
        <ele>205.2</ele>
        <time>2018-06-02T08:53:41Z</time>
      </trkpt>
      <trkpt lat="43.59644" lon="0.22047">
        <ele>205.1</ele>
        <time>2018-06-02T08:53:43Z</time>
      </trkpt>
      <trkpt lat="43.59645" lon="0.2205">
        <ele>205</ele>
        <time>2018-06-02T08:53:46Z</time>
      </trkpt>
      <trkpt lat="43.59646" lon="0.22052">
        <ele>205</ele>
        <time>2018-06-02T08:53:48Z</time>
      </trkpt>
      <trkpt lat="43.59648" lon="0.22055">
        <ele>204.9</ele>
        <time>2018-06-02T08:53:51Z</time>
      </trkpt>
      <trkpt lat="43.59649" lon="0.22057">
        <ele>204.8</ele>
        <time>2018-06-02T08:53:54Z</time>
      </trkpt>
      <trkpt lat="43.5965" lon="0.22059">
        <ele>204.7</ele>
        <time>2018-06-02T08:53:56Z</time>
      </trkpt>
      <trkpt lat="43.59651" lon="0.22061">
        <ele>204.6</ele>
        <time>2018-06-02T08:53:59Z</time>
      </trkpt>
      <trkpt lat="43.59652" lon="0.22062">
        <ele>204.6</ele>
        <time>2018-06-02T08:54:01Z</time>
      </trkpt>
      <trkpt lat="43.59653" lon="0.22064">
        <ele>204.5</ele>
        <time>2018-06-02T08:54:04Z</time>
      </trkpt>
      <trkpt lat="43.59654" lon="0.22066">
        <ele>204.4</ele>
        <time>2018-06-02T08:54:06Z</time>
      </trkpt>
      <trkpt lat="43.59655" lon="0.22068">
        <ele>204.3</ele>
        <time>2018-06-02T08:54:09Z</time>
      </trkpt>
      <trkpt lat="43.59656" lon="0.22069">
        <ele>204.2</ele>
        <time>2018-06-02T08:54:11Z</time>
      </trkpt>
      <trkpt lat="43.59658" lon="0.22071">
        <ele>204.2</ele>
        <time>2018-06-02T08:54:14Z</time>
      </trkpt>
      <trkpt lat="43.59659" lon="0.22073">
        <ele>204.1</ele>
        <time>2018-06-02T08:54:16Z</time>
      </trkpt>
      <trkpt lat="43.59659" lon="0.22074">
        <ele>204.1</ele>
        <time>2018-06-02T08:54:17Z</time>
      </trkpt>
      <trkpt lat="43.5966" lon="0.22075">
        <ele>204</ele>
        <time>2018-06-02T08:54:19Z</time>
      </trkpt>
      <trkpt lat="43.59661" lon="0.22077">
        <ele>203.9</ele>
        <time>2018-06-02T08:54:21Z</time>
      </trkpt>
      <trkpt lat="43.59662" lon="0.22078">
        <ele>203.9</ele>
        <time>2018-06-02T08:54:22Z</time>
      </trkpt>
      <trkpt lat="43.59671" lon="0.2209">
        <ele>203.7</ele>
        <time>2018-06-02T08:54:25Z</time>
      </trkpt>
      <trkpt lat="43.59671" lon="0.2209">
        <ele>203.7</ele>
        <time>2018-06-02T08:55:00Z</time>
      </trkpt>
      <trkpt lat="43.59679" lon="0.22101">
        <ele>203.5</ele>
        <time>2018-06-02T08:55:00Z</time>
      </trkpt>
      <trkpt lat="43.5968" lon="0.22102">
        <ele>203.5</ele>
        <time>2018-06-02T08:55:02Z</time>
      </trkpt>
      <trkpt lat="43.59681" lon="0.22103">
        <ele>203.5</ele>
        <time>2018-06-02T08:55:03Z</time>
      </trkpt>
      <trkpt lat="43.59682" lon="0.22105">
        <ele>203.5</ele>
        <time>2018-06-02T08:55:05Z</time>
      </trkpt>
      <trkpt lat="43.59683" lon="0.22107">
        <ele>203.4</ele>
        <time>2018-06-02T08:55:08Z</time>
      </trkpt>
      <trkpt lat="43.59684" lon="0.22109">
        <ele>203.4</ele>
        <time>2018-06-02T08:55:10Z</time>
      </trkpt>
      <trkpt lat="43.59686" lon="0.22112">
        <ele>203.4</ele>
        <time>2018-06-02T08:55:13Z</time>
      </trkpt>
      <trkpt lat="43.59687" lon="0.22114">
        <ele>203.4</ele>
        <time>2018-06-02T08:55:15Z</time>
      </trkpt>
      <trkpt lat="43.59688" lon="0.22116">
        <ele>203.3</ele>
        <time>2018-06-02T08:55:18Z</time>
      </trkpt>
      <trkpt lat="43.59689" lon="0.22117">
        <ele>203.3</ele>
        <time>2018-06-02T08:55:19Z</time>
      </trkpt>
      <trkpt lat="43.59689" lon="0.22118">
        <ele>203.3</ele>
        <time>2018-06-02T08:55:20Z</time>
      </trkpt>
      <trkpt lat="43.59691" lon="0.22122">
        <ele>203.3</ele>
        <time>2018-06-02T08:55:23Z</time>
      </trkpt>
      <trkpt lat="43.59694" lon="0.22125">
        <ele>203.3</ele>
        <time>2018-06-02T08:55:26Z</time>
      </trkpt>
      <trkpt lat="43.59695" lon="0.22128">
        <ele>203.2</ele>
        <time>2018-06-02T08:55:28Z</time>
      </trkpt>
      <trkpt lat="43.59697" lon="0.22131">
        <ele>203.2</ele>
        <time>2018-06-02T08:55:31Z</time>
      </trkpt>
      <trkpt lat="43.59698" lon="0.22133">
        <ele>203.2</ele>
        <time>2018-06-02T08:55:33Z</time>
      </trkpt>
      <trkpt lat="43.597" lon="0.22135">
        <ele>203.2</ele>
        <time>2018-06-02T08:55:36Z</time>
      </trkpt>
      <trkpt lat="43.59701" lon="0.22136">
        <ele>203.1</ele>
        <time>2018-06-02T08:55:38Z</time>
      </trkpt>
      <trkpt lat="43.59702" lon="0.22138">
        <ele>203.1</ele>
        <time>2018-06-02T08:55:41Z</time>
      </trkpt>
      <trkpt lat="43.59703" lon="0.22139">
        <ele>203.1</ele>
        <time>2018-06-02T08:55:43Z</time>
      </trkpt>
      <trkpt lat="43.59704" lon="0.22141">
        <ele>203</ele>
        <time>2018-06-02T08:55:46Z</time>
      </trkpt>
      <trkpt lat="43.59706" lon="0.22142">
        <ele>203</ele>
        <time>2018-06-02T08:55:49Z</time>
      </trkpt>
      <trkpt lat="43.59707" lon="0.22143">
        <ele>203</ele>
        <time>2018-06-02T08:55:51Z</time>
      </trkpt>
      <trkpt lat="43.59708" lon="0.22145">
        <ele>203</ele>
        <time>2018-06-02T08:55:54Z</time>
      </trkpt>
      <trkpt lat="43.59709" lon="0.22146">
        <ele>202.9</ele>
        <time>2018-06-02T08:55:56Z</time>
      </trkpt>
      <trkpt lat="43.5971" lon="0.22147">
        <ele>202.9</ele>
        <time>2018-06-02T08:55:57Z</time>
      </trkpt>
      <trkpt lat="43.5971" lon="0.22149">
        <ele>202.9</ele>
        <time>2018-06-02T08:55:59Z</time>
      </trkpt>
      <trkpt lat="43.59711" lon="0.2215">
        <ele>202.9</ele>
        <time>2018-06-02T08:56:01Z</time>
      </trkpt>
      <trkpt lat="43.59712" lon="0.22153">
        <ele>202.9</ele>
        <time>2018-06-02T08:56:04Z</time>
      </trkpt>
      <trkpt lat="43.59713" lon="0.22155">
        <ele>202.8</ele>
        <time>2018-06-02T08:56:06Z</time>
      </trkpt>
      <trkpt lat="43.59714" lon="0.22157">
        <ele>202.8</ele>
        <time>2018-06-02T08:56:09Z</time>
      </trkpt>
      <trkpt lat="43.59715" lon="0.2216">
        <ele>202.8</ele>
        <time>2018-06-02T08:56:12Z</time>
      </trkpt>
      <trkpt lat="43.59716" lon="0.22163">
        <ele>202.7</ele>
        <time>2018-06-02T08:56:15Z</time>
      </trkpt>
      <trkpt lat="43.59716" lon="0.22164">
        <ele>202.7</ele>
        <time>2018-06-02T08:56:16Z</time>
      </trkpt>
      <trkpt lat="43.59716" lon="0.22165">
        <ele>202.7</ele>
        <time>2018-06-02T08:56:17Z</time>
      </trkpt>
      <trkpt lat="43.59717" lon="0.22168">
        <ele>202.7</ele>
        <time>2018-06-02T08:56:19Z</time>
      </trkpt>
      <trkpt lat="43.59718" lon="0.22172">
        <ele>202.7</ele>
        <time>2018-06-02T08:56:22Z</time>
      </trkpt>
      <trkpt lat="43.59719" lon="0.22175">
        <ele>202.7</ele>
        <time>2018-06-02T08:56:24Z</time>
      </trkpt>
      <trkpt lat="43.5972" lon="0.22179">
        <ele>202.6</ele>
        <time>2018-06-02T08:56:27Z</time>
      </trkpt>
      <trkpt lat="43.59721" lon="0.22181">
        <ele>202.6</ele>
        <time>2018-06-02T08:56:29Z</time>
      </trkpt>
      <trkpt lat="43.59722" lon="0.22184">
        <ele>202.6</ele>
        <time>2018-06-02T08:56:32Z</time>
      </trkpt>
      <trkpt lat="43.59722" lon="0.22187">
        <ele>202.5</ele>
        <time>2018-06-02T08:56:35Z</time>
      </trkpt>
      <trkpt lat="43.59723" lon="0.22189">
        <ele>202.5</ele>
        <time>2018-06-02T08:56:37Z</time>
      </trkpt>
      <trkpt lat="43.59724" lon="0.22192">
        <ele>202.5</ele>
        <time>2018-06-02T08:56:40Z</time>
      </trkpt>
      <trkpt lat="43.59724" lon="0.22195">
        <ele>202.5</ele>
        <time>2018-06-02T08:56:42Z</time>
      </trkpt>
      <trkpt lat="43.59725" lon="0.22198">
        <ele>202.4</ele>
        <time>2018-06-02T08:56:45Z</time>
      </trkpt>
      <trkpt lat="43.59725" lon="0.222">
        <ele>202.4</ele>
        <time>2018-06-02T08:56:47Z</time>
      </trkpt>
      <trkpt lat="43.59725" lon="0.22201">
        <ele>202.4</ele>
        <time>2018-06-02T08:56:48Z</time>
      </trkpt>
      <trkpt lat="43.59725" lon="0.22202">
        <ele>202.4</ele>
        <time>2018-06-02T08:56:50Z</time>
      </trkpt>
      <trkpt lat="43.59725" lon="0.22204">
        <ele>202.4</ele>
        <time>2018-06-02T08:56:52Z</time>
      </trkpt>
      <trkpt lat="43.59726" lon="0.22206">
        <ele>202.3</ele>
        <time>2018-06-02T08:56:55Z</time>
      </trkpt>
      <trkpt lat="43.59726" lon="0.22209">
        <ele>202.3</ele>
        <time>2018-06-02T08:56:58Z</time>
      </trkpt>
      <trkpt lat="43.59726" lon="0.22211">
        <ele>202.3</ele>
        <time>2018-06-02T08:57:00Z</time>
      </trkpt>
      <trkpt lat="43.59726" lon="0.22213">
        <ele>202.2</ele>
        <time>2018-06-02T08:57:03Z</time>
      </trkpt>
      <trkpt lat="43.59726" lon="0.22215">
        <ele>202.2</ele>
        <time>2018-06-02T08:57:05Z</time>
      </trkpt>
      <trkpt lat="43.59727" lon="0.22218">
        <ele>202.2</ele>
        <time>2018-06-02T08:57:08Z</time>
      </trkpt>
      <trkpt lat="43.59727" lon="0.22219">
        <ele>202.2</ele>
        <time>2018-06-02T08:57:10Z</time>
      </trkpt>
      <trkpt lat="43.59727" lon="0.2222">
        <ele>202.2</ele>
        <time>2018-06-02T08:57:11Z</time>
      </trkpt>
      <trkpt lat="43.59726" lon="0.22222">
        <ele>202.1</ele>
        <time>2018-06-02T08:57:13Z</time>
      </trkpt>
      <trkpt lat="43.59726" lon="0.22224">
        <ele>202.1</ele>
        <time>2018-06-02T08:57:15Z</time>
      </trkpt>
      <trkpt lat="43.59726" lon="0.22227">
        <ele>202.1</ele>
        <time>2018-06-02T08:57:18Z</time>
      </trkpt>
      <trkpt lat="43.59725" lon="0.2223">
        <ele>202.1</ele>
        <time>2018-06-02T08:57:21Z</time>
      </trkpt>
      <trkpt lat="43.59725" lon="0.22232">
        <ele>202</ele>
        <time>2018-06-02T08:57:23Z</time>
      </trkpt>
      <trkpt lat="43.59725" lon="0.22235">
        <ele>202</ele>
        <time>2018-06-02T08:57:26Z</time>
      </trkpt>
      <trkpt lat="43.59725" lon="0.22237">
        <ele>202</ele>
        <time>2018-06-02T08:57:28Z</time>
      </trkpt>
      <trkpt lat="43.59724" lon="0.22239">
        <ele>202</ele>
        <time>2018-06-02T08:57:30Z</time>
      </trkpt>
      <trkpt lat="43.59724" lon="0.2224">
        <ele>202</ele>
        <time>2018-06-02T08:57:31Z</time>
      </trkpt>
      <trkpt lat="43.59724" lon="0.22243">
        <ele>201.9</ele>
        <time>2018-06-02T08:57:33Z</time>
      </trkpt>
      <trkpt lat="43.59723" lon="0.22247">
        <ele>201.9</ele>
        <time>2018-06-02T08:57:36Z</time>
      </trkpt>
      <trkpt lat="43.59723" lon="0.22251">
        <ele>201.9</ele>
        <time>2018-06-02T08:57:39Z</time>
      </trkpt>
      <trkpt lat="43.59723" lon="0.22253">
        <ele>201.8</ele>
        <time>2018-06-02T08:57:41Z</time>
      </trkpt>
      <trkpt lat="43.59722" lon="0.22257">
        <ele>201.8</ele>
        <time>2018-06-02T08:57:44Z</time>
      </trkpt>
      <trkpt lat="43.59722" lon="0.2226">
        <ele>201.8</ele>
        <time>2018-06-02T08:57:46Z</time>
      </trkpt>
      <trkpt lat="43.59721" lon="0.22263">
        <ele>201.8</ele>
        <time>2018-06-02T08:57:49Z</time>
      </trkpt>
      <trkpt lat="43.59721" lon="0.22265">
        <ele>201.7</ele>
        <time>2018-06-02T08:57:51Z</time>
      </trkpt>
      <trkpt lat="43.5972" lon="0.22268">
        <ele>201.7</ele>
        <time>2018-06-02T08:57:54Z</time>
      </trkpt>
      <trkpt lat="43.5972" lon="0.22271">
        <ele>201.7</ele>
        <time>2018-06-02T08:57:56Z</time>
      </trkpt>
      <trkpt lat="43.59719" lon="0.22274">
        <ele>201.7</ele>
        <time>2018-06-02T08:57:59Z</time>
      </trkpt>
      <trkpt lat="43.59718" lon="0.22276">
        <ele>201.6</ele>
        <time>2018-06-02T08:58:01Z</time>
      </trkpt>
      <trkpt lat="43.59718" lon="0.22278">
        <ele>201.6</ele>
        <time>2018-06-02T08:58:03Z</time>
      </trkpt>
      <trkpt lat="43.59717" lon="0.22279">
        <ele>201.6</ele>
        <time>2018-06-02T08:58:04Z</time>
      </trkpt>
      <trkpt lat="43.59716" lon="0.22282">
        <ele>201.6</ele>
        <time>2018-06-02T08:58:07Z</time>
      </trkpt>
      <trkpt lat="43.59716" lon="0.22284">
        <ele>201.6</ele>
        <time>2018-06-02T08:58:09Z</time>
      </trkpt>
      <trkpt lat="43.59715" lon="0.22287">
        <ele>201.5</ele>
        <time>2018-06-02T08:58:12Z</time>
      </trkpt>
      <trkpt lat="43.59714" lon="0.22289">
        <ele>201.5</ele>
        <time>2018-06-02T08:58:14Z</time>
      </trkpt>
      <trkpt lat="43.59713" lon="0.22292">
        <ele>201.5</ele>
        <time>2018-06-02T08:58:17Z</time>
      </trkpt>
      <trkpt lat="43.59712" lon="0.22294">
        <ele>201.5</ele>
        <time>2018-06-02T08:58:19Z</time>
      </trkpt>
      <trkpt lat="43.59712" lon="0.22296">
        <ele>201.4</ele>
        <time>2018-06-02T08:58:20Z</time>
      </trkpt>
      <trkpt lat="43.59712" lon="0.22298">
        <ele>201.4</ele>
        <time>2018-06-02T08:58:22Z</time>
      </trkpt>
      <trkpt lat="43.59712" lon="0.22301">
        <ele>201.4</ele>
        <time>2018-06-02T08:58:24Z</time>
      </trkpt>
      <trkpt lat="43.59711" lon="0.22304">
        <ele>201.4</ele>
        <time>2018-06-02T08:58:27Z</time>
      </trkpt>
      <trkpt lat="43.59711" lon="0.22308">
        <ele>201.3</ele>
        <time>2018-06-02T08:58:30Z</time>
      </trkpt>
      <trkpt lat="43.59711" lon="0.22311">
        <ele>201.3</ele>
        <time>2018-06-02T08:58:32Z</time>
      </trkpt>
      <trkpt lat="43.59711" lon="0.22314">
        <ele>201.3</ele>
        <time>2018-06-02T08:58:35Z</time>
      </trkpt>
      <trkpt lat="43.5971" lon="0.22317">
        <ele>201.3</ele>
        <time>2018-06-02T08:58:37Z</time>
      </trkpt>
      <trkpt lat="43.59709" lon="0.22321">
        <ele>201.2</ele>
        <time>2018-06-02T08:58:40Z</time>
      </trkpt>
      <trkpt lat="43.59709" lon="0.22323">
        <ele>201.2</ele>
        <time>2018-06-02T08:58:42Z</time>
      </trkpt>
      <trkpt lat="43.59708" lon="0.22327">
        <ele>201.2</ele>
        <time>2018-06-02T08:58:45Z</time>
      </trkpt>
      <trkpt lat="43.59708" lon="0.2233">
        <ele>201.2</ele>
        <time>2018-06-02T08:58:47Z</time>
      </trkpt>
      <trkpt lat="43.59707" lon="0.22334">
        <ele>201.1</ele>
        <time>2018-06-02T08:58:50Z</time>
      </trkpt>
      <trkpt lat="43.59706" lon="0.22338">
        <ele>201.1</ele>
        <time>2018-06-02T08:58:53Z</time>
      </trkpt>
      <trkpt lat="43.59705" lon="0.2234">
        <ele>201.1</ele>
        <time>2018-06-02T08:58:55Z</time>
      </trkpt>
      <trkpt lat="43.59704" lon="0.22345">
        <ele>201</ele>
        <time>2018-06-02T08:58:58Z</time>
      </trkpt>
      <trkpt lat="43.59703" lon="0.22347">
        <ele>201</ele>
        <time>2018-06-02T08:59:00Z</time>
      </trkpt>
      <trkpt lat="43.59702" lon="0.22352">
        <ele>201</ele>
        <time>2018-06-02T08:59:03Z</time>
      </trkpt>
      <trkpt lat="43.59702" lon="0.22355">
        <ele>201</ele>
        <time>2018-06-02T08:59:05Z</time>
      </trkpt>
      <trkpt lat="43.59701" lon="0.2236">
        <ele>200.9</ele>
        <time>2018-06-02T08:59:08Z</time>
      </trkpt>
      <trkpt lat="43.59701" lon="0.22363">
        <ele>200.9</ele>
        <time>2018-06-02T08:59:10Z</time>
      </trkpt>
      <trkpt lat="43.59701" lon="0.22364">
        <ele>200.9</ele>
        <time>2018-06-02T08:59:11Z</time>
      </trkpt>
      <trkpt lat="43.59701" lon="0.22368">
        <ele>200.8</ele>
        <time>2018-06-02T08:59:13Z</time>
      </trkpt>
      <trkpt lat="43.59701" lon="0.22371">
        <ele>200.8</ele>
        <time>2018-06-02T08:59:15Z</time>
      </trkpt>
      <trkpt lat="43.597" lon="0.22373">
        <ele>200.8</ele>
        <time>2018-06-02T08:59:16Z</time>
      </trkpt>
      <trkpt lat="43.597" lon="0.22376">
        <ele>200.7</ele>
        <time>2018-06-02T08:59:18Z</time>
      </trkpt>
      <trkpt lat="43.59699" lon="0.22381">
        <ele>200.6</ele>
        <time>2018-06-02T08:59:21Z</time>
      </trkpt>
      <trkpt lat="43.59699" lon="0.22384">
        <ele>200.6</ele>
        <time>2018-06-02T08:59:23Z</time>
      </trkpt>
      <trkpt lat="43.59698" lon="0.2239">
        <ele>200.5</ele>
        <time>2018-06-02T08:59:26Z</time>
      </trkpt>
      <trkpt lat="43.59698" lon="0.22393">
        <ele>200.4</ele>
        <time>2018-06-02T08:59:28Z</time>
      </trkpt>
      <trkpt lat="43.59697" lon="0.22399">
        <ele>200.3</ele>
        <time>2018-06-02T08:59:31Z</time>
      </trkpt>
      <trkpt lat="43.59697" lon="0.22403">
        <ele>200.3</ele>
        <time>2018-06-02T08:59:33Z</time>
      </trkpt>
      <trkpt lat="43.59696" lon="0.22408">
        <ele>200.2</ele>
        <time>2018-06-02T08:59:36Z</time>
      </trkpt>
      <trkpt lat="43.59695" lon="0.2241">
        <ele>200.1</ele>
        <time>2018-06-02T08:59:39Z</time>
      </trkpt>
      <trkpt lat="43.59695" lon="0.22412">
        <ele>200.1</ele>
        <time>2018-06-02T08:59:41Z</time>
      </trkpt>
      <trkpt lat="43.59694" lon="0.22414">
        <ele>200</ele>
        <time>2018-06-02T08:59:44Z</time>
      </trkpt>
      <trkpt lat="43.59693" lon="0.22415">
        <ele>199.9</ele>
        <time>2018-06-02T08:59:46Z</time>
      </trkpt>
      <trkpt lat="43.59693" lon="0.22417">
        <ele>199.8</ele>
        <time>2018-06-02T08:59:49Z</time>
      </trkpt>
      <trkpt lat="43.59692" lon="0.22419">
        <ele>199.8</ele>
        <time>2018-06-02T08:59:51Z</time>
      </trkpt>
      <trkpt lat="43.59691" lon="0.22421">
        <ele>199.7</ele>
        <time>2018-06-02T08:59:54Z</time>
      </trkpt>
      <trkpt lat="43.5969" lon="0.22423">
        <ele>199.6</ele>
        <time>2018-06-02T08:59:57Z</time>
      </trkpt>
      <trkpt lat="43.5969" lon="0.22424">
        <ele>199.6</ele>
        <time>2018-06-02T08:59:59Z</time>
      </trkpt>
      <trkpt lat="43.5969" lon="0.22425">
        <ele>199.5</ele>
        <time>2018-06-02T09:00:00Z</time>
      </trkpt>
      <trkpt lat="43.5969" lon="0.22429">
        <ele>199.5</ele>
        <time>2018-06-02T09:00:02Z</time>
      </trkpt>
      <trkpt lat="43.5969" lon="0.22433">
        <ele>199.4</ele>
        <time>2018-06-02T09:00:04Z</time>
      </trkpt>
      <trkpt lat="43.5969" lon="0.22438">
        <ele>199.3</ele>
        <time>2018-06-02T09:00:07Z</time>
      </trkpt>
      <trkpt lat="43.5969" lon="0.22442">
        <ele>199.3</ele>
        <time>2018-06-02T09:00:09Z</time>
      </trkpt>
      <trkpt lat="43.5969" lon="0.22445">
        <ele>199.2</ele>
        <time>2018-06-02T09:00:11Z</time>
      </trkpt>
      <trkpt lat="43.5969" lon="0.22447">
        <ele>199.2</ele>
        <time>2018-06-02T09:00:12Z</time>
      </trkpt>
      <trkpt lat="43.5969" lon="0.2245">
        <ele>199.1</ele>
        <time>2018-06-02T09:00:14Z</time>
      </trkpt>
      <trkpt lat="43.5969" lon="0.22455">
        <ele>199.1</ele>
        <time>2018-06-02T09:00:17Z</time>
      </trkpt>
      <trkpt lat="43.5969" lon="0.22459">
        <ele>199</ele>
        <time>2018-06-02T09:00:20Z</time>
      </trkpt>
      <trkpt lat="43.5969" lon="0.22463">
        <ele>198.9</ele>
        <time>2018-06-02T09:00:22Z</time>
      </trkpt>
      <trkpt lat="43.5969" lon="0.22466">
        <ele>198.9</ele>
        <time>2018-06-02T09:00:24Z</time>
      </trkpt>
      <trkpt lat="43.5969" lon="0.22468">
        <ele>198.8</ele>
        <time>2018-06-02T09:00:25Z</time>
      </trkpt>
      <trkpt lat="43.5969" lon="0.22471">
        <ele>198.8</ele>
        <time>2018-06-02T09:00:27Z</time>
      </trkpt>
      <trkpt lat="43.59689" lon="0.22477">
        <ele>198.7</ele>
        <time>2018-06-02T09:00:30Z</time>
      </trkpt>
      <trkpt lat="43.59689" lon="0.22481">
        <ele>198.6</ele>
        <time>2018-06-02T09:00:32Z</time>
      </trkpt>
      <trkpt lat="43.59688" lon="0.22484">
        <ele>198.6</ele>
        <time>2018-06-02T09:00:34Z</time>
      </trkpt>
      <trkpt lat="43.59688" lon="0.22486">
        <ele>198.6</ele>
        <time>2018-06-02T09:00:35Z</time>
      </trkpt>
      <trkpt lat="43.59688" lon="0.22489">
        <ele>198.5</ele>
        <time>2018-06-02T09:00:37Z</time>
      </trkpt>
      <trkpt lat="43.59687" lon="0.22493">
        <ele>198.4</ele>
        <time>2018-06-02T09:00:40Z</time>
      </trkpt>
      <trkpt lat="43.59687" lon="0.22498">
        <ele>198.3</ele>
        <time>2018-06-02T09:00:43Z</time>
      </trkpt>
      <trkpt lat="43.59687" lon="0.22501">
        <ele>198.3</ele>
        <time>2018-06-02T09:00:45Z</time>
      </trkpt>
      <trkpt lat="43.59686" lon="0.22505">
        <ele>198.2</ele>
        <time>2018-06-02T09:00:48Z</time>
      </trkpt>
      <trkpt lat="43.59685" lon="0.22508">
        <ele>198.1</ele>
        <time>2018-06-02T09:00:50Z</time>
      </trkpt>
      <trkpt lat="43.59685" lon="0.22513">
        <ele>198.1</ele>
        <time>2018-06-02T09:00:53Z</time>
      </trkpt>
      <trkpt lat="43.59684" lon="0.22516">
        <ele>198</ele>
        <time>2018-06-02T09:00:55Z</time>
      </trkpt>
      <trkpt lat="43.59683" lon="0.22521">
        <ele>197.9</ele>
        <time>2018-06-02T09:00:58Z</time>
      </trkpt>
      <trkpt lat="43.59683" lon="0.22523">
        <ele>197.9</ele>
        <time>2018-06-02T09:00:59Z</time>
      </trkpt>
      <trkpt lat="43.59683" lon="0.22524">
        <ele>197.8</ele>
        <time>2018-06-02T09:01:00Z</time>
      </trkpt>
      <trkpt lat="43.59682" lon="0.22529">
        <ele>197.7</ele>
        <time>2018-06-02T09:01:03Z</time>
      </trkpt>
      <trkpt lat="43.59681" lon="0.22533">
        <ele>197.5</ele>
        <time>2018-06-02T09:01:06Z</time>
      </trkpt>
      <trkpt lat="43.5968" lon="0.22536">
        <ele>197.4</ele>
        <time>2018-06-02T09:01:08Z</time>
      </trkpt>
      <trkpt lat="43.59679" lon="0.22541">
        <ele>197.3</ele>
        <time>2018-06-02T09:01:11Z</time>
      </trkpt>
      <trkpt lat="43.59678" lon="0.22542">
        <ele>197.2</ele>
        <time>2018-06-02T09:01:12Z</time>
      </trkpt>
      <trkpt lat="43.59678" lon="0.22543">
        <ele>197.2</ele>
        <time>2018-06-02T09:01:13Z</time>
      </trkpt>
      <trkpt lat="43.59678" lon="0.22548">
        <ele>197</ele>
        <time>2018-06-02T09:01:16Z</time>
      </trkpt>
      <trkpt lat="43.59677" lon="0.2255">
        <ele>196.9</ele>
        <time>2018-06-02T09:01:18Z</time>
      </trkpt>
      <trkpt lat="43.59677" lon="0.22555">
        <ele>196.8</ele>
        <time>2018-06-02T09:01:21Z</time>
      </trkpt>
      <trkpt lat="43.59677" lon="0.22557">
        <ele>196.7</ele>
        <time>2018-06-02T09:01:23Z</time>
      </trkpt>
      <trkpt lat="43.59676" lon="0.22561">
        <ele>196.5</ele>
        <time>2018-06-02T09:01:26Z</time>
      </trkpt>
      <trkpt lat="43.59676" lon="0.22565">
        <ele>196.4</ele>
        <time>2018-06-02T09:01:29Z</time>
      </trkpt>
      <trkpt lat="43.59675" lon="0.22567">
        <ele>196.3</ele>
        <time>2018-06-02T09:01:31Z</time>
      </trkpt>
      <trkpt lat="43.59674" lon="0.2257">
        <ele>196.1</ele>
        <time>2018-06-02T09:01:34Z</time>
      </trkpt>
      <trkpt lat="43.59674" lon="0.22573">
        <ele>196</ele>
        <time>2018-06-02T09:01:36Z</time>
      </trkpt>
      <trkpt lat="43.59673" lon="0.22576">
        <ele>195.9</ele>
        <time>2018-06-02T09:01:39Z</time>
      </trkpt>
      <trkpt lat="43.59673" lon="0.22578">
        <ele>195.8</ele>
        <time>2018-06-02T09:01:41Z</time>
      </trkpt>
      <trkpt lat="43.59672" lon="0.2258">
        <ele>195.7</ele>
        <time>2018-06-02T09:01:43Z</time>
      </trkpt>
      <trkpt lat="43.59672" lon="0.22582">
        <ele>195.6</ele>
        <time>2018-06-02T09:01:44Z</time>
      </trkpt>
      <trkpt lat="43.59671" lon="0.22584">
        <ele>195.5</ele>
        <time>2018-06-02T09:01:46Z</time>
      </trkpt>
      <trkpt lat="43.5967" lon="0.22589">
        <ele>195.4</ele>
        <time>2018-06-02T09:01:49Z</time>
      </trkpt>
      <trkpt lat="43.59669" lon="0.22593">
        <ele>195.2</ele>
        <time>2018-06-02T09:01:52Z</time>
      </trkpt>
      <trkpt lat="43.59669" lon="0.22595">
        <ele>195.1</ele>
        <time>2018-06-02T09:01:54Z</time>
      </trkpt>
      <trkpt lat="43.59668" lon="0.22598">
        <ele>195</ele>
        <time>2018-06-02T09:01:56Z</time>
      </trkpt>
      <trkpt lat="43.59668" lon="0.22599">
        <ele>195</ele>
        <time>2018-06-02T09:01:57Z</time>
      </trkpt>
      <trkpt lat="43.59667" lon="0.22601">
        <ele>194.9</ele>
        <time>2018-06-02T09:01:59Z</time>
      </trkpt>
      <trkpt lat="43.59666" lon="0.22604">
        <ele>194.7</ele>
        <time>2018-06-02T09:02:02Z</time>
      </trkpt>
      <trkpt lat="43.59666" lon="0.22606">
        <ele>194.6</ele>
        <time>2018-06-02T09:02:04Z</time>
      </trkpt>
      <trkpt lat="43.59665" lon="0.22609">
        <ele>194.5</ele>
        <time>2018-06-02T09:02:07Z</time>
      </trkpt>
      <trkpt lat="43.59664" lon="0.22611">
        <ele>194.4</ele>
        <time>2018-06-02T09:02:09Z</time>
      </trkpt>
      <trkpt lat="43.59663" lon="0.22612">
        <ele>194.3</ele>
        <time>2018-06-02T09:02:11Z</time>
      </trkpt>
      <trkpt lat="43.59663" lon="0.22613">
        <ele>194.2</ele>
        <time>2018-06-02T09:02:12Z</time>
      </trkpt>
      <trkpt lat="43.59663" lon="0.22615">
        <ele>194</ele>
        <time>2018-06-02T09:02:14Z</time>
      </trkpt>
      <trkpt lat="43.59662" lon="0.22617">
        <ele>193.9</ele>
        <time>2018-06-02T09:02:15Z</time>
      </trkpt>
      <trkpt lat="43.59662" lon="0.2262">
        <ele>193.8</ele>
        <time>2018-06-02T09:02:17Z</time>
      </trkpt>
      <trkpt lat="43.59662" lon="0.22624">
        <ele>193.5</ele>
        <time>2018-06-02T09:02:20Z</time>
      </trkpt>
      <trkpt lat="43.59662" lon="0.22627">
        <ele>193.3</ele>
        <time>2018-06-02T09:02:22Z</time>
      </trkpt>
      <trkpt lat="43.59661" lon="0.22631">
        <ele>193.1</ele>
        <time>2018-06-02T09:02:25Z</time>
      </trkpt>
      <trkpt lat="43.59661" lon="0.22634">
        <ele>192.9</ele>
        <time>2018-06-02T09:02:27Z</time>
      </trkpt>
      <trkpt lat="43.59661" lon="0.22637">
        <ele>192.7</ele>
        <time>2018-06-02T09:02:30Z</time>
      </trkpt>
      <trkpt lat="43.59661" lon="0.22638">
        <ele>192.5</ele>
        <time>2018-06-02T09:02:32Z</time>
      </trkpt>
      <trkpt lat="43.5966" lon="0.22641">
        <ele>192.3</ele>
        <time>2018-06-02T09:02:35Z</time>
      </trkpt>
      <trkpt lat="43.5966" lon="0.22643">
        <ele>192</ele>
        <time>2018-06-02T09:02:38Z</time>
      </trkpt>
      <trkpt lat="43.5966" lon="0.22645">
        <ele>191.8</ele>
        <time>2018-06-02T09:02:40Z</time>
      </trkpt>
      <trkpt lat="43.5966" lon="0.22647">
        <ele>191.6</ele>
        <time>2018-06-02T09:02:43Z</time>
      </trkpt>
      <trkpt lat="43.59659" lon="0.22649">
        <ele>191.4</ele>
        <time>2018-06-02T09:02:45Z</time>
      </trkpt>
      <trkpt lat="43.59659" lon="0.2265">
        <ele>191.2</ele>
        <time>2018-06-02T09:02:47Z</time>
      </trkpt>
      <trkpt lat="43.59659" lon="0.22651">
        <ele>191.1</ele>
        <time>2018-06-02T09:02:48Z</time>
      </trkpt>
      <trkpt lat="43.59659" lon="0.22653">
        <ele>191</ele>
        <time>2018-06-02T09:02:50Z</time>
      </trkpt>
      <trkpt lat="43.59658" lon="0.22656">
        <ele>190.7</ele>
        <time>2018-06-02T09:02:53Z</time>
      </trkpt>
      <trkpt lat="43.59657" lon="0.22659">
        <ele>190.5</ele>
        <time>2018-06-02T09:02:55Z</time>
      </trkpt>
      <trkpt lat="43.59656" lon="0.22662">
        <ele>190.2</ele>
        <time>2018-06-02T09:02:58Z</time>
      </trkpt>
      <trkpt lat="43.59655" lon="0.22665">
        <ele>189.9</ele>
        <time>2018-06-02T09:03:01Z</time>
      </trkpt>
      <trkpt lat="43.59654" lon="0.22668">
        <ele>189.7</ele>
        <time>2018-06-02T09:03:03Z</time>
      </trkpt>
      <trkpt lat="43.59653" lon="0.2267">
        <ele>189.5</ele>
        <time>2018-06-02T09:03:05Z</time>
      </trkpt>
      <trkpt lat="43.59653" lon="0.22671">
        <ele>189.4</ele>
        <time>2018-06-02T09:03:06Z</time>
      </trkpt>
      <trkpt lat="43.59652" lon="0.22674">
        <ele>189.2</ele>
        <time>2018-06-02T09:03:08Z</time>
      </trkpt>
      <trkpt lat="43.59651" lon="0.22677">
        <ele>189</ele>
        <time>2018-06-02T09:03:11Z</time>
      </trkpt>
      <trkpt lat="43.59651" lon="0.22679">
        <ele>188.8</ele>
        <time>2018-06-02T09:03:13Z</time>
      </trkpt>
      <trkpt lat="43.5965" lon="0.22683">
        <ele>188.5</ele>
        <time>2018-06-02T09:03:16Z</time>
      </trkpt>
      <trkpt lat="43.59649" lon="0.22685">
        <ele>188.3</ele>
        <time>2018-06-02T09:03:18Z</time>
      </trkpt>
      <trkpt lat="43.59649" lon="0.22688">
        <ele>188.1</ele>
        <time>2018-06-02T09:03:20Z</time>
      </trkpt>
      <trkpt lat="43.59648" lon="0.22688">
        <ele>188</ele>
        <time>2018-06-02T09:03:21Z</time>
      </trkpt>
      <trkpt lat="43.59647" lon="0.2269">
        <ele>187.8</ele>
        <time>2018-06-02T09:03:23Z</time>
      </trkpt>
      <trkpt lat="43.59647" lon="0.22691">
        <ele>187.7</ele>
        <time>2018-06-02T09:03:24Z</time>
      </trkpt>
      <trkpt lat="43.59646" lon="0.22693">
        <ele>187.6</ele>
        <time>2018-06-02T09:03:26Z</time>
      </trkpt>
      <trkpt lat="43.59645" lon="0.22695">
        <ele>187.4</ele>
        <time>2018-06-02T09:03:29Z</time>
      </trkpt>
      <trkpt lat="43.59644" lon="0.22697">
        <ele>187.2</ele>
        <time>2018-06-02T09:03:31Z</time>
      </trkpt>
      <trkpt lat="43.59642" lon="0.22699">
        <ele>187</ele>
        <time>2018-06-02T09:03:34Z</time>
      </trkpt>
      <trkpt lat="43.59642" lon="0.22701">
        <ele>186.9</ele>
        <time>2018-06-02T09:03:36Z</time>
      </trkpt>
      <trkpt lat="43.59641" lon="0.22703">
        <ele>186.7</ele>
        <time>2018-06-02T09:03:38Z</time>
      </trkpt>
      <trkpt lat="43.5964" lon="0.22704">
        <ele>186.7</ele>
        <time>2018-06-02T09:03:39Z</time>
      </trkpt>
      <trkpt lat="43.5964" lon="0.22706">
        <ele>186.5</ele>
        <time>2018-06-02T09:03:41Z</time>
      </trkpt>
      <trkpt lat="43.59638" lon="0.22709">
        <ele>186.3</ele>
        <time>2018-06-02T09:03:44Z</time>
      </trkpt>
      <trkpt lat="43.59637" lon="0.22713">
        <ele>186.1</ele>
        <time>2018-06-02T09:03:47Z</time>
      </trkpt>
      <trkpt lat="43.59637" lon="0.22715">
        <ele>186</ele>
        <time>2018-06-02T09:03:49Z</time>
      </trkpt>
      <trkpt lat="43.59636" lon="0.22718">
        <ele>185.8</ele>
        <time>2018-06-02T09:03:52Z</time>
      </trkpt>
      <trkpt lat="43.59635" lon="0.2272">
        <ele>185.6</ele>
        <time>2018-06-02T09:03:54Z</time>
      </trkpt>
      <trkpt lat="43.59634" lon="0.22722">
        <ele>185.5</ele>
        <time>2018-06-02T09:03:55Z</time>
      </trkpt>
      <trkpt lat="43.59633" lon="0.22725">
        <ele>185.4</ele>
        <time>2018-06-02T09:03:57Z</time>
      </trkpt>
      <trkpt lat="43.59632" lon="0.22728">
        <ele>185.3</ele>
        <time>2018-06-02T09:03:59Z</time>
      </trkpt>
      <trkpt lat="43.5963" lon="0.22733">
        <ele>185</ele>
        <time>2018-06-02T09:04:02Z</time>
      </trkpt>
      <trkpt lat="43.59629" lon="0.22736">
        <ele>184.9</ele>
        <time>2018-06-02T09:04:04Z</time>
      </trkpt>
      <trkpt lat="43.59628" lon="0.22739">
        <ele>184.8</ele>
        <time>2018-06-02T09:04:06Z</time>
      </trkpt>
      <trkpt lat="43.59627" lon="0.2274">
        <ele>184.7</ele>
        <time>2018-06-02T09:04:07Z</time>
      </trkpt>
      <trkpt lat="43.59626" lon="0.22743">
        <ele>184.5</ele>
        <time>2018-06-02T09:04:10Z</time>
      </trkpt>
      <trkpt lat="43.59626" lon="0.22745">
        <ele>184.4</ele>
        <time>2018-06-02T09:04:11Z</time>
      </trkpt>
      <trkpt lat="43.59625" lon="0.22746">
        <ele>184.3</ele>
        <time>2018-06-02T09:04:12Z</time>
      </trkpt>
      <trkpt lat="43.59624" lon="0.22749">
        <ele>184.2</ele>
        <time>2018-06-02T09:04:15Z</time>
      </trkpt>
      <trkpt lat="43.59623" lon="0.22751">
        <ele>184.1</ele>
        <time>2018-06-02T09:04:17Z</time>
      </trkpt>
      <trkpt lat="43.59622" lon="0.22754">
        <ele>183.9</ele>
        <time>2018-06-02T09:04:20Z</time>
      </trkpt>
      <trkpt lat="43.59621" lon="0.22756">
        <ele>183.9</ele>
        <time>2018-06-02T09:04:21Z</time>
      </trkpt>
      <trkpt lat="43.59621" lon="0.22757">
        <ele>183.8</ele>
        <time>2018-06-02T09:04:22Z</time>
      </trkpt>
      <trkpt lat="43.59619" lon="0.2276">
        <ele>183.6</ele>
        <time>2018-06-02T09:04:25Z</time>
      </trkpt>
      <trkpt lat="43.59618" lon="0.22762">
        <ele>183.5</ele>
        <time>2018-06-02T09:04:27Z</time>
      </trkpt>
      <trkpt lat="43.59616" lon="0.22766">
        <ele>183.4</ele>
        <time>2018-06-02T09:04:30Z</time>
      </trkpt>
      <trkpt lat="43.59615" lon="0.22769">
        <ele>183.2</ele>
        <time>2018-06-02T09:04:33Z</time>
      </trkpt>
      <trkpt lat="43.59614" lon="0.22772">
        <ele>183.1</ele>
        <time>2018-06-02T09:04:35Z</time>
      </trkpt>
      <trkpt lat="43.59612" lon="0.22776">
        <ele>182.9</ele>
        <time>2018-06-02T09:04:38Z</time>
      </trkpt>
      <trkpt lat="43.59611" lon="0.22778">
        <ele>182.8</ele>
        <time>2018-06-02T09:04:40Z</time>
      </trkpt>
      <trkpt lat="43.5961" lon="0.22782">
        <ele>182.7</ele>
        <time>2018-06-02T09:04:43Z</time>
      </trkpt>
      <trkpt lat="43.59609" lon="0.22785">
        <ele>182.5</ele>
        <time>2018-06-02T09:04:45Z</time>
      </trkpt>
      <trkpt lat="43.59608" lon="0.22788">
        <ele>182.4</ele>
        <time>2018-06-02T09:04:48Z</time>
      </trkpt>
      <trkpt lat="43.59607" lon="0.22791">
        <ele>182.2</ele>
        <time>2018-06-02T09:04:51Z</time>
      </trkpt>
      <trkpt lat="43.59607" lon="0.22793">
        <ele>182.1</ele>
        <time>2018-06-02T09:04:53Z</time>
      </trkpt>
      <trkpt lat="43.59606" lon="0.22796">
        <ele>181.9</ele>
        <time>2018-06-02T09:04:56Z</time>
      </trkpt>
      <trkpt lat="43.59606" lon="0.22797">
        <ele>181.8</ele>
        <time>2018-06-02T09:04:58Z</time>
      </trkpt>
      <trkpt lat="43.59606" lon="0.228">
        <ele>181.7</ele>
        <time>2018-06-02T09:05:01Z</time>
      </trkpt>
      <trkpt lat="43.59605" lon="0.22802">
        <ele>181.6</ele>
        <time>2018-06-02T09:05:03Z</time>
      </trkpt>
      <trkpt lat="43.59605" lon="0.22805">
        <ele>181.4</ele>
        <time>2018-06-02T09:05:06Z</time>
      </trkpt>
      <trkpt lat="43.59604" lon="0.22807">
        <ele>181.3</ele>
        <time>2018-06-02T09:05:08Z</time>
      </trkpt>
      <trkpt lat="43.59603" lon="0.2281">
        <ele>181.1</ele>
        <time>2018-06-02T09:05:11Z</time>
      </trkpt>
      <trkpt lat="43.59603" lon="0.22813">
        <ele>180.9</ele>
        <time>2018-06-02T09:05:14Z</time>
      </trkpt>
      <trkpt lat="43.59602" lon="0.22815">
        <ele>180.8</ele>
        <time>2018-06-02T09:05:16Z</time>
      </trkpt>
      <trkpt lat="43.59601" lon="0.22818">
        <ele>180.6</ele>
        <time>2018-06-02T09:05:19Z</time>
      </trkpt>
      <trkpt lat="43.596" lon="0.2282">
        <ele>180.5</ele>
        <time>2018-06-02T09:05:21Z</time>
      </trkpt>
      <trkpt lat="43.59599" lon="0.22824">
        <ele>180.3</ele>
        <time>2018-06-02T09:05:24Z</time>
      </trkpt>
      <trkpt lat="43.59599" lon="0.22825">
        <ele>180.2</ele>
        <time>2018-06-02T09:05:25Z</time>
      </trkpt>
      <trkpt lat="43.59599" lon="0.22826">
        <ele>180.2</ele>
        <time>2018-06-02T09:05:26Z</time>
      </trkpt>
      <trkpt lat="43.59598" lon="0.22829">
        <ele>180</ele>
        <time>2018-06-02T09:05:29Z</time>
      </trkpt>
      <trkpt lat="43.59598" lon="0.22832">
        <ele>179.9</ele>
        <time>2018-06-02T09:05:31Z</time>
      </trkpt>
      <trkpt lat="43.59597" lon="0.22835">
        <ele>179.7</ele>
        <time>2018-06-02T09:05:34Z</time>
      </trkpt>
      <trkpt lat="43.59596" lon="0.22839">
        <ele>179.5</ele>
        <time>2018-06-02T09:05:37Z</time>
      </trkpt>
      <trkpt lat="43.59595" lon="0.22841">
        <ele>179.4</ele>
        <time>2018-06-02T09:05:39Z</time>
      </trkpt>
      <trkpt lat="43.59595" lon="0.22844">
        <ele>179.2</ele>
        <time>2018-06-02T09:05:41Z</time>
      </trkpt>
      <trkpt lat="43.59594" lon="0.22845">
        <ele>179.2</ele>
        <time>2018-06-02T09:05:42Z</time>
      </trkpt>
      <trkpt lat="43.59594" lon="0.22847">
        <ele>179</ele>
        <time>2018-06-02T09:05:44Z</time>
      </trkpt>
      <trkpt lat="43.59593" lon="0.22851">
        <ele>178.9</ele>
        <time>2018-06-02T09:05:47Z</time>
      </trkpt>
      <trkpt lat="43.59592" lon="0.22854">
        <ele>178.7</ele>
        <time>2018-06-02T09:05:49Z</time>
      </trkpt>
      <trkpt lat="43.59591" lon="0.22858">
        <ele>178.5</ele>
        <time>2018-06-02T09:05:52Z</time>
      </trkpt>
      <trkpt lat="43.59597" lon="0.22862">
        <ele>178.9</ele>
        <time>2018-06-02T09:05:55Z</time>
      </trkpt>
      <trkpt lat="43.59597" lon="0.22862">
        <ele>178.9</ele>
        <time>2018-06-02T09:10:21Z</time>
      </trkpt>
      <trkpt lat="43.59602" lon="0.22864">
        <ele>179.5</ele>
        <time>2018-06-02T09:10:22Z</time>
      </trkpt>
      <trkpt lat="43.59607" lon="0.22866">
        <ele>179.5</ele>
        <time>2018-06-02T09:10:25Z</time>
      </trkpt>
      <trkpt lat="43.59611" lon="0.22867">
        <ele>179.5</ele>
        <time>2018-06-02T09:10:28Z</time>
      </trkpt>
      <trkpt lat="43.59616" lon="0.22868">
        <ele>179.5</ele>
        <time>2018-06-02T09:10:31Z</time>
      </trkpt>
      <trkpt lat="43.59617" lon="0.22868">
        <ele>179.5</ele>
        <time>2018-06-02T09:10:32Z</time>
      </trkpt>
      <trkpt lat="43.59618" lon="0.22869">
        <ele>179.5</ele>
        <time>2018-06-02T09:10:33Z</time>
      </trkpt>
      <trkpt lat="43.59622" lon="0.22871">
        <ele>179.5</ele>
        <time>2018-06-02T09:10:36Z</time>
      </trkpt>
      <trkpt lat="43.59624" lon="0.22873">
        <ele>179.6</ele>
        <time>2018-06-02T09:10:38Z</time>
      </trkpt>
      <trkpt lat="43.59628" lon="0.22875">
        <ele>179.6</ele>
        <time>2018-06-02T09:10:41Z</time>
      </trkpt>
      <trkpt lat="43.5963" lon="0.22876">
        <ele>179.6</ele>
        <time>2018-06-02T09:10:43Z</time>
      </trkpt>
      <trkpt lat="43.59634" lon="0.22878">
        <ele>179.6</ele>
        <time>2018-06-02T09:10:46Z</time>
      </trkpt>
      <trkpt lat="43.59637" lon="0.22879">
        <ele>179.6</ele>
        <time>2018-06-02T09:10:48Z</time>
      </trkpt>
      <trkpt lat="43.59641" lon="0.2288">
        <ele>179.6</ele>
        <time>2018-06-02T09:10:51Z</time>
      </trkpt>
      <trkpt lat="43.59644" lon="0.22881">
        <ele>179.6</ele>
        <time>2018-06-02T09:10:53Z</time>
      </trkpt>
      <trkpt lat="43.59645" lon="0.22882">
        <ele>179.7</ele>
        <time>2018-06-02T09:10:54Z</time>
      </trkpt>
      <trkpt lat="43.59648" lon="0.22882">
        <ele>179.7</ele>
        <time>2018-06-02T09:10:56Z</time>
      </trkpt>
      <trkpt lat="43.59652" lon="0.22884">
        <ele>179.7</ele>
        <time>2018-06-02T09:10:59Z</time>
      </trkpt>
      <trkpt lat="43.59655" lon="0.22885">
        <ele>179.7</ele>
        <time>2018-06-02T09:11:01Z</time>
      </trkpt>
      <trkpt lat="43.59658" lon="0.22886">
        <ele>179.7</ele>
        <time>2018-06-02T09:11:03Z</time>
      </trkpt>
      <trkpt lat="43.59659" lon="0.22886">
        <ele>179.7</ele>
        <time>2018-06-02T09:11:04Z</time>
      </trkpt>
      <trkpt lat="43.59662" lon="0.22887">
        <ele>179.7</ele>
        <time>2018-06-02T09:11:06Z</time>
      </trkpt>
      <trkpt lat="43.59665" lon="0.22888">
        <ele>179.7</ele>
        <time>2018-06-02T09:11:09Z</time>
      </trkpt>
      <trkpt lat="43.59668" lon="0.22889">
        <ele>179.8</ele>
        <time>2018-06-02T09:11:11Z</time>
      </trkpt>
      <trkpt lat="43.59671" lon="0.2289">
        <ele>179.8</ele>
        <time>2018-06-02T09:11:13Z</time>
      </trkpt>
      <trkpt lat="43.59671" lon="0.22891">
        <ele>179.8</ele>
        <time>2018-06-02T09:11:14Z</time>
      </trkpt>
      <trkpt lat="43.59672" lon="0.22893">
        <ele>179.8</ele>
        <time>2018-06-02T09:11:17Z</time>
      </trkpt>
      <trkpt lat="43.59673" lon="0.22894">
        <ele>179.8</ele>
        <time>2018-06-02T09:11:19Z</time>
      </trkpt>
      <trkpt lat="43.59674" lon="0.22895">
        <ele>179.8</ele>
        <time>2018-06-02T09:11:21Z</time>
      </trkpt>
      <trkpt lat="43.59675" lon="0.22895">
        <ele>179.8</ele>
        <time>2018-06-02T09:11:22Z</time>
      </trkpt>
      <trkpt lat="43.59677" lon="0.22894">
        <ele>179.8</ele>
        <time>2018-06-02T09:11:24Z</time>
      </trkpt>
      <trkpt lat="43.59681" lon="0.22893">
        <ele>179.8</ele>
        <time>2018-06-02T09:11:27Z</time>
      </trkpt>
      <trkpt lat="43.59683" lon="0.22892">
        <ele>179.9</ele>
        <time>2018-06-02T09:11:29Z</time>
      </trkpt>
      <trkpt lat="43.59686" lon="0.2289">
        <ele>179.9</ele>
        <time>2018-06-02T09:11:32Z</time>
      </trkpt>
      <trkpt lat="43.59687" lon="0.2289">
        <ele>179.9</ele>
        <time>2018-06-02T09:11:33Z</time>
      </trkpt>
      <trkpt lat="43.59688" lon="0.22889">
        <ele>179.9</ele>
        <time>2018-06-02T09:11:34Z</time>
      </trkpt>
      <trkpt lat="43.59692" lon="0.22888">
        <ele>179.9</ele>
        <time>2018-06-02T09:11:37Z</time>
      </trkpt>
      <trkpt lat="43.59695" lon="0.22887">
        <ele>179.9</ele>
        <time>2018-06-02T09:11:40Z</time>
      </trkpt>
      <trkpt lat="43.59697" lon="0.22887">
        <ele>179.9</ele>
        <time>2018-06-02T09:11:42Z</time>
      </trkpt>
      <trkpt lat="43.59701" lon="0.22886">
        <ele>180</ele>
        <time>2018-06-02T09:11:45Z</time>
      </trkpt>
      <trkpt lat="43.59703" lon="0.22884">
        <ele>180</ele>
        <time>2018-06-02T09:11:47Z</time>
      </trkpt>
      <trkpt lat="43.59707" lon="0.22882">
        <ele>180</ele>
        <time>2018-06-02T09:11:50Z</time>
      </trkpt>
      <trkpt lat="43.5971" lon="0.22881">
        <ele>180</ele>
        <time>2018-06-02T09:11:52Z</time>
      </trkpt>
      <trkpt lat="43.59714" lon="0.22878">
        <ele>180</ele>
        <time>2018-06-02T09:11:55Z</time>
      </trkpt>
      <trkpt lat="43.59716" lon="0.22877">
        <ele>180</ele>
        <time>2018-06-02T09:11:57Z</time>
      </trkpt>
      <trkpt lat="43.59718" lon="0.22874">
        <ele>180</ele>
        <time>2018-06-02T09:12:00Z</time>
      </trkpt>
      <trkpt lat="43.59721" lon="0.22872">
        <ele>180.1</ele>
        <time>2018-06-02T09:12:03Z</time>
      </trkpt>
      <trkpt lat="43.59723" lon="0.2287">
        <ele>180.1</ele>
        <time>2018-06-02T09:12:05Z</time>
      </trkpt>
      <trkpt lat="43.59726" lon="0.22868">
        <ele>180.1</ele>
        <time>2018-06-02T09:12:08Z</time>
      </trkpt>
      <trkpt lat="43.59728" lon="0.22865">
        <ele>180.1</ele>
        <time>2018-06-02T09:12:10Z</time>
      </trkpt>
      <trkpt lat="43.59732" lon="0.22862">
        <ele>180.1</ele>
        <time>2018-06-02T09:12:13Z</time>
      </trkpt>
      <trkpt lat="43.59734" lon="0.22859">
        <ele>180.1</ele>
        <time>2018-06-02T09:12:15Z</time>
      </trkpt>
      <trkpt lat="43.59737" lon="0.22856">
        <ele>180.1</ele>
        <time>2018-06-02T09:12:18Z</time>
      </trkpt>
      <trkpt lat="43.59738" lon="0.22853">
        <ele>180.2</ele>
        <time>2018-06-02T09:12:20Z</time>
      </trkpt>
      <trkpt lat="43.5974" lon="0.2285">
        <ele>180.2</ele>
        <time>2018-06-02T09:12:23Z</time>
      </trkpt>
      <trkpt lat="43.59743" lon="0.22847">
        <ele>180.2</ele>
        <time>2018-06-02T09:12:26Z</time>
      </trkpt>
      <trkpt lat="43.59744" lon="0.22845">
        <ele>180.2</ele>
        <time>2018-06-02T09:12:28Z</time>
      </trkpt>
      <trkpt lat="43.59746" lon="0.22841">
        <ele>180.2</ele>
        <time>2018-06-02T09:12:31Z</time>
      </trkpt>
      <trkpt lat="43.59747" lon="0.22839">
        <ele>180.2</ele>
        <time>2018-06-02T09:12:33Z</time>
      </trkpt>
      <trkpt lat="43.59749" lon="0.22835">
        <ele>180.3</ele>
        <time>2018-06-02T09:12:36Z</time>
      </trkpt>
      <trkpt lat="43.5975" lon="0.22833">
        <ele>180.3</ele>
        <time>2018-06-02T09:12:38Z</time>
      </trkpt>
      <trkpt lat="43.59751" lon="0.22829">
        <ele>180.3</ele>
        <time>2018-06-02T09:12:41Z</time>
      </trkpt>
      <trkpt lat="43.59752" lon="0.22827">
        <ele>180.3</ele>
        <time>2018-06-02T09:12:43Z</time>
      </trkpt>
      <trkpt lat="43.59753" lon="0.22825">
        <ele>180.3</ele>
        <time>2018-06-02T09:12:45Z</time>
      </trkpt>
      <trkpt lat="43.59754" lon="0.22823">
        <ele>180.3</ele>
        <time>2018-06-02T09:12:46Z</time>
      </trkpt>
      <trkpt lat="43.59757" lon="0.22819">
        <ele>180.3</ele>
        <time>2018-06-02T09:12:49Z</time>
      </trkpt>
      <trkpt lat="43.59759" lon="0.22816">
        <ele>180.3</ele>
        <time>2018-06-02T09:12:51Z</time>
      </trkpt>
      <trkpt lat="43.59762" lon="0.22812">
        <ele>180.4</ele>
        <time>2018-06-02T09:12:54Z</time>
      </trkpt>
      <trkpt lat="43.59762" lon="0.22811">
        <ele>180.4</ele>
        <time>2018-06-02T09:12:55Z</time>
      </trkpt>
      <trkpt lat="43.59763" lon="0.22809">
        <ele>180.4</ele>
        <time>2018-06-02T09:12:56Z</time>
      </trkpt>
      <trkpt lat="43.59765" lon="0.22805">
        <ele>180.4</ele>
        <time>2018-06-02T09:12:59Z</time>
      </trkpt>
      <trkpt lat="43.59766" lon="0.22802">
        <ele>180.4</ele>
        <time>2018-06-02T09:13:01Z</time>
      </trkpt>
      <trkpt lat="43.59767" lon="0.22797">
        <ele>180.4</ele>
        <time>2018-06-02T09:13:04Z</time>
      </trkpt>
      <trkpt lat="43.59768" lon="0.22795">
        <ele>180.4</ele>
        <time>2018-06-02T09:13:06Z</time>
      </trkpt>
      <trkpt lat="43.59769" lon="0.22793">
        <ele>180.4</ele>
        <time>2018-06-02T09:13:07Z</time>
      </trkpt>
      <trkpt lat="43.59769" lon="0.2279">
        <ele>180.4</ele>
        <time>2018-06-02T09:13:09Z</time>
      </trkpt>
      <trkpt lat="43.5977" lon="0.22786">
        <ele>180.5</ele>
        <time>2018-06-02T09:13:12Z</time>
      </trkpt>
      <trkpt lat="43.5977" lon="0.22783">
        <ele>180.5</ele>
        <time>2018-06-02T09:13:14Z</time>
      </trkpt>
      <trkpt lat="43.59771" lon="0.22779">
        <ele>180.5</ele>
        <time>2018-06-02T09:13:17Z</time>
      </trkpt>
      <trkpt lat="43.59772" lon="0.22776">
        <ele>180.5</ele>
        <time>2018-06-02T09:13:19Z</time>
      </trkpt>
      <trkpt lat="43.59772" lon="0.22774">
        <ele>180.5</ele>
        <time>2018-06-02T09:13:20Z</time>
      </trkpt>
      <trkpt lat="43.59773" lon="0.22771">
        <ele>180.5</ele>
        <time>2018-06-02T09:13:22Z</time>
      </trkpt>
      <trkpt lat="43.59774" lon="0.22768">
        <ele>180.5</ele>
        <time>2018-06-02T09:13:24Z</time>
      </trkpt>
      <trkpt lat="43.59775" lon="0.22764">
        <ele>180.6</ele>
        <time>2018-06-02T09:13:27Z</time>
      </trkpt>
      <trkpt lat="43.59776" lon="0.22761">
        <ele>180.6</ele>
        <time>2018-06-02T09:13:29Z</time>
      </trkpt>
      <trkpt lat="43.59778" lon="0.22756">
        <ele>180.6</ele>
        <time>2018-06-02T09:13:32Z</time>
      </trkpt>
      <trkpt lat="43.5978" lon="0.22752">
        <ele>180.6</ele>
        <time>2018-06-02T09:13:35Z</time>
      </trkpt>
      <trkpt lat="43.59782" lon="0.22749">
        <ele>180.6</ele>
        <time>2018-06-02T09:13:37Z</time>
      </trkpt>
      <trkpt lat="43.59784" lon="0.22745">
        <ele>180.6</ele>
        <time>2018-06-02T09:13:40Z</time>
      </trkpt>
      <trkpt lat="43.59785" lon="0.22742">
        <ele>180.6</ele>
        <time>2018-06-02T09:13:42Z</time>
      </trkpt>
      <trkpt lat="43.59786" lon="0.2274">
        <ele>180.6</ele>
        <time>2018-06-02T09:13:43Z</time>
      </trkpt>
      <trkpt lat="43.59786" lon="0.22737">
        <ele>180.7</ele>
        <time>2018-06-02T09:13:45Z</time>
      </trkpt>
      <trkpt lat="43.59787" lon="0.22734">
        <ele>180.7</ele>
        <time>2018-06-02T09:13:47Z</time>
      </trkpt>
      <trkpt lat="43.59789" lon="0.2273">
        <ele>180.7</ele>
        <time>2018-06-02T09:13:50Z</time>
      </trkpt>
      <trkpt lat="43.59789" lon="0.22727">
        <ele>180.7</ele>
        <time>2018-06-02T09:13:52Z</time>
      </trkpt>
      <trkpt lat="43.59791" lon="0.22722">
        <ele>180.7</ele>
        <time>2018-06-02T09:13:55Z</time>
      </trkpt>
      <trkpt lat="43.59792" lon="0.22717">
        <ele>180.7</ele>
        <time>2018-06-02T09:13:58Z</time>
      </trkpt>
      <trkpt lat="43.59794" lon="0.22714">
        <ele>180.7</ele>
        <time>2018-06-02T09:14:00Z</time>
      </trkpt>
      <trkpt lat="43.59795" lon="0.22709">
        <ele>180.8</ele>
        <time>2018-06-02T09:14:03Z</time>
      </trkpt>
      <trkpt lat="43.59797" lon="0.22706">
        <ele>180.8</ele>
        <time>2018-06-02T09:14:05Z</time>
      </trkpt>
      <trkpt lat="43.59797" lon="0.22704">
        <ele>180.8</ele>
        <time>2018-06-02T09:14:06Z</time>
      </trkpt>
      <trkpt lat="43.59798" lon="0.22702">
        <ele>180.8</ele>
        <time>2018-06-02T09:14:08Z</time>
      </trkpt>
      <trkpt lat="43.59799" lon="0.227">
        <ele>180.8</ele>
        <time>2018-06-02T09:14:10Z</time>
      </trkpt>
      <trkpt lat="43.59801" lon="0.22696">
        <ele>180.8</ele>
        <time>2018-06-02T09:14:13Z</time>
      </trkpt>
      <trkpt lat="43.59802" lon="0.22692">
        <ele>180.8</ele>
        <time>2018-06-02T09:14:16Z</time>
      </trkpt>
      <trkpt lat="43.59803" lon="0.2269">
        <ele>180.9</ele>
        <time>2018-06-02T09:14:18Z</time>
      </trkpt>
      <trkpt lat="43.59804" lon="0.22687">
        <ele>180.9</ele>
        <time>2018-06-02T09:14:20Z</time>
      </trkpt>
      <trkpt lat="43.59804" lon="0.22686">
        <ele>180.9</ele>
        <time>2018-06-02T09:14:21Z</time>
      </trkpt>
      <trkpt lat="43.59805" lon="0.22682">
        <ele>180.9</ele>
        <time>2018-06-02T09:14:23Z</time>
      </trkpt>
      <trkpt lat="43.59806" lon="0.22677">
        <ele>180.9</ele>
        <time>2018-06-02T09:14:26Z</time>
      </trkpt>
      <trkpt lat="43.59807" lon="0.22674">
        <ele>180.9</ele>
        <time>2018-06-02T09:14:28Z</time>
      </trkpt>
      <trkpt lat="43.59808" lon="0.22669">
        <ele>180.9</ele>
        <time>2018-06-02T09:14:31Z</time>
      </trkpt>
      <trkpt lat="43.59809" lon="0.22665">
        <ele>180.9</ele>
        <time>2018-06-02T09:14:33Z</time>
      </trkpt>
      <trkpt lat="43.5981" lon="0.22664">
        <ele>180.9</ele>
        <time>2018-06-02T09:14:34Z</time>
      </trkpt>
      <trkpt lat="43.5981" lon="0.2266">
        <ele>180.8</ele>
        <time>2018-06-02T09:14:36Z</time>
      </trkpt>
      <trkpt lat="43.59812" lon="0.22655">
        <ele>180.7</ele>
        <time>2018-06-02T09:14:39Z</time>
      </trkpt>
      <trkpt lat="43.59813" lon="0.22651">
        <ele>180.6</ele>
        <time>2018-06-02T09:14:41Z</time>
      </trkpt>
      <trkpt lat="43.59814" lon="0.22646">
        <ele>180.5</ele>
        <time>2018-06-02T09:14:44Z</time>
      </trkpt>
      <trkpt lat="43.59815" lon="0.22643">
        <ele>180.4</ele>
        <time>2018-06-02T09:14:46Z</time>
      </trkpt>
      <trkpt lat="43.59817" lon="0.22638">
        <ele>180.3</ele>
        <time>2018-06-02T09:14:49Z</time>
      </trkpt>
      <trkpt lat="43.59818" lon="0.22635">
        <ele>180.2</ele>
        <time>2018-06-02T09:14:51Z</time>
      </trkpt>
      <trkpt lat="43.59819" lon="0.22633">
        <ele>180.2</ele>
        <time>2018-06-02T09:14:52Z</time>
      </trkpt>
      <trkpt lat="43.5982" lon="0.2263">
        <ele>180.1</ele>
        <time>2018-06-02T09:14:54Z</time>
      </trkpt>
      <trkpt lat="43.59821" lon="0.22627">
        <ele>180</ele>
        <time>2018-06-02T09:14:56Z</time>
      </trkpt>
      <trkpt lat="43.59822" lon="0.22621">
        <ele>179.9</ele>
        <time>2018-06-02T09:14:59Z</time>
      </trkpt>
      <trkpt lat="43.59824" lon="0.22616">
        <ele>179.7</ele>
        <time>2018-06-02T09:15:02Z</time>
      </trkpt>
      <trkpt lat="43.59824" lon="0.22615">
        <ele>179.7</ele>
        <time>2018-06-02T09:15:03Z</time>
      </trkpt>
      <trkpt lat="43.59825" lon="0.22613">
        <ele>179.7</ele>
        <time>2018-06-02T09:15:04Z</time>
      </trkpt>
      <trkpt lat="43.59826" lon="0.22608">
        <ele>179.5</ele>
        <time>2018-06-02T09:15:07Z</time>
      </trkpt>
      <trkpt lat="43.59827" lon="0.22604">
        <ele>179.5</ele>
        <time>2018-06-02T09:15:09Z</time>
      </trkpt>
      <trkpt lat="43.59828" lon="0.22599">
        <ele>179.3</ele>
        <time>2018-06-02T09:15:12Z</time>
      </trkpt>
      <trkpt lat="43.59829" lon="0.22595">
        <ele>179.2</ele>
        <time>2018-06-02T09:15:14Z</time>
      </trkpt>
      <trkpt lat="43.59831" lon="0.2259">
        <ele>179.1</ele>
        <time>2018-06-02T09:15:17Z</time>
      </trkpt>
      <trkpt lat="43.59832" lon="0.22586">
        <ele>179</ele>
        <time>2018-06-02T09:15:19Z</time>
      </trkpt>
      <trkpt lat="43.59833" lon="0.22581">
        <ele>178.9</ele>
        <time>2018-06-02T09:15:22Z</time>
      </trkpt>
      <trkpt lat="43.59835" lon="0.22577">
        <ele>178.8</ele>
        <time>2018-06-02T09:15:24Z</time>
      </trkpt>
      <trkpt lat="43.59835" lon="0.22576">
        <ele>178.8</ele>
        <time>2018-06-02T09:15:25Z</time>
      </trkpt>
      <trkpt lat="43.59836" lon="0.22573">
        <ele>178.7</ele>
        <time>2018-06-02T09:15:27Z</time>
      </trkpt>
      <trkpt lat="43.59837" lon="0.22569">
        <ele>178.6</ele>
        <time>2018-06-02T09:15:30Z</time>
      </trkpt>
      <trkpt lat="43.59838" lon="0.22566">
        <ele>178.5</ele>
        <time>2018-06-02T09:15:32Z</time>
      </trkpt>
      <trkpt lat="43.59839" lon="0.22562">
        <ele>178.4</ele>
        <time>2018-06-02T09:15:35Z</time>
      </trkpt>
      <trkpt lat="43.5984" lon="0.22559">
        <ele>178.3</ele>
        <time>2018-06-02T09:15:37Z</time>
      </trkpt>
      <trkpt lat="43.59842" lon="0.22556">
        <ele>178.1</ele>
        <time>2018-06-02T09:15:40Z</time>
      </trkpt>
      <trkpt lat="43.59843" lon="0.22555">
        <ele>178.1</ele>
        <time>2018-06-02T09:15:42Z</time>
      </trkpt>
      <trkpt lat="43.59845" lon="0.22552">
        <ele>177.9</ele>
        <time>2018-06-02T09:15:45Z</time>
      </trkpt>
      <trkpt lat="43.59846" lon="0.2255">
        <ele>177.8</ele>
        <time>2018-06-02T09:15:48Z</time>
      </trkpt>
      <trkpt lat="43.59847" lon="0.22548">
        <ele>177.7</ele>
        <time>2018-06-02T09:15:50Z</time>
      </trkpt>
      <trkpt lat="43.59849" lon="0.22546">
        <ele>177.6</ele>
        <time>2018-06-02T09:15:52Z</time>
      </trkpt>
      <trkpt lat="43.59849" lon="0.22546">
        <ele>177.5</ele>
        <time>2018-06-02T09:15:53Z</time>
      </trkpt>
      <trkpt lat="43.5985" lon="0.22545">
        <ele>177.3</ele>
        <time>2018-06-02T09:15:54Z</time>
      </trkpt>
      <trkpt lat="43.59851" lon="0.22545">
        <ele>177.2</ele>
        <time>2018-06-02T09:15:55Z</time>
      </trkpt>
      <trkpt lat="43.59854" lon="0.22546">
        <ele>176.8</ele>
        <time>2018-06-02T09:15:58Z</time>
      </trkpt>
      <trkpt lat="43.59856" lon="0.22546">
        <ele>176.5</ele>
        <time>2018-06-02T09:16:00Z</time>
      </trkpt>
      <trkpt lat="43.59859" lon="0.22546">
        <ele>176.2</ele>
        <time>2018-06-02T09:16:03Z</time>
      </trkpt>
      <trkpt lat="43.59862" lon="0.22547">
        <ele>175.9</ele>
        <time>2018-06-02T09:16:05Z</time>
      </trkpt>
      <trkpt lat="43.59864" lon="0.22547">
        <ele>175.6</ele>
        <time>2018-06-02T09:16:07Z</time>
      </trkpt>
      <trkpt lat="43.59865" lon="0.22548">
        <ele>175.5</ele>
        <time>2018-06-02T09:16:08Z</time>
      </trkpt>
      <trkpt lat="43.5987" lon="0.22549">
        <ele>175.1</ele>
        <time>2018-06-02T09:16:11Z</time>
      </trkpt>
      <trkpt lat="43.59873" lon="0.2255">
        <ele>174.8</ele>
        <time>2018-06-02T09:16:13Z</time>
      </trkpt>
      <trkpt lat="43.59877" lon="0.22552">
        <ele>174.5</ele>
        <time>2018-06-02T09:16:16Z</time>
      </trkpt>
      <trkpt lat="43.59879" lon="0.22552">
        <ele>174.5</ele>
        <time>2018-06-02T09:16:17Z</time>
      </trkpt>
      <trkpt lat="43.59879" lon="0.22552">
        <ele>174.5</ele>
        <time>2018-06-02T09:16:18Z</time>
      </trkpt>
      <trkpt lat="43.59881" lon="0.22553">
        <ele>174.6</ele>
        <time>2018-06-02T09:16:21Z</time>
      </trkpt>
      <trkpt lat="43.59882" lon="0.22554">
        <ele>174.6</ele>
        <time>2018-06-02T09:16:23Z</time>
      </trkpt>
      <trkpt lat="43.59884" lon="0.22554">
        <ele>174.6</ele>
        <time>2018-06-02T09:16:26Z</time>
      </trkpt>
      <trkpt lat="43.59886" lon="0.22555">
        <ele>174.7</ele>
        <time>2018-06-02T09:16:28Z</time>
      </trkpt>
      <trkpt lat="43.59888" lon="0.22556">
        <ele>174.7</ele>
        <time>2018-06-02T09:16:31Z</time>
      </trkpt>
      <trkpt lat="43.5989" lon="0.22556">
        <ele>174.8</ele>
        <time>2018-06-02T09:16:34Z</time>
      </trkpt>
      <trkpt lat="43.59891" lon="0.22557">
        <ele>174.8</ele>
        <time>2018-06-02T09:16:36Z</time>
      </trkpt>
      <trkpt lat="43.59892" lon="0.22558">
        <ele>174.8</ele>
        <time>2018-06-02T09:16:38Z</time>
      </trkpt>
      <trkpt lat="43.59893" lon="0.2256">
        <ele>174.8</ele>
        <time>2018-06-02T09:16:39Z</time>
      </trkpt>
      <trkpt lat="43.59894" lon="0.22563">
        <ele>174.9</ele>
        <time>2018-06-02T09:16:41Z</time>
      </trkpt>
      <trkpt lat="43.59896" lon="0.22568">
        <ele>174.9</ele>
        <time>2018-06-02T09:16:44Z</time>
      </trkpt>
      <trkpt lat="43.59898" lon="0.22573">
        <ele>175</ele>
        <time>2018-06-02T09:16:47Z</time>
      </trkpt>
      <trkpt lat="43.59899" lon="0.22575">
        <ele>175</ele>
        <time>2018-06-02T09:16:48Z</time>
      </trkpt>
      <trkpt lat="43.59899" lon="0.22576">
        <ele>175</ele>
        <time>2018-06-02T09:16:49Z</time>
      </trkpt>
      <trkpt lat="43.599" lon="0.22578">
        <ele>175</ele>
        <time>2018-06-02T09:16:51Z</time>
      </trkpt>
      <trkpt lat="43.59901" lon="0.22581">
        <ele>175.1</ele>
        <time>2018-06-02T09:16:54Z</time>
      </trkpt>
      <trkpt lat="43.59902" lon="0.22584">
        <ele>175.1</ele>
        <time>2018-06-02T09:16:57Z</time>
      </trkpt>
      <trkpt lat="43.59903" lon="0.22586">
        <ele>175.2</ele>
        <time>2018-06-02T09:16:59Z</time>
      </trkpt>
      <trkpt lat="43.59904" lon="0.22589">
        <ele>175.2</ele>
        <time>2018-06-02T09:17:02Z</time>
      </trkpt>
      <trkpt lat="43.59905" lon="0.22591">
        <ele>175.2</ele>
        <time>2018-06-02T09:17:04Z</time>
      </trkpt>
      <trkpt lat="43.59905" lon="0.22592">
        <ele>175.3</ele>
        <time>2018-06-02T09:17:05Z</time>
      </trkpt>
      <trkpt lat="43.59906" lon="0.22596">
        <ele>175.3</ele>
        <time>2018-06-02T09:17:07Z</time>
      </trkpt>
      <trkpt lat="43.59907" lon="0.22599">
        <ele>175.3</ele>
        <time>2018-06-02T09:17:09Z</time>
      </trkpt>
      <trkpt lat="43.59909" lon="0.22605">
        <ele>175.4</ele>
        <time>2018-06-02T09:17:12Z</time>
      </trkpt>
      <trkpt lat="43.5991" lon="0.22608">
        <ele>175.4</ele>
        <time>2018-06-02T09:17:14Z</time>
      </trkpt>
      <trkpt lat="43.5991" lon="0.2261">
        <ele>175.4</ele>
        <time>2018-06-02T09:17:15Z</time>
      </trkpt>
      <trkpt lat="43.59911" lon="0.22613">
        <ele>175.4</ele>
        <time>2018-06-02T09:17:17Z</time>
      </trkpt>
      <trkpt lat="43.59913" lon="0.22618">
        <ele>175.5</ele>
        <time>2018-06-02T09:17:20Z</time>
      </trkpt>
      <trkpt lat="43.59914" lon="0.22622">
        <ele>175.5</ele>
        <time>2018-06-02T09:17:22Z</time>
      </trkpt>
      <trkpt lat="43.59916" lon="0.22627">
        <ele>175.6</ele>
        <time>2018-06-02T09:17:25Z</time>
      </trkpt>
      <trkpt lat="43.59916" lon="0.22628">
        <ele>175.6</ele>
        <time>2018-06-02T09:17:26Z</time>
      </trkpt>
      <trkpt lat="43.59916" lon="0.2263">
        <ele>175.6</ele>
        <time>2018-06-02T09:17:27Z</time>
      </trkpt>
      <trkpt lat="43.59917" lon="0.22635">
        <ele>175.6</ele>
        <time>2018-06-02T09:17:30Z</time>
      </trkpt>
      <trkpt lat="43.59918" lon="0.22639">
        <ele>175.7</ele>
        <time>2018-06-02T09:17:32Z</time>
      </trkpt>
      <trkpt lat="43.59918" lon="0.22644">
        <ele>175.7</ele>
        <time>2018-06-02T09:17:35Z</time>
      </trkpt>
      <trkpt lat="43.59919" lon="0.22647">
        <ele>175.8</ele>
        <time>2018-06-02T09:17:37Z</time>
      </trkpt>
      <trkpt lat="43.59919" lon="0.22651">
        <ele>175.8</ele>
        <time>2018-06-02T09:17:40Z</time>
      </trkpt>
      <trkpt lat="43.5992" lon="0.22655">
        <ele>175.9</ele>
        <time>2018-06-02T09:17:43Z</time>
      </trkpt>
      <trkpt lat="43.5992" lon="0.22658">
        <ele>175.9</ele>
        <time>2018-06-02T09:17:45Z</time>
      </trkpt>
      <trkpt lat="43.59921" lon="0.22662">
        <ele>175.9</ele>
        <time>2018-06-02T09:17:48Z</time>
      </trkpt>
      <trkpt lat="43.59921" lon="0.22664">
        <ele>176</ele>
        <time>2018-06-02T09:17:50Z</time>
      </trkpt>
      <trkpt lat="43.59922" lon="0.22667">
        <ele>176</ele>
        <time>2018-06-02T09:17:52Z</time>
      </trkpt>
      <trkpt lat="43.59922" lon="0.22669">
        <ele>176</ele>
        <time>2018-06-02T09:17:53Z</time>
      </trkpt>
      <trkpt lat="43.59923" lon="0.22672">
        <ele>176</ele>
        <time>2018-06-02T09:17:55Z</time>
      </trkpt>
      <trkpt lat="43.59924" lon="0.22676">
        <ele>176.1</ele>
        <time>2018-06-02T09:17:58Z</time>
      </trkpt>
      <trkpt lat="43.59924" lon="0.22679">
        <ele>176.1</ele>
        <time>2018-06-02T09:18:00Z</time>
      </trkpt>
      <trkpt lat="43.59925" lon="0.22684">
        <ele>176.2</ele>
        <time>2018-06-02T09:18:03Z</time>
      </trkpt>
      <trkpt lat="43.59926" lon="0.22685">
        <ele>176.2</ele>
        <time>2018-06-02T09:18:04Z</time>
      </trkpt>
      <trkpt lat="43.59926" lon="0.22688">
        <ele>176.2</ele>
        <time>2018-06-02T09:18:06Z</time>
      </trkpt>
      <trkpt lat="43.59926" lon="0.22691">
        <ele>176.3</ele>
        <time>2018-06-02T09:18:08Z</time>
      </trkpt>
      <trkpt lat="43.59927" lon="0.22696">
        <ele>176.3</ele>
        <time>2018-06-02T09:18:11Z</time>
      </trkpt>
      <trkpt lat="43.59928" lon="0.22699">
        <ele>176.3</ele>
        <time>2018-06-02T09:18:13Z</time>
      </trkpt>
      <trkpt lat="43.59928" lon="0.22704">
        <ele>176.4</ele>
        <time>2018-06-02T09:18:16Z</time>
      </trkpt>
      <trkpt lat="43.59929" lon="0.22707">
        <ele>176.4</ele>
        <time>2018-06-02T09:18:18Z</time>
      </trkpt>
      <trkpt lat="43.59931" lon="0.22712">
        <ele>176.5</ele>
        <time>2018-06-02T09:18:21Z</time>
      </trkpt>
      <trkpt lat="43.59932" lon="0.22715">
        <ele>176.5</ele>
        <time>2018-06-02T09:18:23Z</time>
      </trkpt>
      <trkpt lat="43.59934" lon="0.2272">
        <ele>176.5</ele>
        <time>2018-06-02T09:18:26Z</time>
      </trkpt>
      <trkpt lat="43.59934" lon="0.22722">
        <ele>176.6</ele>
        <time>2018-06-02T09:18:27Z</time>
      </trkpt>
      <trkpt lat="43.59935" lon="0.22725">
        <ele>176.6</ele>
        <time>2018-06-02T09:18:29Z</time>
      </trkpt>
      <trkpt lat="43.59936" lon="0.22728">
        <ele>176.6</ele>
        <time>2018-06-02T09:18:31Z</time>
      </trkpt>
      <trkpt lat="43.59937" lon="0.22732">
        <ele>176.7</ele>
        <time>2018-06-02T09:18:34Z</time>
      </trkpt>
      <trkpt lat="43.59938" lon="0.22735">
        <ele>176.7</ele>
        <time>2018-06-02T09:18:36Z</time>
      </trkpt>
      <trkpt lat="43.5994" lon="0.22739">
        <ele>176.7</ele>
        <time>2018-06-02T09:18:39Z</time>
      </trkpt>
      <trkpt lat="43.59941" lon="0.22742">
        <ele>176.8</ele>
        <time>2018-06-02T09:18:41Z</time>
      </trkpt>
      <trkpt lat="43.59942" lon="0.22747">
        <ele>176.8</ele>
        <time>2018-06-02T09:18:44Z</time>
      </trkpt>
      <trkpt lat="43.59944" lon="0.22751">
        <ele>176.9</ele>
        <time>2018-06-02T09:18:47Z</time>
      </trkpt>
      <trkpt lat="43.59945" lon="0.22754">
        <ele>176.9</ele>
        <time>2018-06-02T09:18:49Z</time>
      </trkpt>
      <trkpt lat="43.59946" lon="0.22757">
        <ele>176.9</ele>
        <time>2018-06-02T09:18:51Z</time>
      </trkpt>
      <trkpt lat="43.59947" lon="0.22758">
        <ele>176.9</ele>
        <time>2018-06-02T09:18:52Z</time>
      </trkpt>
      <trkpt lat="43.59948" lon="0.22761">
        <ele>177</ele>
        <time>2018-06-02T09:18:54Z</time>
      </trkpt>
      <trkpt lat="43.5995" lon="0.22766">
        <ele>177</ele>
        <time>2018-06-02T09:18:57Z</time>
      </trkpt>
      <trkpt lat="43.59951" lon="0.22769">
        <ele>177.1</ele>
        <time>2018-06-02T09:18:59Z</time>
      </trkpt>
      <trkpt lat="43.59953" lon="0.22773">
        <ele>177.1</ele>
        <time>2018-06-02T09:19:02Z</time>
      </trkpt>
      <trkpt lat="43.59953" lon="0.22774">
        <ele>177.1</ele>
        <time>2018-06-02T09:19:03Z</time>
      </trkpt>
      <trkpt lat="43.59954" lon="0.22776">
        <ele>177.1</ele>
        <time>2018-06-02T09:19:04Z</time>
      </trkpt>
      <trkpt lat="43.59956" lon="0.2278">
        <ele>177.2</ele>
        <time>2018-06-02T09:19:07Z</time>
      </trkpt>
      <trkpt lat="43.59958" lon="0.22785">
        <ele>177.2</ele>
        <time>2018-06-02T09:19:10Z</time>
      </trkpt>
      <trkpt lat="43.59959" lon="0.22788">
        <ele>177.3</ele>
        <time>2018-06-02T09:19:12Z</time>
      </trkpt>
      <trkpt lat="43.5996" lon="0.22791">
        <ele>177.3</ele>
        <time>2018-06-02T09:19:14Z</time>
      </trkpt>
      <trkpt lat="43.59961" lon="0.22792">
        <ele>177.3</ele>
        <time>2018-06-02T09:19:15Z</time>
      </trkpt>
      <trkpt lat="43.59962" lon="0.22795">
        <ele>177.3</ele>
        <time>2018-06-02T09:19:17Z</time>
      </trkpt>
      <trkpt lat="43.59964" lon="0.22799">
        <ele>177.4</ele>
        <time>2018-06-02T09:19:20Z</time>
      </trkpt>
      <trkpt lat="43.59966" lon="0.22802">
        <ele>177.4</ele>
        <time>2018-06-02T09:19:22Z</time>
      </trkpt>
      <trkpt lat="43.59968" lon="0.22806">
        <ele>177.5</ele>
        <time>2018-06-02T09:19:25Z</time>
      </trkpt>
      <trkpt lat="43.59969" lon="0.22807">
        <ele>177.5</ele>
        <time>2018-06-02T09:19:26Z</time>
      </trkpt>
      <trkpt lat="43.59969" lon="0.22809">
        <ele>177.5</ele>
        <time>2018-06-02T09:19:27Z</time>
      </trkpt>
      <trkpt lat="43.5997" lon="0.2281">
        <ele>177.5</ele>
        <time>2018-06-02T09:19:28Z</time>
      </trkpt>
      <trkpt lat="43.59972" lon="0.22813">
        <ele>177.6</ele>
        <time>2018-06-02T09:19:30Z</time>
      </trkpt>
      <trkpt lat="43.59974" lon="0.22817">
        <ele>177.6</ele>
        <time>2018-06-02T09:19:33Z</time>
      </trkpt>
      <trkpt lat="43.59976" lon="0.2282">
        <ele>177.7</ele>
        <time>2018-06-02T09:19:35Z</time>
      </trkpt>
      <trkpt lat="43.59978" lon="0.22823">
        <ele>177.8</ele>
        <time>2018-06-02T09:19:37Z</time>
      </trkpt>
      <trkpt lat="43.59979" lon="0.22824">
        <ele>177.8</ele>
        <time>2018-06-02T09:19:38Z</time>
      </trkpt>
      <trkpt lat="43.5998" lon="0.22826">
        <ele>177.8</ele>
        <time>2018-06-02T09:19:40Z</time>
      </trkpt>
      <trkpt lat="43.59983" lon="0.22829">
        <ele>177.9</ele>
        <time>2018-06-02T09:19:43Z</time>
      </trkpt>
      <trkpt lat="43.59984" lon="0.22831">
        <ele>178</ele>
        <time>2018-06-02T09:19:45Z</time>
      </trkpt>
      <trkpt lat="43.59987" lon="0.22834">
        <ele>178</ele>
        <time>2018-06-02T09:19:48Z</time>
      </trkpt>
      <trkpt lat="43.59988" lon="0.22836">
        <ele>178.1</ele>
        <time>2018-06-02T09:19:50Z</time>
      </trkpt>
      <trkpt lat="43.5999" lon="0.22839">
        <ele>178.2</ele>
        <time>2018-06-02T09:19:53Z</time>
      </trkpt>
      <trkpt lat="43.59992" lon="0.22842">
        <ele>178.2</ele>
        <time>2018-06-02T09:19:56Z</time>
      </trkpt>
      <trkpt lat="43.59993" lon="0.22844">
        <ele>178.3</ele>
        <time>2018-06-02T09:19:58Z</time>
      </trkpt>
      <trkpt lat="43.59995" lon="0.22846">
        <ele>178.4</ele>
        <time>2018-06-02T09:20:01Z</time>
      </trkpt>
      <trkpt lat="43.59996" lon="0.22848">
        <ele>178.4</ele>
        <time>2018-06-02T09:20:03Z</time>
      </trkpt>
      <trkpt lat="43.59998" lon="0.2285">
        <ele>178.5</ele>
        <time>2018-06-02T09:20:06Z</time>
      </trkpt>
      <trkpt lat="43.59999" lon="0.22851">
        <ele>178.5</ele>
        <time>2018-06-02T09:20:08Z</time>
      </trkpt>
      <trkpt lat="43.60001" lon="0.22851">
        <ele>178.6</ele>
        <time>2018-06-02T09:20:11Z</time>
      </trkpt>
      <trkpt lat="43.60002" lon="0.22852">
        <ele>178.7</ele>
        <time>2018-06-02T09:20:13Z</time>
      </trkpt>
      <trkpt lat="43.60004" lon="0.22852">
        <ele>178.7</ele>
        <time>2018-06-02T09:20:16Z</time>
      </trkpt>
      <trkpt lat="43.60005" lon="0.22853">
        <ele>178.8</ele>
        <time>2018-06-02T09:20:19Z</time>
      </trkpt>
      <trkpt lat="43.60006" lon="0.22853">
        <ele>178.9</ele>
        <time>2018-06-02T09:20:21Z</time>
      </trkpt>
      <trkpt lat="43.60008" lon="0.22854">
        <ele>178.9</ele>
        <time>2018-06-02T09:20:24Z</time>
      </trkpt>
      <trkpt lat="43.6001" lon="0.22855">
        <ele>179</ele>
        <time>2018-06-02T09:20:27Z</time>
      </trkpt>
      <trkpt lat="43.60011" lon="0.22855">
        <ele>179.1</ele>
        <time>2018-06-02T09:20:29Z</time>
      </trkpt>
      <trkpt lat="43.60012" lon="0.22855">
        <ele>179.1</ele>
        <time>2018-06-02T09:20:30Z</time>
      </trkpt>
      <trkpt lat="43.60013" lon="0.22855">
        <ele>179.1</ele>
        <time>2018-06-02T09:20:31Z</time>
      </trkpt>
      <trkpt lat="43.60016" lon="0.22854">
        <ele>179.2</ele>
        <time>2018-06-02T09:20:34Z</time>
      </trkpt>
      <trkpt lat="43.60018" lon="0.22853">
        <ele>179.3</ele>
        <time>2018-06-02T09:20:36Z</time>
      </trkpt>
      <trkpt lat="43.60021" lon="0.22853">
        <ele>179.3</ele>
        <time>2018-06-02T09:20:39Z</time>
      </trkpt>
      <trkpt lat="43.60023" lon="0.22852">
        <ele>179.4</ele>
        <time>2018-06-02T09:20:42Z</time>
      </trkpt>
      <trkpt lat="43.60026" lon="0.22851">
        <ele>179.5</ele>
        <time>2018-06-02T09:20:44Z</time>
      </trkpt>
      <trkpt lat="43.60029" lon="0.2285">
        <ele>179.5</ele>
        <time>2018-06-02T09:20:47Z</time>
      </trkpt>
      <trkpt lat="43.60031" lon="0.2285">
        <ele>179.6</ele>
        <time>2018-06-02T09:20:49Z</time>
      </trkpt>
      <trkpt lat="43.60035" lon="0.22849">
        <ele>179.7</ele>
        <time>2018-06-02T09:20:52Z</time>
      </trkpt>
      <trkpt lat="43.60037" lon="0.22848">
        <ele>179.7</ele>
        <time>2018-06-02T09:20:54Z</time>
      </trkpt>
      <trkpt lat="43.60039" lon="0.22848">
        <ele>179.8</ele>
        <time>2018-06-02T09:20:56Z</time>
      </trkpt>
      <trkpt lat="43.6004" lon="0.22849">
        <ele>179.8</ele>
        <time>2018-06-02T09:20:57Z</time>
      </trkpt>
      <trkpt lat="43.60043" lon="0.22849">
        <ele>179.8</ele>
        <time>2018-06-02T09:20:59Z</time>
      </trkpt>
      <trkpt lat="43.60046" lon="0.22851">
        <ele>179.9</ele>
        <time>2018-06-02T09:21:02Z</time>
      </trkpt>
      <trkpt lat="43.6005" lon="0.22852">
        <ele>180</ele>
        <time>2018-06-02T09:21:05Z</time>
      </trkpt>
      <trkpt lat="43.60052" lon="0.22853">
        <ele>180</ele>
        <time>2018-06-02T09:21:07Z</time>
      </trkpt>
      <trkpt lat="43.60055" lon="0.22854">
        <ele>180.1</ele>
        <time>2018-06-02T09:21:10Z</time>
      </trkpt>
      <trkpt lat="43.60057" lon="0.22854">
        <ele>180.2</ele>
        <time>2018-06-02T09:21:12Z</time>
      </trkpt>
      <trkpt lat="43.6006" lon="0.22855">
        <ele>180.2</ele>
        <time>2018-06-02T09:21:15Z</time>
      </trkpt>
      <trkpt lat="43.60063" lon="0.22855">
        <ele>180.3</ele>
        <time>2018-06-02T09:21:17Z</time>
      </trkpt>
      <trkpt lat="43.60066" lon="0.22856">
        <ele>180.4</ele>
        <time>2018-06-02T09:21:20Z</time>
      </trkpt>
      <trkpt lat="43.60067" lon="0.22856">
        <ele>180.4</ele>
        <time>2018-06-02T09:21:21Z</time>
      </trkpt>
      <trkpt lat="43.60068" lon="0.22856">
        <ele>180.4</ele>
        <time>2018-06-02T09:21:22Z</time>
      </trkpt>
      <trkpt lat="43.60071" lon="0.22856">
        <ele>180.5</ele>
        <time>2018-06-02T09:21:25Z</time>
      </trkpt>
      <trkpt lat="43.60074" lon="0.22856">
        <ele>180.6</ele>
        <time>2018-06-02T09:21:28Z</time>
      </trkpt>
      <trkpt lat="43.60076" lon="0.22856">
        <ele>180.6</ele>
        <time>2018-06-02T09:21:30Z</time>
      </trkpt>
      <trkpt lat="43.60079" lon="0.22856">
        <ele>180.7</ele>
        <time>2018-06-02T09:21:33Z</time>
      </trkpt>
      <trkpt lat="43.60081" lon="0.22856">
        <ele>180.7</ele>
        <time>2018-06-02T09:21:35Z</time>
      </trkpt>
      <trkpt lat="43.60084" lon="0.22857">
        <ele>180.8</ele>
        <time>2018-06-02T09:21:38Z</time>
      </trkpt>
      <trkpt lat="43.60087" lon="0.22858">
        <ele>180.9</ele>
        <time>2018-06-02T09:21:40Z</time>
      </trkpt>
      <trkpt lat="43.60089" lon="0.22859">
        <ele>180.9</ele>
        <time>2018-06-02T09:21:42Z</time>
      </trkpt>
      <trkpt lat="43.6009" lon="0.2286">
        <ele>180.9</ele>
        <time>2018-06-02T09:21:43Z</time>
      </trkpt>
      <trkpt lat="43.60092" lon="0.22861">
        <ele>180.9</ele>
        <time>2018-06-02T09:21:45Z</time>
      </trkpt>
      <trkpt lat="43.60095" lon="0.22862">
        <ele>180.8</ele>
        <time>2018-06-02T09:21:47Z</time>
      </trkpt>
      <trkpt lat="43.60096" lon="0.22862">
        <ele>180.8</ele>
        <time>2018-06-02T09:21:48Z</time>
      </trkpt>
      <trkpt lat="43.60099" lon="0.22862">
        <ele>180.7</ele>
        <time>2018-06-02T09:21:51Z</time>
      </trkpt>
      <trkpt lat="43.60101" lon="0.22863">
        <ele>180.7</ele>
        <time>2018-06-02T09:21:53Z</time>
      </trkpt>
      <trkpt lat="43.60105" lon="0.22863">
        <ele>180.6</ele>
        <time>2018-06-02T09:21:56Z</time>
      </trkpt>
      <trkpt lat="43.60107" lon="0.22863">
        <ele>180.6</ele>
        <time>2018-06-02T09:21:58Z</time>
      </trkpt>
      <trkpt lat="43.60109" lon="0.22864">
        <ele>180.6</ele>
        <time>2018-06-02T09:22:00Z</time>
      </trkpt>
      <trkpt lat="43.6011" lon="0.22864">
        <ele>180.5</ele>
        <time>2018-06-02T09:22:01Z</time>
      </trkpt>
      <trkpt lat="43.60113" lon="0.22863">
        <ele>180.5</ele>
        <time>2018-06-02T09:22:03Z</time>
      </trkpt>
      <trkpt lat="43.60116" lon="0.22863">
        <ele>180.4</ele>
        <time>2018-06-02T09:22:06Z</time>
      </trkpt>
      <trkpt lat="43.60119" lon="0.22863">
        <ele>180.4</ele>
        <time>2018-06-02T09:22:08Z</time>
      </trkpt>
      <trkpt lat="43.60123" lon="0.22863">
        <ele>180.3</ele>
        <time>2018-06-02T09:22:11Z</time>
      </trkpt>
      <trkpt lat="43.60124" lon="0.22863">
        <ele>180.3</ele>
        <time>2018-06-02T09:22:12Z</time>
      </trkpt>
      <trkpt lat="43.60126" lon="0.22863">
        <ele>180.3</ele>
        <time>2018-06-02T09:22:14Z</time>
      </trkpt>
      <trkpt lat="43.60129" lon="0.22864">
        <ele>180.2</ele>
        <time>2018-06-02T09:22:16Z</time>
      </trkpt>
      <trkpt lat="43.60133" lon="0.22865">
        <ele>180.2</ele>
        <time>2018-06-02T09:22:19Z</time>
      </trkpt>
      <trkpt lat="43.60135" lon="0.22866">
        <ele>180.1</ele>
        <time>2018-06-02T09:22:21Z</time>
      </trkpt>
      <trkpt lat="43.60138" lon="0.22866">
        <ele>180.1</ele>
        <time>2018-06-02T09:22:23Z</time>
      </trkpt>
      <trkpt lat="43.60139" lon="0.22866">
        <ele>180.1</ele>
        <time>2018-06-02T09:22:24Z</time>
      </trkpt>
      <trkpt lat="43.60141" lon="0.22866">
        <ele>180</ele>
        <time>2018-06-02T09:22:26Z</time>
      </trkpt>
      <trkpt lat="43.60144" lon="0.22866">
        <ele>180</ele>
        <time>2018-06-02T09:22:29Z</time>
      </trkpt>
      <trkpt lat="43.60147" lon="0.22866">
        <ele>179.9</ele>
        <time>2018-06-02T09:22:32Z</time>
      </trkpt>
      <trkpt lat="43.60149" lon="0.22866">
        <ele>179.9</ele>
        <time>2018-06-02T09:22:34Z</time>
      </trkpt>
      <trkpt lat="43.60153" lon="0.22866">
        <ele>179.8</ele>
        <time>2018-06-02T09:22:37Z</time>
      </trkpt>
      <trkpt lat="43.60155" lon="0.22867">
        <ele>179.8</ele>
        <time>2018-06-02T09:22:39Z</time>
      </trkpt>
      <trkpt lat="43.60159" lon="0.22867">
        <ele>179.7</ele>
        <time>2018-06-02T09:22:42Z</time>
      </trkpt>
      <trkpt lat="43.60161" lon="0.22867">
        <ele>179.7</ele>
        <time>2018-06-02T09:22:44Z</time>
      </trkpt>
      <trkpt lat="43.60165" lon="0.22868">
        <ele>179.6</ele>
        <time>2018-06-02T09:22:47Z</time>
      </trkpt>
      <trkpt lat="43.60166" lon="0.22868">
        <ele>179.6</ele>
        <time>2018-06-02T09:22:48Z</time>
      </trkpt>
      <trkpt lat="43.60167" lon="0.22868">
        <ele>179.6</ele>
        <time>2018-06-02T09:22:49Z</time>
      </trkpt>
      <trkpt lat="43.6017" lon="0.22869">
        <ele>179.5</ele>
        <time>2018-06-02T09:22:52Z</time>
      </trkpt>
      <trkpt lat="43.60173" lon="0.2287">
        <ele>179.5</ele>
        <time>2018-06-02T09:22:55Z</time>
      </trkpt>
      <trkpt lat="43.60175" lon="0.2287">
        <ele>179.4</ele>
        <time>2018-06-02T09:22:57Z</time>
      </trkpt>
      <trkpt lat="43.60178" lon="0.22871">
        <ele>179.4</ele>
        <time>2018-06-02T09:23:00Z</time>
      </trkpt>
      <trkpt lat="43.6018" lon="0.22871">
        <ele>179.3</ele>
        <time>2018-06-02T09:23:02Z</time>
      </trkpt>
      <trkpt lat="43.60184" lon="0.22871">
        <ele>179.3</ele>
        <time>2018-06-02T09:23:05Z</time>
      </trkpt>
      <trkpt lat="43.60187" lon="0.2287">
        <ele>179.2</ele>
        <time>2018-06-02T09:23:07Z</time>
      </trkpt>
      <trkpt lat="43.60191" lon="0.2287">
        <ele>179.2</ele>
        <time>2018-06-02T09:23:10Z</time>
      </trkpt>
      <trkpt lat="43.60193" lon="0.22869">
        <ele>179.1</ele>
        <time>2018-06-02T09:23:12Z</time>
      </trkpt>
      <trkpt lat="43.60194" lon="0.22869">
        <ele>179.1</ele>
        <time>2018-06-02T09:23:13Z</time>
      </trkpt>
      <trkpt lat="43.60196" lon="0.22868">
        <ele>179.1</ele>
        <time>2018-06-02T09:23:15Z</time>
      </trkpt>
      <trkpt lat="43.602" lon="0.22866">
        <ele>179</ele>
        <time>2018-06-02T09:23:18Z</time>
      </trkpt>
      <trkpt lat="43.60202" lon="0.22865">
        <ele>179</ele>
        <time>2018-06-02T09:23:20Z</time>
      </trkpt>
      <trkpt lat="43.60205" lon="0.22863">
        <ele>178.9</ele>
        <time>2018-06-02T09:23:23Z</time>
      </trkpt>
      <trkpt lat="43.60207" lon="0.22862">
        <ele>178.9</ele>
        <time>2018-06-02T09:23:25Z</time>
      </trkpt>
      <trkpt lat="43.60208" lon="0.22861">
        <ele>178.9</ele>
        <time>2018-06-02T09:23:26Z</time>
      </trkpt>
      <trkpt lat="43.60209" lon="0.22859">
        <ele>178.8</ele>
        <time>2018-06-02T09:23:28Z</time>
      </trkpt>
      <trkpt lat="43.60211" lon="0.22858">
        <ele>178.8</ele>
        <time>2018-06-02T09:23:30Z</time>
      </trkpt>
      <trkpt lat="43.60214" lon="0.22855">
        <ele>178.7</ele>
        <time>2018-06-02T09:23:33Z</time>
      </trkpt>
      <trkpt lat="43.60216" lon="0.22853">
        <ele>178.7</ele>
        <time>2018-06-02T09:23:35Z</time>
      </trkpt>
      <trkpt lat="43.60219" lon="0.2285">
        <ele>178.6</ele>
        <time>2018-06-02T09:23:38Z</time>
      </trkpt>
      <trkpt lat="43.60221" lon="0.22847">
        <ele>178.6</ele>
        <time>2018-06-02T09:23:41Z</time>
      </trkpt>
      <trkpt lat="43.60222" lon="0.22845">
        <ele>178.5</ele>
        <time>2018-06-02T09:23:43Z</time>
      </trkpt>
      <trkpt lat="43.60224" lon="0.22841">
        <ele>178.5</ele>
        <time>2018-06-02T09:23:46Z</time>
      </trkpt>
      <trkpt lat="43.60226" lon="0.22839">
        <ele>178.4</ele>
        <time>2018-06-02T09:23:48Z</time>
      </trkpt>
      <trkpt lat="43.60228" lon="0.22835">
        <ele>178.4</ele>
        <time>2018-06-02T09:23:51Z</time>
      </trkpt>
      <trkpt lat="43.60229" lon="0.22832">
        <ele>178.3</ele>
        <time>2018-06-02T09:23:53Z</time>
      </trkpt>
      <trkpt lat="43.6023" lon="0.22828">
        <ele>178.3</ele>
        <time>2018-06-02T09:23:56Z</time>
      </trkpt>
      <trkpt lat="43.60231" lon="0.22825">
        <ele>178.2</ele>
        <time>2018-06-02T09:23:58Z</time>
      </trkpt>
      <trkpt lat="43.60233" lon="0.22821">
        <ele>178.2</ele>
        <time>2018-06-02T09:24:01Z</time>
      </trkpt>
      <trkpt lat="43.60234" lon="0.22817">
        <ele>178.1</ele>
        <time>2018-06-02T09:24:04Z</time>
      </trkpt>
      <trkpt lat="43.60236" lon="0.22814">
        <ele>178.1</ele>
        <time>2018-06-02T09:24:06Z</time>
      </trkpt>
      <trkpt lat="43.60238" lon="0.2281">
        <ele>178</ele>
        <time>2018-06-02T09:24:09Z</time>
      </trkpt>
      <trkpt lat="43.60239" lon="0.22807">
        <ele>178</ele>
        <time>2018-06-02T09:24:11Z</time>
      </trkpt>
      <trkpt lat="43.60241" lon="0.22803">
        <ele>177.9</ele>
        <time>2018-06-02T09:24:14Z</time>
      </trkpt>
      <trkpt lat="43.60242" lon="0.22801">
        <ele>177.9</ele>
        <time>2018-06-02T09:24:15Z</time>
      </trkpt>
      <trkpt lat="43.60242" lon="0.228">
        <ele>177.9</ele>
        <time>2018-06-02T09:24:16Z</time>
      </trkpt>
      <trkpt lat="43.60244" lon="0.22797">
        <ele>177.8</ele>
        <time>2018-06-02T09:24:19Z</time>
      </trkpt>
      <trkpt lat="43.60246" lon="0.22794">
        <ele>177.8</ele>
        <time>2018-06-02T09:24:21Z</time>
      </trkpt>
      <trkpt lat="43.60248" lon="0.2279">
        <ele>177.7</ele>
        <time>2018-06-02T09:24:24Z</time>
      </trkpt>
      <trkpt lat="43.6025" lon="0.22787">
        <ele>177.5</ele>
        <time>2018-06-02T09:24:27Z</time>
      </trkpt>
      <trkpt lat="43.6025" lon="0.22785">
        <ele>177.5</ele>
        <time>2018-06-02T09:24:28Z</time>
      </trkpt>
      <trkpt lat="43.60251" lon="0.22784">
        <ele>177.4</ele>
        <time>2018-06-02T09:24:29Z</time>
      </trkpt>
      <trkpt lat="43.60253" lon="0.22781">
        <ele>177.3</ele>
        <time>2018-06-02T09:24:32Z</time>
      </trkpt>
      <trkpt lat="43.60255" lon="0.22779">
        <ele>177.2</ele>
        <time>2018-06-02T09:24:34Z</time>
      </trkpt>
      <trkpt lat="43.60257" lon="0.22776">
        <ele>177</ele>
        <time>2018-06-02T09:24:37Z</time>
      </trkpt>
      <trkpt lat="43.60258" lon="0.22774">
        <ele>176.9</ele>
        <time>2018-06-02T09:24:39Z</time>
      </trkpt>
      <trkpt lat="43.6026" lon="0.22771">
        <ele>176.8</ele>
        <time>2018-06-02T09:24:42Z</time>
      </trkpt>
      <trkpt lat="43.60261" lon="0.22769">
        <ele>176.7</ele>
        <time>2018-06-02T09:24:44Z</time>
      </trkpt>
      <trkpt lat="43.60263" lon="0.22765">
        <ele>176.5</ele>
        <time>2018-06-02T09:24:47Z</time>
      </trkpt>
      <trkpt lat="43.60265" lon="0.22761">
        <ele>176.4</ele>
        <time>2018-06-02T09:24:50Z</time>
      </trkpt>
      <trkpt lat="43.60266" lon="0.22759">
        <ele>176.3</ele>
        <time>2018-06-02T09:24:52Z</time>
      </trkpt>
      <trkpt lat="43.60268" lon="0.22755">
        <ele>176.1</ele>
        <time>2018-06-02T09:24:55Z</time>
      </trkpt>
      <trkpt lat="43.6027" lon="0.22752">
        <ele>176</ele>
        <time>2018-06-02T09:24:57Z</time>
      </trkpt>
      <trkpt lat="43.60273" lon="0.22748">
        <ele>175.8</ele>
        <time>2018-06-02T09:25:00Z</time>
      </trkpt>
      <trkpt lat="43.60275" lon="0.22745">
        <ele>175.7</ele>
        <time>2018-06-02T09:25:02Z</time>
      </trkpt>
      <trkpt lat="43.60277" lon="0.22741">
        <ele>175.6</ele>
        <time>2018-06-02T09:25:05Z</time>
      </trkpt>
      <trkpt lat="43.60278" lon="0.2274">
        <ele>175.5</ele>
        <time>2018-06-02T09:25:06Z</time>
      </trkpt>
      <trkpt lat="43.60279" lon="0.22738">
        <ele>175.5</ele>
        <time>2018-06-02T09:25:07Z</time>
      </trkpt>
      <trkpt lat="43.6028" lon="0.22734">
        <ele>175.3</ele>
        <time>2018-06-02T09:25:10Z</time>
      </trkpt>
      <trkpt lat="43.60282" lon="0.2273">
        <ele>175.2</ele>
        <time>2018-06-02T09:25:13Z</time>
      </trkpt>
      <trkpt lat="43.60283" lon="0.22727">
        <ele>175.1</ele>
        <time>2018-06-02T09:25:15Z</time>
      </trkpt>
      <trkpt lat="43.60285" lon="0.22723">
        <ele>174.9</ele>
        <time>2018-06-02T09:25:18Z</time>
      </trkpt>
      <trkpt lat="43.60286" lon="0.2272">
        <ele>174.8</ele>
        <time>2018-06-02T09:25:20Z</time>
      </trkpt>
      <trkpt lat="43.60287" lon="0.22716">
        <ele>174.7</ele>
        <time>2018-06-02T09:25:23Z</time>
      </trkpt>
      <trkpt lat="43.60288" lon="0.22715">
        <ele>174.6</ele>
        <time>2018-06-02T09:25:24Z</time>
      </trkpt>
      <trkpt lat="43.60288" lon="0.22714">
        <ele>174.6</ele>
        <time>2018-06-02T09:25:25Z</time>
      </trkpt>
      <trkpt lat="43.6029" lon="0.2271">
        <ele>174.6</ele>
        <time>2018-06-02T09:25:28Z</time>
      </trkpt>
      <trkpt lat="43.60291" lon="0.22707">
        <ele>174.6</ele>
        <time>2018-06-02T09:25:30Z</time>
      </trkpt>
      <trkpt lat="43.60292" lon="0.22706">
        <ele>174.6</ele>
        <time>2018-06-02T09:25:31Z</time>
      </trkpt>
      <trkpt lat="43.60292" lon="0.22703">
        <ele>174.6</ele>
        <time>2018-06-02T09:25:33Z</time>
      </trkpt>
      <trkpt lat="43.60293" lon="0.22698">
        <ele>174.7</ele>
        <time>2018-06-02T09:25:36Z</time>
      </trkpt>
      <trkpt lat="43.60294" lon="0.22695">
        <ele>174.7</ele>
        <time>2018-06-02T09:25:38Z</time>
      </trkpt>
      <trkpt lat="43.60295" lon="0.22691">
        <ele>174.7</ele>
        <time>2018-06-02T09:25:41Z</time>
      </trkpt>
      <trkpt lat="43.60296" lon="0.22688">
        <ele>174.7</ele>
        <time>2018-06-02T09:25:43Z</time>
      </trkpt>
      <trkpt lat="43.60296" lon="0.22686">
        <ele>174.7</ele>
        <time>2018-06-02T09:25:44Z</time>
      </trkpt>
      <trkpt lat="43.60296" lon="0.22683">
        <ele>174.7</ele>
        <time>2018-06-02T09:25:46Z</time>
      </trkpt>
      <trkpt lat="43.60297" lon="0.2268">
        <ele>174.7</ele>
        <time>2018-06-02T09:25:48Z</time>
      </trkpt>
      <trkpt lat="43.60297" lon="0.22675">
        <ele>174.7</ele>
        <time>2018-06-02T09:25:51Z</time>
      </trkpt>
      <trkpt lat="43.60297" lon="0.22672">
        <ele>174.7</ele>
        <time>2018-06-02T09:25:53Z</time>
      </trkpt>
      <trkpt lat="43.60298" lon="0.22667">
        <ele>174.7</ele>
        <time>2018-06-02T09:25:56Z</time>
      </trkpt>
      <trkpt lat="43.60299" lon="0.22662">
        <ele>174.7</ele>
        <time>2018-06-02T09:25:59Z</time>
      </trkpt>
      <trkpt lat="43.603" lon="0.22659">
        <ele>174.7</ele>
        <time>2018-06-02T09:26:01Z</time>
      </trkpt>
      <trkpt lat="43.60302" lon="0.22654">
        <ele>174.7</ele>
        <time>2018-06-02T09:26:04Z</time>
      </trkpt>
      <trkpt lat="43.60303" lon="0.22651">
        <ele>174.7</ele>
        <time>2018-06-02T09:26:06Z</time>
      </trkpt>
      <trkpt lat="43.60303" lon="0.2265">
        <ele>174.7</ele>
        <time>2018-06-02T09:26:07Z</time>
      </trkpt>
      <trkpt lat="43.60304" lon="0.22647">
        <ele>174.7</ele>
        <time>2018-06-02T09:26:09Z</time>
      </trkpt>
      <trkpt lat="43.60305" lon="0.22644">
        <ele>174.7</ele>
        <time>2018-06-02T09:26:11Z</time>
      </trkpt>
      <trkpt lat="43.60307" lon="0.2264">
        <ele>174.7</ele>
        <time>2018-06-02T09:26:14Z</time>
      </trkpt>
      <trkpt lat="43.60309" lon="0.22636">
        <ele>174.7</ele>
        <time>2018-06-02T09:26:17Z</time>
      </trkpt>
      <trkpt lat="43.6031" lon="0.22633">
        <ele>174.7</ele>
        <time>2018-06-02T09:26:19Z</time>
      </trkpt>
      <trkpt lat="43.60311" lon="0.22629">
        <ele>174.7</ele>
        <time>2018-06-02T09:26:22Z</time>
      </trkpt>
      <trkpt lat="43.60312" lon="0.22625">
        <ele>174.8</ele>
        <time>2018-06-02T09:26:24Z</time>
      </trkpt>
      <trkpt lat="43.60313" lon="0.22621">
        <ele>174.8</ele>
        <time>2018-06-02T09:26:27Z</time>
      </trkpt>
      <trkpt lat="43.60314" lon="0.22617">
        <ele>174.8</ele>
        <time>2018-06-02T09:26:29Z</time>
      </trkpt>
      <trkpt lat="43.60314" lon="0.22614">
        <ele>174.8</ele>
        <time>2018-06-02T09:26:31Z</time>
      </trkpt>
      <trkpt lat="43.60315" lon="0.22613">
        <ele>174.8</ele>
        <time>2018-06-02T09:26:32Z</time>
      </trkpt>
      <trkpt lat="43.60315" lon="0.22611">
        <ele>174.8</ele>
        <time>2018-06-02T09:26:34Z</time>
      </trkpt>
      <trkpt lat="43.60316" lon="0.22607">
        <ele>174.8</ele>
        <time>2018-06-02T09:26:37Z</time>
      </trkpt>
      <trkpt lat="43.60317" lon="0.22603">
        <ele>174.8</ele>
        <time>2018-06-02T09:26:40Z</time>
      </trkpt>
      <trkpt lat="43.60318" lon="0.226">
        <ele>174.8</ele>
        <time>2018-06-02T09:26:42Z</time>
      </trkpt>
      <trkpt lat="43.60319" lon="0.22596">
        <ele>174.8</ele>
        <time>2018-06-02T09:26:45Z</time>
      </trkpt>
      <trkpt lat="43.6032" lon="0.22593">
        <ele>174.8</ele>
        <time>2018-06-02T09:26:47Z</time>
      </trkpt>
      <trkpt lat="43.60321" lon="0.22589">
        <ele>174.8</ele>
        <time>2018-06-02T09:26:50Z</time>
      </trkpt>
      <trkpt lat="43.60321" lon="0.22586">
        <ele>174.8</ele>
        <time>2018-06-02T09:26:52Z</time>
      </trkpt>
      <trkpt lat="43.60322" lon="0.22582">
        <ele>174.8</ele>
        <time>2018-06-02T09:26:55Z</time>
      </trkpt>
      <trkpt lat="43.60323" lon="0.22579">
        <ele>174.8</ele>
        <time>2018-06-02T09:26:57Z</time>
      </trkpt>
      <trkpt lat="43.60324" lon="0.22574">
        <ele>174.8</ele>
        <time>2018-06-02T09:27:00Z</time>
      </trkpt>
      <trkpt lat="43.60326" lon="0.2257">
        <ele>174.8</ele>
        <time>2018-06-02T09:27:03Z</time>
      </trkpt>
      <trkpt lat="43.60327" lon="0.22567">
        <ele>174.8</ele>
        <time>2018-06-02T09:27:05Z</time>
      </trkpt>
      <trkpt lat="43.60328" lon="0.22563">
        <ele>174.8</ele>
        <time>2018-06-02T09:27:08Z</time>
      </trkpt>
      <trkpt lat="43.60329" lon="0.2256">
        <ele>174.8</ele>
        <time>2018-06-02T09:27:10Z</time>
      </trkpt>
      <trkpt lat="43.6033" lon="0.22555">
        <ele>174.9</ele>
        <time>2018-06-02T09:27:13Z</time>
      </trkpt>
      <trkpt lat="43.60331" lon="0.22552">
        <ele>174.9</ele>
        <time>2018-06-02T09:27:15Z</time>
      </trkpt>
      <trkpt lat="43.60332" lon="0.22547">
        <ele>174.9</ele>
        <time>2018-06-02T09:27:18Z</time>
      </trkpt>
      <trkpt lat="43.60332" lon="0.22544">
        <ele>174.9</ele>
        <time>2018-06-02T09:27:20Z</time>
      </trkpt>
      <trkpt lat="43.60333" lon="0.22542">
        <ele>174.9</ele>
        <time>2018-06-02T09:27:21Z</time>
      </trkpt>
      <trkpt lat="43.60333" lon="0.22538">
        <ele>174.9</ele>
        <time>2018-06-02T09:27:23Z</time>
      </trkpt>
      <trkpt lat="43.60333" lon="0.22533">
        <ele>174.9</ele>
        <time>2018-06-02T09:27:26Z</time>
      </trkpt>
      <trkpt lat="43.60333" lon="0.22529">
        <ele>174.9</ele>
        <time>2018-06-02T09:27:28Z</time>
      </trkpt>
      <trkpt lat="43.60333" lon="0.22523">
        <ele>174.9</ele>
        <time>2018-06-02T09:27:31Z</time>
      </trkpt>
      <trkpt lat="43.60333" lon="0.2252">
        <ele>174.9</ele>
        <time>2018-06-02T09:27:33Z</time>
      </trkpt>
      <trkpt lat="43.60333" lon="0.22516">
        <ele>174.9</ele>
        <time>2018-06-02T09:27:36Z</time>
      </trkpt>
      <trkpt lat="43.60333" lon="0.22513">
        <ele>174.9</ele>
        <time>2018-06-02T09:27:38Z</time>
      </trkpt>
      <trkpt lat="43.60333" lon="0.22509">
        <ele>174.9</ele>
        <time>2018-06-02T09:27:41Z</time>
      </trkpt>
      <trkpt lat="43.60333" lon="0.22506">
        <ele>174.9</ele>
        <time>2018-06-02T09:27:43Z</time>
      </trkpt>
      <trkpt lat="43.60333" lon="0.22503">
        <ele>174.9</ele>
        <time>2018-06-02T09:27:45Z</time>
      </trkpt>
      <trkpt lat="43.60333" lon="0.22502">
        <ele>174.9</ele>
        <time>2018-06-02T09:27:46Z</time>
      </trkpt>
      <trkpt lat="43.60333" lon="0.22497">
        <ele>174.9</ele>
        <time>2018-06-02T09:27:49Z</time>
      </trkpt>
      <trkpt lat="43.60333" lon="0.22495">
        <ele>174.9</ele>
        <time>2018-06-02T09:27:51Z</time>
      </trkpt>
      <trkpt lat="43.60333" lon="0.2249">
        <ele>174.9</ele>
        <time>2018-06-02T09:27:54Z</time>
      </trkpt>
      <trkpt lat="43.60332" lon="0.22487">
        <ele>174.9</ele>
        <time>2018-06-02T09:27:56Z</time>
      </trkpt>
      <trkpt lat="43.60332" lon="0.22483">
        <ele>175</ele>
        <time>2018-06-02T09:27:59Z</time>
      </trkpt>
      <trkpt lat="43.60332" lon="0.22479">
        <ele>175</ele>
        <time>2018-06-02T09:28:01Z</time>
      </trkpt>
      <trkpt lat="43.60332" lon="0.22474">
        <ele>175</ele>
        <time>2018-06-02T09:28:04Z</time>
      </trkpt>
      <trkpt lat="43.60332" lon="0.22471">
        <ele>175</ele>
        <time>2018-06-02T09:28:06Z</time>
      </trkpt>
      <trkpt lat="43.60332" lon="0.22466">
        <ele>175</ele>
        <time>2018-06-02T09:28:09Z</time>
      </trkpt>
      <trkpt lat="43.60332" lon="0.22464">
        <ele>175</ele>
        <time>2018-06-02T09:28:10Z</time>
      </trkpt>
      <trkpt lat="43.60332" lon="0.22461">
        <ele>175</ele>
        <time>2018-06-02T09:28:12Z</time>
      </trkpt>
      <trkpt lat="43.60332" lon="0.22457">
        <ele>175</ele>
        <time>2018-06-02T09:28:14Z</time>
      </trkpt>
      <trkpt lat="43.60332" lon="0.22452">
        <ele>175</ele>
        <time>2018-06-02T09:28:17Z</time>
      </trkpt>
      <trkpt lat="43.60332" lon="0.22448">
        <ele>175</ele>
        <time>2018-06-02T09:28:19Z</time>
      </trkpt>
      <trkpt lat="43.60332" lon="0.22445">
        <ele>175</ele>
        <time>2018-06-02T09:28:21Z</time>
      </trkpt>
      <trkpt lat="43.60332" lon="0.22443">
        <ele>175</ele>
        <time>2018-06-02T09:28:22Z</time>
      </trkpt>
      <trkpt lat="43.60332" lon="0.2244">
        <ele>175</ele>
        <time>2018-06-02T09:28:24Z</time>
      </trkpt>
      <trkpt lat="43.60333" lon="0.22435">
        <ele>175</ele>
        <time>2018-06-02T09:28:27Z</time>
      </trkpt>
      <trkpt lat="43.60333" lon="0.22431">
        <ele>175</ele>
        <time>2018-06-02T09:28:29Z</time>
      </trkpt>
      <trkpt lat="43.60333" lon="0.22426">
        <ele>175</ele>
        <time>2018-06-02T09:28:32Z</time>
      </trkpt>
      <trkpt lat="43.60335" lon="0.22424">
        <ele>175</ele>
        <time>2018-06-02T09:28:35Z</time>
      </trkpt>
      <trkpt lat="43.60336" lon="0.22422">
        <ele>175</ele>
        <time>2018-06-02T09:28:37Z</time>
      </trkpt>
      <trkpt lat="43.60338" lon="0.22419">
        <ele>175</ele>
        <time>2018-06-02T09:28:40Z</time>
      </trkpt>
      <trkpt lat="43.60339" lon="0.22418">
        <ele>175</ele>
        <time>2018-06-02T09:28:42Z</time>
      </trkpt>
      <trkpt lat="43.60341" lon="0.22416">
        <ele>175</ele>
        <time>2018-06-02T09:28:44Z</time>
      </trkpt>
      <trkpt lat="43.60341" lon="0.22418">
        <ele>175</ele>
        <time>2018-06-02T09:28:45Z</time>
      </trkpt>
      <trkpt lat="43.60342" lon="0.2242">
        <ele>175.1</ele>
        <time>2018-06-02T09:28:47Z</time>
      </trkpt>
      <trkpt lat="43.60342" lon="0.22424">
        <ele>175.1</ele>
        <time>2018-06-02T09:28:50Z</time>
      </trkpt>
      <trkpt lat="43.60343" lon="0.22426">
        <ele>175.1</ele>
        <time>2018-06-02T09:28:52Z</time>
      </trkpt>
      <trkpt lat="43.60344" lon="0.2243">
        <ele>175.1</ele>
        <time>2018-06-02T09:28:55Z</time>
      </trkpt>
      <trkpt lat="43.60345" lon="0.22433">
        <ele>175.1</ele>
        <time>2018-06-02T09:28:58Z</time>
      </trkpt>
      <trkpt lat="43.60345" lon="0.22435">
        <ele>175.1</ele>
        <time>2018-06-02T09:28:59Z</time>
      </trkpt>
      <trkpt lat="43.60346" lon="0.22436">
        <ele>175.1</ele>
        <time>2018-06-02T09:29:00Z</time>
      </trkpt>
      <trkpt lat="43.60347" lon="0.2244">
        <ele>175.1</ele>
        <time>2018-06-02T09:29:03Z</time>
      </trkpt>
      <trkpt lat="43.60348" lon="0.22442">
        <ele>175.1</ele>
        <time>2018-06-02T09:29:05Z</time>
      </trkpt>
      <trkpt lat="43.60349" lon="0.22446">
        <ele>175.1</ele>
        <time>2018-06-02T09:29:08Z</time>
      </trkpt>
      <trkpt lat="43.6035" lon="0.22449">
        <ele>175.1</ele>
        <time>2018-06-02T09:29:10Z</time>
      </trkpt>
      <trkpt lat="43.60351" lon="0.22452">
        <ele>175.1</ele>
        <time>2018-06-02T09:29:13Z</time>
      </trkpt>
      <trkpt lat="43.60353" lon="0.22456">
        <ele>175.1</ele>
        <time>2018-06-02T09:29:16Z</time>
      </trkpt>
      <trkpt lat="43.60353" lon="0.22458">
        <ele>175.1</ele>
        <time>2018-06-02T09:29:18Z</time>
      </trkpt>
      <trkpt lat="43.60355" lon="0.22461">
        <ele>175.1</ele>
        <time>2018-06-02T09:29:21Z</time>
      </trkpt>
      <trkpt lat="43.60356" lon="0.22464">
        <ele>175.1</ele>
        <time>2018-06-02T09:29:23Z</time>
      </trkpt>
      <trkpt lat="43.60357" lon="0.22467">
        <ele>175.1</ele>
        <time>2018-06-02T09:29:26Z</time>
      </trkpt>
      <trkpt lat="43.60358" lon="0.22469">
        <ele>175.1</ele>
        <time>2018-06-02T09:29:28Z</time>
      </trkpt>
      <trkpt lat="43.60358" lon="0.2247">
        <ele>175.1</ele>
        <time>2018-06-02T09:29:29Z</time>
      </trkpt>
      <trkpt lat="43.60359" lon="0.22473">
        <ele>175.1</ele>
        <time>2018-06-02T09:29:31Z</time>
      </trkpt>
      <trkpt lat="43.60359" lon="0.22475">
        <ele>175.1</ele>
        <time>2018-06-02T09:29:33Z</time>
      </trkpt>
      <trkpt lat="43.6036" lon="0.22479">
        <ele>175.2</ele>
        <time>2018-06-02T09:29:36Z</time>
      </trkpt>
      <trkpt lat="43.60361" lon="0.22483">
        <ele>175.2</ele>
        <time>2018-06-02T09:29:39Z</time>
      </trkpt>
      <trkpt lat="43.60361" lon="0.22485">
        <ele>175.2</ele>
        <time>2018-06-02T09:29:41Z</time>
      </trkpt>
      <trkpt lat="43.60362" lon="0.22489">
        <ele>175.2</ele>
        <time>2018-06-02T09:29:44Z</time>
      </trkpt>
      <trkpt lat="43.60362" lon="0.2249">
        <ele>175.2</ele>
        <time>2018-06-02T09:29:46Z</time>
      </trkpt>
      <trkpt lat="43.60362" lon="0.22492">
        <ele>175.2</ele>
        <time>2018-06-02T09:29:49Z</time>
      </trkpt>
      <trkpt lat="43.60362" lon="0.22494">
        <ele>175.2</ele>
        <time>2018-06-02T09:29:51Z</time>
      </trkpt>
      <trkpt lat="43.60362" lon="0.22496">
        <ele>175.2</ele>
        <time>2018-06-02T09:29:54Z</time>
      </trkpt>
      <trkpt lat="43.60363" lon="0.22497">
        <ele>175.2</ele>
        <time>2018-06-02T09:29:56Z</time>
      </trkpt>
      <trkpt lat="43.60363" lon="0.22499">
        <ele>175.2</ele>
        <time>2018-06-02T09:29:59Z</time>
      </trkpt>
      <trkpt lat="43.60363" lon="0.22501">
        <ele>175.2</ele>
        <time>2018-06-02T09:30:02Z</time>
      </trkpt>
      <trkpt lat="43.60363" lon="0.22503">
        <ele>175.2</ele>
        <time>2018-06-02T09:30:04Z</time>
      </trkpt>
      <trkpt lat="43.60363" lon="0.22505">
        <ele>175.2</ele>
        <time>2018-06-02T09:30:07Z</time>
      </trkpt>
      <trkpt lat="43.60363" lon="0.22507">
        <ele>175.2</ele>
        <time>2018-06-02T09:30:10Z</time>
      </trkpt>
      <trkpt lat="43.60363" lon="0.22507">
        <ele>175.2</ele>
        <time>2018-06-02T09:30:11Z</time>
      </trkpt>
      <trkpt lat="43.60363" lon="0.22508">
        <ele>175.2</ele>
        <time>2018-06-02T09:30:12Z</time>
      </trkpt>
      <trkpt lat="43.60364" lon="0.22509">
        <ele>175.2</ele>
        <time>2018-06-02T09:30:14Z</time>
      </trkpt>
      <trkpt lat="43.60366" lon="0.2251">
        <ele>175.2</ele>
        <time>2018-06-02T09:30:17Z</time>
      </trkpt>
      <trkpt lat="43.60366" lon="0.22511">
        <ele>175.2</ele>
        <time>2018-06-02T09:30:19Z</time>
      </trkpt>
      <trkpt lat="43.60368" lon="0.22512">
        <ele>175.3</ele>
        <time>2018-06-02T09:30:22Z</time>
      </trkpt>
      <trkpt lat="43.60369" lon="0.22513">
        <ele>175.3</ele>
        <time>2018-06-02T09:30:25Z</time>
      </trkpt>
      <trkpt lat="43.6037" lon="0.22514">
        <ele>175.3</ele>
        <time>2018-06-02T09:30:27Z</time>
      </trkpt>
      <trkpt lat="43.60371" lon="0.22515">
        <ele>175.3</ele>
        <time>2018-06-02T09:30:30Z</time>
      </trkpt>
      <trkpt lat="43.60372" lon="0.22517">
        <ele>175.3</ele>
        <time>2018-06-02T09:30:33Z</time>
      </trkpt>
      <trkpt lat="43.60373" lon="0.22518">
        <ele>175.3</ele>
        <time>2018-06-02T09:30:35Z</time>
      </trkpt>
      <trkpt lat="43.60374" lon="0.22518">
        <ele>175.3</ele>
        <time>2018-06-02T09:30:37Z</time>
      </trkpt>
      <trkpt lat="43.60375" lon="0.22519">
        <ele>175.3</ele>
        <time>2018-06-02T09:30:39Z</time>
      </trkpt>
      <trkpt lat="43.60376" lon="0.22519">
        <ele>175.3</ele>
        <time>2018-06-02T09:30:40Z</time>
      </trkpt>
      <trkpt lat="43.60377" lon="0.2252">
        <ele>175.3</ele>
        <time>2018-06-02T09:30:42Z</time>
      </trkpt>
      <trkpt lat="43.60379" lon="0.22521">
        <ele>175.3</ele>
        <time>2018-06-02T09:30:45Z</time>
      </trkpt>
      <trkpt lat="43.60381" lon="0.22522">
        <ele>175.3</ele>
        <time>2018-06-02T09:30:48Z</time>
      </trkpt>
      <trkpt lat="43.60382" lon="0.22523">
        <ele>175.3</ele>
        <time>2018-06-02T09:30:50Z</time>
      </trkpt>
      <trkpt lat="43.60383" lon="0.22526">
        <ele>175.3</ele>
        <time>2018-06-02T09:30:53Z</time>
      </trkpt>
      <trkpt lat="43.60384" lon="0.22529">
        <ele>175.3</ele>
        <time>2018-06-02T09:30:55Z</time>
      </trkpt>
      <trkpt lat="43.60385" lon="0.22533">
        <ele>175.3</ele>
        <time>2018-06-02T09:30:58Z</time>
      </trkpt>
      <trkpt lat="43.60386" lon="0.22535">
        <ele>175.3</ele>
        <time>2018-06-02T09:31:00Z</time>
      </trkpt>
      <trkpt lat="43.60388" lon="0.22539">
        <ele>175.3</ele>
        <time>2018-06-02T09:31:03Z</time>
      </trkpt>
      <trkpt lat="43.60388" lon="0.2254">
        <ele>175.3</ele>
        <time>2018-06-02T09:31:04Z</time>
      </trkpt>
      <trkpt lat="43.60388" lon="0.22542">
        <ele>175.3</ele>
        <time>2018-06-02T09:31:05Z</time>
      </trkpt>
      <trkpt lat="43.60389" lon="0.22546">
        <ele>175.3</ele>
        <time>2018-06-02T09:31:08Z</time>
      </trkpt>
      <trkpt lat="43.6039" lon="0.22551">
        <ele>175.4</ele>
        <time>2018-06-02T09:31:11Z</time>
      </trkpt>
      <trkpt lat="43.60391" lon="0.22554">
        <ele>175.4</ele>
        <time>2018-06-02T09:31:13Z</time>
      </trkpt>
      <trkpt lat="43.60391" lon="0.22559">
        <ele>175.4</ele>
        <time>2018-06-02T09:31:16Z</time>
      </trkpt>
      <trkpt lat="43.60392" lon="0.22562">
        <ele>175.4</ele>
        <time>2018-06-02T09:31:18Z</time>
      </trkpt>
      <trkpt lat="43.60394" lon="0.22567">
        <ele>175.4</ele>
        <time>2018-06-02T09:31:21Z</time>
      </trkpt>
      <trkpt lat="43.60395" lon="0.2257">
        <ele>175.4</ele>
        <time>2018-06-02T09:31:23Z</time>
      </trkpt>
      <trkpt lat="43.60396" lon="0.22574">
        <ele>175.4</ele>
        <time>2018-06-02T09:31:26Z</time>
      </trkpt>
      <trkpt lat="43.60397" lon="0.22576">
        <ele>175.4</ele>
        <time>2018-06-02T09:31:27Z</time>
      </trkpt>
      <trkpt lat="43.60397" lon="0.22578">
        <ele>175.4</ele>
        <time>2018-06-02T09:31:28Z</time>
      </trkpt>
      <trkpt lat="43.60398" lon="0.22582">
        <ele>175.4</ele>
        <time>2018-06-02T09:31:31Z</time>
      </trkpt>
      <trkpt lat="43.60398" lon="0.22586">
        <ele>175.4</ele>
        <time>2018-06-02T09:31:34Z</time>
      </trkpt>
      <trkpt lat="43.60399" lon="0.22589">
        <ele>175.4</ele>
        <time>2018-06-02T09:31:36Z</time>
      </trkpt>
      <trkpt lat="43.60399" lon="0.22594">
        <ele>175.4</ele>
        <time>2018-06-02T09:31:39Z</time>
      </trkpt>
      <trkpt lat="43.60399" lon="0.22595">
        <ele>175.4</ele>
        <time>2018-06-02T09:31:40Z</time>
      </trkpt>
      <trkpt lat="43.60399" lon="0.22597">
        <ele>175.4</ele>
        <time>2018-06-02T09:31:41Z</time>
      </trkpt>
      <trkpt lat="43.60399" lon="0.22601">
        <ele>175.4</ele>
        <time>2018-06-02T09:31:44Z</time>
      </trkpt>
      <trkpt lat="43.60399" lon="0.22604">
        <ele>175.4</ele>
        <time>2018-06-02T09:31:46Z</time>
      </trkpt>
      <trkpt lat="43.60399" lon="0.22609">
        <ele>175.4</ele>
        <time>2018-06-02T09:31:49Z</time>
      </trkpt>
      <trkpt lat="43.60399" lon="0.22612">
        <ele>175.4</ele>
        <time>2018-06-02T09:31:51Z</time>
      </trkpt>
      <trkpt lat="43.60399" lon="0.22615">
        <ele>175.4</ele>
        <time>2018-06-02T09:31:53Z</time>
      </trkpt>
      <trkpt lat="43.60399" lon="0.22617">
        <ele>175.4</ele>
        <time>2018-06-02T09:31:54Z</time>
      </trkpt>
      <trkpt lat="43.60397" lon="0.22622">
        <ele>175.4</ele>
        <time>2018-06-02T09:31:57Z</time>
      </trkpt>
      <trkpt lat="43.60397" lon="0.22626">
        <ele>175.5</ele>
        <time>2018-06-02T09:31:59Z</time>
      </trkpt>
      <trkpt lat="43.60396" lon="0.22632">
        <ele>175.5</ele>
        <time>2018-06-02T09:32:02Z</time>
      </trkpt>
      <trkpt lat="43.60395" lon="0.22635">
        <ele>175.5</ele>
        <time>2018-06-02T09:32:04Z</time>
      </trkpt>
      <trkpt lat="43.60394" lon="0.22637">
        <ele>175.5</ele>
        <time>2018-06-02T09:32:05Z</time>
      </trkpt>
      <trkpt lat="43.60394" lon="0.2264">
        <ele>175.5</ele>
        <time>2018-06-02T09:32:07Z</time>
      </trkpt>
      <trkpt lat="43.60393" lon="0.22642">
        <ele>175.5</ele>
        <time>2018-06-02T09:32:09Z</time>
      </trkpt>
      <trkpt lat="43.60392" lon="0.22646">
        <ele>175.5</ele>
        <time>2018-06-02T09:32:12Z</time>
      </trkpt>
      <trkpt lat="43.60391" lon="0.22649">
        <ele>175.5</ele>
        <time>2018-06-02T09:32:14Z</time>
      </trkpt>
      <trkpt lat="43.6039" lon="0.22653">
        <ele>175.5</ele>
        <time>2018-06-02T09:32:17Z</time>
      </trkpt>
      <trkpt lat="43.6039" lon="0.22655">
        <ele>175.5</ele>
        <time>2018-06-02T09:32:19Z</time>
      </trkpt>
      <trkpt lat="43.60389" lon="0.22656">
        <ele>175.5</ele>
        <time>2018-06-02T09:32:20Z</time>
      </trkpt>
      <trkpt lat="43.60389" lon="0.22659">
        <ele>175.5</ele>
        <time>2018-06-02T09:32:22Z</time>
      </trkpt>
      <trkpt lat="43.60388" lon="0.22663">
        <ele>175.5</ele>
        <time>2018-06-02T09:32:25Z</time>
      </trkpt>
      <trkpt lat="43.60388" lon="0.22666">
        <ele>175.5</ele>
        <time>2018-06-02T09:32:27Z</time>
      </trkpt>
      <trkpt lat="43.60387" lon="0.2267">
        <ele>175.5</ele>
        <time>2018-06-02T09:32:30Z</time>
      </trkpt>
      <trkpt lat="43.60387" lon="0.22672">
        <ele>175.5</ele>
        <time>2018-06-02T09:32:32Z</time>
      </trkpt>
      <trkpt lat="43.60387" lon="0.22673">
        <ele>175.5</ele>
        <time>2018-06-02T09:32:33Z</time>
      </trkpt>
      <trkpt lat="43.60386" lon="0.22676">
        <ele>175.5</ele>
        <time>2018-06-02T09:32:35Z</time>
      </trkpt>
      <trkpt lat="43.60386" lon="0.22679">
        <ele>175.5</ele>
        <time>2018-06-02T09:32:37Z</time>
      </trkpt>
      <trkpt lat="43.60385" lon="0.22682">
        <ele>175.5</ele>
        <time>2018-06-02T09:32:40Z</time>
      </trkpt>
      <trkpt lat="43.60385" lon="0.22686">
        <ele>175.5</ele>
        <time>2018-06-02T09:32:43Z</time>
      </trkpt>
      <trkpt lat="43.60384" lon="0.22689">
        <ele>175.5</ele>
        <time>2018-06-02T09:32:45Z</time>
      </trkpt>
      <trkpt lat="43.60384" lon="0.22693">
        <ele>175.6</ele>
        <time>2018-06-02T09:32:48Z</time>
      </trkpt>
      <trkpt lat="43.60384" lon="0.22696">
        <ele>175.6</ele>
        <time>2018-06-02T09:32:50Z</time>
      </trkpt>
      <trkpt lat="43.60384" lon="0.227">
        <ele>175.6</ele>
        <time>2018-06-02T09:32:53Z</time>
      </trkpt>
      <trkpt lat="43.60384" lon="0.22703">
        <ele>175.6</ele>
        <time>2018-06-02T09:32:55Z</time>
      </trkpt>
      <trkpt lat="43.60384" lon="0.22708">
        <ele>175.6</ele>
        <time>2018-06-02T09:32:58Z</time>
      </trkpt>
      <trkpt lat="43.60384" lon="0.22711">
        <ele>175.6</ele>
        <time>2018-06-02T09:33:00Z</time>
      </trkpt>
      <trkpt lat="43.60384" lon="0.22712">
        <ele>175.6</ele>
        <time>2018-06-02T09:33:01Z</time>
      </trkpt>
      <trkpt lat="43.60383" lon="0.22713">
        <ele>175.6</ele>
        <time>2018-06-02T09:33:03Z</time>
      </trkpt>
      <trkpt lat="43.60382" lon="0.22716">
        <ele>175.6</ele>
        <time>2018-06-02T09:33:06Z</time>
      </trkpt>
      <trkpt lat="43.60382" lon="0.22718">
        <ele>175.6</ele>
        <time>2018-06-02T09:33:08Z</time>
      </trkpt>
      <trkpt lat="43.60382" lon="0.22722">
        <ele>175.6</ele>
        <time>2018-06-02T09:33:11Z</time>
      </trkpt>
      <trkpt lat="43.60382" lon="0.22725">
        <ele>175.6</ele>
        <time>2018-06-02T09:33:13Z</time>
      </trkpt>
      <trkpt lat="43.60382" lon="0.22728">
        <ele>175.6</ele>
        <time>2018-06-02T09:33:16Z</time>
      </trkpt>
      <trkpt lat="43.60382" lon="0.22731">
        <ele>175.6</ele>
        <time>2018-06-02T09:33:18Z</time>
      </trkpt>
      <trkpt lat="43.60382" lon="0.22736">
        <ele>175.6</ele>
        <time>2018-06-02T09:33:22Z</time>
      </trkpt>
      <trkpt lat="43.60382" lon="0.22739">
        <ele>175.6</ele>
        <time>2018-06-02T09:33:24Z</time>
      </trkpt>
      <trkpt lat="43.60382" lon="0.22743">
        <ele>175.6</ele>
        <time>2018-06-02T09:33:26Z</time>
      </trkpt>
      <trkpt lat="43.60383" lon="0.22748">
        <ele>175.6</ele>
        <time>2018-06-02T09:33:29Z</time>
      </trkpt>
      <trkpt lat="43.60383" lon="0.22751">
        <ele>175.6</ele>
        <time>2018-06-02T09:33:31Z</time>
      </trkpt>
      <trkpt lat="43.60383" lon="0.22755">
        <ele>175.7</ele>
        <time>2018-06-02T09:33:33Z</time>
      </trkpt>
      <trkpt lat="43.60383" lon="0.22756">
        <ele>175.7</ele>
        <time>2018-06-02T09:33:34Z</time>
      </trkpt>
      <trkpt lat="43.60382" lon="0.22759">
        <ele>175.7</ele>
        <time>2018-06-02T09:33:36Z</time>
      </trkpt>
      <trkpt lat="43.60381" lon="0.22763">
        <ele>175.7</ele>
        <time>2018-06-02T09:33:39Z</time>
      </trkpt>
      <trkpt lat="43.60381" lon="0.22766">
        <ele>175.7</ele>
        <time>2018-06-02T09:33:41Z</time>
      </trkpt>
      <trkpt lat="43.6038" lon="0.2277">
        <ele>175.7</ele>
        <time>2018-06-02T09:33:44Z</time>
      </trkpt>
      <trkpt lat="43.60379" lon="0.22774">
        <ele>175.7</ele>
        <time>2018-06-02T09:33:47Z</time>
      </trkpt>
      <trkpt lat="43.60379" lon="0.22776">
        <ele>175.7</ele>
        <time>2018-06-02T09:33:49Z</time>
      </trkpt>
      <trkpt lat="43.60378" lon="0.22779">
        <ele>175.7</ele>
        <time>2018-06-02T09:33:52Z</time>
      </trkpt>
      <trkpt lat="43.60378" lon="0.22781">
        <ele>175.7</ele>
        <time>2018-06-02T09:33:54Z</time>
      </trkpt>
      <trkpt lat="43.60378" lon="0.22784">
        <ele>175.7</ele>
        <time>2018-06-02T09:33:57Z</time>
      </trkpt>
      <trkpt lat="43.60378" lon="0.22786">
        <ele>175.7</ele>
        <time>2018-06-02T09:33:59Z</time>
      </trkpt>
      <trkpt lat="43.60377" lon="0.22789">
        <ele>175.7</ele>
        <time>2018-06-02T09:34:02Z</time>
      </trkpt>
      <trkpt lat="43.60377" lon="0.22791">
        <ele>175.7</ele>
        <time>2018-06-02T09:34:04Z</time>
      </trkpt>
      <trkpt lat="43.60377" lon="0.22793">
        <ele>175.7</ele>
        <time>2018-06-02T09:34:06Z</time>
      </trkpt>
      <trkpt lat="43.60377" lon="0.22795">
        <ele>175.7</ele>
        <time>2018-06-02T09:34:07Z</time>
      </trkpt>
      <trkpt lat="43.60377" lon="0.22799">
        <ele>175.7</ele>
        <time>2018-06-02T09:34:10Z</time>
      </trkpt>
      <trkpt lat="43.60378" lon="0.22804">
        <ele>175.7</ele>
        <time>2018-06-02T09:34:13Z</time>
      </trkpt>
      <trkpt lat="43.60378" lon="0.22808">
        <ele>175.7</ele>
        <time>2018-06-02T09:34:15Z</time>
      </trkpt>
      <trkpt lat="43.60378" lon="0.22811">
        <ele>175.7</ele>
        <time>2018-06-02T09:34:17Z</time>
      </trkpt>
      <trkpt lat="43.60378" lon="0.22812">
        <ele>175.7</ele>
        <time>2018-06-02T09:34:18Z</time>
      </trkpt>
      <trkpt lat="43.60378" lon="0.22814">
        <ele>175.7</ele>
        <time>2018-06-02T09:34:20Z</time>
      </trkpt>
      <trkpt lat="43.60378" lon="0.22816">
        <ele>175.8</ele>
        <time>2018-06-02T09:34:22Z</time>
      </trkpt>
      <trkpt lat="43.60378" lon="0.22818">
        <ele>175.8</ele>
        <time>2018-06-02T09:34:25Z</time>
      </trkpt>
      <trkpt lat="43.60378" lon="0.2282">
        <ele>175.8</ele>
        <time>2018-06-02T09:34:27Z</time>
      </trkpt>
      <trkpt lat="43.60378" lon="0.22823">
        <ele>175.8</ele>
        <time>2018-06-02T09:34:30Z</time>
      </trkpt>
      <trkpt lat="43.60378" lon="0.22825">
        <ele>175.8</ele>
        <time>2018-06-02T09:34:33Z</time>
      </trkpt>
      <trkpt lat="43.60378" lon="0.22827">
        <ele>175.8</ele>
        <time>2018-06-02T09:34:35Z</time>
      </trkpt>
      <trkpt lat="43.60378" lon="0.2283">
        <ele>175.8</ele>
        <time>2018-06-02T09:34:38Z</time>
      </trkpt>
      <trkpt lat="43.60379" lon="0.22833">
        <ele>175.8</ele>
        <time>2018-06-02T09:34:40Z</time>
      </trkpt>
      <trkpt lat="43.60381" lon="0.22837">
        <ele>175.8</ele>
        <time>2018-06-02T09:34:43Z</time>
      </trkpt>
      <trkpt lat="43.60382" lon="0.22839">
        <ele>175.8</ele>
        <time>2018-06-02T09:34:45Z</time>
      </trkpt>
      <trkpt lat="43.60384" lon="0.22843">
        <ele>175.8</ele>
        <time>2018-06-02T09:34:48Z</time>
      </trkpt>
      <trkpt lat="43.60385" lon="0.22846">
        <ele>175.8</ele>
        <time>2018-06-02T09:34:50Z</time>
      </trkpt>
      <trkpt lat="43.60386" lon="0.22847">
        <ele>175.8</ele>
        <time>2018-06-02T09:34:51Z</time>
      </trkpt>
      <trkpt lat="43.60387" lon="0.22849">
        <ele>175.8</ele>
        <time>2018-06-02T09:34:53Z</time>
      </trkpt>
      <trkpt lat="43.6039" lon="0.22853">
        <ele>175.8</ele>
        <time>2018-06-02T09:34:56Z</time>
      </trkpt>
      <trkpt lat="43.60391" lon="0.22855">
        <ele>175.8</ele>
        <time>2018-06-02T09:34:58Z</time>
      </trkpt>
      <trkpt lat="43.60393" lon="0.22858">
        <ele>175.8</ele>
        <time>2018-06-02T09:35:01Z</time>
      </trkpt>
      <trkpt lat="43.60394" lon="0.22861">
        <ele>175.8</ele>
        <time>2018-06-02T09:35:03Z</time>
      </trkpt>
      <trkpt lat="43.60396" lon="0.22863">
        <ele>175.8</ele>
        <time>2018-06-02T09:35:05Z</time>
      </trkpt>
      <trkpt lat="43.60397" lon="0.22864">
        <ele>175.8</ele>
        <time>2018-06-02T09:35:06Z</time>
      </trkpt>
      <trkpt lat="43.60399" lon="0.22865">
        <ele>175.8</ele>
        <time>2018-06-02T09:35:08Z</time>
      </trkpt>
      <trkpt lat="43.60401" lon="0.22868">
        <ele>175.9</ele>
        <time>2018-06-02T09:35:11Z</time>
      </trkpt>
      <trkpt lat="43.60403" lon="0.2287">
        <ele>175.9</ele>
        <time>2018-06-02T09:35:13Z</time>
      </trkpt>
      <trkpt lat="43.60406" lon="0.22872">
        <ele>175.9</ele>
        <time>2018-06-02T09:35:16Z</time>
      </trkpt>
      <trkpt lat="43.60408" lon="0.22874">
        <ele>175.9</ele>
        <time>2018-06-02T09:35:18Z</time>
      </trkpt>
      <trkpt lat="43.60409" lon="0.22875">
        <ele>175.9</ele>
        <time>2018-06-02T09:35:19Z</time>
      </trkpt>
      <trkpt lat="43.60411" lon="0.22877">
        <ele>175.9</ele>
        <time>2018-06-02T09:35:21Z</time>
      </trkpt>
      <trkpt lat="43.60414" lon="0.2288">
        <ele>175.9</ele>
        <time>2018-06-02T09:35:24Z</time>
      </trkpt>
      <trkpt lat="43.60416" lon="0.22882">
        <ele>175.9</ele>
        <time>2018-06-02T09:35:26Z</time>
      </trkpt>
      <trkpt lat="43.60419" lon="0.22885">
        <ele>175.9</ele>
        <time>2018-06-02T09:35:29Z</time>
      </trkpt>
      <trkpt lat="43.60421" lon="0.22886">
        <ele>175.9</ele>
        <time>2018-06-02T09:35:31Z</time>
      </trkpt>
      <trkpt lat="43.60423" lon="0.22889">
        <ele>175.9</ele>
        <time>2018-06-02T09:35:34Z</time>
      </trkpt>
      <trkpt lat="43.60425" lon="0.22891">
        <ele>175.9</ele>
        <time>2018-06-02T09:35:36Z</time>
      </trkpt>
      <trkpt lat="43.60428" lon="0.22893">
        <ele>175.9</ele>
        <time>2018-06-02T09:35:39Z</time>
      </trkpt>
      <trkpt lat="43.6043" lon="0.22896">
        <ele>175.9</ele>
        <time>2018-06-02T09:35:42Z</time>
      </trkpt>
      <trkpt lat="43.60432" lon="0.22898">
        <ele>175.9</ele>
        <time>2018-06-02T09:35:44Z</time>
      </trkpt>
      <trkpt lat="43.60435" lon="0.229">
        <ele>175.9</ele>
        <time>2018-06-02T09:35:47Z</time>
      </trkpt>
      <trkpt lat="43.60436" lon="0.22901">
        <ele>175.9</ele>
        <time>2018-06-02T09:35:49Z</time>
      </trkpt>
      <trkpt lat="43.60439" lon="0.22904">
        <ele>175.9</ele>
        <time>2018-06-02T09:35:52Z</time>
      </trkpt>
      <trkpt lat="43.60441" lon="0.22905">
        <ele>175.9</ele>
        <time>2018-06-02T09:35:54Z</time>
      </trkpt>
      <trkpt lat="43.60442" lon="0.22907">
        <ele>175.9</ele>
        <time>2018-06-02T09:35:56Z</time>
      </trkpt>
      <trkpt lat="43.60444" lon="0.22907">
        <ele>176</ele>
        <time>2018-06-02T09:35:57Z</time>
      </trkpt>
      <trkpt lat="43.60446" lon="0.22909">
        <ele>176</ele>
        <time>2018-06-02T09:35:59Z</time>
      </trkpt>
      <trkpt lat="43.6045" lon="0.2291">
        <ele>176</ele>
        <time>2018-06-02T09:36:02Z</time>
      </trkpt>
      <trkpt lat="43.60453" lon="0.22912">
        <ele>176</ele>
        <time>2018-06-02T09:36:05Z</time>
      </trkpt>
      <trkpt lat="43.60456" lon="0.22913">
        <ele>176</ele>
        <time>2018-06-02T09:36:07Z</time>
      </trkpt>
      <trkpt lat="43.60459" lon="0.22913">
        <ele>176</ele>
        <time>2018-06-02T09:36:10Z</time>
      </trkpt>
      <trkpt lat="43.60461" lon="0.22914">
        <ele>176</ele>
        <time>2018-06-02T09:36:12Z</time>
      </trkpt>
      <trkpt lat="43.60465" lon="0.22914">
        <ele>176</ele>
        <time>2018-06-02T09:36:15Z</time>
      </trkpt>
      <trkpt lat="43.60467" lon="0.22914">
        <ele>176</ele>
        <time>2018-06-02T09:36:17Z</time>
      </trkpt>
      <trkpt lat="43.6047" lon="0.22914">
        <ele>176</ele>
        <time>2018-06-02T09:36:20Z</time>
      </trkpt>
      <trkpt lat="43.60472" lon="0.22915">
        <ele>176</ele>
        <time>2018-06-02T09:36:22Z</time>
      </trkpt>
      <trkpt lat="43.60476" lon="0.22915">
        <ele>176</ele>
        <time>2018-06-02T09:36:25Z</time>
      </trkpt>
      <trkpt lat="43.60479" lon="0.22915">
        <ele>176</ele>
        <time>2018-06-02T09:36:28Z</time>
      </trkpt>
      <trkpt lat="43.60481" lon="0.22915">
        <ele>176</ele>
        <time>2018-06-02T09:36:30Z</time>
      </trkpt>
      <trkpt lat="43.60485" lon="0.22915">
        <ele>176</ele>
        <time>2018-06-02T09:36:33Z</time>
      </trkpt>
      <trkpt lat="43.60487" lon="0.22914">
        <ele>176</ele>
        <time>2018-06-02T09:36:35Z</time>
      </trkpt>
      <trkpt lat="43.6049" lon="0.22913">
        <ele>176</ele>
        <time>2018-06-02T09:36:38Z</time>
      </trkpt>
      <trkpt lat="43.60492" lon="0.22912">
        <ele>176</ele>
        <time>2018-06-02T09:36:40Z</time>
      </trkpt>
      <trkpt lat="43.60496" lon="0.22911">
        <ele>176</ele>
        <time>2018-06-02T09:36:43Z</time>
      </trkpt>
      <trkpt lat="43.60498" lon="0.2291">
        <ele>176.1</ele>
        <time>2018-06-02T09:36:45Z</time>
      </trkpt>
      <trkpt lat="43.60501" lon="0.22908">
        <ele>176.1</ele>
        <time>2018-06-02T09:36:48Z</time>
      </trkpt>
      <trkpt lat="43.60503" lon="0.22907">
        <ele>176.1</ele>
        <time>2018-06-02T09:36:51Z</time>
      </trkpt>
      <trkpt lat="43.60505" lon="0.22906">
        <ele>176.1</ele>
        <time>2018-06-02T09:36:53Z</time>
      </trkpt>
      <trkpt lat="43.60508" lon="0.22904">
        <ele>176.1</ele>
        <time>2018-06-02T09:36:56Z</time>
      </trkpt>
      <trkpt lat="43.6051" lon="0.22903">
        <ele>176.1</ele>
        <time>2018-06-02T09:36:58Z</time>
      </trkpt>
      <trkpt lat="43.60511" lon="0.22902">
        <ele>176.1</ele>
        <time>2018-06-02T09:36:59Z</time>
      </trkpt>
      <trkpt lat="43.60512" lon="0.229">
        <ele>176.1</ele>
        <time>2018-06-02T09:37:01Z</time>
      </trkpt>
      <trkpt lat="43.60513" lon="0.22897">
        <ele>176.1</ele>
        <time>2018-06-02T09:37:03Z</time>
      </trkpt>
      <trkpt lat="43.60514" lon="0.22893">
        <ele>176.1</ele>
        <time>2018-06-02T09:37:06Z</time>
      </trkpt>
      <trkpt lat="43.60515" lon="0.2289">
        <ele>176.1</ele>
        <time>2018-06-02T09:37:08Z</time>
      </trkpt>
      <trkpt lat="43.60517" lon="0.22886">
        <ele>176.1</ele>
        <time>2018-06-02T09:37:11Z</time>
      </trkpt>
      <trkpt lat="43.60519" lon="0.22882">
        <ele>176.1</ele>
        <time>2018-06-02T09:37:14Z</time>
      </trkpt>
      <trkpt lat="43.6052" lon="0.2288">
        <ele>176.1</ele>
        <time>2018-06-02T09:37:16Z</time>
      </trkpt>
      <trkpt lat="43.60522" lon="0.22876">
        <ele>176.1</ele>
        <time>2018-06-02T09:37:19Z</time>
      </trkpt>
      <trkpt lat="43.60523" lon="0.22874">
        <ele>176.1</ele>
        <time>2018-06-02T09:37:21Z</time>
      </trkpt>
      <trkpt lat="43.60525" lon="0.2287">
        <ele>176.1</ele>
        <time>2018-06-02T09:37:24Z</time>
      </trkpt>
      <trkpt lat="43.60527" lon="0.22868">
        <ele>176.1</ele>
        <time>2018-06-02T09:37:26Z</time>
      </trkpt>
      <trkpt lat="43.60529" lon="0.22865">
        <ele>176.1</ele>
        <time>2018-06-02T09:37:29Z</time>
      </trkpt>
      <trkpt lat="43.60532" lon="0.22862">
        <ele>176.2</ele>
        <time>2018-06-02T09:37:32Z</time>
      </trkpt>
      <trkpt lat="43.60533" lon="0.2286">
        <ele>176.2</ele>
        <time>2018-06-02T09:37:34Z</time>
      </trkpt>
      <trkpt lat="43.60535" lon="0.22858">
        <ele>176.2</ele>
        <time>2018-06-02T09:37:36Z</time>
      </trkpt>
      <trkpt lat="43.60535" lon="0.22857">
        <ele>176.2</ele>
        <time>2018-06-02T09:37:37Z</time>
      </trkpt>
      <trkpt lat="43.60536" lon="0.22854">
        <ele>176.2</ele>
        <time>2018-06-02T09:37:39Z</time>
      </trkpt>
      <trkpt lat="43.60537" lon="0.22849">
        <ele>176.2</ele>
        <time>2018-06-02T09:37:42Z</time>
      </trkpt>
      <trkpt lat="43.60538" lon="0.22846">
        <ele>176.2</ele>
        <time>2018-06-02T09:37:44Z</time>
      </trkpt>
      <trkpt lat="43.60539" lon="0.22841">
        <ele>176.2</ele>
        <time>2018-06-02T09:37:47Z</time>
      </trkpt>
      <trkpt lat="43.6054" lon="0.2284">
        <ele>176.2</ele>
        <time>2018-06-02T09:37:48Z</time>
      </trkpt>
      <trkpt lat="43.6054" lon="0.22839">
        <ele>176.2</ele>
        <time>2018-06-02T09:37:49Z</time>
      </trkpt>
      <trkpt lat="43.6054" lon="0.22835">
        <ele>176.2</ele>
        <time>2018-06-02T09:37:52Z</time>
      </trkpt>
      <trkpt lat="43.60541" lon="0.22831">
        <ele>176.2</ele>
        <time>2018-06-02T09:37:55Z</time>
      </trkpt>
      <trkpt lat="43.60541" lon="0.22829">
        <ele>176.2</ele>
        <time>2018-06-02T09:37:57Z</time>
      </trkpt>
      <trkpt lat="43.60542" lon="0.22825">
        <ele>176.2</ele>
        <time>2018-06-02T09:38:00Z</time>
      </trkpt>
      <trkpt lat="43.60542" lon="0.22822">
        <ele>176.2</ele>
        <time>2018-06-02T09:38:02Z</time>
      </trkpt>
      <trkpt lat="43.60542" lon="0.2282">
        <ele>176.2</ele>
        <time>2018-06-02T09:38:04Z</time>
      </trkpt>
      <trkpt lat="43.60542" lon="0.22818">
        <ele>176.2</ele>
        <time>2018-06-02T09:38:05Z</time>
      </trkpt>
      <trkpt lat="43.60542" lon="0.22814">
        <ele>176.2</ele>
        <time>2018-06-02T09:38:07Z</time>
      </trkpt>
      <trkpt lat="43.60542" lon="0.22809">
        <ele>176.2</ele>
        <time>2018-06-02T09:38:10Z</time>
      </trkpt>
      <trkpt lat="43.60542" lon="0.22805">
        <ele>176.2</ele>
        <time>2018-06-02T09:38:12Z</time>
      </trkpt>
      <trkpt lat="43.60542" lon="0.228">
        <ele>176.2</ele>
        <time>2018-06-02T09:38:15Z</time>
      </trkpt>
      <trkpt lat="43.60542" lon="0.22795">
        <ele>176.2</ele>
        <time>2018-06-02T09:38:18Z</time>
      </trkpt>
      <trkpt lat="43.60543" lon="0.22792">
        <ele>176.3</ele>
        <time>2018-06-02T09:38:20Z</time>
      </trkpt>
      <trkpt lat="43.60543" lon="0.22787">
        <ele>176.3</ele>
        <time>2018-06-02T09:38:23Z</time>
      </trkpt>
      <trkpt lat="43.60543" lon="0.22783">
        <ele>176.3</ele>
        <time>2018-06-02T09:38:25Z</time>
      </trkpt>
      <trkpt lat="43.60544" lon="0.2278">
        <ele>176.3</ele>
        <time>2018-06-02T09:38:27Z</time>
      </trkpt>
      <trkpt lat="43.60543" lon="0.22778">
        <ele>176.3</ele>
        <time>2018-06-02T09:38:28Z</time>
      </trkpt>
      <trkpt lat="43.60543" lon="0.22775">
        <ele>176.3</ele>
        <time>2018-06-02T09:38:30Z</time>
      </trkpt>
      <trkpt lat="43.60543" lon="0.2277">
        <ele>176.3</ele>
        <time>2018-06-02T09:38:33Z</time>
      </trkpt>
      <trkpt lat="43.60542" lon="0.22766">
        <ele>176.3</ele>
        <time>2018-06-02T09:38:35Z</time>
      </trkpt>
      <trkpt lat="43.60542" lon="0.22761">
        <ele>176.3</ele>
        <time>2018-06-02T09:38:38Z</time>
      </trkpt>
      <trkpt lat="43.60542" lon="0.22757">
        <ele>176.3</ele>
        <time>2018-06-02T09:38:41Z</time>
      </trkpt>
      <trkpt lat="43.60542" lon="0.22755">
        <ele>176.3</ele>
        <time>2018-06-02T09:38:43Z</time>
      </trkpt>
      <trkpt lat="43.60543" lon="0.22751">
        <ele>176.3</ele>
        <time>2018-06-02T09:38:46Z</time>
      </trkpt>
      <trkpt lat="43.60543" lon="0.22748">
        <ele>176.3</ele>
        <time>2018-06-02T09:38:48Z</time>
      </trkpt>
      <trkpt lat="43.60543" lon="0.22744">
        <ele>176.3</ele>
        <time>2018-06-02T09:38:51Z</time>
      </trkpt>
      <trkpt lat="43.60543" lon="0.22742">
        <ele>176.3</ele>
        <time>2018-06-02T09:38:53Z</time>
      </trkpt>
      <trkpt lat="43.60544" lon="0.2274">
        <ele>176.3</ele>
        <time>2018-06-02T09:38:56Z</time>
      </trkpt>
      <trkpt lat="43.60545" lon="0.22739">
        <ele>176.3</ele>
        <time>2018-06-02T09:38:58Z</time>
      </trkpt>
      <trkpt lat="43.60546" lon="0.22738">
        <ele>176.3</ele>
        <time>2018-06-02T09:39:01Z</time>
      </trkpt>
      <trkpt lat="43.60547" lon="0.22736">
        <ele>176.3</ele>
        <time>2018-06-02T09:39:04Z</time>
      </trkpt>
      <trkpt lat="43.60548" lon="0.22735">
        <ele>176.3</ele>
        <time>2018-06-02T09:39:06Z</time>
      </trkpt>
      <trkpt lat="43.60549" lon="0.22734">
        <ele>176.4</ele>
        <time>2018-06-02T09:39:09Z</time>
      </trkpt>
      <trkpt lat="43.6055" lon="0.22733">
        <ele>176.4</ele>
        <time>2018-06-02T09:39:11Z</time>
      </trkpt>
      <trkpt lat="43.60551" lon="0.22731">
        <ele>176.4</ele>
        <time>2018-06-02T09:39:14Z</time>
      </trkpt>
      <trkpt lat="43.60552" lon="0.2273">
        <ele>176.4</ele>
        <time>2018-06-02T09:39:16Z</time>
      </trkpt>
      <trkpt lat="43.60554" lon="0.22729">
        <ele>176.4</ele>
        <time>2018-06-02T09:39:19Z</time>
      </trkpt>
      <trkpt lat="43.60556" lon="0.2273">
        <ele>176.4</ele>
        <time>2018-06-02T09:39:21Z</time>
      </trkpt>
      <trkpt lat="43.60559" lon="0.22731">
        <ele>176.4</ele>
        <time>2018-06-02T09:39:24Z</time>
      </trkpt>
      <trkpt lat="43.60563" lon="0.22733">
        <ele>176.4</ele>
        <time>2018-06-02T09:39:27Z</time>
      </trkpt>
      <trkpt lat="43.60565" lon="0.22733">
        <ele>176.4</ele>
        <time>2018-06-02T09:39:29Z</time>
      </trkpt>
      <trkpt lat="43.60567" lon="0.22734">
        <ele>176.4</ele>
        <time>2018-06-02T09:39:31Z</time>
      </trkpt>
      <trkpt lat="43.60568" lon="0.22736">
        <ele>176.4</ele>
        <time>2018-06-02T09:39:32Z</time>
      </trkpt>
      <trkpt lat="43.6057" lon="0.22738">
        <ele>176.4</ele>
        <time>2018-06-02T09:39:34Z</time>
      </trkpt>
      <trkpt lat="43.60572" lon="0.22741">
        <ele>176.4</ele>
        <time>2018-06-02T09:39:37Z</time>
      </trkpt>
      <trkpt lat="43.60574" lon="0.22743">
        <ele>176.4</ele>
        <time>2018-06-02T09:39:39Z</time>
      </trkpt>
      <trkpt lat="43.60577" lon="0.22747">
        <ele>176.4</ele>
        <time>2018-06-02T09:39:42Z</time>
      </trkpt>
      <trkpt lat="43.60577" lon="0.22748">
        <ele>176.4</ele>
        <time>2018-06-02T09:39:43Z</time>
      </trkpt>
      <trkpt lat="43.60578" lon="0.2275">
        <ele>176.4</ele>
        <time>2018-06-02T09:39:44Z</time>
      </trkpt>
      <trkpt lat="43.6058" lon="0.22754">
        <ele>176.4</ele>
        <time>2018-06-02T09:39:47Z</time>
      </trkpt>
      <trkpt lat="43.60581" lon="0.22759">
        <ele>176.4</ele>
        <time>2018-06-02T09:39:50Z</time>
      </trkpt>
      <trkpt lat="43.60582" lon="0.22762">
        <ele>176.4</ele>
        <time>2018-06-02T09:39:52Z</time>
      </trkpt>
      <trkpt lat="43.60583" lon="0.22765">
        <ele>176.4</ele>
        <time>2018-06-02T09:39:54Z</time>
      </trkpt>
      <trkpt lat="43.60584" lon="0.22767">
        <ele>176.4</ele>
        <time>2018-06-02T09:39:55Z</time>
      </trkpt>
      <trkpt lat="43.60586" lon="0.2277">
        <ele>176.5</ele>
        <time>2018-06-02T09:39:57Z</time>
      </trkpt>
      <trkpt lat="43.60588" lon="0.22775">
        <ele>176.5</ele>
        <time>2018-06-02T09:40:00Z</time>
      </trkpt>
      <trkpt lat="43.60589" lon="0.22778">
        <ele>176.5</ele>
        <time>2018-06-02T09:40:02Z</time>
      </trkpt>
      <trkpt lat="43.60591" lon="0.22782">
        <ele>176.5</ele>
        <time>2018-06-02T09:40:04Z</time>
      </trkpt>
      <trkpt lat="43.60591" lon="0.22783">
        <ele>176.5</ele>
        <time>2018-06-02T09:40:05Z</time>
      </trkpt>
      <trkpt lat="43.60593" lon="0.22788">
        <ele>176.5</ele>
        <time>2018-06-02T09:40:08Z</time>
      </trkpt>
      <trkpt lat="43.60594" lon="0.22794">
        <ele>176.5</ele>
        <time>2018-06-02T09:40:11Z</time>
      </trkpt>
      <trkpt lat="43.60596" lon="0.22799">
        <ele>176.5</ele>
        <time>2018-06-02T09:40:14Z</time>
      </trkpt>
      <trkpt lat="43.60596" lon="0.228">
        <ele>176.5</ele>
        <time>2018-06-02T09:40:15Z</time>
      </trkpt>
      <trkpt lat="43.60598" lon="0.22804">
        <ele>176.5</ele>
        <time>2018-06-02T09:40:17Z</time>
      </trkpt>
      <trkpt lat="43.60601" lon="0.22809">
        <ele>176.5</ele>
        <time>2018-06-02T09:40:20Z</time>
      </trkpt>
      <trkpt lat="43.60604" lon="0.22816">
        <ele>176.5</ele>
        <time>2018-06-02T09:40:24Z</time>
      </trkpt>
      <trkpt lat="43.60605" lon="0.22818">
        <ele>176.5</ele>
        <time>2018-06-02T09:40:25Z</time>
      </trkpt>
      <trkpt lat="43.60607" lon="0.22823">
        <ele>176.5</ele>
        <time>2018-06-02T09:40:28Z</time>
      </trkpt>
      <trkpt lat="43.60608" lon="0.22826">
        <ele>176.5</ele>
        <time>2018-06-02T09:40:30Z</time>
      </trkpt>
      <trkpt lat="43.6061" lon="0.22831">
        <ele>176.5</ele>
        <time>2018-06-02T09:40:33Z</time>
      </trkpt>
      <trkpt lat="43.6061" lon="0.22833">
        <ele>176.5</ele>
        <time>2018-06-02T09:40:34Z</time>
      </trkpt>
      <trkpt lat="43.60611" lon="0.22836">
        <ele>176.5</ele>
        <time>2018-06-02T09:40:36Z</time>
      </trkpt>
      <trkpt lat="43.60612" lon="0.2284">
        <ele>176.5</ele>
        <time>2018-06-02T09:40:38Z</time>
      </trkpt>
      <trkpt lat="43.60613" lon="0.22845">
        <ele>176.5</ele>
        <time>2018-06-02T09:40:41Z</time>
      </trkpt>
      <trkpt lat="43.60614" lon="0.22848">
        <ele>176.5</ele>
        <time>2018-06-02T09:40:43Z</time>
      </trkpt>
      <trkpt lat="43.60614" lon="0.22852">
        <ele>176.6</ele>
        <time>2018-06-02T09:40:45Z</time>
      </trkpt>
      <trkpt lat="43.60615" lon="0.22853">
        <ele>176.6</ele>
        <time>2018-06-02T09:40:46Z</time>
      </trkpt>
      <trkpt lat="43.60616" lon="0.22857">
        <ele>176.6</ele>
        <time>2018-06-02T09:40:48Z</time>
      </trkpt>
      <trkpt lat="43.60617" lon="0.22862">
        <ele>176.6</ele>
        <time>2018-06-02T09:40:51Z</time>
      </trkpt>
      <trkpt lat="43.60618" lon="0.22865">
        <ele>176.6</ele>
        <time>2018-06-02T09:40:53Z</time>
      </trkpt>
      <trkpt lat="43.6062" lon="0.2287">
        <ele>176.6</ele>
        <time>2018-06-02T09:40:56Z</time>
      </trkpt>
      <trkpt lat="43.60621" lon="0.22874">
        <ele>176.6</ele>
        <time>2018-06-02T09:40:59Z</time>
      </trkpt>
      <trkpt lat="43.60621" lon="0.22877">
        <ele>176.6</ele>
        <time>2018-06-02T09:41:01Z</time>
      </trkpt>
      <trkpt lat="43.60622" lon="0.22881">
        <ele>176.6</ele>
        <time>2018-06-02T09:41:04Z</time>
      </trkpt>
      <trkpt lat="43.60623" lon="0.22884">
        <ele>176.6</ele>
        <time>2018-06-02T09:41:06Z</time>
      </trkpt>
      <trkpt lat="43.60624" lon="0.22888">
        <ele>176.6</ele>
        <time>2018-06-02T09:41:09Z</time>
      </trkpt>
      <trkpt lat="43.60624" lon="0.22889">
        <ele>176.6</ele>
        <time>2018-06-02T09:41:10Z</time>
      </trkpt>
      <trkpt lat="43.60625" lon="0.22891">
        <ele>176.6</ele>
        <time>2018-06-02T09:41:11Z</time>
      </trkpt>
      <trkpt lat="43.60628" lon="0.22898">
        <ele>176.6</ele>
        <time>2018-06-02T09:41:15Z</time>
      </trkpt>
      <trkpt lat="43.6063" lon="0.22901">
        <ele>176.6</ele>
        <time>2018-06-02T09:41:17Z</time>
      </trkpt>
      <trkpt lat="43.60632" lon="0.22904">
        <ele>176.6</ele>
        <time>2018-06-02T09:41:19Z</time>
      </trkpt>
      <trkpt lat="43.60632" lon="0.22906">
        <ele>176.6</ele>
        <time>2018-06-02T09:41:20Z</time>
      </trkpt>
      <trkpt lat="43.60634" lon="0.22909">
        <ele>176.6</ele>
        <time>2018-06-02T09:41:22Z</time>
      </trkpt>
      <trkpt lat="43.60635" lon="0.22911">
        <ele>176.6</ele>
        <time>2018-06-02T09:41:24Z</time>
      </trkpt>
      <trkpt lat="43.60637" lon="0.22916">
        <ele>176.6</ele>
        <time>2018-06-02T09:41:27Z</time>
      </trkpt>
      <trkpt lat="43.60638" lon="0.22918">
        <ele>176.6</ele>
        <time>2018-06-02T09:41:29Z</time>
      </trkpt>
      <trkpt lat="43.6064" lon="0.22923">
        <ele>176.7</ele>
        <time>2018-06-02T09:41:32Z</time>
      </trkpt>
      <trkpt lat="43.60641" lon="0.22925">
        <ele>176.7</ele>
        <time>2018-06-02T09:41:34Z</time>
      </trkpt>
      <trkpt lat="43.60643" lon="0.22929">
        <ele>176.7</ele>
        <time>2018-06-02T09:41:37Z</time>
      </trkpt>
      <trkpt lat="43.60646" lon="0.22933">
        <ele>176.7</ele>
        <time>2018-06-02T09:41:40Z</time>
      </trkpt>
      <trkpt lat="43.60647" lon="0.22936">
        <ele>176.7</ele>
        <time>2018-06-02T09:41:42Z</time>
      </trkpt>
      <trkpt lat="43.60648" lon="0.22937">
        <ele>176.7</ele>
        <time>2018-06-02T09:41:43Z</time>
      </trkpt>
      <trkpt lat="43.60649" lon="0.22938">
        <ele>176.7</ele>
        <time>2018-06-02T09:41:45Z</time>
      </trkpt>
      <trkpt lat="43.6065" lon="0.2294">
        <ele>176.7</ele>
        <time>2018-06-02T09:41:47Z</time>
      </trkpt>
      <trkpt lat="43.60652" lon="0.22941">
        <ele>176.7</ele>
        <time>2018-06-02T09:41:50Z</time>
      </trkpt>
      <trkpt lat="43.60653" lon="0.22943">
        <ele>176.7</ele>
        <time>2018-06-02T09:41:52Z</time>
      </trkpt>
      <trkpt lat="43.60655" lon="0.22944">
        <ele>176.7</ele>
        <time>2018-06-02T09:41:55Z</time>
      </trkpt>
      <trkpt lat="43.60656" lon="0.22945">
        <ele>176.7</ele>
        <time>2018-06-02T09:41:57Z</time>
      </trkpt>
      <trkpt lat="43.60658" lon="0.22947">
        <ele>176.7</ele>
        <time>2018-06-02T09:42:00Z</time>
      </trkpt>
      <trkpt lat="43.6066" lon="0.22949">
        <ele>176.7</ele>
        <time>2018-06-02T09:42:02Z</time>
      </trkpt>
      <trkpt lat="43.60661" lon="0.22949">
        <ele>176.7</ele>
        <time>2018-06-02T09:42:03Z</time>
      </trkpt>
      <trkpt lat="43.60663" lon="0.22951">
        <ele>176.7</ele>
        <time>2018-06-02T09:42:05Z</time>
      </trkpt>
      <trkpt lat="43.60667" lon="0.22953">
        <ele>176.7</ele>
        <time>2018-06-02T09:42:08Z</time>
      </trkpt>
      <trkpt lat="43.60669" lon="0.22955">
        <ele>176.7</ele>
        <time>2018-06-02T09:42:10Z</time>
      </trkpt>
      <trkpt lat="43.60673" lon="0.22957">
        <ele>176.7</ele>
        <time>2018-06-02T09:42:13Z</time>
      </trkpt>
      <trkpt lat="43.60675" lon="0.22958">
        <ele>176.7</ele>
        <time>2018-06-02T09:42:15Z</time>
      </trkpt>
      <trkpt lat="43.60679" lon="0.2296">
        <ele>176.7</ele>
        <time>2018-06-02T09:42:18Z</time>
      </trkpt>
      <trkpt lat="43.60681" lon="0.22961">
        <ele>176.8</ele>
        <time>2018-06-02T09:42:20Z</time>
      </trkpt>
      <trkpt lat="43.60684" lon="0.22963">
        <ele>176.8</ele>
        <time>2018-06-02T09:42:23Z</time>
      </trkpt>
      <trkpt lat="43.60686" lon="0.22964">
        <ele>176.8</ele>
        <time>2018-06-02T09:42:25Z</time>
      </trkpt>
      <trkpt lat="43.60686" lon="0.22965">
        <ele>176.8</ele>
        <time>2018-06-02T09:42:26Z</time>
      </trkpt>
      <trkpt lat="43.60685" lon="0.22994">
        <ele>177.2</ele>
        <time>2018-06-02T09:42:31Z</time>
      </trkpt>
      <trkpt lat="43.60685" lon="0.22994">
        <ele>177.2</ele>
        <time>2018-06-02T09:48:36Z</time>
      </trkpt>
      <trkpt lat="43.60684" lon="0.23021">
        <ele>177.5</ele>
        <time>2018-06-02T09:48:36Z</time>
      </trkpt>
      <trkpt lat="43.60684" lon="0.23027">
        <ele>177.5</ele>
        <time>2018-06-02T09:48:39Z</time>
      </trkpt>
      <trkpt lat="43.60684" lon="0.23032">
        <ele>177.6</ele>
        <time>2018-06-02T09:48:42Z</time>
      </trkpt>
      <trkpt lat="43.60683" lon="0.23034">
        <ele>177.6</ele>
        <time>2018-06-02T09:48:43Z</time>
      </trkpt>
      <trkpt lat="43.60683" lon="0.23035">
        <ele>177.6</ele>
        <time>2018-06-02T09:48:44Z</time>
      </trkpt>
      <trkpt lat="43.60683" lon="0.23039">
        <ele>177.6</ele>
        <time>2018-06-02T09:48:46Z</time>
      </trkpt>
      <trkpt lat="43.60682" lon="0.23043">
        <ele>177.6</ele>
        <time>2018-06-02T09:48:49Z</time>
      </trkpt>
      <trkpt lat="43.60681" lon="0.23048">
        <ele>177.6</ele>
        <time>2018-06-02T09:48:52Z</time>
      </trkpt>
      <trkpt lat="43.6068" lon="0.23051">
        <ele>177.6</ele>
        <time>2018-06-02T09:48:54Z</time>
      </trkpt>
      <trkpt lat="43.60679" lon="0.23055">
        <ele>177.6</ele>
        <time>2018-06-02T09:48:57Z</time>
      </trkpt>
      <trkpt lat="43.60679" lon="0.23058">
        <ele>177.6</ele>
        <time>2018-06-02T09:48:59Z</time>
      </trkpt>
      <trkpt lat="43.60678" lon="0.23062">
        <ele>177.6</ele>
        <time>2018-06-02T09:49:02Z</time>
      </trkpt>
      <trkpt lat="43.60677" lon="0.23065">
        <ele>177.6</ele>
        <time>2018-06-02T09:49:04Z</time>
      </trkpt>
      <trkpt lat="43.60676" lon="0.23069">
        <ele>177.6</ele>
        <time>2018-06-02T09:49:07Z</time>
      </trkpt>
      <trkpt lat="43.60675" lon="0.23072">
        <ele>177.6</ele>
        <time>2018-06-02T09:49:09Z</time>
      </trkpt>
      <trkpt lat="43.60675" lon="0.23077">
        <ele>177.6</ele>
        <time>2018-06-02T09:49:12Z</time>
      </trkpt>
      <trkpt lat="43.60674" lon="0.23081">
        <ele>177.6</ele>
        <time>2018-06-02T09:49:15Z</time>
      </trkpt>
      <trkpt lat="43.60673" lon="0.23084">
        <ele>177.6</ele>
        <time>2018-06-02T09:49:17Z</time>
      </trkpt>
      <trkpt lat="43.60672" lon="0.23089">
        <ele>177.6</ele>
        <time>2018-06-02T09:49:20Z</time>
      </trkpt>
      <trkpt lat="43.60672" lon="0.23092">
        <ele>177.6</ele>
        <time>2018-06-02T09:49:22Z</time>
      </trkpt>
      <trkpt lat="43.60672" lon="0.23096">
        <ele>177.6</ele>
        <time>2018-06-02T09:49:25Z</time>
      </trkpt>
      <trkpt lat="43.60671" lon="0.23099">
        <ele>177.6</ele>
        <time>2018-06-02T09:49:27Z</time>
      </trkpt>
      <trkpt lat="43.60671" lon="0.23104">
        <ele>177.7</ele>
        <time>2018-06-02T09:49:30Z</time>
      </trkpt>
      <trkpt lat="43.60671" lon="0.23107">
        <ele>177.7</ele>
        <time>2018-06-02T09:49:32Z</time>
      </trkpt>
      <trkpt lat="43.60671" lon="0.23108">
        <ele>177.7</ele>
        <time>2018-06-02T09:49:33Z</time>
      </trkpt>
      <trkpt lat="43.6067" lon="0.23111">
        <ele>177.7</ele>
        <time>2018-06-02T09:49:35Z</time>
      </trkpt>
      <trkpt lat="43.6067" lon="0.23116">
        <ele>177.7</ele>
        <time>2018-06-02T09:49:38Z</time>
      </trkpt>
      <trkpt lat="43.6067" lon="0.23119">
        <ele>177.7</ele>
        <time>2018-06-02T09:49:40Z</time>
      </trkpt>
      <trkpt lat="43.6067" lon="0.23123">
        <ele>177.7</ele>
        <time>2018-06-02T09:49:43Z</time>
      </trkpt>
      <trkpt lat="43.60669" lon="0.23126">
        <ele>177.7</ele>
        <time>2018-06-02T09:49:45Z</time>
      </trkpt>
      <trkpt lat="43.60669" lon="0.23127">
        <ele>177.7</ele>
        <time>2018-06-02T09:49:46Z</time>
      </trkpt>
      <trkpt lat="43.60669" lon="0.2313">
        <ele>177.7</ele>
        <time>2018-06-02T09:49:48Z</time>
      </trkpt>
      <trkpt lat="43.60669" lon="0.23132">
        <ele>177.7</ele>
        <time>2018-06-02T09:49:50Z</time>
      </trkpt>
      <trkpt lat="43.60669" lon="0.23136">
        <ele>177.7</ele>
        <time>2018-06-02T09:49:53Z</time>
      </trkpt>
      <trkpt lat="43.60668" lon="0.23138">
        <ele>177.7</ele>
        <time>2018-06-02T09:49:55Z</time>
      </trkpt>
      <trkpt lat="43.60668" lon="0.23141">
        <ele>177.7</ele>
        <time>2018-06-02T09:49:58Z</time>
      </trkpt>
      <trkpt lat="43.60668" lon="0.23145">
        <ele>177.7</ele>
        <time>2018-06-02T09:50:01Z</time>
      </trkpt>
      <trkpt lat="43.60668" lon="0.23146">
        <ele>177.7</ele>
        <time>2018-06-02T09:50:02Z</time>
      </trkpt>
      <trkpt lat="43.60667" lon="0.23148">
        <ele>177.7</ele>
        <time>2018-06-02T09:50:03Z</time>
      </trkpt>
      <trkpt lat="43.60666" lon="0.23152">
        <ele>177.7</ele>
        <time>2018-06-02T09:50:06Z</time>
      </trkpt>
      <trkpt lat="43.60666" lon="0.23155">
        <ele>177.7</ele>
        <time>2018-06-02T09:50:08Z</time>
      </trkpt>
      <trkpt lat="43.60665" lon="0.2316">
        <ele>177.7</ele>
        <time>2018-06-02T09:50:11Z</time>
      </trkpt>
      <trkpt lat="43.60664" lon="0.23163">
        <ele>177.7</ele>
        <time>2018-06-02T09:50:13Z</time>
      </trkpt>
      <trkpt lat="43.60664" lon="0.23164">
        <ele>177.7</ele>
        <time>2018-06-02T09:50:14Z</time>
      </trkpt>
      <trkpt lat="43.60664" lon="0.23168">
        <ele>177.7</ele>
        <time>2018-06-02T09:50:16Z</time>
      </trkpt>
      <trkpt lat="43.60664" lon="0.23171">
        <ele>177.8</ele>
        <time>2018-06-02T09:50:18Z</time>
      </trkpt>
      <trkpt lat="43.60663" lon="0.23176">
        <ele>177.8</ele>
        <time>2018-06-02T09:50:21Z</time>
      </trkpt>
      <trkpt lat="43.60663" lon="0.23181">
        <ele>177.8</ele>
        <time>2018-06-02T09:50:24Z</time>
      </trkpt>
      <trkpt lat="43.60663" lon="0.23183">
        <ele>177.8</ele>
        <time>2018-06-02T09:50:25Z</time>
      </trkpt>
      <trkpt lat="43.60663" lon="0.23184">
        <ele>177.8</ele>
        <time>2018-06-02T09:50:26Z</time>
      </trkpt>
      <trkpt lat="43.60663" lon="0.23189">
        <ele>177.8</ele>
        <time>2018-06-02T09:50:29Z</time>
      </trkpt>
      <trkpt lat="43.60662" lon="0.23192">
        <ele>177.8</ele>
        <time>2018-06-02T09:50:31Z</time>
      </trkpt>
      <trkpt lat="43.60662" lon="0.23197">
        <ele>177.8</ele>
        <time>2018-06-02T09:50:34Z</time>
      </trkpt>
      <trkpt lat="43.60662" lon="0.232">
        <ele>177.8</ele>
        <time>2018-06-02T09:50:36Z</time>
      </trkpt>
      <trkpt lat="43.60662" lon="0.23202">
        <ele>177.8</ele>
        <time>2018-06-02T09:50:37Z</time>
      </trkpt>
      <trkpt lat="43.60662" lon="0.23205">
        <ele>177.8</ele>
        <time>2018-06-02T09:50:39Z</time>
      </trkpt>
      <trkpt lat="43.60661" lon="0.23209">
        <ele>177.8</ele>
        <time>2018-06-02T09:50:41Z</time>
      </trkpt>
      <trkpt lat="43.60661" lon="0.23214">
        <ele>177.8</ele>
        <time>2018-06-02T09:50:44Z</time>
      </trkpt>
      <trkpt lat="43.60661" lon="0.23219">
        <ele>177.8</ele>
        <time>2018-06-02T09:50:47Z</time>
      </trkpt>
      <trkpt lat="43.60661" lon="0.23221">
        <ele>177.8</ele>
        <time>2018-06-02T09:50:48Z</time>
      </trkpt>
      <trkpt lat="43.6066" lon="0.23223">
        <ele>177.8</ele>
        <time>2018-06-02T09:50:49Z</time>
      </trkpt>
      <trkpt lat="43.6066" lon="0.23228">
        <ele>177.8</ele>
        <time>2018-06-02T09:50:52Z</time>
      </trkpt>
      <trkpt lat="43.60659" lon="0.23232">
        <ele>177.8</ele>
        <time>2018-06-02T09:50:54Z</time>
      </trkpt>
      <trkpt lat="43.60659" lon="0.23237">
        <ele>177.8</ele>
        <time>2018-06-02T09:50:57Z</time>
      </trkpt>
      <trkpt lat="43.60659" lon="0.2324">
        <ele>177.8</ele>
        <time>2018-06-02T09:50:59Z</time>
      </trkpt>
      <trkpt lat="43.60658" lon="0.23245">
        <ele>177.8</ele>
        <time>2018-06-02T09:51:02Z</time>
      </trkpt>
      <trkpt lat="43.60657" lon="0.23248">
        <ele>177.8</ele>
        <time>2018-06-02T09:51:04Z</time>
      </trkpt>
      <trkpt lat="43.60657" lon="0.23253">
        <ele>177.9</ele>
        <time>2018-06-02T09:51:07Z</time>
      </trkpt>
      <trkpt lat="43.60656" lon="0.23258">
        <ele>177.9</ele>
        <time>2018-06-02T09:51:10Z</time>
      </trkpt>
      <trkpt lat="43.60656" lon="0.23259">
        <ele>177.9</ele>
        <time>2018-06-02T09:51:11Z</time>
      </trkpt>
      <trkpt lat="43.60655" lon="0.23261">
        <ele>177.9</ele>
        <time>2018-06-02T09:51:12Z</time>
      </trkpt>
      <trkpt lat="43.60655" lon="0.23266">
        <ele>177.9</ele>
        <time>2018-06-02T09:51:15Z</time>
      </trkpt>
      <trkpt lat="43.60655" lon="0.23269">
        <ele>177.9</ele>
        <time>2018-06-02T09:51:17Z</time>
      </trkpt>
      <trkpt lat="43.60654" lon="0.23273">
        <ele>177.9</ele>
        <time>2018-06-02T09:51:20Z</time>
      </trkpt>
      <trkpt lat="43.60654" lon="0.23276">
        <ele>177.9</ele>
        <time>2018-06-02T09:51:22Z</time>
      </trkpt>
      <trkpt lat="43.60653" lon="0.23279">
        <ele>177.9</ele>
        <time>2018-06-02T09:51:24Z</time>
      </trkpt>
      <trkpt lat="43.60653" lon="0.2328">
        <ele>177.9</ele>
        <time>2018-06-02T09:51:25Z</time>
      </trkpt>
      <trkpt lat="43.60653" lon="0.23283">
        <ele>177.9</ele>
        <time>2018-06-02T09:51:27Z</time>
      </trkpt>
      <trkpt lat="43.60653" lon="0.23287">
        <ele>177.9</ele>
        <time>2018-06-02T09:51:30Z</time>
      </trkpt>
      <trkpt lat="43.60652" lon="0.2329">
        <ele>177.9</ele>
        <time>2018-06-02T09:51:33Z</time>
      </trkpt>
      <trkpt lat="43.60652" lon="0.23293">
        <ele>177.9</ele>
        <time>2018-06-02T09:51:35Z</time>
      </trkpt>
      <trkpt lat="43.6065" lon="0.23314">
        <ele>178</ele>
        <time>2018-06-02T09:51:39Z</time>
      </trkpt>
      <trkpt lat="43.6065" lon="0.23314">
        <ele>178</ele>
        <time>2018-06-02T09:53:02Z</time>
      </trkpt>
      <trkpt lat="43.60649" lon="0.23331">
        <ele>178.1</ele>
        <time>2018-06-02T09:53:03Z</time>
      </trkpt>
      <trkpt lat="43.60649" lon="0.23333">
        <ele>178.1</ele>
        <time>2018-06-02T09:53:04Z</time>
      </trkpt>
      <trkpt lat="43.60649" lon="0.23336">
        <ele>178.1</ele>
        <time>2018-06-02T09:53:05Z</time>
      </trkpt>
      <trkpt lat="43.60649" lon="0.23341">
        <ele>178.1</ele>
        <time>2018-06-02T09:53:07Z</time>
      </trkpt>
      <trkpt lat="43.60648" lon="0.23348">
        <ele>178.1</ele>
        <time>2018-06-02T09:53:10Z</time>
      </trkpt>
      <trkpt lat="43.60648" lon="0.23351">
        <ele>178.1</ele>
        <time>2018-06-02T09:53:11Z</time>
      </trkpt>
      <trkpt lat="43.60647" lon="0.23352">
        <ele>178.1</ele>
        <time>2018-06-02T09:53:12Z</time>
      </trkpt>
      <trkpt lat="43.60644" lon="0.23356">
        <ele>178.1</ele>
        <time>2018-06-02T09:53:15Z</time>
      </trkpt>
      <trkpt lat="43.60642" lon="0.23358">
        <ele>178.1</ele>
        <time>2018-06-02T09:53:17Z</time>
      </trkpt>
      <trkpt lat="43.60638" lon="0.23362">
        <ele>178.1</ele>
        <time>2018-06-02T09:53:20Z</time>
      </trkpt>
      <trkpt lat="43.60637" lon="0.23364">
        <ele>178.1</ele>
        <time>2018-06-02T09:53:21Z</time>
      </trkpt>
      <trkpt lat="43.60636" lon="0.23366">
        <ele>178.1</ele>
        <time>2018-06-02T09:53:23Z</time>
      </trkpt>
      <trkpt lat="43.60634" lon="0.23368">
        <ele>178.1</ele>
        <time>2018-06-02T09:53:25Z</time>
      </trkpt>
      <trkpt lat="43.60632" lon="0.23371">
        <ele>178.2</ele>
        <time>2018-06-02T09:53:28Z</time>
      </trkpt>
      <trkpt lat="43.6063" lon="0.23373">
        <ele>178.2</ele>
        <time>2018-06-02T09:53:30Z</time>
      </trkpt>
      <trkpt lat="43.60628" lon="0.23376">
        <ele>178.2</ele>
        <time>2018-06-02T09:53:33Z</time>
      </trkpt>
      <trkpt lat="43.60627" lon="0.23377">
        <ele>178.2</ele>
        <time>2018-06-02T09:53:34Z</time>
      </trkpt>
      <trkpt lat="43.60626" lon="0.23378">
        <ele>178.2</ele>
        <time>2018-06-02T09:53:35Z</time>
      </trkpt>
      <trkpt lat="43.60624" lon="0.23379">
        <ele>178.2</ele>
        <time>2018-06-02T09:53:38Z</time>
      </trkpt>
      <trkpt lat="43.60623" lon="0.2338">
        <ele>178.2</ele>
        <time>2018-06-02T09:53:40Z</time>
      </trkpt>
      <trkpt lat="43.6062" lon="0.23382">
        <ele>178.2</ele>
        <time>2018-06-02T09:53:43Z</time>
      </trkpt>
      <trkpt lat="43.60618" lon="0.23384">
        <ele>178.2</ele>
        <time>2018-06-02T09:53:46Z</time>
      </trkpt>
      <trkpt lat="43.60617" lon="0.23385">
        <ele>178.2</ele>
        <time>2018-06-02T09:53:48Z</time>
      </trkpt>
      <trkpt lat="43.60615" lon="0.23385">
        <ele>178.2</ele>
        <time>2018-06-02T09:53:50Z</time>
      </trkpt>
      <trkpt lat="43.60613" lon="0.23385">
        <ele>178.2</ele>
        <time>2018-06-02T09:53:51Z</time>
      </trkpt>
      <trkpt lat="43.6061" lon="0.23385">
        <ele>178.2</ele>
        <time>2018-06-02T09:53:53Z</time>
      </trkpt>
      <trkpt lat="43.60606" lon="0.23385">
        <ele>178.2</ele>
        <time>2018-06-02T09:53:56Z</time>
      </trkpt>
      <trkpt lat="43.60603" lon="0.23385">
        <ele>178.2</ele>
        <time>2018-06-02T09:53:58Z</time>
      </trkpt>
      <trkpt lat="43.606" lon="0.23385">
        <ele>178.2</ele>
        <time>2018-06-02T09:54:00Z</time>
      </trkpt>
      <trkpt lat="43.60599" lon="0.23386">
        <ele>178.2</ele>
        <time>2018-06-02T09:54:01Z</time>
      </trkpt>
      <trkpt lat="43.60596" lon="0.23387">
        <ele>178.2</ele>
        <time>2018-06-02T09:54:03Z</time>
      </trkpt>
      <trkpt lat="43.60592" lon="0.23389">
        <ele>178.2</ele>
        <time>2018-06-02T09:54:06Z</time>
      </trkpt>
      <trkpt lat="43.60588" lon="0.23392">
        <ele>178.2</ele>
        <time>2018-06-02T09:54:09Z</time>
      </trkpt>
      <trkpt lat="43.60587" lon="0.23393">
        <ele>178.2</ele>
        <time>2018-06-02T09:54:10Z</time>
      </trkpt>
      <trkpt lat="43.60586" lon="0.23394">
        <ele>178.2</ele>
        <time>2018-06-02T09:54:11Z</time>
      </trkpt>
      <trkpt lat="43.60582" lon="0.23397">
        <ele>178.2</ele>
        <time>2018-06-02T09:54:14Z</time>
      </trkpt>
      <trkpt lat="43.6058" lon="0.23399">
        <ele>178.3</ele>
        <time>2018-06-02T09:54:16Z</time>
      </trkpt>
      <trkpt lat="43.60576" lon="0.23402">
        <ele>178.3</ele>
        <time>2018-06-02T09:54:19Z</time>
      </trkpt>
      <trkpt lat="43.60575" lon="0.23403">
        <ele>178.3</ele>
        <time>2018-06-02T09:54:20Z</time>
      </trkpt>
      <trkpt lat="43.60574" lon="0.23405">
        <ele>178.3</ele>
        <time>2018-06-02T09:54:21Z</time>
      </trkpt>
      <trkpt lat="43.60572" lon="0.23408">
        <ele>178.3</ele>
        <time>2018-06-02T09:54:24Z</time>
      </trkpt>
      <trkpt lat="43.6057" lon="0.23411">
        <ele>178.3</ele>
        <time>2018-06-02T09:54:26Z</time>
      </trkpt>
      <trkpt lat="43.60567" lon="0.23415">
        <ele>178.3</ele>
        <time>2018-06-02T09:54:29Z</time>
      </trkpt>
      <trkpt lat="43.60566" lon="0.23418">
        <ele>178.3</ele>
        <time>2018-06-02T09:54:31Z</time>
      </trkpt>
      <trkpt lat="43.60565" lon="0.23419">
        <ele>178.3</ele>
        <time>2018-06-02T09:54:32Z</time>
      </trkpt>
      <trkpt lat="43.60563" lon="0.23421">
        <ele>178.3</ele>
        <time>2018-06-02T09:54:34Z</time>
      </trkpt>
      <trkpt lat="43.6056" lon="0.23425">
        <ele>178.3</ele>
        <time>2018-06-02T09:54:37Z</time>
      </trkpt>
      <trkpt lat="43.60558" lon="0.23428">
        <ele>178.3</ele>
        <time>2018-06-02T09:54:39Z</time>
      </trkpt>
      <trkpt lat="43.60555" lon="0.23431">
        <ele>178.3</ele>
        <time>2018-06-02T09:54:42Z</time>
      </trkpt>
      <trkpt lat="43.60553" lon="0.23432">
        <ele>178.3</ele>
        <time>2018-06-02T09:54:44Z</time>
      </trkpt>
      <trkpt lat="43.6055" lon="0.23433">
        <ele>178.3</ele>
        <time>2018-06-02T09:54:47Z</time>
      </trkpt>
      <trkpt lat="43.60548" lon="0.23434">
        <ele>178.4</ele>
        <time>2018-06-02T09:54:49Z</time>
      </trkpt>
      <trkpt lat="43.60545" lon="0.23435">
        <ele>178.6</ele>
        <time>2018-06-02T09:54:52Z</time>
      </trkpt>
      <trkpt lat="43.60542" lon="0.23436">
        <ele>178.7</ele>
        <time>2018-06-02T09:54:55Z</time>
      </trkpt>
      <trkpt lat="43.60541" lon="0.23436">
        <ele>178.8</ele>
        <time>2018-06-02T09:54:57Z</time>
      </trkpt>
      <trkpt lat="43.60538" lon="0.23437">
        <ele>179</ele>
        <time>2018-06-02T09:55:00Z</time>
      </trkpt>
      <trkpt lat="43.60537" lon="0.23437">
        <ele>179.1</ele>
        <time>2018-06-02T09:55:02Z</time>
      </trkpt>
      <trkpt lat="43.60535" lon="0.23437">
        <ele>179.2</ele>
        <time>2018-06-02T09:55:05Z</time>
      </trkpt>
      <trkpt lat="43.60532" lon="0.23438">
        <ele>179.4</ele>
        <time>2018-06-02T09:55:08Z</time>
      </trkpt>
      <trkpt lat="43.6053" lon="0.23438">
        <ele>179.5</ele>
        <time>2018-06-02T09:55:11Z</time>
      </trkpt>
      <trkpt lat="43.60528" lon="0.23439">
        <ele>179.7</ele>
        <time>2018-06-02T09:55:14Z</time>
      </trkpt>
      <trkpt lat="43.60527" lon="0.23439">
        <ele>179.7</ele>
        <time>2018-06-02T09:55:15Z</time>
      </trkpt>
      <trkpt lat="43.60524" lon="0.23438">
        <ele>179.8</ele>
        <time>2018-06-02T09:55:17Z</time>
      </trkpt>
      <trkpt lat="43.6052" lon="0.23437">
        <ele>180</ele>
        <time>2018-06-02T09:55:20Z</time>
      </trkpt>
      <trkpt lat="43.60515" lon="0.23435">
        <ele>180.2</ele>
        <time>2018-06-02T09:55:24Z</time>
      </trkpt>
      <trkpt lat="43.60514" lon="0.23435">
        <ele>180.2</ele>
        <time>2018-06-02T09:55:25Z</time>
      </trkpt>
      <trkpt lat="43.60512" lon="0.23436">
        <ele>180.4</ele>
        <time>2018-06-02T09:55:28Z</time>
      </trkpt>
      <trkpt lat="43.60509" lon="0.23437">
        <ele>180.5</ele>
        <time>2018-06-02T09:55:31Z</time>
      </trkpt>
      <trkpt lat="43.60508" lon="0.23438">
        <ele>180.6</ele>
        <time>2018-06-02T09:55:33Z</time>
      </trkpt>
      <trkpt lat="43.60506" lon="0.23439">
        <ele>180.7</ele>
        <time>2018-06-02T09:55:35Z</time>
      </trkpt>
      <trkpt lat="43.60504" lon="0.2344">
        <ele>180.9</ele>
        <time>2018-06-02T09:55:38Z</time>
      </trkpt>
      <trkpt lat="43.60501" lon="0.23442">
        <ele>181</ele>
        <time>2018-06-02T09:55:41Z</time>
      </trkpt>
      <trkpt lat="43.605" lon="0.23442">
        <ele>181.1</ele>
        <time>2018-06-02T09:55:42Z</time>
      </trkpt>
      <trkpt lat="43.60499" lon="0.23443">
        <ele>181.1</ele>
        <time>2018-06-02T09:55:43Z</time>
      </trkpt>
      <trkpt lat="43.60496" lon="0.23446">
        <ele>181.3</ele>
        <time>2018-06-02T09:55:46Z</time>
      </trkpt>
      <trkpt lat="43.60495" lon="0.23447">
        <ele>181.3</ele>
        <time>2018-06-02T09:55:47Z</time>
      </trkpt>
      <trkpt lat="43.60494" lon="0.23448">
        <ele>181.3</ele>
        <time>2018-06-02T09:55:48Z</time>
      </trkpt>
      <trkpt lat="43.6049" lon="0.23451">
        <ele>181.1</ele>
        <time>2018-06-02T09:55:51Z</time>
      </trkpt>
      <trkpt lat="43.60488" lon="0.23453">
        <ele>181.1</ele>
        <time>2018-06-02T09:55:53Z</time>
      </trkpt>
      <trkpt lat="43.60485" lon="0.23457">
        <ele>180.9</ele>
        <time>2018-06-02T09:55:56Z</time>
      </trkpt>
      <trkpt lat="43.60484" lon="0.2346">
        <ele>180.9</ele>
        <time>2018-06-02T09:55:58Z</time>
      </trkpt>
      <trkpt lat="43.60481" lon="0.23464">
        <ele>180.7</ele>
        <time>2018-06-02T09:56:01Z</time>
      </trkpt>
      <trkpt lat="43.60479" lon="0.23467">
        <ele>180.7</ele>
        <time>2018-06-02T09:56:03Z</time>
      </trkpt>
      <trkpt lat="43.60478" lon="0.23467">
        <ele>180.6</ele>
        <time>2018-06-02T09:56:04Z</time>
      </trkpt>
      <trkpt lat="43.60477" lon="0.23468">
        <ele>180.5</ele>
        <time>2018-06-02T09:56:06Z</time>
      </trkpt>
      <trkpt lat="43.60474" lon="0.2347">
        <ele>180.4</ele>
        <time>2018-06-02T09:56:09Z</time>
      </trkpt>
      <trkpt lat="43.60473" lon="0.23471">
        <ele>180.3</ele>
        <time>2018-06-02T09:56:11Z</time>
      </trkpt>
      <trkpt lat="43.6047" lon="0.23473">
        <ele>180.2</ele>
        <time>2018-06-02T09:56:14Z</time>
      </trkpt>
      <trkpt lat="43.60461" lon="0.23462">
        <ele>179.2</ele>
        <time>2018-06-02T09:56:19Z</time>
      </trkpt>
      <trkpt lat="43.60461" lon="0.23462">
        <ele>179.2</ele>
        <time>2018-06-02T09:57:00Z</time>
      </trkpt>
      <trkpt lat="43.60453" lon="0.2345">
        <ele>178.4</ele>
        <time>2018-06-02T09:57:00Z</time>
      </trkpt>
      <trkpt lat="43.60452" lon="0.23448">
        <ele>178.3</ele>
        <time>2018-06-02T09:57:02Z</time>
      </trkpt>
      <trkpt lat="43.60451" lon="0.23445">
        <ele>178.1</ele>
        <time>2018-06-02T09:57:05Z</time>
      </trkpt>
      <trkpt lat="43.6045" lon="0.23441">
        <ele>178.1</ele>
        <time>2018-06-02T09:57:07Z</time>
      </trkpt>
      <trkpt lat="43.60449" lon="0.23437">
        <ele>177.9</ele>
        <time>2018-06-02T09:57:10Z</time>
      </trkpt>
      <trkpt lat="43.60448" lon="0.23432">
        <ele>177.8</ele>
        <time>2018-06-02T09:57:13Z</time>
      </trkpt>
      <trkpt lat="43.60447" lon="0.23429">
        <ele>177.7</ele>
        <time>2018-06-02T09:57:15Z</time>
      </trkpt>
      <trkpt lat="43.60447" lon="0.23427">
        <ele>177.7</ele>
        <time>2018-06-02T09:57:16Z</time>
      </trkpt>
      <trkpt lat="43.60446" lon="0.23424">
        <ele>177.6</ele>
        <time>2018-06-02T09:57:18Z</time>
      </trkpt>
      <trkpt lat="43.60444" lon="0.23421">
        <ele>177.5</ele>
        <time>2018-06-02T09:57:20Z</time>
      </trkpt>
      <trkpt lat="43.60443" lon="0.23417">
        <ele>177.4</ele>
        <time>2018-06-02T09:57:23Z</time>
      </trkpt>
      <trkpt lat="43.60441" lon="0.23415">
        <ele>177.3</ele>
        <time>2018-06-02T09:57:25Z</time>
      </trkpt>
      <trkpt lat="43.6044" lon="0.2341">
        <ele>177</ele>
        <time>2018-06-02T09:57:28Z</time>
      </trkpt>
      <trkpt lat="43.60438" lon="0.23408">
        <ele>176.8</ele>
        <time>2018-06-02T09:57:30Z</time>
      </trkpt>
      <trkpt lat="43.60435" lon="0.23403">
        <ele>176.4</ele>
        <time>2018-06-02T09:57:33Z</time>
      </trkpt>
      <trkpt lat="43.60432" lon="0.23399">
        <ele>176.1</ele>
        <time>2018-06-02T09:57:36Z</time>
      </trkpt>
      <trkpt lat="43.6043" lon="0.23396">
        <ele>175.8</ele>
        <time>2018-06-02T09:57:38Z</time>
      </trkpt>
      <trkpt lat="43.60429" lon="0.23395">
        <ele>175.7</ele>
        <time>2018-06-02T09:57:39Z</time>
      </trkpt>
      <trkpt lat="43.60428" lon="0.23392">
        <ele>175.5</ele>
        <time>2018-06-02T09:57:41Z</time>
      </trkpt>
      <trkpt lat="43.60427" lon="0.23389">
        <ele>175.3</ele>
        <time>2018-06-02T09:57:43Z</time>
      </trkpt>
      <trkpt lat="43.60425" lon="0.23385">
        <ele>174.9</ele>
        <time>2018-06-02T09:57:46Z</time>
      </trkpt>
      <trkpt lat="43.60424" lon="0.23382">
        <ele>174.7</ele>
        <time>2018-06-02T09:57:48Z</time>
      </trkpt>
      <trkpt lat="43.60423" lon="0.23378">
        <ele>174.4</ele>
        <time>2018-06-02T09:57:51Z</time>
      </trkpt>
      <trkpt lat="43.60421" lon="0.23374">
        <ele>174.1</ele>
        <time>2018-06-02T09:57:53Z</time>
      </trkpt>
      <trkpt lat="43.6042" lon="0.2337">
        <ele>173.9</ele>
        <time>2018-06-02T09:57:55Z</time>
      </trkpt>
      <trkpt lat="43.60419" lon="0.23368">
        <ele>173.9</ele>
        <time>2018-06-02T09:57:56Z</time>
      </trkpt>
      <trkpt lat="43.60418" lon="0.23363">
        <ele>173.6</ele>
        <time>2018-06-02T09:57:59Z</time>
      </trkpt>
      <trkpt lat="43.60416" lon="0.23359">
        <ele>173.5</ele>
        <time>2018-06-02T09:58:01Z</time>
      </trkpt>
      <trkpt lat="43.60416" lon="0.23358">
        <ele>173.4</ele>
        <time>2018-06-02T09:58:02Z</time>
      </trkpt>
      <trkpt lat="43.60414" lon="0.23356">
        <ele>173.2</ele>
        <time>2018-06-02T09:58:04Z</time>
      </trkpt>
      <trkpt lat="43.60413" lon="0.23355">
        <ele>173.1</ele>
        <time>2018-06-02T09:58:06Z</time>
      </trkpt>
      <trkpt lat="43.60413" lon="0.23355">
        <ele>173</ele>
        <time>2018-06-02T09:58:07Z</time>
      </trkpt>
      <trkpt lat="43.60412" lon="0.23353">
        <ele>173</ele>
        <time>2018-06-02T09:58:09Z</time>
      </trkpt>
      <trkpt lat="43.6041" lon="0.23352">
        <ele>173</ele>
        <time>2018-06-02T09:58:11Z</time>
      </trkpt>
      <trkpt lat="43.60409" lon="0.2335">
        <ele>173.1</ele>
        <time>2018-06-02T09:58:14Z</time>
      </trkpt>
      <trkpt lat="43.60408" lon="0.23349">
        <ele>173.1</ele>
        <time>2018-06-02T09:58:16Z</time>
      </trkpt>
      <trkpt lat="43.60406" lon="0.23347">
        <ele>173.1</ele>
        <time>2018-06-02T09:58:19Z</time>
      </trkpt>
      <trkpt lat="43.60405" lon="0.23346">
        <ele>173.1</ele>
        <time>2018-06-02T09:58:21Z</time>
      </trkpt>
      <trkpt lat="43.60404" lon="0.23345">
        <ele>173.1</ele>
        <time>2018-06-02T09:58:22Z</time>
      </trkpt>
      <trkpt lat="43.60401" lon="0.23343">
        <ele>173.2</ele>
        <time>2018-06-02T09:58:24Z</time>
      </trkpt>
      <trkpt lat="43.60398" lon="0.2334">
        <ele>173.2</ele>
        <time>2018-06-02T09:58:27Z</time>
      </trkpt>
      <trkpt lat="43.60396" lon="0.23338">
        <ele>173.2</ele>
        <time>2018-06-02T09:58:29Z</time>
      </trkpt>
      <trkpt lat="43.60393" lon="0.23335">
        <ele>173.2</ele>
        <time>2018-06-02T09:58:32Z</time>
      </trkpt>
      <trkpt lat="43.60382" lon="0.23319">
        <ele>173.5</ele>
        <time>2018-06-02T09:58:35Z</time>
      </trkpt>
      <trkpt lat="43.60382" lon="0.23319">
        <ele>173.5</ele>
        <time>2018-06-02T09:59:28Z</time>
      </trkpt>
      <trkpt lat="43.60371" lon="0.23305">
        <ele>173.7</ele>
        <time>2018-06-02T09:59:28Z</time>
      </trkpt>
      <trkpt lat="43.60371" lon="0.23304">
        <ele>173.7</ele>
        <time>2018-06-02T09:59:29Z</time>
      </trkpt>
      <trkpt lat="43.60369" lon="0.23303">
        <ele>173.7</ele>
        <time>2018-06-02T09:59:31Z</time>
      </trkpt>
      <trkpt lat="43.60368" lon="0.23301">
        <ele>173.7</ele>
        <time>2018-06-02T09:59:33Z</time>
      </trkpt>
      <trkpt lat="43.60365" lon="0.23299">
        <ele>173.7</ele>
        <time>2018-06-02T09:59:36Z</time>
      </trkpt>
      <trkpt lat="43.60363" lon="0.23297">
        <ele>173.8</ele>
        <time>2018-06-02T09:59:39Z</time>
      </trkpt>
      <trkpt lat="43.60362" lon="0.23295">
        <ele>173.8</ele>
        <time>2018-06-02T09:59:41Z</time>
      </trkpt>
      <trkpt lat="43.6036" lon="0.23294">
        <ele>173.8</ele>
        <time>2018-06-02T09:59:43Z</time>
      </trkpt>
      <trkpt lat="43.60359" lon="0.23293">
        <ele>173.8</ele>
        <time>2018-06-02T09:59:44Z</time>
      </trkpt>
      <trkpt lat="43.60357" lon="0.23293">
        <ele>173.8</ele>
        <time>2018-06-02T09:59:46Z</time>
      </trkpt>
      <trkpt lat="43.60353" lon="0.23292">
        <ele>173.8</ele>
        <time>2018-06-02T09:59:49Z</time>
      </trkpt>
      <trkpt lat="43.60351" lon="0.23292">
        <ele>173.9</ele>
        <time>2018-06-02T09:59:51Z</time>
      </trkpt>
      <trkpt lat="43.60347" lon="0.23291">
        <ele>173.9</ele>
        <time>2018-06-02T09:59:54Z</time>
      </trkpt>
      <trkpt lat="43.60345" lon="0.2329">
        <ele>173.9</ele>
        <time>2018-06-02T09:59:56Z</time>
      </trkpt>
      <trkpt lat="43.60342" lon="0.23289">
        <ele>173.9</ele>
        <time>2018-06-02T09:59:59Z</time>
      </trkpt>
      <trkpt lat="43.60341" lon="0.23289">
        <ele>173.9</ele>
        <time>2018-06-02T10:00:01Z</time>
      </trkpt>
      <trkpt lat="43.60338" lon="0.23288">
        <ele>174</ele>
        <time>2018-06-02T10:00:04Z</time>
      </trkpt>
      <trkpt lat="43.60336" lon="0.23287">
        <ele>174</ele>
        <time>2018-06-02T10:00:06Z</time>
      </trkpt>
      <trkpt lat="43.60334" lon="0.23286">
        <ele>174</ele>
        <time>2018-06-02T10:00:09Z</time>
      </trkpt>
      <trkpt lat="43.60332" lon="0.23285">
        <ele>174</ele>
        <time>2018-06-02T10:00:12Z</time>
      </trkpt>
      <trkpt lat="43.60331" lon="0.23285">
        <ele>174</ele>
        <time>2018-06-02T10:00:13Z</time>
      </trkpt>
      <trkpt lat="43.60329" lon="0.23285">
        <ele>174</ele>
        <time>2018-06-02T10:00:14Z</time>
      </trkpt>
      <trkpt lat="43.60325" lon="0.23285">
        <ele>174.1</ele>
        <time>2018-06-02T10:00:17Z</time>
      </trkpt>
      <trkpt lat="43.60323" lon="0.23286">
        <ele>174.1</ele>
        <time>2018-06-02T10:00:19Z</time>
      </trkpt>
      <trkpt lat="43.60318" lon="0.23286">
        <ele>174.1</ele>
        <time>2018-06-02T10:00:22Z</time>
      </trkpt>
      <trkpt lat="43.60317" lon="0.23286">
        <ele>174.1</ele>
        <time>2018-06-02T10:00:23Z</time>
      </trkpt>
      <trkpt lat="43.60316" lon="0.23286">
        <ele>174.1</ele>
        <time>2018-06-02T10:00:24Z</time>
      </trkpt>
      <trkpt lat="43.60312" lon="0.23286">
        <ele>174.1</ele>
        <time>2018-06-02T10:00:27Z</time>
      </trkpt>
      <trkpt lat="43.6031" lon="0.23285">
        <ele>174.2</ele>
        <time>2018-06-02T10:00:29Z</time>
      </trkpt>
      <trkpt lat="43.60306" lon="0.23285">
        <ele>174.2</ele>
        <time>2018-06-02T10:00:32Z</time>
      </trkpt>
      <trkpt lat="43.60303" lon="0.23285">
        <ele>174.2</ele>
        <time>2018-06-02T10:00:34Z</time>
      </trkpt>
      <trkpt lat="43.60302" lon="0.23285">
        <ele>174.2</ele>
        <time>2018-06-02T10:00:35Z</time>
      </trkpt>
      <trkpt lat="43.603" lon="0.23286">
        <ele>174.2</ele>
        <time>2018-06-02T10:00:37Z</time>
      </trkpt>
      <trkpt lat="43.60296" lon="0.23287">
        <ele>174.3</ele>
        <time>2018-06-02T10:00:40Z</time>
      </trkpt>
      <trkpt lat="43.60293" lon="0.23287">
        <ele>174.3</ele>
        <time>2018-06-02T10:00:42Z</time>
      </trkpt>
      <trkpt lat="43.60289" lon="0.23288">
        <ele>174.3</ele>
        <time>2018-06-02T10:00:45Z</time>
      </trkpt>
      <trkpt lat="43.60287" lon="0.23289">
        <ele>174.3</ele>
        <time>2018-06-02T10:00:47Z</time>
      </trkpt>
      <trkpt lat="43.60283" lon="0.23291">
        <ele>174.3</ele>
        <time>2018-06-02T10:00:50Z</time>
      </trkpt>
      <trkpt lat="43.6028" lon="0.23293">
        <ele>174.3</ele>
        <time>2018-06-02T10:00:52Z</time>
      </trkpt>
      <trkpt lat="43.60277" lon="0.23294">
        <ele>174.4</ele>
        <time>2018-06-02T10:00:55Z</time>
      </trkpt>
      <trkpt lat="43.60272" lon="0.23295">
        <ele>174.4</ele>
        <time>2018-06-02T10:00:58Z</time>
      </trkpt>
      <trkpt lat="43.60269" lon="0.23296">
        <ele>174.4</ele>
        <time>2018-06-02T10:01:00Z</time>
      </trkpt>
      <trkpt lat="43.60264" lon="0.23297">
        <ele>174.4</ele>
        <time>2018-06-02T10:01:03Z</time>
      </trkpt>
      <trkpt lat="43.60263" lon="0.23298">
        <ele>174.4</ele>
        <time>2018-06-02T10:01:04Z</time>
      </trkpt>
      <trkpt lat="43.60262" lon="0.23298">
        <ele>174.5</ele>
        <time>2018-06-02T10:01:05Z</time>
      </trkpt>
      <trkpt lat="43.60258" lon="0.233">
        <ele>174.5</ele>
        <time>2018-06-02T10:01:08Z</time>
      </trkpt>
      <trkpt lat="43.60256" lon="0.23301">
        <ele>174.5</ele>
        <time>2018-06-02T10:01:10Z</time>
      </trkpt>
      <trkpt lat="43.60253" lon="0.23302">
        <ele>174.5</ele>
        <time>2018-06-02T10:01:13Z</time>
      </trkpt>
      <trkpt lat="43.6025" lon="0.23303">
        <ele>174.5</ele>
        <time>2018-06-02T10:01:15Z</time>
      </trkpt>
      <trkpt lat="43.60249" lon="0.23304">
        <ele>174.5</ele>
        <time>2018-06-02T10:01:16Z</time>
      </trkpt>
      <trkpt lat="43.60247" lon="0.23304">
        <ele>174.6</ele>
        <time>2018-06-02T10:01:18Z</time>
      </trkpt>
      <trkpt lat="43.60245" lon="0.23304">
        <ele>174.6</ele>
        <time>2018-06-02T10:01:21Z</time>
      </trkpt>
      <trkpt lat="43.60243" lon="0.23305">
        <ele>174.6</ele>
        <time>2018-06-02T10:01:23Z</time>
      </trkpt>
      <trkpt lat="43.6024" lon="0.23305">
        <ele>174.6</ele>
        <time>2018-06-02T10:01:26Z</time>
      </trkpt>
      <trkpt lat="43.60238" lon="0.23305">
        <ele>174.6</ele>
        <time>2018-06-02T10:01:28Z</time>
      </trkpt>
      <trkpt lat="43.60235" lon="0.23306">
        <ele>174.7</ele>
        <time>2018-06-02T10:01:31Z</time>
      </trkpt>
      <trkpt lat="43.60234" lon="0.23306">
        <ele>174.7</ele>
        <time>2018-06-02T10:01:32Z</time>
      </trkpt>
      <trkpt lat="43.60233" lon="0.23306">
        <ele>174.7</ele>
        <time>2018-06-02T10:01:33Z</time>
      </trkpt>
      <trkpt lat="43.60229" lon="0.23307">
        <ele>174.7</ele>
        <time>2018-06-02T10:01:36Z</time>
      </trkpt>
      <trkpt lat="43.60227" lon="0.23308">
        <ele>174.7</ele>
        <time>2018-06-02T10:01:38Z</time>
      </trkpt>
      <trkpt lat="43.60223" lon="0.23309">
        <ele>174.7</ele>
        <time>2018-06-02T10:01:41Z</time>
      </trkpt>
      <trkpt lat="43.60221" lon="0.2331">
        <ele>174.8</ele>
        <time>2018-06-02T10:01:43Z</time>
      </trkpt>
      <trkpt lat="43.6022" lon="0.2331">
        <ele>174.8</ele>
        <time>2018-06-02T10:01:44Z</time>
      </trkpt>
      <trkpt lat="43.60217" lon="0.23311">
        <ele>174.8</ele>
        <time>2018-06-02T10:01:46Z</time>
      </trkpt>
      <trkpt lat="43.60213" lon="0.23312">
        <ele>174.8</ele>
        <time>2018-06-02T10:01:49Z</time>
      </trkpt>
      <trkpt lat="43.6021" lon="0.23313">
        <ele>174.8</ele>
        <time>2018-06-02T10:01:51Z</time>
      </trkpt>
      <trkpt lat="43.60208" lon="0.23314">
        <ele>174.8</ele>
        <time>2018-06-02T10:01:53Z</time>
      </trkpt>
      <trkpt lat="43.60207" lon="0.23314">
        <ele>174.8</ele>
        <time>2018-06-02T10:01:54Z</time>
      </trkpt>
      <trkpt lat="43.60206" lon="0.23316">
        <ele>174.9</ele>
        <time>2018-06-02T10:01:56Z</time>
      </trkpt>
      <trkpt lat="43.60204" lon="0.23317">
        <ele>174.9</ele>
        <time>2018-06-02T10:01:59Z</time>
      </trkpt>
      <trkpt lat="43.60202" lon="0.23319">
        <ele>174.9</ele>
        <time>2018-06-02T10:02:01Z</time>
      </trkpt>
      <trkpt lat="43.602" lon="0.23321">
        <ele>174.9</ele>
        <time>2018-06-02T10:02:04Z</time>
      </trkpt>
      <trkpt lat="43.60198" lon="0.23322">
        <ele>175</ele>
        <time>2018-06-02T10:02:07Z</time>
      </trkpt>
      <trkpt lat="43.60197" lon="0.23324">
        <ele>175</ele>
        <time>2018-06-02T10:02:09Z</time>
      </trkpt>
      <trkpt lat="43.60196" lon="0.23324">
        <ele>175</ele>
        <time>2018-06-02T10:02:10Z</time>
      </trkpt>
      <trkpt lat="43.60194" lon="0.23325">
        <ele>175</ele>
        <time>2018-06-02T10:02:12Z</time>
      </trkpt>
      <trkpt lat="43.60191" lon="0.23326">
        <ele>175</ele>
        <time>2018-06-02T10:02:14Z</time>
      </trkpt>
      <trkpt lat="43.60188" lon="0.23327">
        <ele>175</ele>
        <time>2018-06-02T10:02:17Z</time>
      </trkpt>
      <trkpt lat="43.60186" lon="0.23328">
        <ele>175</ele>
        <time>2018-06-02T10:02:19Z</time>
      </trkpt>
      <trkpt lat="43.60183" lon="0.23329">
        <ele>175.1</ele>
        <time>2018-06-02T10:02:22Z</time>
      </trkpt>
      <trkpt lat="43.6018" lon="0.23329">
        <ele>175.1</ele>
        <time>2018-06-02T10:02:24Z</time>
      </trkpt>
      <trkpt lat="43.60177" lon="0.23328">
        <ele>175.1</ele>
        <time>2018-06-02T10:02:27Z</time>
      </trkpt>
      <trkpt lat="43.60174" lon="0.23327">
        <ele>175.1</ele>
        <time>2018-06-02T10:02:30Z</time>
      </trkpt>
      <trkpt lat="43.60172" lon="0.23326">
        <ele>175.2</ele>
        <time>2018-06-02T10:02:32Z</time>
      </trkpt>
      <trkpt lat="43.60168" lon="0.23326">
        <ele>175.2</ele>
        <time>2018-06-02T10:02:35Z</time>
      </trkpt>
      <trkpt lat="43.60166" lon="0.23325">
        <ele>175.2</ele>
        <time>2018-06-02T10:02:37Z</time>
      </trkpt>
      <trkpt lat="43.60162" lon="0.23325">
        <ele>175.2</ele>
        <time>2018-06-02T10:02:40Z</time>
      </trkpt>
      <trkpt lat="43.60159" lon="0.23325">
        <ele>175.2</ele>
        <time>2018-06-02T10:02:42Z</time>
      </trkpt>
      <trkpt lat="43.60155" lon="0.23325">
        <ele>175.3</ele>
        <time>2018-06-02T10:02:45Z</time>
      </trkpt>
      <trkpt lat="43.60154" lon="0.23325">
        <ele>175.3</ele>
        <time>2018-06-02T10:02:46Z</time>
      </trkpt>
      <trkpt lat="43.60153" lon="0.23326">
        <ele>175.3</ele>
        <time>2018-06-02T10:02:47Z</time>
      </trkpt>
      <trkpt lat="43.60149" lon="0.23328">
        <ele>175.3</ele>
        <time>2018-06-02T10:02:50Z</time>
      </trkpt>
      <trkpt lat="43.60146" lon="0.2333">
        <ele>175.3</ele>
        <time>2018-06-02T10:02:53Z</time>
      </trkpt>
      <trkpt lat="43.60143" lon="0.23331">
        <ele>175.3</ele>
        <time>2018-06-02T10:02:55Z</time>
      </trkpt>
      <trkpt lat="43.60141" lon="0.23332">
        <ele>175.4</ele>
        <time>2018-06-02T10:02:57Z</time>
      </trkpt>
      <trkpt lat="43.6014" lon="0.23332">
        <ele>175.4</ele>
        <time>2018-06-02T10:02:58Z</time>
      </trkpt>
      <trkpt lat="43.60137" lon="0.23333">
        <ele>175.4</ele>
        <time>2018-06-02T10:03:00Z</time>
      </trkpt>
      <trkpt lat="43.60133" lon="0.23334">
        <ele>175.4</ele>
        <time>2018-06-02T10:03:03Z</time>
      </trkpt>
      <trkpt lat="43.60131" lon="0.23335">
        <ele>175.4</ele>
        <time>2018-06-02T10:03:05Z</time>
      </trkpt>
      <trkpt lat="43.60127" lon="0.23336">
        <ele>175.4</ele>
        <time>2018-06-02T10:03:08Z</time>
      </trkpt>
      <trkpt lat="43.60126" lon="0.23336">
        <ele>175.5</ele>
        <time>2018-06-02T10:03:10Z</time>
      </trkpt>
      <trkpt lat="43.60123" lon="0.23335">
        <ele>175.5</ele>
        <time>2018-06-02T10:03:13Z</time>
      </trkpt>
      <trkpt lat="43.6012" lon="0.23334">
        <ele>175.5</ele>
        <time>2018-06-02T10:03:16Z</time>
      </trkpt>
      <trkpt lat="43.60119" lon="0.23334">
        <ele>175.5</ele>
        <time>2018-06-02T10:03:18Z</time>
      </trkpt>
      <trkpt lat="43.60116" lon="0.23333">
        <ele>175.6</ele>
        <time>2018-06-02T10:03:21Z</time>
      </trkpt>
      <trkpt lat="43.60114" lon="0.23333">
        <ele>175.6</ele>
        <time>2018-06-02T10:03:23Z</time>
      </trkpt>
      <trkpt lat="43.60112" lon="0.23332">
        <ele>175.6</ele>
        <time>2018-06-02T10:03:25Z</time>
      </trkpt>
      <trkpt lat="43.60111" lon="0.23332">
        <ele>175.6</ele>
        <time>2018-06-02T10:03:26Z</time>
      </trkpt>
      <trkpt lat="43.60109" lon="0.23332">
        <ele>175.6</ele>
        <time>2018-06-02T10:03:28Z</time>
      </trkpt>
      <trkpt lat="43.60105" lon="0.23331">
        <ele>175.6</ele>
        <time>2018-06-02T10:03:31Z</time>
      </trkpt>
      <trkpt lat="43.60103" lon="0.23331">
        <ele>175.6</ele>
        <time>2018-06-02T10:03:33Z</time>
      </trkpt>
      <trkpt lat="43.60099" lon="0.2333">
        <ele>175.7</ele>
        <time>2018-06-02T10:03:36Z</time>
      </trkpt>
      <trkpt lat="43.60097" lon="0.2333">
        <ele>175.7</ele>
        <time>2018-06-02T10:03:39Z</time>
      </trkpt>
      <trkpt lat="43.60096" lon="0.2333">
        <ele>175.7</ele>
        <time>2018-06-02T10:03:41Z</time>
      </trkpt>
      <trkpt lat="43.60094" lon="0.2333">
        <ele>175.7</ele>
        <time>2018-06-02T10:03:44Z</time>
      </trkpt>
      <trkpt lat="43.60093" lon="0.2333">
        <ele>175.8</ele>
        <time>2018-06-02T10:03:46Z</time>
      </trkpt>
      <trkpt lat="43.60091" lon="0.2333">
        <ele>175.8</ele>
        <time>2018-06-02T10:03:49Z</time>
      </trkpt>
      <trkpt lat="43.6009" lon="0.2333">
        <ele>175.8</ele>
        <time>2018-06-02T10:03:51Z</time>
      </trkpt>
      <trkpt lat="43.60088" lon="0.2333">
        <ele>175.8</ele>
        <time>2018-06-02T10:03:54Z</time>
      </trkpt>
      <trkpt lat="43.60086" lon="0.2333">
        <ele>175.8</ele>
        <time>2018-06-02T10:03:57Z</time>
      </trkpt>
      <trkpt lat="43.60085" lon="0.23329">
        <ele>175.9</ele>
        <time>2018-06-02T10:03:59Z</time>
      </trkpt>
      <trkpt lat="43.60084" lon="0.23329">
        <ele>175.9</ele>
        <time>2018-06-02T10:04:00Z</time>
      </trkpt>
      <trkpt lat="43.60082" lon="0.23329">
        <ele>175.9</ele>
        <time>2018-06-02T10:04:02Z</time>
      </trkpt>
      <trkpt lat="43.6008" lon="0.23329">
        <ele>175.9</ele>
        <time>2018-06-02T10:04:05Z</time>
      </trkpt>
      <trkpt lat="43.60078" lon="0.23329">
        <ele>175.9</ele>
        <time>2018-06-02T10:04:08Z</time>
      </trkpt>
      <trkpt lat="43.60077" lon="0.23329">
        <ele>175.9</ele>
        <time>2018-06-02T10:04:09Z</time>
      </trkpt>
      <trkpt lat="43.60075" lon="0.23329">
        <ele>176</ele>
        <time>2018-06-02T10:04:12Z</time>
      </trkpt>
      <trkpt lat="43.60073" lon="0.23329">
        <ele>176</ele>
        <time>2018-06-02T10:04:15Z</time>
      </trkpt>
      <trkpt lat="43.60072" lon="0.23329">
        <ele>176</ele>
        <time>2018-06-02T10:04:17Z</time>
      </trkpt>
      <trkpt lat="43.6007" lon="0.23329">
        <ele>176</ele>
        <time>2018-06-02T10:04:19Z</time>
      </trkpt>
      <trkpt lat="43.60069" lon="0.23328">
        <ele>176</ele>
        <time>2018-06-02T10:04:22Z</time>
      </trkpt>
      <trkpt lat="43.60067" lon="0.23328">
        <ele>176.1</ele>
        <time>2018-06-02T10:04:25Z</time>
      </trkpt>
      <trkpt lat="43.60066" lon="0.23327">
        <ele>176.1</ele>
        <time>2018-06-02T10:04:27Z</time>
      </trkpt>
      <trkpt lat="43.60064" lon="0.23326">
        <ele>176.1</ele>
        <time>2018-06-02T10:04:30Z</time>
      </trkpt>
      <trkpt lat="43.60063" lon="0.23325">
        <ele>176.1</ele>
        <time>2018-06-02T10:04:32Z</time>
      </trkpt>
      <trkpt lat="43.60061" lon="0.23324">
        <ele>176.1</ele>
        <time>2018-06-02T10:04:35Z</time>
      </trkpt>
      <trkpt lat="43.6006" lon="0.23324">
        <ele>176.2</ele>
        <time>2018-06-02T10:04:37Z</time>
      </trkpt>
      <trkpt lat="43.60058" lon="0.23323">
        <ele>176.2</ele>
        <time>2018-06-02T10:04:40Z</time>
      </trkpt>
      <trkpt lat="43.60057" lon="0.23322">
        <ele>176.2</ele>
        <time>2018-06-02T10:04:42Z</time>
      </trkpt>
      <trkpt lat="43.60054" lon="0.23322">
        <ele>176.2</ele>
        <time>2018-06-02T10:04:45Z</time>
      </trkpt>
      <trkpt lat="43.6005" lon="0.23322">
        <ele>176.3</ele>
        <time>2018-06-02T10:04:48Z</time>
      </trkpt>
      <trkpt lat="43.60046" lon="0.23322">
        <ele>176.3</ele>
        <time>2018-06-02T10:04:51Z</time>
      </trkpt>
      <trkpt lat="43.60044" lon="0.23322">
        <ele>176.3</ele>
        <time>2018-06-02T10:04:53Z</time>
      </trkpt>
      <trkpt lat="43.60043" lon="0.23322">
        <ele>176.3</ele>
        <time>2018-06-02T10:04:54Z</time>
      </trkpt>
      <trkpt lat="43.60042" lon="0.23322">
        <ele>176.3</ele>
        <time>2018-06-02T10:04:55Z</time>
      </trkpt>
      <trkpt lat="43.60038" lon="0.23321">
        <ele>176.3</ele>
        <time>2018-06-02T10:04:58Z</time>
      </trkpt>
      <trkpt lat="43.60035" lon="0.23321">
        <ele>176.4</ele>
        <time>2018-06-02T10:05:00Z</time>
      </trkpt>
      <trkpt lat="43.60031" lon="0.23321">
        <ele>176.4</ele>
        <time>2018-06-02T10:05:03Z</time>
      </trkpt>
      <trkpt lat="43.60029" lon="0.2332">
        <ele>176.4</ele>
        <time>2018-06-02T10:05:05Z</time>
      </trkpt>
      <trkpt lat="43.60026" lon="0.23316">
        <ele>176.4</ele>
        <time>2018-06-02T10:05:08Z</time>
      </trkpt>
      <trkpt lat="43.60024" lon="0.23312">
        <ele>176.4</ele>
        <time>2018-06-02T10:05:11Z</time>
      </trkpt>
      <trkpt lat="43.60023" lon="0.2331">
        <ele>176.5</ele>
        <time>2018-06-02T10:05:13Z</time>
      </trkpt>
      <trkpt lat="43.6002" lon="0.23306">
        <ele>176.5</ele>
        <time>2018-06-02T10:05:16Z</time>
      </trkpt>
      <trkpt lat="43.6002" lon="0.23305">
        <ele>176.5</ele>
        <time>2018-06-02T10:05:17Z</time>
      </trkpt>
      <trkpt lat="43.60019" lon="0.23303">
        <ele>176.5</ele>
        <time>2018-06-02T10:05:18Z</time>
      </trkpt>
      <trkpt lat="43.60016" lon="0.233">
        <ele>176.5</ele>
        <time>2018-06-02T10:05:21Z</time>
      </trkpt>
      <trkpt lat="43.60015" lon="0.23297">
        <ele>176.5</ele>
        <time>2018-06-02T10:05:23Z</time>
      </trkpt>
      <trkpt lat="43.60012" lon="0.23294">
        <ele>176.6</ele>
        <time>2018-06-02T10:05:26Z</time>
      </trkpt>
      <trkpt lat="43.60011" lon="0.23291">
        <ele>176.6</ele>
        <time>2018-06-02T10:05:28Z</time>
      </trkpt>
      <trkpt lat="43.6001" lon="0.2329">
        <ele>176.6</ele>
        <time>2018-06-02T10:05:29Z</time>
      </trkpt>
      <trkpt lat="43.60008" lon="0.23287">
        <ele>176.6</ele>
        <time>2018-06-02T10:05:31Z</time>
      </trkpt>
      <trkpt lat="43.60005" lon="0.23284">
        <ele>176.6</ele>
        <time>2018-06-02T10:05:34Z</time>
      </trkpt>
      <trkpt lat="43.60004" lon="0.23281">
        <ele>176.6</ele>
        <time>2018-06-02T10:05:36Z</time>
      </trkpt>
      <trkpt lat="43.60001" lon="0.23278">
        <ele>176.7</ele>
        <time>2018-06-02T10:05:39Z</time>
      </trkpt>
      <trkpt lat="43.6" lon="0.23277">
        <ele>176.6</ele>
        <time>2018-06-02T10:05:40Z</time>
      </trkpt>
      <trkpt lat="43.59999" lon="0.23276">
        <ele>176.6</ele>
        <time>2018-06-02T10:05:41Z</time>
      </trkpt>
      <trkpt lat="43.59996" lon="0.23273">
        <ele>176.3</ele>
        <time>2018-06-02T10:05:44Z</time>
      </trkpt>
      <trkpt lat="43.59994" lon="0.23271">
        <ele>176.1</ele>
        <time>2018-06-02T10:05:46Z</time>
      </trkpt>
      <trkpt lat="43.5999" lon="0.23268">
        <ele>175.9</ele>
        <time>2018-06-02T10:05:49Z</time>
      </trkpt>
      <trkpt lat="43.59988" lon="0.23266">
        <ele>175.7</ele>
        <time>2018-06-02T10:05:51Z</time>
      </trkpt>
      <trkpt lat="43.59987" lon="0.23265">
        <ele>175.6</ele>
        <time>2018-06-02T10:05:52Z</time>
      </trkpt>
      <trkpt lat="43.59984" lon="0.23264">
        <ele>175.4</ele>
        <time>2018-06-02T10:05:54Z</time>
      </trkpt>
      <trkpt lat="43.5998" lon="0.23262">
        <ele>175.2</ele>
        <time>2018-06-02T10:05:57Z</time>
      </trkpt>
      <trkpt lat="43.59978" lon="0.2326">
        <ele>175</ele>
        <time>2018-06-02T10:05:59Z</time>
      </trkpt>
      <trkpt lat="43.59974" lon="0.23258">
        <ele>174.7</ele>
        <time>2018-06-02T10:06:02Z</time>
      </trkpt>
      <trkpt lat="43.59972" lon="0.23257">
        <ele>174.5</ele>
        <time>2018-06-02T10:06:04Z</time>
      </trkpt>
      <trkpt lat="43.59969" lon="0.23255">
        <ele>174.3</ele>
        <time>2018-06-02T10:06:07Z</time>
      </trkpt>
      <trkpt lat="43.59967" lon="0.23254">
        <ele>174.1</ele>
        <time>2018-06-02T10:06:09Z</time>
      </trkpt>
      <trkpt lat="43.59964" lon="0.23252">
        <ele>173.8</ele>
        <time>2018-06-02T10:06:12Z</time>
      </trkpt>
      <trkpt lat="43.59962" lon="0.23251">
        <ele>173.7</ele>
        <time>2018-06-02T10:06:14Z</time>
      </trkpt>
      <trkpt lat="43.59961" lon="0.2325">
        <ele>173.6</ele>
        <time>2018-06-02T10:06:15Z</time>
      </trkpt>
      <trkpt lat="43.5996" lon="0.23249">
        <ele>173.4</ele>
        <time>2018-06-02T10:06:17Z</time>
      </trkpt>
      <trkpt lat="43.59958" lon="0.23248">
        <ele>173.1</ele>
        <time>2018-06-02T10:06:20Z</time>
      </trkpt>
      <trkpt lat="43.59956" lon="0.23247">
        <ele>173</ele>
        <time>2018-06-02T10:06:22Z</time>
      </trkpt>
      <trkpt lat="43.59954" lon="0.23246">
        <ele>173</ele>
        <time>2018-06-02T10:06:25Z</time>
      </trkpt>
      <trkpt lat="43.59953" lon="0.23245">
        <ele>173</ele>
        <time>2018-06-02T10:06:27Z</time>
      </trkpt>
      <trkpt lat="43.59951" lon="0.23244">
        <ele>173</ele>
        <time>2018-06-02T10:06:30Z</time>
      </trkpt>
      <trkpt lat="43.5995" lon="0.23243">
        <ele>173</ele>
        <time>2018-06-02T10:06:32Z</time>
      </trkpt>
      <trkpt lat="43.59948" lon="0.23242">
        <ele>173</ele>
        <time>2018-06-02T10:06:34Z</time>
      </trkpt>
      <trkpt lat="43.59947" lon="0.23242">
        <ele>173.1</ele>
        <time>2018-06-02T10:06:35Z</time>
      </trkpt>
      <trkpt lat="43.59943" lon="0.2324">
        <ele>173.1</ele>
        <time>2018-06-02T10:06:38Z</time>
      </trkpt>
      <trkpt lat="43.5994" lon="0.23239">
        <ele>173.1</ele>
        <time>2018-06-02T10:06:40Z</time>
      </trkpt>
      <trkpt lat="43.59937" lon="0.23238">
        <ele>173.1</ele>
        <time>2018-06-02T10:06:43Z</time>
      </trkpt>
      <trkpt lat="43.59934" lon="0.23237">
        <ele>173.1</ele>
        <time>2018-06-02T10:06:45Z</time>
      </trkpt>
      <trkpt lat="43.5993" lon="0.23238">
        <ele>173.1</ele>
        <time>2018-06-02T10:06:48Z</time>
      </trkpt>
      <trkpt lat="43.59928" lon="0.23238">
        <ele>173.1</ele>
        <time>2018-06-02T10:06:50Z</time>
      </trkpt>
      <trkpt lat="43.59924" lon="0.23239">
        <ele>173.2</ele>
        <time>2018-06-02T10:06:53Z</time>
      </trkpt>
      <trkpt lat="43.59922" lon="0.23239">
        <ele>173.2</ele>
        <time>2018-06-02T10:06:55Z</time>
      </trkpt>
      <trkpt lat="43.5992" lon="0.2324">
        <ele>173.2</ele>
        <time>2018-06-02T10:06:56Z</time>
      </trkpt>
      <trkpt lat="43.59918" lon="0.2324">
        <ele>173.2</ele>
        <time>2018-06-02T10:06:58Z</time>
      </trkpt>
      <trkpt lat="43.59914" lon="0.2324">
        <ele>173.2</ele>
        <time>2018-06-02T10:07:01Z</time>
      </trkpt>
      <trkpt lat="43.59911" lon="0.2324">
        <ele>173.2</ele>
        <time>2018-06-02T10:07:03Z</time>
      </trkpt>
      <trkpt lat="43.59907" lon="0.23241">
        <ele>173.2</ele>
        <time>2018-06-02T10:07:06Z</time>
      </trkpt>
      <trkpt lat="43.59906" lon="0.23241">
        <ele>173.3</ele>
        <time>2018-06-02T10:07:07Z</time>
      </trkpt>
      <trkpt lat="43.59905" lon="0.23241">
        <ele>173.3</ele>
        <time>2018-06-02T10:07:08Z</time>
      </trkpt>
      <trkpt lat="43.59901" lon="0.23241">
        <ele>173.3</ele>
        <time>2018-06-02T10:07:11Z</time>
      </trkpt>
      <trkpt lat="43.59899" lon="0.23241">
        <ele>173.3</ele>
        <time>2018-06-02T10:07:13Z</time>
      </trkpt>
      <trkpt lat="43.59895" lon="0.2324">
        <ele>173.3</ele>
        <time>2018-06-02T10:07:16Z</time>
      </trkpt>
      <trkpt lat="43.59892" lon="0.2324">
        <ele>173.3</ele>
        <time>2018-06-02T10:07:18Z</time>
      </trkpt>
      <trkpt lat="43.59888" lon="0.2324">
        <ele>173.3</ele>
        <time>2018-06-02T10:07:21Z</time>
      </trkpt>
      <trkpt lat="43.59884" lon="0.23241">
        <ele>173.4</ele>
        <time>2018-06-02T10:07:24Z</time>
      </trkpt>
      <trkpt lat="43.59882" lon="0.23241">
        <ele>173.4</ele>
        <time>2018-06-02T10:07:26Z</time>
      </trkpt>
      <trkpt lat="43.59878" lon="0.23241">
        <ele>173.4</ele>
        <time>2018-06-02T10:07:29Z</time>
      </trkpt>
      <trkpt lat="43.59875" lon="0.23241">
        <ele>173.4</ele>
        <time>2018-06-02T10:07:31Z</time>
      </trkpt>
      <trkpt lat="43.59871" lon="0.23241">
        <ele>173.4</ele>
        <time>2018-06-02T10:07:34Z</time>
      </trkpt>
      <trkpt lat="43.59869" lon="0.23241">
        <ele>173.4</ele>
        <time>2018-06-02T10:07:36Z</time>
      </trkpt>
      <trkpt lat="43.59865" lon="0.23241">
        <ele>173.5</ele>
        <time>2018-06-02T10:07:39Z</time>
      </trkpt>
      <trkpt lat="43.59863" lon="0.23241">
        <ele>173.5</ele>
        <time>2018-06-02T10:07:40Z</time>
      </trkpt>
      <trkpt lat="43.59862" lon="0.23241">
        <ele>173.5</ele>
        <time>2018-06-02T10:07:41Z</time>
      </trkpt>
      <trkpt lat="43.59859" lon="0.23241">
        <ele>173.5</ele>
        <time>2018-06-02T10:07:44Z</time>
      </trkpt>
      <trkpt lat="43.59855" lon="0.23241">
        <ele>173.5</ele>
        <time>2018-06-02T10:07:47Z</time>
      </trkpt>
      <trkpt lat="43.59853" lon="0.23241">
        <ele>173.5</ele>
        <time>2018-06-02T10:07:49Z</time>
      </trkpt>
      <trkpt lat="43.59849" lon="0.23241">
        <ele>173.5</ele>
        <time>2018-06-02T10:07:52Z</time>
      </trkpt>
      <trkpt lat="43.59847" lon="0.23241">
        <ele>173.5</ele>
        <time>2018-06-02T10:07:54Z</time>
      </trkpt>
      <trkpt lat="43.59843" lon="0.2324">
        <ele>173.6</ele>
        <time>2018-06-02T10:07:57Z</time>
      </trkpt>
      <trkpt lat="43.59841" lon="0.2324">
        <ele>173.6</ele>
        <time>2018-06-02T10:07:59Z</time>
      </trkpt>
      <trkpt lat="43.59837" lon="0.2324">
        <ele>173.6</ele>
        <time>2018-06-02T10:08:02Z</time>
      </trkpt>
      <trkpt lat="43.59835" lon="0.2324">
        <ele>173.6</ele>
        <time>2018-06-02T10:08:04Z</time>
      </trkpt>
      <trkpt lat="43.59831" lon="0.23241">
        <ele>173.6</ele>
        <time>2018-06-02T10:08:07Z</time>
      </trkpt>
      <trkpt lat="43.59828" lon="0.23243">
        <ele>173.6</ele>
        <time>2018-06-02T10:08:10Z</time>
      </trkpt>
      <trkpt lat="43.59825" lon="0.23244">
        <ele>173.7</ele>
        <time>2018-06-02T10:08:12Z</time>
      </trkpt>
      <trkpt lat="43.59822" lon="0.23245">
        <ele>173.7</ele>
        <time>2018-06-02T10:08:15Z</time>
      </trkpt>
      <trkpt lat="43.59819" lon="0.23246">
        <ele>173.7</ele>
        <time>2018-06-02T10:08:17Z</time>
      </trkpt>
      <trkpt lat="43.59816" lon="0.23247">
        <ele>173.7</ele>
        <time>2018-06-02T10:08:20Z</time>
      </trkpt>
      <trkpt lat="43.59813" lon="0.23247">
        <ele>173.7</ele>
        <time>2018-06-02T10:08:22Z</time>
      </trkpt>
      <trkpt lat="43.5981" lon="0.23248">
        <ele>173.7</ele>
        <time>2018-06-02T10:08:25Z</time>
      </trkpt>
      <trkpt lat="43.59808" lon="0.23249">
        <ele>173.7</ele>
        <time>2018-06-02T10:08:27Z</time>
      </trkpt>
      <trkpt lat="43.59805" lon="0.2325">
        <ele>173.8</ele>
        <time>2018-06-02T10:08:30Z</time>
      </trkpt>
      <trkpt lat="43.59802" lon="0.23251">
        <ele>173.8</ele>
        <time>2018-06-02T10:08:33Z</time>
      </trkpt>
      <trkpt lat="43.598" lon="0.23252">
        <ele>173.8</ele>
        <time>2018-06-02T10:08:35Z</time>
      </trkpt>
      <trkpt lat="43.59797" lon="0.23253">
        <ele>173.8</ele>
        <time>2018-06-02T10:08:38Z</time>
      </trkpt>
      <trkpt lat="43.59795" lon="0.23254">
        <ele>173.8</ele>
        <time>2018-06-02T10:08:40Z</time>
      </trkpt>
      <trkpt lat="43.59791" lon="0.23256">
        <ele>173.8</ele>
        <time>2018-06-02T10:08:43Z</time>
      </trkpt>
      <trkpt lat="43.59789" lon="0.23258">
        <ele>173.9</ele>
        <time>2018-06-02T10:08:45Z</time>
      </trkpt>
      <trkpt lat="43.59786" lon="0.2326">
        <ele>173.9</ele>
        <time>2018-06-02T10:08:48Z</time>
      </trkpt>
      <trkpt lat="43.59784" lon="0.23261">
        <ele>173.9</ele>
        <time>2018-06-02T10:08:50Z</time>
      </trkpt>
      <trkpt lat="43.59782" lon="0.23263">
        <ele>173.9</ele>
        <time>2018-06-02T10:08:52Z</time>
      </trkpt>
      <trkpt lat="43.59781" lon="0.23264">
        <ele>173.9</ele>
        <time>2018-06-02T10:08:53Z</time>
      </trkpt>
      <trkpt lat="43.59778" lon="0.23266">
        <ele>173.9</ele>
        <time>2018-06-02T10:08:56Z</time>
      </trkpt>
      <trkpt lat="43.59775" lon="0.23268">
        <ele>173.9</ele>
        <time>2018-06-02T10:08:58Z</time>
      </trkpt>
      <trkpt lat="43.59772" lon="0.23271">
        <ele>174</ele>
        <time>2018-06-02T10:09:01Z</time>
      </trkpt>
      <trkpt lat="43.5977" lon="0.23273">
        <ele>174</ele>
        <time>2018-06-02T10:09:03Z</time>
      </trkpt>
      <trkpt lat="43.59767" lon="0.23276">
        <ele>174</ele>
        <time>2018-06-02T10:09:06Z</time>
      </trkpt>
      <trkpt lat="43.59765" lon="0.23278">
        <ele>174</ele>
        <time>2018-06-02T10:09:08Z</time>
      </trkpt>
      <trkpt lat="43.59762" lon="0.2328">
        <ele>174</ele>
        <time>2018-06-02T10:09:11Z</time>
      </trkpt>
      <trkpt lat="43.59759" lon="0.23282">
        <ele>174</ele>
        <time>2018-06-02T10:09:13Z</time>
      </trkpt>
      <trkpt lat="43.59759" lon="0.23283">
        <ele>174</ele>
        <time>2018-06-02T10:09:14Z</time>
      </trkpt>
      <trkpt lat="43.59745" lon="0.23291">
        <ele>174.2</ele>
        <time>2018-06-02T10:09:18Z</time>
      </trkpt>
      <trkpt lat="43.59745" lon="0.23291">
        <ele>174.2</ele>
        <time>2018-06-02T10:10:00Z</time>
      </trkpt>
      <trkpt lat="43.59732" lon="0.23299">
        <ele>174.3</ele>
        <time>2018-06-02T10:10:02Z</time>
      </trkpt>
      <trkpt lat="43.59729" lon="0.23299">
        <ele>174.4</ele>
        <time>2018-06-02T10:10:05Z</time>
      </trkpt>
      <trkpt lat="43.59727" lon="0.23299">
        <ele>174.4</ele>
        <time>2018-06-02T10:10:07Z</time>
      </trkpt>
      <trkpt lat="43.59724" lon="0.23299">
        <ele>174.4</ele>
        <time>2018-06-02T10:10:10Z</time>
      </trkpt>
      <trkpt lat="43.59721" lon="0.23298">
        <ele>174.4</ele>
        <time>2018-06-02T10:10:12Z</time>
      </trkpt>
      <trkpt lat="43.59718" lon="0.23298">
        <ele>174.4</ele>
        <time>2018-06-02T10:10:15Z</time>
      </trkpt>
      <trkpt lat="43.59715" lon="0.23297">
        <ele>174.4</ele>
        <time>2018-06-02T10:10:17Z</time>
      </trkpt>
      <trkpt lat="43.59712" lon="0.23296">
        <ele>174.5</ele>
        <time>2018-06-02T10:10:20Z</time>
      </trkpt>
      <trkpt lat="43.59709" lon="0.23295">
        <ele>174.5</ele>
        <time>2018-06-02T10:10:22Z</time>
      </trkpt>
      <trkpt lat="43.59705" lon="0.23294">
        <ele>174.5</ele>
        <time>2018-06-02T10:10:25Z</time>
      </trkpt>
      <trkpt lat="43.59704" lon="0.23294">
        <ele>174.5</ele>
        <time>2018-06-02T10:10:26Z</time>
      </trkpt>
      <trkpt lat="43.59702" lon="0.23292">
        <ele>174.5</ele>
        <time>2018-06-02T10:10:28Z</time>
      </trkpt>
      <trkpt lat="43.597" lon="0.23291">
        <ele>174.5</ele>
        <time>2018-06-02T10:10:30Z</time>
      </trkpt>
      <trkpt lat="43.59697" lon="0.23289">
        <ele>174.5</ele>
        <time>2018-06-02T10:10:33Z</time>
      </trkpt>
      <trkpt lat="43.59695" lon="0.23288">
        <ele>174.5</ele>
        <time>2018-06-02T10:10:35Z</time>
      </trkpt>
      <trkpt lat="43.59692" lon="0.23286">
        <ele>174.6</ele>
        <time>2018-06-02T10:10:38Z</time>
      </trkpt>
      <trkpt lat="43.59691" lon="0.23285">
        <ele>174.6</ele>
        <time>2018-06-02T10:10:39Z</time>
      </trkpt>
      <trkpt lat="43.5969" lon="0.23284">
        <ele>174.6</ele>
        <time>2018-06-02T10:10:40Z</time>
      </trkpt>
      <trkpt lat="43.59687" lon="0.23282">
        <ele>174.6</ele>
        <time>2018-06-02T10:10:43Z</time>
      </trkpt>
      <trkpt lat="43.59686" lon="0.2328">
        <ele>174.6</ele>
        <time>2018-06-02T10:10:45Z</time>
      </trkpt>
      <trkpt lat="43.59683" lon="0.23277">
        <ele>174.6</ele>
        <time>2018-06-02T10:10:48Z</time>
      </trkpt>
      <trkpt lat="43.59681" lon="0.23275">
        <ele>174.6</ele>
        <time>2018-06-02T10:10:51Z</time>
      </trkpt>
      <trkpt lat="43.5968" lon="0.23274">
        <ele>174.6</ele>
        <time>2018-06-02T10:10:52Z</time>
      </trkpt>
      <trkpt lat="43.59679" lon="0.23273">
        <ele>174.7</ele>
        <time>2018-06-02T10:10:53Z</time>
      </trkpt>
      <trkpt lat="43.59676" lon="0.2327">
        <ele>174.7</ele>
        <time>2018-06-02T10:10:56Z</time>
      </trkpt>
      <trkpt lat="43.59675" lon="0.23269">
        <ele>174.7</ele>
        <time>2018-06-02T10:10:58Z</time>
      </trkpt>
      <trkpt lat="43.59672" lon="0.23266">
        <ele>174.7</ele>
        <time>2018-06-02T10:11:01Z</time>
      </trkpt>
      <trkpt lat="43.5967" lon="0.23265">
        <ele>174.7</ele>
        <time>2018-06-02T10:11:03Z</time>
      </trkpt>
      <trkpt lat="43.59668" lon="0.23263">
        <ele>174.7</ele>
        <time>2018-06-02T10:11:05Z</time>
      </trkpt>
      <trkpt lat="43.59668" lon="0.23262">
        <ele>174.7</ele>
        <time>2018-06-02T10:11:06Z</time>
      </trkpt>
      <trkpt lat="43.59652" lon="0.23254">
        <ele>175.1</ele>
        <time>2018-06-02T10:11:11Z</time>
      </trkpt>
      <trkpt lat="43.59652" lon="0.23254">
        <ele>175.1</ele>
        <time>2018-06-02T10:12:45Z</time>
      </trkpt>
      <trkpt lat="43.59637" lon="0.23246">
        <ele>175.4</ele>
        <time>2018-06-02T10:12:47Z</time>
      </trkpt>
      <trkpt lat="43.59636" lon="0.23246">
        <ele>175.4</ele>
        <time>2018-06-02T10:12:48Z</time>
      </trkpt>
      <trkpt lat="43.59633" lon="0.23245">
        <ele>175.4</ele>
        <time>2018-06-02T10:12:51Z</time>
      </trkpt>
      <trkpt lat="43.59631" lon="0.23244">
        <ele>175.4</ele>
        <time>2018-06-02T10:12:53Z</time>
      </trkpt>
      <trkpt lat="43.59629" lon="0.23244">
        <ele>175.4</ele>
        <time>2018-06-02T10:12:55Z</time>
      </trkpt>
      <trkpt lat="43.59627" lon="0.23243">
        <ele>175.4</ele>
        <time>2018-06-02T10:12:56Z</time>
      </trkpt>
      <trkpt lat="43.59625" lon="0.23241">
        <ele>175.4</ele>
        <time>2018-06-02T10:12:58Z</time>
      </trkpt>
      <trkpt lat="43.59621" lon="0.23238">
        <ele>175.4</ele>
        <time>2018-06-02T10:13:01Z</time>
      </trkpt>
      <trkpt lat="43.59617" lon="0.23236">
        <ele>175.5</ele>
        <time>2018-06-02T10:13:04Z</time>
      </trkpt>
      <trkpt lat="43.59616" lon="0.23235">
        <ele>175.5</ele>
        <time>2018-06-02T10:13:05Z</time>
      </trkpt>
      <trkpt lat="43.59615" lon="0.23235">
        <ele>175.5</ele>
        <time>2018-06-02T10:13:06Z</time>
      </trkpt>
      <trkpt lat="43.59612" lon="0.23233">
        <ele>175.5</ele>
        <time>2018-06-02T10:13:09Z</time>
      </trkpt>
      <trkpt lat="43.59609" lon="0.23232">
        <ele>175.5</ele>
        <time>2018-06-02T10:13:11Z</time>
      </trkpt>
      <trkpt lat="43.59606" lon="0.23231">
        <ele>175.5</ele>
        <time>2018-06-02T10:13:14Z</time>
      </trkpt>
      <trkpt lat="43.59604" lon="0.2323">
        <ele>175.5</ele>
        <time>2018-06-02T10:13:16Z</time>
      </trkpt>
      <trkpt lat="43.59603" lon="0.23229">
        <ele>175.5</ele>
        <time>2018-06-02T10:13:17Z</time>
      </trkpt>
      <trkpt lat="43.59601" lon="0.23229">
        <ele>175.6</ele>
        <time>2018-06-02T10:13:19Z</time>
      </trkpt>
      <trkpt lat="43.596" lon="0.23228">
        <ele>175.6</ele>
        <time>2018-06-02T10:13:21Z</time>
      </trkpt>
      <trkpt lat="43.59597" lon="0.23226">
        <ele>175.6</ele>
        <time>2018-06-02T10:13:24Z</time>
      </trkpt>
      <trkpt lat="43.59595" lon="0.23225">
        <ele>175.6</ele>
        <time>2018-06-02T10:13:27Z</time>
      </trkpt>
      <trkpt lat="43.59593" lon="0.23224">
        <ele>175.6</ele>
        <time>2018-06-02T10:13:29Z</time>
      </trkpt>
      <trkpt lat="43.59591" lon="0.23223">
        <ele>175.6</ele>
        <time>2018-06-02T10:13:32Z</time>
      </trkpt>
      <trkpt lat="43.5959" lon="0.23223">
        <ele>175.6</ele>
        <time>2018-06-02T10:13:33Z</time>
      </trkpt>
      <trkpt lat="43.59589" lon="0.23222">
        <ele>175.7</ele>
        <time>2018-06-02T10:13:34Z</time>
      </trkpt>
      <trkpt lat="43.59585" lon="0.23221">
        <ele>175.7</ele>
        <time>2018-06-02T10:13:37Z</time>
      </trkpt>
      <trkpt lat="43.59582" lon="0.2322">
        <ele>175.7</ele>
        <time>2018-06-02T10:13:39Z</time>
      </trkpt>
      <trkpt lat="43.59579" lon="0.23219">
        <ele>175.7</ele>
        <time>2018-06-02T10:13:42Z</time>
      </trkpt>
      <trkpt lat="43.59576" lon="0.23219">
        <ele>175.7</ele>
        <time>2018-06-02T10:13:44Z</time>
      </trkpt>
      <trkpt lat="43.59572" lon="0.23218">
        <ele>175.7</ele>
        <time>2018-06-02T10:13:47Z</time>
      </trkpt>
      <trkpt lat="43.59569" lon="0.23217">
        <ele>175.8</ele>
        <time>2018-06-02T10:13:50Z</time>
      </trkpt>
      <trkpt lat="43.59566" lon="0.23216">
        <ele>175.8</ele>
        <time>2018-06-02T10:13:52Z</time>
      </trkpt>
      <trkpt lat="43.59563" lon="0.23215">
        <ele>175.8</ele>
        <time>2018-06-02T10:13:55Z</time>
      </trkpt>
      <trkpt lat="43.59561" lon="0.23214">
        <ele>175.8</ele>
        <time>2018-06-02T10:13:57Z</time>
      </trkpt>
      <trkpt lat="43.59559" lon="0.23213">
        <ele>175.8</ele>
        <time>2018-06-02T10:14:00Z</time>
      </trkpt>
      <trkpt lat="43.59558" lon="0.23213">
        <ele>175.8</ele>
        <time>2018-06-02T10:14:02Z</time>
      </trkpt>
      <trkpt lat="43.59555" lon="0.23212">
        <ele>175.8</ele>
        <time>2018-06-02T10:14:05Z</time>
      </trkpt>
      <trkpt lat="43.59554" lon="0.23211">
        <ele>175.9</ele>
        <time>2018-06-02T10:14:07Z</time>
      </trkpt>
      <trkpt lat="43.59552" lon="0.2321">
        <ele>175.9</ele>
        <time>2018-06-02T10:14:10Z</time>
      </trkpt>
      <trkpt lat="43.5955" lon="0.23209">
        <ele>175.9</ele>
        <time>2018-06-02T10:14:13Z</time>
      </trkpt>
      <trkpt lat="43.59549" lon="0.23208">
        <ele>175.9</ele>
        <time>2018-06-02T10:14:14Z</time>
      </trkpt>
      <trkpt lat="43.59548" lon="0.23207">
        <ele>175.9</ele>
        <time>2018-06-02T10:14:15Z</time>
      </trkpt>
      <trkpt lat="43.59545" lon="0.23205">
        <ele>175.9</ele>
        <time>2018-06-02T10:14:18Z</time>
      </trkpt>
      <trkpt lat="43.59543" lon="0.23203">
        <ele>175.9</ele>
        <time>2018-06-02T10:14:20Z</time>
      </trkpt>
      <trkpt lat="43.59541" lon="0.232">
        <ele>176</ele>
        <time>2018-06-02T10:14:23Z</time>
      </trkpt>
      <trkpt lat="43.59539" lon="0.23198">
        <ele>176</ele>
        <time>2018-06-02T10:14:25Z</time>
      </trkpt>
      <trkpt lat="43.59538" lon="0.23197">
        <ele>176</ele>
        <time>2018-06-02T10:14:26Z</time>
      </trkpt>
      <trkpt lat="43.59536" lon="0.23195">
        <ele>176</ele>
        <time>2018-06-02T10:14:28Z</time>
      </trkpt>
      <trkpt lat="43.59535" lon="0.23193">
        <ele>176</ele>
        <time>2018-06-02T10:14:30Z</time>
      </trkpt>
      <trkpt lat="43.59532" lon="0.2319">
        <ele>176</ele>
        <time>2018-06-02T10:14:33Z</time>
      </trkpt>
      <trkpt lat="43.59529" lon="0.23187">
        <ele>176</ele>
        <time>2018-06-02T10:14:36Z</time>
      </trkpt>
      <trkpt lat="43.59528" lon="0.23185">
        <ele>176.1</ele>
        <time>2018-06-02T10:14:38Z</time>
      </trkpt>
      <trkpt lat="43.59525" lon="0.23182">
        <ele>176.1</ele>
        <time>2018-06-02T10:14:41Z</time>
      </trkpt>
      <trkpt lat="43.59523" lon="0.2318">
        <ele>176.1</ele>
        <time>2018-06-02T10:14:43Z</time>
      </trkpt>
      <trkpt lat="43.5952" lon="0.23177">
        <ele>176.1</ele>
        <time>2018-06-02T10:14:46Z</time>
      </trkpt>
      <trkpt lat="43.59519" lon="0.23175">
        <ele>176.1</ele>
        <time>2018-06-02T10:14:48Z</time>
      </trkpt>
      <trkpt lat="43.59517" lon="0.23173">
        <ele>176.1</ele>
        <time>2018-06-02T10:14:50Z</time>
      </trkpt>
      <trkpt lat="43.59516" lon="0.23173">
        <ele>176.1</ele>
        <time>2018-06-02T10:14:51Z</time>
      </trkpt>
      <trkpt lat="43.59514" lon="0.23172">
        <ele>176.1</ele>
        <time>2018-06-02T10:14:53Z</time>
      </trkpt>
      <trkpt lat="43.59511" lon="0.2317">
        <ele>176.2</ele>
        <time>2018-06-02T10:14:56Z</time>
      </trkpt>
      <trkpt lat="43.59508" lon="0.23169">
        <ele>176.2</ele>
        <time>2018-06-02T10:14:59Z</time>
      </trkpt>
      <trkpt lat="43.59507" lon="0.23168">
        <ele>176.2</ele>
        <time>2018-06-02T10:15:01Z</time>
      </trkpt>
      <trkpt lat="43.59504" lon="0.23167">
        <ele>176.2</ele>
        <time>2018-06-02T10:15:04Z</time>
      </trkpt>
      <trkpt lat="43.59501" lon="0.23166">
        <ele>176.2</ele>
        <time>2018-06-02T10:15:06Z</time>
      </trkpt>
      <trkpt lat="43.59497" lon="0.23165">
        <ele>176.2</ele>
        <time>2018-06-02T10:15:09Z</time>
      </trkpt>
      <trkpt lat="43.59494" lon="0.23164">
        <ele>176.3</ele>
        <time>2018-06-02T10:15:11Z</time>
      </trkpt>
      <trkpt lat="43.5949" lon="0.23163">
        <ele>176.3</ele>
        <time>2018-06-02T10:15:14Z</time>
      </trkpt>
      <trkpt lat="43.59487" lon="0.23163">
        <ele>176.3</ele>
        <time>2018-06-02T10:15:16Z</time>
      </trkpt>
      <trkpt lat="43.59483" lon="0.23162">
        <ele>176.3</ele>
        <time>2018-06-02T10:15:19Z</time>
      </trkpt>
      <trkpt lat="43.59479" lon="0.23162">
        <ele>176.3</ele>
        <time>2018-06-02T10:15:22Z</time>
      </trkpt>
      <trkpt lat="43.59476" lon="0.23162">
        <ele>176.3</ele>
        <time>2018-06-02T10:15:24Z</time>
      </trkpt>
      <trkpt lat="43.59472" lon="0.23162">
        <ele>176.4</ele>
        <time>2018-06-02T10:15:27Z</time>
      </trkpt>
      <trkpt lat="43.59469" lon="0.23161">
        <ele>176.4</ele>
        <time>2018-06-02T10:15:29Z</time>
      </trkpt>
      <trkpt lat="43.59465" lon="0.23161">
        <ele>176.4</ele>
        <time>2018-06-02T10:15:32Z</time>
      </trkpt>
      <trkpt lat="43.59462" lon="0.23161">
        <ele>176.4</ele>
        <time>2018-06-02T10:15:34Z</time>
      </trkpt>
      <trkpt lat="43.59459" lon="0.2316">
        <ele>176.4</ele>
        <time>2018-06-02T10:15:37Z</time>
      </trkpt>
      <trkpt lat="43.59457" lon="0.2316">
        <ele>176.4</ele>
        <time>2018-06-02T10:15:39Z</time>
      </trkpt>
      <trkpt lat="43.59454" lon="0.2316">
        <ele>176.4</ele>
        <time>2018-06-02T10:15:42Z</time>
      </trkpt>
      <trkpt lat="43.59452" lon="0.23159">
        <ele>176.5</ele>
        <time>2018-06-02T10:15:45Z</time>
      </trkpt>
      <trkpt lat="43.5945" lon="0.23159">
        <ele>176.5</ele>
        <time>2018-06-02T10:15:47Z</time>
      </trkpt>
      <trkpt lat="43.59448" lon="0.23159">
        <ele>176.5</ele>
        <time>2018-06-02T10:15:49Z</time>
      </trkpt>
      <trkpt lat="43.59447" lon="0.23159">
        <ele>176.5</ele>
        <time>2018-06-02T10:15:50Z</time>
      </trkpt>
      <trkpt lat="43.59446" lon="0.23161">
        <ele>176.5</ele>
        <time>2018-06-02T10:15:52Z</time>
      </trkpt>
      <trkpt lat="43.59444" lon="0.23162">
        <ele>176.5</ele>
        <time>2018-06-02T10:15:55Z</time>
      </trkpt>
      <trkpt lat="43.59442" lon="0.23163">
        <ele>176.5</ele>
        <time>2018-06-02T10:15:57Z</time>
      </trkpt>
      <trkpt lat="43.5944" lon="0.23165">
        <ele>176.6</ele>
        <time>2018-06-02T10:16:00Z</time>
      </trkpt>
      <trkpt lat="43.59439" lon="0.23166">
        <ele>176.6</ele>
        <time>2018-06-02T10:16:02Z</time>
      </trkpt>
      <trkpt lat="43.59437" lon="0.23168">
        <ele>176.6</ele>
        <time>2018-06-02T10:16:05Z</time>
      </trkpt>
      <trkpt lat="43.59436" lon="0.23169">
        <ele>176.6</ele>
        <time>2018-06-02T10:16:06Z</time>
      </trkpt>
      <trkpt lat="43.59435" lon="0.2317">
        <ele>176.6</ele>
        <time>2018-06-02T10:16:08Z</time>
      </trkpt>
      <trkpt lat="43.59434" lon="0.23172">
        <ele>176.6</ele>
        <time>2018-06-02T10:16:10Z</time>
      </trkpt>
      <trkpt lat="43.59432" lon="0.23174">
        <ele>176.6</ele>
        <time>2018-06-02T10:16:13Z</time>
      </trkpt>
      <trkpt lat="43.59431" lon="0.23176">
        <ele>176.7</ele>
        <time>2018-06-02T10:16:15Z</time>
      </trkpt>
      <trkpt lat="43.59429" lon="0.23178">
        <ele>176.7</ele>
        <time>2018-06-02T10:16:18Z</time>
      </trkpt>
      <trkpt lat="43.59428" lon="0.2318">
        <ele>176.7</ele>
        <time>2018-06-02T10:16:20Z</time>
      </trkpt>
      <trkpt lat="43.59426" lon="0.23182">
        <ele>176.7</ele>
        <time>2018-06-02T10:16:23Z</time>
      </trkpt>
      <trkpt lat="43.59425" lon="0.23183">
        <ele>176.7</ele>
        <time>2018-06-02T10:16:24Z</time>
      </trkpt>
      <trkpt lat="43.59424" lon="0.23183">
        <ele>176.9</ele>
        <time>2018-06-02T10:16:25Z</time>
      </trkpt>
      <trkpt lat="43.59421" lon="0.23183">
        <ele>177.2</ele>
        <time>2018-06-02T10:16:28Z</time>
      </trkpt>
      <trkpt lat="43.59418" lon="0.23184">
        <ele>177.6</ele>
        <time>2018-06-02T10:16:31Z</time>
      </trkpt>
      <trkpt lat="43.59416" lon="0.23185">
        <ele>177.9</ele>
        <time>2018-06-02T10:16:33Z</time>
      </trkpt>
      <trkpt lat="43.59413" lon="0.23185">
        <ele>178.3</ele>
        <time>2018-06-02T10:16:36Z</time>
      </trkpt>
      <trkpt lat="43.59412" lon="0.23185">
        <ele>178.4</ele>
        <time>2018-06-02T10:16:37Z</time>
      </trkpt>
      <trkpt lat="43.59413" lon="0.23186">
        <ele>178.5</ele>
        <time>2018-06-02T10:16:38Z</time>
      </trkpt>
      <trkpt lat="43.59414" lon="0.23187">
        <ele>178.9</ele>
        <time>2018-06-02T10:16:41Z</time>
      </trkpt>
      <trkpt lat="43.59415" lon="0.23188">
        <ele>179.1</ele>
        <time>2018-06-02T10:16:43Z</time>
      </trkpt>
      <trkpt lat="43.59416" lon="0.2319">
        <ele>179.5</ele>
        <time>2018-06-02T10:16:46Z</time>
      </trkpt>
      <trkpt lat="43.59417" lon="0.23191">
        <ele>179.8</ele>
        <time>2018-06-02T10:16:48Z</time>
      </trkpt>
      <trkpt lat="43.59418" lon="0.23192">
        <ele>180</ele>
        <time>2018-06-02T10:16:51Z</time>
      </trkpt>
      <trkpt lat="43.59419" lon="0.23193">
        <ele>180.2</ele>
        <time>2018-06-02T10:16:54Z</time>
      </trkpt>
      <trkpt lat="43.5942" lon="0.23194">
        <ele>180.3</ele>
        <time>2018-06-02T10:16:56Z</time>
      </trkpt>
      <trkpt lat="43.59422" lon="0.23196">
        <ele>180.6</ele>
        <time>2018-06-02T10:16:59Z</time>
      </trkpt>
      <trkpt lat="43.59422" lon="0.23197">
        <ele>180.7</ele>
        <time>2018-06-02T10:17:01Z</time>
      </trkpt>
      <trkpt lat="43.59424" lon="0.23198">
        <ele>180.9</ele>
        <time>2018-06-02T10:17:04Z</time>
      </trkpt>
      <trkpt lat="43.59425" lon="0.232">
        <ele>181.1</ele>
        <time>2018-06-02T10:17:06Z</time>
      </trkpt>
      <trkpt lat="43.59426" lon="0.23203">
        <ele>181.3</ele>
        <time>2018-06-02T10:17:09Z</time>
      </trkpt>
      <trkpt lat="43.59427" lon="0.23205">
        <ele>181.4</ele>
        <time>2018-06-02T10:17:11Z</time>
      </trkpt>
      <trkpt lat="43.59429" lon="0.23208">
        <ele>181.7</ele>
        <time>2018-06-02T10:17:14Z</time>
      </trkpt>
      <trkpt lat="43.5943" lon="0.23211">
        <ele>181.9</ele>
        <time>2018-06-02T10:17:17Z</time>
      </trkpt>
      <trkpt lat="43.59431" lon="0.23213">
        <ele>182</ele>
        <time>2018-06-02T10:17:19Z</time>
      </trkpt>
      <trkpt lat="43.59432" lon="0.23214">
        <ele>182.1</ele>
        <time>2018-06-02T10:17:20Z</time>
      </trkpt>
      <trkpt lat="43.59432" lon="0.23216">
        <ele>182.3</ele>
        <time>2018-06-02T10:17:22Z</time>
      </trkpt>
      <trkpt lat="43.59425" lon="0.23225">
        <ele>183.2</ele>
        <time>2018-06-02T10:17:27Z</time>
      </trkpt>
      <trkpt lat="43.59425" lon="0.23225">
        <ele>183.2</ele>
        <time>2018-06-02T10:18:01Z</time>
      </trkpt>
      <trkpt lat="43.59418" lon="0.2323">
        <ele>184</ele>
        <time>2018-06-02T10:18:03Z</time>
      </trkpt>
      <trkpt lat="43.59417" lon="0.2323">
        <ele>184</ele>
        <time>2018-06-02T10:18:05Z</time>
      </trkpt>
      <trkpt lat="43.59415" lon="0.23229">
        <ele>184.1</ele>
        <time>2018-06-02T10:18:08Z</time>
      </trkpt>
      <trkpt lat="43.59413" lon="0.23228">
        <ele>184.2</ele>
        <time>2018-06-02T10:18:11Z</time>
      </trkpt>
      <trkpt lat="43.59412" lon="0.23227">
        <ele>184.3</ele>
        <time>2018-06-02T10:18:13Z</time>
      </trkpt>
      <trkpt lat="43.59411" lon="0.23226">
        <ele>184.4</ele>
        <time>2018-06-02T10:18:15Z</time>
      </trkpt>
      <trkpt lat="43.59409" lon="0.23224">
        <ele>184.5</ele>
        <time>2018-06-02T10:18:18Z</time>
      </trkpt>
      <trkpt lat="43.59407" lon="0.23223">
        <ele>184.6</ele>
        <time>2018-06-02T10:18:21Z</time>
      </trkpt>
      <trkpt lat="43.59405" lon="0.23222">
        <ele>184.7</ele>
        <time>2018-06-02T10:18:23Z</time>
      </trkpt>
      <trkpt lat="43.59404" lon="0.23221">
        <ele>184.7</ele>
        <time>2018-06-02T10:18:25Z</time>
      </trkpt>
      <trkpt lat="43.59402" lon="0.23221">
        <ele>184.8</ele>
        <time>2018-06-02T10:18:26Z</time>
      </trkpt>
      <trkpt lat="43.59399" lon="0.2322">
        <ele>184.8</ele>
        <time>2018-06-02T10:18:28Z</time>
      </trkpt>
      <trkpt lat="43.59395" lon="0.23219">
        <ele>184.9</ele>
        <time>2018-06-02T10:18:31Z</time>
      </trkpt>
      <trkpt lat="43.59392" lon="0.23218">
        <ele>185</ele>
        <time>2018-06-02T10:18:33Z</time>
      </trkpt>
      <trkpt lat="43.5939" lon="0.23217">
        <ele>185</ele>
        <time>2018-06-02T10:18:34Z</time>
      </trkpt>
      <trkpt lat="43.59388" lon="0.23217">
        <ele>185.1</ele>
        <time>2018-06-02T10:18:36Z</time>
      </trkpt>
      <trkpt lat="43.59385" lon="0.23216">
        <ele>185.2</ele>
        <time>2018-06-02T10:18:38Z</time>
      </trkpt>
      <trkpt lat="43.59381" lon="0.23216">
        <ele>185.3</ele>
        <time>2018-06-02T10:18:41Z</time>
      </trkpt>
      <trkpt lat="43.59378" lon="0.23215">
        <ele>185.4</ele>
        <time>2018-06-02T10:18:44Z</time>
      </trkpt>
      <trkpt lat="43.59376" lon="0.23215">
        <ele>185.4</ele>
        <time>2018-06-02T10:18:45Z</time>
      </trkpt>
      <trkpt lat="43.59375" lon="0.23214">
        <ele>185.4</ele>
        <time>2018-06-02T10:18:46Z</time>
      </trkpt>
      <trkpt lat="43.59372" lon="0.23212">
        <ele>185.6</ele>
        <time>2018-06-02T10:18:49Z</time>
      </trkpt>
      <trkpt lat="43.5937" lon="0.23211">
        <ele>185.6</ele>
        <time>2018-06-02T10:18:51Z</time>
      </trkpt>
      <trkpt lat="43.59367" lon="0.23209">
        <ele>185.7</ele>
        <time>2018-06-02T10:18:54Z</time>
      </trkpt>
      <trkpt lat="43.59365" lon="0.23208">
        <ele>185.8</ele>
        <time>2018-06-02T10:18:56Z</time>
      </trkpt>
      <trkpt lat="43.59364" lon="0.23207">
        <ele>185.8</ele>
        <time>2018-06-02T10:18:57Z</time>
      </trkpt>
      <trkpt lat="43.59361" lon="0.23206">
        <ele>185.9</ele>
        <time>2018-06-02T10:18:59Z</time>
      </trkpt>
      <trkpt lat="43.59359" lon="0.23205">
        <ele>186</ele>
        <time>2018-06-02T10:19:01Z</time>
      </trkpt>
      <trkpt lat="43.59355" lon="0.23203">
        <ele>186.2</ele>
        <time>2018-06-02T10:19:04Z</time>
      </trkpt>
      <trkpt lat="43.59351" lon="0.23202">
        <ele>186.4</ele>
        <time>2018-06-02T10:19:07Z</time>
      </trkpt>
      <trkpt lat="43.5935" lon="0.23201">
        <ele>186.5</ele>
        <time>2018-06-02T10:19:08Z</time>
      </trkpt>
      <trkpt lat="43.59349" lon="0.232">
        <ele>186.5</ele>
        <time>2018-06-02T10:19:09Z</time>
      </trkpt>
      <trkpt lat="43.59346" lon="0.23197">
        <ele>186.7</ele>
        <time>2018-06-02T10:19:12Z</time>
      </trkpt>
      <trkpt lat="43.59344" lon="0.23195">
        <ele>186.9</ele>
        <time>2018-06-02T10:19:14Z</time>
      </trkpt>
      <trkpt lat="43.59341" lon="0.23191">
        <ele>187.1</ele>
        <time>2018-06-02T10:19:17Z</time>
      </trkpt>
      <trkpt lat="43.59339" lon="0.23189">
        <ele>187.2</ele>
        <time>2018-06-02T10:19:19Z</time>
      </trkpt>
      <trkpt lat="43.59336" lon="0.23188">
        <ele>187.4</ele>
        <time>2018-06-02T10:19:22Z</time>
      </trkpt>
      <trkpt lat="43.59333" lon="0.23187">
        <ele>187.6</ele>
        <time>2018-06-02T10:19:24Z</time>
      </trkpt>
      <trkpt lat="43.5933" lon="0.23185">
        <ele>187.8</ele>
        <time>2018-06-02T10:19:27Z</time>
      </trkpt>
      <trkpt lat="43.59326" lon="0.23183">
        <ele>188</ele>
        <time>2018-06-02T10:19:30Z</time>
      </trkpt>
      <trkpt lat="43.59323" lon="0.23182">
        <ele>188.1</ele>
        <time>2018-06-02T10:19:32Z</time>
      </trkpt>
      <trkpt lat="43.59319" lon="0.23181">
        <ele>188.3</ele>
        <time>2018-06-02T10:19:35Z</time>
      </trkpt>
      <trkpt lat="43.59316" lon="0.23179">
        <ele>188.5</ele>
        <time>2018-06-02T10:19:37Z</time>
      </trkpt>
      <trkpt lat="43.59312" lon="0.23178">
        <ele>188.7</ele>
        <time>2018-06-02T10:19:40Z</time>
      </trkpt>
      <trkpt lat="43.5931" lon="0.23177">
        <ele>188.8</ele>
        <time>2018-06-02T10:19:42Z</time>
      </trkpt>
      <trkpt lat="43.59306" lon="0.23175">
        <ele>189</ele>
        <time>2018-06-02T10:19:45Z</time>
      </trkpt>
      <trkpt lat="43.59303" lon="0.23174">
        <ele>189.2</ele>
        <time>2018-06-02T10:19:47Z</time>
      </trkpt>
      <trkpt lat="43.59301" lon="0.23173">
        <ele>189.3</ele>
        <time>2018-06-02T10:19:49Z</time>
      </trkpt>
      <trkpt lat="43.593" lon="0.23172">
        <ele>189.4</ele>
        <time>2018-06-02T10:19:50Z</time>
      </trkpt>
      <trkpt lat="43.59298" lon="0.23172">
        <ele>189.4</ele>
        <time>2018-06-02T10:19:51Z</time>
      </trkpt>
      <trkpt lat="43.59296" lon="0.2317">
        <ele>189.6</ele>
        <time>2018-06-02T10:19:53Z</time>
      </trkpt>
      <trkpt lat="43.59294" lon="0.23169">
        <ele>189.7</ele>
        <time>2018-06-02T10:19:55Z</time>
      </trkpt>
      <trkpt lat="43.59291" lon="0.23166">
        <ele>189.9</ele>
        <time>2018-06-02T10:19:58Z</time>
      </trkpt>
      <trkpt lat="43.59288" lon="0.23165">
        <ele>190</ele>
        <time>2018-06-02T10:20:00Z</time>
      </trkpt>
      <trkpt lat="43.59286" lon="0.23163">
        <ele>190.2</ele>
        <time>2018-06-02T10:20:02Z</time>
      </trkpt>
      <trkpt lat="43.59286" lon="0.23163">
        <ele>190.2</ele>
        <time>2018-06-02T10:20:03Z</time>
      </trkpt>
      <trkpt lat="43.59285" lon="0.23162">
        <ele>190.4</ele>
        <time>2018-06-02T10:20:05Z</time>
      </trkpt>
      <trkpt lat="43.59283" lon="0.2316">
        <ele>190.6</ele>
        <time>2018-06-02T10:20:08Z</time>
      </trkpt>
      <trkpt lat="43.59282" lon="0.23159">
        <ele>190.7</ele>
        <time>2018-06-02T10:20:10Z</time>
      </trkpt>
      <trkpt lat="43.5928" lon="0.23157">
        <ele>190.9</ele>
        <time>2018-06-02T10:20:13Z</time>
      </trkpt>
      <trkpt lat="43.59278" lon="0.23156">
        <ele>191.1</ele>
        <time>2018-06-02T10:20:16Z</time>
      </trkpt>
      <trkpt lat="43.59277" lon="0.23155">
        <ele>191.3</ele>
        <time>2018-06-02T10:20:18Z</time>
      </trkpt>
      <trkpt lat="43.59276" lon="0.23153">
        <ele>191.5</ele>
        <time>2018-06-02T10:20:21Z</time>
      </trkpt>
      <trkpt lat="43.59275" lon="0.23152">
        <ele>191.5</ele>
        <time>2018-06-02T10:20:22Z</time>
      </trkpt>
      <trkpt lat="43.59274" lon="0.23152">
        <ele>191.6</ele>
        <time>2018-06-02T10:20:23Z</time>
      </trkpt>
      <trkpt lat="43.5927" lon="0.23151">
        <ele>191.8</ele>
        <time>2018-06-02T10:20:26Z</time>
      </trkpt>
      <trkpt lat="43.59268" lon="0.2315">
        <ele>191.9</ele>
        <time>2018-06-02T10:20:28Z</time>
      </trkpt>
      <trkpt lat="43.59264" lon="0.23148">
        <ele>192.1</ele>
        <time>2018-06-02T10:20:31Z</time>
      </trkpt>
      <trkpt lat="43.59262" lon="0.23147">
        <ele>192.3</ele>
        <time>2018-06-02T10:20:33Z</time>
      </trkpt>
      <trkpt lat="43.59258" lon="0.23146">
        <ele>192.5</ele>
        <time>2018-06-02T10:20:36Z</time>
      </trkpt>
      <trkpt lat="43.59257" lon="0.23145">
        <ele>192.5</ele>
        <time>2018-06-02T10:20:37Z</time>
      </trkpt>
      <trkpt lat="43.59255" lon="0.23144">
        <ele>192.6</ele>
        <time>2018-06-02T10:20:39Z</time>
      </trkpt>
      <trkpt lat="43.59253" lon="0.23143">
        <ele>192.7</ele>
        <time>2018-06-02T10:20:41Z</time>
      </trkpt>
      <trkpt lat="43.5925" lon="0.23142">
        <ele>192.8</ele>
        <time>2018-06-02T10:20:44Z</time>
      </trkpt>
      <trkpt lat="43.59248" lon="0.23141">
        <ele>192.9</ele>
        <time>2018-06-02T10:20:46Z</time>
      </trkpt>
      <trkpt lat="43.59243" lon="0.23141">
        <ele>193</ele>
        <time>2018-06-02T10:20:49Z</time>
      </trkpt>
      <trkpt lat="43.59241" lon="0.23141">
        <ele>193</ele>
        <time>2018-06-02T10:20:51Z</time>
      </trkpt>
      <trkpt lat="43.59236" lon="0.2314">
        <ele>193.2</ele>
        <time>2018-06-02T10:20:54Z</time>
      </trkpt>
      <trkpt lat="43.59234" lon="0.2314">
        <ele>193.2</ele>
        <time>2018-06-02T10:20:56Z</time>
      </trkpt>
      <trkpt lat="43.5923" lon="0.2314">
        <ele>193.3</ele>
        <time>2018-06-02T10:20:59Z</time>
      </trkpt>
      <trkpt lat="43.59226" lon="0.2314">
        <ele>193.4</ele>
        <time>2018-06-02T10:21:02Z</time>
      </trkpt>
      <trkpt lat="43.59223" lon="0.2314">
        <ele>193.5</ele>
        <time>2018-06-02T10:21:04Z</time>
      </trkpt>
      <trkpt lat="43.5922" lon="0.2314">
        <ele>193.6</ele>
        <time>2018-06-02T10:21:07Z</time>
      </trkpt>
      <trkpt lat="43.59217" lon="0.2314">
        <ele>193.7</ele>
        <time>2018-06-02T10:21:09Z</time>
      </trkpt>
      <trkpt lat="43.59213" lon="0.2314">
        <ele>193.8</ele>
        <time>2018-06-02T10:21:12Z</time>
      </trkpt>
      <trkpt lat="43.5921" lon="0.23141">
        <ele>193.9</ele>
        <time>2018-06-02T10:21:14Z</time>
      </trkpt>
      <trkpt lat="43.59206" lon="0.23141">
        <ele>194</ele>
        <time>2018-06-02T10:21:17Z</time>
      </trkpt>
      <trkpt lat="43.59203" lon="0.23141">
        <ele>194.1</ele>
        <time>2018-06-02T10:21:19Z</time>
      </trkpt>
      <trkpt lat="43.592" lon="0.23142">
        <ele>194.2</ele>
        <time>2018-06-02T10:21:22Z</time>
      </trkpt>
      <trkpt lat="43.59196" lon="0.23143">
        <ele>194.3</ele>
        <time>2018-06-02T10:21:25Z</time>
      </trkpt>
      <trkpt lat="43.59193" lon="0.23143">
        <ele>194.3</ele>
        <time>2018-06-02T10:21:27Z</time>
      </trkpt>
      <trkpt lat="43.59192" lon="0.23143">
        <ele>194.4</ele>
        <time>2018-06-02T10:21:28Z</time>
      </trkpt>
      <trkpt lat="43.5919" lon="0.23143">
        <ele>194.5</ele>
        <time>2018-06-02T10:21:30Z</time>
      </trkpt>
      <trkpt lat="43.59188" lon="0.23142">
        <ele>194.5</ele>
        <time>2018-06-02T10:21:32Z</time>
      </trkpt>
      <trkpt lat="43.59184" lon="0.23141">
        <ele>194.6</ele>
        <time>2018-06-02T10:21:35Z</time>
      </trkpt>
      <trkpt lat="43.59182" lon="0.23141">
        <ele>194.7</ele>
        <time>2018-06-02T10:21:37Z</time>
      </trkpt>
      <trkpt lat="43.59179" lon="0.2314">
        <ele>194.8</ele>
        <time>2018-06-02T10:21:40Z</time>
      </trkpt>
      <trkpt lat="43.59178" lon="0.2314">
        <ele>194.9</ele>
        <time>2018-06-02T10:21:41Z</time>
      </trkpt>
      <trkpt lat="43.59176" lon="0.2314">
        <ele>194.9</ele>
        <time>2018-06-02T10:21:42Z</time>
      </trkpt>
      <trkpt lat="43.59172" lon="0.2314">
        <ele>195</ele>
        <time>2018-06-02T10:21:45Z</time>
      </trkpt>
      <trkpt lat="43.59168" lon="0.23139">
        <ele>195.1</ele>
        <time>2018-06-02T10:21:48Z</time>
      </trkpt>
      <trkpt lat="43.59165" lon="0.23139">
        <ele>195.2</ele>
        <time>2018-06-02T10:21:50Z</time>
      </trkpt>
      <trkpt lat="43.59164" lon="0.23139">
        <ele>195.2</ele>
        <time>2018-06-02T10:21:51Z</time>
      </trkpt>
      <trkpt lat="43.59161" lon="0.2314">
        <ele>195.3</ele>
        <time>2018-06-02T10:21:53Z</time>
      </trkpt>
      <trkpt lat="43.59159" lon="0.2314">
        <ele>195.4</ele>
        <time>2018-06-02T10:21:55Z</time>
      </trkpt>
      <trkpt lat="43.59156" lon="0.23141">
        <ele>195.5</ele>
        <time>2018-06-02T10:21:58Z</time>
      </trkpt>
      <trkpt lat="43.59153" lon="0.23141">
        <ele>195.5</ele>
        <time>2018-06-02T10:22:00Z</time>
      </trkpt>
      <trkpt lat="43.5915" lon="0.23142">
        <ele>195.6</ele>
        <time>2018-06-02T10:22:03Z</time>
      </trkpt>
      <trkpt lat="43.59147" lon="0.23143">
        <ele>195.7</ele>
        <time>2018-06-02T10:22:05Z</time>
      </trkpt>
      <trkpt lat="43.59144" lon="0.23144">
        <ele>195.8</ele>
        <time>2018-06-02T10:22:08Z</time>
      </trkpt>
      <trkpt lat="43.5914" lon="0.23146">
        <ele>195.9</ele>
        <time>2018-06-02T10:22:11Z</time>
      </trkpt>
      <trkpt lat="43.59137" lon="0.23147">
        <ele>196</ele>
        <time>2018-06-02T10:22:13Z</time>
      </trkpt>
      <trkpt lat="43.59136" lon="0.23147">
        <ele>196.1</ele>
        <time>2018-06-02T10:22:14Z</time>
      </trkpt>
      <trkpt lat="43.59133" lon="0.23149">
        <ele>196.4</ele>
        <time>2018-06-02T10:22:16Z</time>
      </trkpt>
      <trkpt lat="43.5913" lon="0.2315">
        <ele>196.6</ele>
        <time>2018-06-02T10:22:18Z</time>
      </trkpt>
      <trkpt lat="43.59126" lon="0.23152">
        <ele>197</ele>
        <time>2018-06-02T10:22:21Z</time>
      </trkpt>
      <trkpt lat="43.59123" lon="0.23153">
        <ele>197.2</ele>
        <time>2018-06-02T10:22:23Z</time>
      </trkpt>
      <trkpt lat="43.59119" lon="0.23154">
        <ele>197.5</ele>
        <time>2018-06-02T10:22:26Z</time>
      </trkpt>
      <trkpt lat="43.59116" lon="0.23154">
        <ele>197.8</ele>
        <time>2018-06-02T10:22:28Z</time>
      </trkpt>
      <trkpt lat="43.59112" lon="0.23155">
        <ele>198.1</ele>
        <time>2018-06-02T10:22:31Z</time>
      </trkpt>
      <trkpt lat="43.5911" lon="0.23156">
        <ele>198.4</ele>
        <time>2018-06-02T10:22:33Z</time>
      </trkpt>
      <trkpt lat="43.59108" lon="0.23156">
        <ele>198.5</ele>
        <time>2018-06-02T10:22:34Z</time>
      </trkpt>
      <trkpt lat="43.59106" lon="0.23157">
        <ele>198.7</ele>
        <time>2018-06-02T10:22:36Z</time>
      </trkpt>
      <trkpt lat="43.59102" lon="0.23159">
        <ele>199.1</ele>
        <time>2018-06-02T10:22:39Z</time>
      </trkpt>
      <trkpt lat="43.591" lon="0.23159">
        <ele>199.3</ele>
        <time>2018-06-02T10:22:41Z</time>
      </trkpt>
      <trkpt lat="43.59098" lon="0.2316">
        <ele>199.5</ele>
        <time>2018-06-02T10:22:43Z</time>
      </trkpt>
      <trkpt lat="43.59096" lon="0.23161">
        <ele>199.6</ele>
        <time>2018-06-02T10:22:44Z</time>
      </trkpt>
      <trkpt lat="43.59093" lon="0.23162">
        <ele>199.9</ele>
        <time>2018-06-02T10:22:46Z</time>
      </trkpt>
      <trkpt lat="43.59089" lon="0.23163">
        <ele>200.2</ele>
        <time>2018-06-02T10:22:49Z</time>
      </trkpt>
      <trkpt lat="43.59086" lon="0.23163">
        <ele>200.4</ele>
        <time>2018-06-02T10:22:51Z</time>
      </trkpt>
      <trkpt lat="43.59082" lon="0.23164">
        <ele>200.8</ele>
        <time>2018-06-02T10:22:54Z</time>
      </trkpt>
      <trkpt lat="43.59078" lon="0.23165">
        <ele>201.1</ele>
        <time>2018-06-02T10:22:57Z</time>
      </trkpt>
      <trkpt lat="43.59076" lon="0.23166">
        <ele>201.3</ele>
        <time>2018-06-02T10:22:59Z</time>
      </trkpt>
      <trkpt lat="43.59072" lon="0.23167">
        <ele>201.6</ele>
        <time>2018-06-02T10:23:02Z</time>
      </trkpt>
      <trkpt lat="43.5907" lon="0.23167">
        <ele>201.9</ele>
        <time>2018-06-02T10:23:04Z</time>
      </trkpt>
      <trkpt lat="43.59067" lon="0.23168">
        <ele>202.1</ele>
        <time>2018-06-02T10:23:06Z</time>
      </trkpt>
      <trkpt lat="43.59066" lon="0.23168">
        <ele>202.2</ele>
        <time>2018-06-02T10:23:07Z</time>
      </trkpt>
      <trkpt lat="43.59064" lon="0.23168">
        <ele>202.4</ele>
        <time>2018-06-02T10:23:09Z</time>
      </trkpt>
      <trkpt lat="43.5906" lon="0.23168">
        <ele>202.8</ele>
        <time>2018-06-02T10:23:12Z</time>
      </trkpt>
      <trkpt lat="43.59059" lon="0.23168">
        <ele>202.9</ele>
        <time>2018-06-02T10:23:13Z</time>
      </trkpt>
      <trkpt lat="43.59058" lon="0.23168">
        <ele>203</ele>
        <time>2018-06-02T10:23:14Z</time>
      </trkpt>
      <trkpt lat="43.59054" lon="0.23168">
        <ele>203.3</ele>
        <time>2018-06-02T10:23:17Z</time>
      </trkpt>
      <trkpt lat="43.59053" lon="0.23168">
        <ele>203.4</ele>
        <time>2018-06-02T10:23:18Z</time>
      </trkpt>
      <trkpt lat="43.59051" lon="0.23169">
        <ele>203.6</ele>
        <time>2018-06-02T10:23:20Z</time>
      </trkpt>
      <trkpt lat="43.59048" lon="0.2317">
        <ele>203.8</ele>
        <time>2018-06-02T10:23:22Z</time>
      </trkpt>
      <trkpt lat="43.59044" lon="0.23171">
        <ele>204.1</ele>
        <time>2018-06-02T10:23:25Z</time>
      </trkpt>
      <trkpt lat="43.59042" lon="0.23171">
        <ele>204.3</ele>
        <time>2018-06-02T10:23:27Z</time>
      </trkpt>
      <trkpt lat="43.5904" lon="0.23172">
        <ele>204.5</ele>
        <time>2018-06-02T10:23:29Z</time>
      </trkpt>
      <trkpt lat="43.59038" lon="0.23172">
        <ele>204.6</ele>
        <time>2018-06-02T10:23:30Z</time>
      </trkpt>
      <trkpt lat="43.59035" lon="0.23173">
        <ele>204.8</ele>
        <time>2018-06-02T10:23:32Z</time>
      </trkpt>
      <trkpt lat="43.59031" lon="0.23174">
        <ele>205.1</ele>
        <time>2018-06-02T10:23:35Z</time>
      </trkpt>
      <trkpt lat="43.59028" lon="0.23174">
        <ele>205.3</ele>
        <time>2018-06-02T10:23:37Z</time>
      </trkpt>
      <trkpt lat="43.59026" lon="0.23175">
        <ele>205.6</ele>
        <time>2018-06-02T10:23:39Z</time>
      </trkpt>
      <trkpt lat="43.59024" lon="0.23175">
        <ele>205.7</ele>
        <time>2018-06-02T10:23:40Z</time>
      </trkpt>
      <trkpt lat="43.59021" lon="0.23176">
        <ele>206</ele>
        <time>2018-06-02T10:23:43Z</time>
      </trkpt>
      <trkpt lat="43.59018" lon="0.23177">
        <ele>206.3</ele>
        <time>2018-06-02T10:23:45Z</time>
      </trkpt>
      <trkpt lat="43.59015" lon="0.23177">
        <ele>206.7</ele>
        <time>2018-06-02T10:23:48Z</time>
      </trkpt>
      <trkpt lat="43.59012" lon="0.23178">
        <ele>207</ele>
        <time>2018-06-02T10:23:50Z</time>
      </trkpt>
      <trkpt lat="43.59011" lon="0.23178">
        <ele>207.1</ele>
        <time>2018-06-02T10:23:51Z</time>
      </trkpt>
      <trkpt lat="43.59009" lon="0.23179">
        <ele>207.4</ele>
        <time>2018-06-02T10:23:53Z</time>
      </trkpt>
      <trkpt lat="43.59006" lon="0.2318">
        <ele>207.7</ele>
        <time>2018-06-02T10:23:55Z</time>
      </trkpt>
      <trkpt lat="43.59003" lon="0.23182">
        <ele>208.1</ele>
        <time>2018-06-02T10:23:58Z</time>
      </trkpt>
      <trkpt lat="43.59" lon="0.23183">
        <ele>208.4</ele>
        <time>2018-06-02T10:24:00Z</time>
      </trkpt>
      <trkpt lat="43.58998" lon="0.23184">
        <ele>208.7</ele>
        <time>2018-06-02T10:24:02Z</time>
      </trkpt>
      <trkpt lat="43.58997" lon="0.23184">
        <ele>208.8</ele>
        <time>2018-06-02T10:24:03Z</time>
      </trkpt>
      <trkpt lat="43.58993" lon="0.23186">
        <ele>209.2</ele>
        <time>2018-06-02T10:24:06Z</time>
      </trkpt>
      <trkpt lat="43.58992" lon="0.23187">
        <ele>209.4</ele>
        <time>2018-06-02T10:24:07Z</time>
      </trkpt>
      <trkpt lat="43.5899" lon="0.23188">
        <ele>209.5</ele>
        <time>2018-06-02T10:24:08Z</time>
      </trkpt>
      <trkpt lat="43.58987" lon="0.2319">
        <ele>209.8</ele>
        <time>2018-06-02T10:24:11Z</time>
      </trkpt>
      <trkpt lat="43.58984" lon="0.23191">
        <ele>210</ele>
        <time>2018-06-02T10:24:13Z</time>
      </trkpt>
      <trkpt lat="43.58981" lon="0.23193">
        <ele>210.3</ele>
        <time>2018-06-02T10:24:16Z</time>
      </trkpt>
      <trkpt lat="43.58979" lon="0.23194">
        <ele>210.5</ele>
        <time>2018-06-02T10:24:18Z</time>
      </trkpt>
      <trkpt lat="43.58976" lon="0.23195">
        <ele>210.8</ele>
        <time>2018-06-02T10:24:21Z</time>
      </trkpt>
      <trkpt lat="43.58974" lon="0.23197">
        <ele>211</ele>
        <time>2018-06-02T10:24:23Z</time>
      </trkpt>
      <trkpt lat="43.58971" lon="0.23198">
        <ele>211.3</ele>
        <time>2018-06-02T10:24:26Z</time>
      </trkpt>
      <trkpt lat="43.58967" lon="0.23201">
        <ele>211.7</ele>
        <time>2018-06-02T10:24:29Z</time>
      </trkpt>
      <trkpt lat="43.58965" lon="0.23203">
        <ele>211.9</ele>
        <time>2018-06-02T10:24:31Z</time>
      </trkpt>
      <trkpt lat="43.58961" lon="0.23206">
        <ele>212.2</ele>
        <time>2018-06-02T10:24:34Z</time>
      </trkpt>
      <trkpt lat="43.58959" lon="0.23208">
        <ele>212.4</ele>
        <time>2018-06-02T10:24:36Z</time>
      </trkpt>
      <trkpt lat="43.58958" lon="0.23208">
        <ele>212.5</ele>
        <time>2018-06-02T10:24:37Z</time>
      </trkpt>
      <trkpt lat="43.58956" lon="0.2321">
        <ele>212.6</ele>
        <time>2018-06-02T10:24:39Z</time>
      </trkpt>
      <trkpt lat="43.58954" lon="0.23212">
        <ele>212.8</ele>
        <time>2018-06-02T10:24:41Z</time>
      </trkpt>
      <trkpt lat="43.5895" lon="0.23214">
        <ele>213</ele>
        <time>2018-06-02T10:24:44Z</time>
      </trkpt>
      <trkpt lat="43.58947" lon="0.23217">
        <ele>213.2</ele>
        <time>2018-06-02T10:24:47Z</time>
      </trkpt>
      <trkpt lat="43.58945" lon="0.23218">
        <ele>213.4</ele>
        <time>2018-06-02T10:24:49Z</time>
      </trkpt>
      <trkpt lat="43.58941" lon="0.23221">
        <ele>213.6</ele>
        <time>2018-06-02T10:24:52Z</time>
      </trkpt>
      <trkpt lat="43.58939" lon="0.23223">
        <ele>213.7</ele>
        <time>2018-06-02T10:24:54Z</time>
      </trkpt>
      <trkpt lat="43.58935" lon="0.23226">
        <ele>214</ele>
        <time>2018-06-02T10:24:57Z</time>
      </trkpt>
      <trkpt lat="43.58933" lon="0.23228">
        <ele>214.1</ele>
        <time>2018-06-02T10:24:59Z</time>
      </trkpt>
      <trkpt lat="43.58931" lon="0.23231">
        <ele>214.3</ele>
        <time>2018-06-02T10:25:02Z</time>
      </trkpt>
      <trkpt lat="43.58929" lon="0.23233">
        <ele>214.5</ele>
        <time>2018-06-02T10:25:04Z</time>
      </trkpt>
      <trkpt lat="43.58926" lon="0.23237">
        <ele>214.7</ele>
        <time>2018-06-02T10:25:07Z</time>
      </trkpt>
      <trkpt lat="43.58925" lon="0.23238">
        <ele>214.8</ele>
        <time>2018-06-02T10:25:08Z</time>
      </trkpt>
      <trkpt lat="43.58923" lon="0.23241">
        <ele>214.9</ele>
        <time>2018-06-02T10:25:10Z</time>
      </trkpt>
      <trkpt lat="43.58921" lon="0.23243">
        <ele>215.1</ele>
        <time>2018-06-02T10:25:12Z</time>
      </trkpt>
      <trkpt lat="43.58919" lon="0.23247">
        <ele>215.3</ele>
        <time>2018-06-02T10:25:15Z</time>
      </trkpt>
      <trkpt lat="43.58917" lon="0.23249">
        <ele>215.4</ele>
        <time>2018-06-02T10:25:17Z</time>
      </trkpt>
      <trkpt lat="43.58916" lon="0.23251">
        <ele>215.5</ele>
        <time>2018-06-02T10:25:18Z</time>
      </trkpt>
      <trkpt lat="43.58915" lon="0.23252">
        <ele>215.6</ele>
        <time>2018-06-02T10:25:19Z</time>
      </trkpt>
      <trkpt lat="43.58914" lon="0.23253">
        <ele>215.7</ele>
        <time>2018-06-02T10:25:20Z</time>
      </trkpt>
      <trkpt lat="43.58912" lon="0.23255">
        <ele>215.9</ele>
        <time>2018-06-02T10:25:22Z</time>
      </trkpt>
      <trkpt lat="43.58909" lon="0.23259">
        <ele>216.2</ele>
        <time>2018-06-02T10:25:25Z</time>
      </trkpt>
      <trkpt lat="43.58907" lon="0.23261">
        <ele>216.3</ele>
        <time>2018-06-02T10:25:27Z</time>
      </trkpt>
      <trkpt lat="43.58905" lon="0.23263">
        <ele>216.5</ele>
        <time>2018-06-02T10:25:29Z</time>
      </trkpt>
      <trkpt lat="43.58904" lon="0.23265">
        <ele>216.6</ele>
        <time>2018-06-02T10:25:30Z</time>
      </trkpt>
      <trkpt lat="43.58901" lon="0.23268">
        <ele>216.9</ele>
        <time>2018-06-02T10:25:33Z</time>
      </trkpt>
      <trkpt lat="43.589" lon="0.23271">
        <ele>217.1</ele>
        <time>2018-06-02T10:25:35Z</time>
      </trkpt>
      <trkpt lat="43.58897" lon="0.23275">
        <ele>217.4</ele>
        <time>2018-06-02T10:25:38Z</time>
      </trkpt>
      <trkpt lat="43.58895" lon="0.23277">
        <ele>217.6</ele>
        <time>2018-06-02T10:25:40Z</time>
      </trkpt>
      <trkpt lat="43.58892" lon="0.23281">
        <ele>217.8</ele>
        <time>2018-06-02T10:25:43Z</time>
      </trkpt>
      <trkpt lat="43.58891" lon="0.23283">
        <ele>218</ele>
        <time>2018-06-02T10:25:45Z</time>
      </trkpt>
      <trkpt lat="43.58888" lon="0.23287">
        <ele>218.3</ele>
        <time>2018-06-02T10:25:48Z</time>
      </trkpt>
      <trkpt lat="43.58886" lon="0.23289">
        <ele>218.5</ele>
        <time>2018-06-02T10:25:50Z</time>
      </trkpt>
      <trkpt lat="43.58885" lon="0.2329">
        <ele>218.6</ele>
        <time>2018-06-02T10:25:51Z</time>
      </trkpt>
      <trkpt lat="43.58883" lon="0.23293">
        <ele>218.8</ele>
        <time>2018-06-02T10:25:53Z</time>
      </trkpt>
      <trkpt lat="43.58881" lon="0.23297">
        <ele>219.1</ele>
        <time>2018-06-02T10:25:56Z</time>
      </trkpt>
      <trkpt lat="43.58879" lon="0.233">
        <ele>219.3</ele>
        <time>2018-06-02T10:25:58Z</time>
      </trkpt>
      <trkpt lat="43.58877" lon="0.23304">
        <ele>219.6</ele>
        <time>2018-06-02T10:26:01Z</time>
      </trkpt>
      <trkpt lat="43.58876" lon="0.23305">
        <ele>219.7</ele>
        <time>2018-06-02T10:26:02Z</time>
      </trkpt>
      <trkpt lat="43.58875" lon="0.23306">
        <ele>219.9</ele>
        <time>2018-06-02T10:26:03Z</time>
      </trkpt>
      <trkpt lat="43.58872" lon="0.23309">
        <ele>220.2</ele>
        <time>2018-06-02T10:26:06Z</time>
      </trkpt>
      <trkpt lat="43.5887" lon="0.23311">
        <ele>220.4</ele>
        <time>2018-06-02T10:26:08Z</time>
      </trkpt>
      <trkpt lat="43.58866" lon="0.23314">
        <ele>220.7</ele>
        <time>2018-06-02T10:26:11Z</time>
      </trkpt>
      <trkpt lat="43.58864" lon="0.23316">
        <ele>220.9</ele>
        <time>2018-06-02T10:26:13Z</time>
      </trkpt>
      <trkpt lat="43.58862" lon="0.2332">
        <ele>221.2</ele>
        <time>2018-06-02T10:26:16Z</time>
      </trkpt>
      <trkpt lat="43.58859" lon="0.23323">
        <ele>221.5</ele>
        <time>2018-06-02T10:26:19Z</time>
      </trkpt>
      <trkpt lat="43.58858" lon="0.23326">
        <ele>221.8</ele>
        <time>2018-06-02T10:26:21Z</time>
      </trkpt>
      <trkpt lat="43.58855" lon="0.2333">
        <ele>222.1</ele>
        <time>2018-06-02T10:26:24Z</time>
      </trkpt>
      <trkpt lat="43.58853" lon="0.23332">
        <ele>222.3</ele>
        <time>2018-06-02T10:26:26Z</time>
      </trkpt>
      <trkpt lat="43.58851" lon="0.23336">
        <ele>222.6</ele>
        <time>2018-06-02T10:26:29Z</time>
      </trkpt>
      <trkpt lat="43.58849" lon="0.23338">
        <ele>222.8</ele>
        <time>2018-06-02T10:26:31Z</time>
      </trkpt>
      <trkpt lat="43.58846" lon="0.23342">
        <ele>223.1</ele>
        <time>2018-06-02T10:26:34Z</time>
      </trkpt>
      <trkpt lat="43.58845" lon="0.23343">
        <ele>223.2</ele>
        <time>2018-06-02T10:26:35Z</time>
      </trkpt>
      <trkpt lat="43.58844" lon="0.23344">
        <ele>223.3</ele>
        <time>2018-06-02T10:26:36Z</time>
      </trkpt>
      <trkpt lat="43.58842" lon="0.23347">
        <ele>223.6</ele>
        <time>2018-06-02T10:26:39Z</time>
      </trkpt>
      <trkpt lat="43.5884" lon="0.23351">
        <ele>223.9</ele>
        <time>2018-06-02T10:26:42Z</time>
      </trkpt>
      <trkpt lat="43.58838" lon="0.23353">
        <ele>224.1</ele>
        <time>2018-06-02T10:26:44Z</time>
      </trkpt>
      <trkpt lat="43.58836" lon="0.23356">
        <ele>224.4</ele>
        <time>2018-06-02T10:26:47Z</time>
      </trkpt>
      <trkpt lat="43.58835" lon="0.23357">
        <ele>224.5</ele>
        <time>2018-06-02T10:26:48Z</time>
      </trkpt>
      <trkpt lat="43.58834" lon="0.23359">
        <ele>224.6</ele>
        <time>2018-06-02T10:26:49Z</time>
      </trkpt>
      <trkpt lat="43.58832" lon="0.23361">
        <ele>224.8</ele>
        <time>2018-06-02T10:26:51Z</time>
      </trkpt>
      <trkpt lat="43.58831" lon="0.23362">
        <ele>224.9</ele>
        <time>2018-06-02T10:26:52Z</time>
      </trkpt>
      <trkpt lat="43.58828" lon="0.23364">
        <ele>225.1</ele>
        <time>2018-06-02T10:26:54Z</time>
      </trkpt>
      <trkpt lat="43.58825" lon="0.23367">
        <ele>225.4</ele>
        <time>2018-06-02T10:26:57Z</time>
      </trkpt>
      <trkpt lat="43.58824" lon="0.23368">
        <ele>225.5</ele>
        <time>2018-06-02T10:26:58Z</time>
      </trkpt>
      <trkpt lat="43.58823" lon="0.2337">
        <ele>225.6</ele>
        <time>2018-06-02T10:26:59Z</time>
      </trkpt>
      <trkpt lat="43.58819" lon="0.23374">
        <ele>226</ele>
        <time>2018-06-02T10:27:02Z</time>
      </trkpt>
      <trkpt lat="43.58816" lon="0.23378">
        <ele>226.3</ele>
        <time>2018-06-02T10:27:05Z</time>
      </trkpt>
      <trkpt lat="43.58814" lon="0.23381">
        <ele>226.5</ele>
        <time>2018-06-02T10:27:07Z</time>
      </trkpt>
      <trkpt lat="43.58813" lon="0.23382">
        <ele>226.6</ele>
        <time>2018-06-02T10:27:08Z</time>
      </trkpt>
      <trkpt lat="43.58811" lon="0.23385">
        <ele>226.9</ele>
        <time>2018-06-02T10:27:10Z</time>
      </trkpt>
      <trkpt lat="43.58809" lon="0.23388">
        <ele>227.1</ele>
        <time>2018-06-02T10:27:12Z</time>
      </trkpt>
      <trkpt lat="43.58806" lon="0.23393">
        <ele>227.4</ele>
        <time>2018-06-02T10:27:15Z</time>
      </trkpt>
      <trkpt lat="43.58804" lon="0.23396">
        <ele>227.6</ele>
        <time>2018-06-02T10:27:17Z</time>
      </trkpt>
      <trkpt lat="43.58803" lon="0.23397">
        <ele>227.7</ele>
        <time>2018-06-02T10:27:18Z</time>
      </trkpt>
      <trkpt lat="43.58801" lon="0.23399">
        <ele>228</ele>
        <time>2018-06-02T10:27:20Z</time>
      </trkpt>
      <trkpt lat="43.58801" lon="0.234">
        <ele>228</ele>
        <time>2018-06-02T10:27:21Z</time>
      </trkpt>
      <trkpt lat="43.588" lon="0.23402">
        <ele>228</ele>
        <time>2018-06-02T10:27:22Z</time>
      </trkpt>
      <trkpt lat="43.58797" lon="0.23405">
        <ele>228</ele>
        <time>2018-06-02T10:27:25Z</time>
      </trkpt>
      <trkpt lat="43.58794" lon="0.23408">
        <ele>228</ele>
        <time>2018-06-02T10:27:28Z</time>
      </trkpt>
      <trkpt lat="43.58793" lon="0.23411">
        <ele>227.9</ele>
        <time>2018-06-02T10:27:30Z</time>
      </trkpt>
      <trkpt lat="43.5879" lon="0.23415">
        <ele>227.9</ele>
        <time>2018-06-02T10:27:33Z</time>
      </trkpt>
      <trkpt lat="43.58788" lon="0.23418">
        <ele>227.9</ele>
        <time>2018-06-02T10:27:35Z</time>
      </trkpt>
      <trkpt lat="43.58785" lon="0.23423">
        <ele>227.9</ele>
        <time>2018-06-02T10:27:38Z</time>
      </trkpt>
      <trkpt lat="43.58783" lon="0.23426">
        <ele>227.8</ele>
        <time>2018-06-02T10:27:40Z</time>
      </trkpt>
      <trkpt lat="43.58783" lon="0.23427">
        <ele>227.8</ele>
        <time>2018-06-02T10:27:41Z</time>
      </trkpt>
      <trkpt lat="43.58782" lon="0.23429">
        <ele>227.8</ele>
        <time>2018-06-02T10:27:43Z</time>
      </trkpt>
      <trkpt lat="43.58781" lon="0.23431">
        <ele>227.8</ele>
        <time>2018-06-02T10:27:45Z</time>
      </trkpt>
      <trkpt lat="43.58779" lon="0.23433">
        <ele>227.7</ele>
        <time>2018-06-02T10:27:48Z</time>
      </trkpt>
      <trkpt lat="43.58777" lon="0.23436">
        <ele>227.7</ele>
        <time>2018-06-02T10:27:51Z</time>
      </trkpt>
      <trkpt lat="43.58776" lon="0.23438">
        <ele>227.7</ele>
        <time>2018-06-02T10:27:53Z</time>
      </trkpt>
      <trkpt lat="43.58775" lon="0.2344">
        <ele>227.7</ele>
        <time>2018-06-02T10:27:56Z</time>
      </trkpt>
      <trkpt lat="43.58774" lon="0.23442">
        <ele>227.6</ele>
        <time>2018-06-02T10:27:58Z</time>
      </trkpt>
      <trkpt lat="43.58771" lon="0.23446">
        <ele>227.6</ele>
        <time>2018-06-02T10:28:01Z</time>
      </trkpt>
      <trkpt lat="43.58769" lon="0.23448">
        <ele>227.6</ele>
        <time>2018-06-02T10:28:03Z</time>
      </trkpt>
      <trkpt lat="43.58766" lon="0.23452">
        <ele>227.5</ele>
        <time>2018-06-02T10:28:06Z</time>
      </trkpt>
      <trkpt lat="43.58764" lon="0.23454">
        <ele>227.5</ele>
        <time>2018-06-02T10:28:08Z</time>
      </trkpt>
      <trkpt lat="43.58763" lon="0.23455">
        <ele>227.5</ele>
        <time>2018-06-02T10:28:09Z</time>
      </trkpt>
      <trkpt lat="43.58762" lon="0.23457">
        <ele>227.5</ele>
        <time>2018-06-02T10:28:11Z</time>
      </trkpt>
      <trkpt lat="43.5876" lon="0.23459">
        <ele>227.5</ele>
        <time>2018-06-02T10:28:14Z</time>
      </trkpt>
      <trkpt lat="43.58759" lon="0.23461">
        <ele>227.4</ele>
        <time>2018-06-02T10:28:16Z</time>
      </trkpt>
      <trkpt lat="43.58757" lon="0.23463">
        <ele>227.4</ele>
        <time>2018-06-02T10:28:19Z</time>
      </trkpt>
      <trkpt lat="43.58756" lon="0.23465">
        <ele>227.4</ele>
        <time>2018-06-02T10:28:21Z</time>
      </trkpt>
      <trkpt lat="43.58754" lon="0.23467">
        <ele>227.3</ele>
        <time>2018-06-02T10:28:24Z</time>
      </trkpt>
      <trkpt lat="43.58753" lon="0.23469">
        <ele>227.3</ele>
        <time>2018-06-02T10:28:26Z</time>
      </trkpt>
      <trkpt lat="43.5875" lon="0.23472">
        <ele>227.3</ele>
        <time>2018-06-02T10:28:29Z</time>
      </trkpt>
      <trkpt lat="43.58748" lon="0.23475">
        <ele>227.3</ele>
        <time>2018-06-02T10:28:31Z</time>
      </trkpt>
      <trkpt lat="43.58745" lon="0.23479">
        <ele>227.2</ele>
        <time>2018-06-02T10:28:34Z</time>
      </trkpt>
      <trkpt lat="43.58743" lon="0.23481">
        <ele>227.2</ele>
        <time>2018-06-02T10:28:36Z</time>
      </trkpt>
      <trkpt lat="43.58742" lon="0.23483">
        <ele>227.2</ele>
        <time>2018-06-02T10:28:37Z</time>
      </trkpt>
      <trkpt lat="43.5874" lon="0.23485">
        <ele>227.2</ele>
        <time>2018-06-02T10:28:39Z</time>
      </trkpt>
      <trkpt lat="43.58737" lon="0.23489">
        <ele>227.2</ele>
        <time>2018-06-02T10:28:42Z</time>
      </trkpt>
      <trkpt lat="43.58734" lon="0.23492">
        <ele>227.1</ele>
        <time>2018-06-02T10:28:44Z</time>
      </trkpt>
      <trkpt lat="43.58732" lon="0.23494">
        <ele>227.1</ele>
        <time>2018-06-02T10:28:46Z</time>
      </trkpt>
      <trkpt lat="43.58731" lon="0.23496">
        <ele>227.1</ele>
        <time>2018-06-02T10:28:47Z</time>
      </trkpt>
      <trkpt lat="43.5873" lon="0.23498">
        <ele>227.1</ele>
        <time>2018-06-02T10:28:49Z</time>
      </trkpt>
      <trkpt lat="43.58727" lon="0.23502">
        <ele>227</ele>
        <time>2018-06-02T10:28:52Z</time>
      </trkpt>
      <trkpt lat="43.58725" lon="0.23505">
        <ele>227</ele>
        <time>2018-06-02T10:28:54Z</time>
      </trkpt>
      <trkpt lat="43.58722" lon="0.23509">
        <ele>227</ele>
        <time>2018-06-02T10:28:57Z</time>
      </trkpt>
      <trkpt lat="43.58719" lon="0.23512">
        <ele>227</ele>
        <time>2018-06-02T10:29:00Z</time>
      </trkpt>
      <trkpt lat="43.58717" lon="0.23515">
        <ele>226.9</ele>
        <time>2018-06-02T10:29:02Z</time>
      </trkpt>
      <trkpt lat="43.58714" lon="0.23518">
        <ele>226.9</ele>
        <time>2018-06-02T10:29:05Z</time>
      </trkpt>
      <trkpt lat="43.58712" lon="0.23521">
        <ele>226.9</ele>
        <time>2018-06-02T10:29:07Z</time>
      </trkpt>
      <trkpt lat="43.58711" lon="0.23522">
        <ele>226.9</ele>
        <time>2018-06-02T10:29:08Z</time>
      </trkpt>
      <trkpt lat="43.58708" lon="0.23523">
        <ele>226.8</ele>
        <time>2018-06-02T10:29:10Z</time>
      </trkpt>
      <trkpt lat="43.58706" lon="0.23525">
        <ele>226.8</ele>
        <time>2018-06-02T10:29:12Z</time>
      </trkpt>
      <trkpt lat="43.58703" lon="0.23528">
        <ele>226.8</ele>
        <time>2018-06-02T10:29:15Z</time>
      </trkpt>
      <trkpt lat="43.587" lon="0.2353">
        <ele>226.8</ele>
        <time>2018-06-02T10:29:17Z</time>
      </trkpt>
      <trkpt lat="43.58698" lon="0.23532">
        <ele>226.7</ele>
        <time>2018-06-02T10:29:19Z</time>
      </trkpt>
      <trkpt lat="43.58697" lon="0.23533">
        <ele>226.7</ele>
        <time>2018-06-02T10:29:20Z</time>
      </trkpt>
      <trkpt lat="43.58694" lon="0.23535">
        <ele>226.7</ele>
        <time>2018-06-02T10:29:23Z</time>
      </trkpt>
      <trkpt lat="43.58691" lon="0.23537">
        <ele>226.7</ele>
        <time>2018-06-02T10:29:25Z</time>
      </trkpt>
      <trkpt lat="43.58688" lon="0.2354">
        <ele>226.7</ele>
        <time>2018-06-02T10:29:28Z</time>
      </trkpt>
      <trkpt lat="43.58686" lon="0.23541">
        <ele>226.6</ele>
        <time>2018-06-02T10:29:30Z</time>
      </trkpt>
      <trkpt lat="43.58682" lon="0.23543">
        <ele>226.6</ele>
        <time>2018-06-02T10:29:33Z</time>
      </trkpt>
      <trkpt lat="43.58679" lon="0.23544">
        <ele>226.6</ele>
        <time>2018-06-02T10:29:35Z</time>
      </trkpt>
      <trkpt lat="43.58662" lon="0.23549">
        <ele>225.7</ele>
        <time>2018-06-02T10:29:39Z</time>
      </trkpt>
      <trkpt lat="43.58662" lon="0.23549">
        <ele>225.7</ele>
        <time>2018-06-02T10:32:06Z</time>
      </trkpt>
      <trkpt lat="43.58648" lon="0.23553">
        <ele>224.9</ele>
        <time>2018-06-02T10:32:06Z</time>
      </trkpt>
      <trkpt lat="43.58648" lon="0.23553">
        <ele>224.9</ele>
        <time>2018-06-02T10:32:08Z</time>
      </trkpt>
      <trkpt lat="43.58647" lon="0.23553">
        <ele>224.9</ele>
        <time>2018-06-02T10:32:09Z</time>
      </trkpt>
      <trkpt lat="43.58644" lon="0.23552">
        <ele>224.9</ele>
        <time>2018-06-02T10:32:11Z</time>
      </trkpt>
      <trkpt lat="43.58641" lon="0.23551">
        <ele>224.8</ele>
        <time>2018-06-02T10:32:14Z</time>
      </trkpt>
      <trkpt lat="43.58638" lon="0.2355">
        <ele>224.8</ele>
        <time>2018-06-02T10:32:17Z</time>
      </trkpt>
      <trkpt lat="43.58636" lon="0.2355">
        <ele>224.8</ele>
        <time>2018-06-02T10:32:19Z</time>
      </trkpt>
      <trkpt lat="43.58635" lon="0.23549">
        <ele>224.8</ele>
        <time>2018-06-02T10:32:20Z</time>
      </trkpt>
      <trkpt lat="43.58633" lon="0.23549">
        <ele>224.8</ele>
        <time>2018-06-02T10:32:21Z</time>
      </trkpt>
      <trkpt lat="43.5863" lon="0.23546">
        <ele>224.7</ele>
        <time>2018-06-02T10:32:24Z</time>
      </trkpt>
      <trkpt lat="43.58627" lon="0.23544">
        <ele>224.7</ele>
        <time>2018-06-02T10:32:27Z</time>
      </trkpt>
      <trkpt lat="43.58624" lon="0.23543">
        <ele>224.7</ele>
        <time>2018-06-02T10:32:29Z</time>
      </trkpt>
      <trkpt lat="43.58622" lon="0.23541">
        <ele>224.7</ele>
        <time>2018-06-02T10:32:31Z</time>
      </trkpt>
      <trkpt lat="43.58621" lon="0.2354">
        <ele>224.6</ele>
        <time>2018-06-02T10:32:32Z</time>
      </trkpt>
      <trkpt lat="43.58618" lon="0.23539">
        <ele>224.6</ele>
        <time>2018-06-02T10:32:34Z</time>
      </trkpt>
      <trkpt lat="43.58615" lon="0.23537">
        <ele>224.6</ele>
        <time>2018-06-02T10:32:37Z</time>
      </trkpt>
      <trkpt lat="43.58612" lon="0.23535">
        <ele>224.6</ele>
        <time>2018-06-02T10:32:39Z</time>
      </trkpt>
      <trkpt lat="43.5861" lon="0.23534">
        <ele>224.5</ele>
        <time>2018-06-02T10:32:41Z</time>
      </trkpt>
      <trkpt lat="43.58609" lon="0.23533">
        <ele>224.5</ele>
        <time>2018-06-02T10:32:42Z</time>
      </trkpt>
      <trkpt lat="43.58606" lon="0.23532">
        <ele>224.5</ele>
        <time>2018-06-02T10:32:44Z</time>
      </trkpt>
      <trkpt lat="43.58605" lon="0.23531">
        <ele>224.5</ele>
        <time>2018-06-02T10:32:45Z</time>
      </trkpt>
      <trkpt lat="43.58603" lon="0.2353">
        <ele>224.2</ele>
        <time>2018-06-02T10:32:47Z</time>
      </trkpt>
      <trkpt lat="43.586" lon="0.23528">
        <ele>223.9</ele>
        <time>2018-06-02T10:32:50Z</time>
      </trkpt>
      <trkpt lat="43.58598" lon="0.23526">
        <ele>223.6</ele>
        <time>2018-06-02T10:32:52Z</time>
      </trkpt>
      <trkpt lat="43.58597" lon="0.23526">
        <ele>223.5</ele>
        <time>2018-06-02T10:32:53Z</time>
      </trkpt>
      <trkpt lat="43.58594" lon="0.23524">
        <ele>223.2</ele>
        <time>2018-06-02T10:32:55Z</time>
      </trkpt>
      <trkpt lat="43.58592" lon="0.23523">
        <ele>223</ele>
        <time>2018-06-02T10:32:57Z</time>
      </trkpt>
      <trkpt lat="43.58589" lon="0.23521">
        <ele>222.6</ele>
        <time>2018-06-02T10:33:00Z</time>
      </trkpt>
      <trkpt lat="43.58586" lon="0.2352">
        <ele>222.4</ele>
        <time>2018-06-02T10:33:02Z</time>
      </trkpt>
      <trkpt lat="43.58583" lon="0.23518">
        <ele>222</ele>
        <time>2018-06-02T10:33:05Z</time>
      </trkpt>
      <trkpt lat="43.5858" lon="0.23517">
        <ele>221.8</ele>
        <time>2018-06-02T10:33:07Z</time>
      </trkpt>
      <trkpt lat="43.58577" lon="0.23515">
        <ele>221.4</ele>
        <time>2018-06-02T10:33:10Z</time>
      </trkpt>
      <trkpt lat="43.58575" lon="0.23514">
        <ele>221.3</ele>
        <time>2018-06-02T10:33:11Z</time>
      </trkpt>
      <trkpt lat="43.58573" lon="0.23513">
        <ele>221</ele>
        <time>2018-06-02T10:33:13Z</time>
      </trkpt>
      <trkpt lat="43.5857" lon="0.23512">
        <ele>220.7</ele>
        <time>2018-06-02T10:33:15Z</time>
      </trkpt>
      <trkpt lat="43.58566" lon="0.2351">
        <ele>220.3</ele>
        <time>2018-06-02T10:33:18Z</time>
      </trkpt>
      <trkpt lat="43.58563" lon="0.23509">
        <ele>220</ele>
        <time>2018-06-02T10:33:20Z</time>
      </trkpt>
      <trkpt lat="43.58558" lon="0.23507">
        <ele>219.6</ele>
        <time>2018-06-02T10:33:23Z</time>
      </trkpt>
      <trkpt lat="43.58557" lon="0.23506">
        <ele>219.5</ele>
        <time>2018-06-02T10:33:24Z</time>
      </trkpt>
      <trkpt lat="43.58556" lon="0.23505">
        <ele>219.3</ele>
        <time>2018-06-02T10:33:25Z</time>
      </trkpt>
      <trkpt lat="43.58552" lon="0.23503">
        <ele>218.9</ele>
        <time>2018-06-02T10:33:28Z</time>
      </trkpt>
      <trkpt lat="43.5855" lon="0.23503">
        <ele>218.8</ele>
        <time>2018-06-02T10:33:29Z</time>
      </trkpt>
      <trkpt lat="43.58549" lon="0.23502">
        <ele>218.7</ele>
        <time>2018-06-02T10:33:30Z</time>
      </trkpt>
      <trkpt lat="43.58545" lon="0.235">
        <ele>218.4</ele>
        <time>2018-06-02T10:33:33Z</time>
      </trkpt>
      <trkpt lat="43.58544" lon="0.23499">
        <ele>218.3</ele>
        <time>2018-06-02T10:33:34Z</time>
      </trkpt>
      <trkpt lat="43.58543" lon="0.23499">
        <ele>218.2</ele>
        <time>2018-06-02T10:33:35Z</time>
      </trkpt>
      <trkpt lat="43.58541" lon="0.23498">
        <ele>218.1</ele>
        <time>2018-06-02T10:33:36Z</time>
      </trkpt>
      <trkpt lat="43.58539" lon="0.23497">
        <ele>217.8</ele>
        <time>2018-06-02T10:33:38Z</time>
      </trkpt>
      <trkpt lat="43.58535" lon="0.23495">
        <ele>217.3</ele>
        <time>2018-06-02T10:33:41Z</time>
      </trkpt>
      <trkpt lat="43.58533" lon="0.23494">
        <ele>217.1</ele>
        <time>2018-06-02T10:33:43Z</time>
      </trkpt>
      <trkpt lat="43.5853" lon="0.23492">
        <ele>216.9</ele>
        <time>2018-06-02T10:33:45Z</time>
      </trkpt>
      <trkpt lat="43.58529" lon="0.23492">
        <ele>216.8</ele>
        <time>2018-06-02T10:33:46Z</time>
      </trkpt>
      <trkpt lat="43.58527" lon="0.2349">
        <ele>216.6</ele>
        <time>2018-06-02T10:33:48Z</time>
      </trkpt>
      <trkpt lat="43.58523" lon="0.23488">
        <ele>216.2</ele>
        <time>2018-06-02T10:33:51Z</time>
      </trkpt>
      <trkpt lat="43.58521" lon="0.23487">
        <ele>216</ele>
        <time>2018-06-02T10:33:53Z</time>
      </trkpt>
      <trkpt lat="43.58517" lon="0.23485">
        <ele>215.7</ele>
        <time>2018-06-02T10:33:56Z</time>
      </trkpt>
      <trkpt lat="43.58514" lon="0.23483">
        <ele>215.4</ele>
        <time>2018-06-02T10:33:59Z</time>
      </trkpt>
      <trkpt lat="43.58512" lon="0.23481">
        <ele>215.4</ele>
        <time>2018-06-02T10:34:01Z</time>
      </trkpt>
      <trkpt lat="43.58509" lon="0.23479">
        <ele>215.5</ele>
        <time>2018-06-02T10:34:04Z</time>
      </trkpt>
      <trkpt lat="43.58507" lon="0.23478">
        <ele>215.5</ele>
        <time>2018-06-02T10:34:06Z</time>
      </trkpt>
      <trkpt lat="43.58504" lon="0.23477">
        <ele>215.6</ele>
        <time>2018-06-02T10:34:08Z</time>
      </trkpt>
      <trkpt lat="43.58503" lon="0.23476">
        <ele>215.6</ele>
        <time>2018-06-02T10:34:09Z</time>
      </trkpt>
      <trkpt lat="43.585" lon="0.23475">
        <ele>215.7</ele>
        <time>2018-06-02T10:34:11Z</time>
      </trkpt>
      <trkpt lat="43.58496" lon="0.23473">
        <ele>215.8</ele>
        <time>2018-06-02T10:34:14Z</time>
      </trkpt>
      <trkpt lat="43.58493" lon="0.23472">
        <ele>215.8</ele>
        <time>2018-06-02T10:34:16Z</time>
      </trkpt>
      <trkpt lat="43.5849" lon="0.23471">
        <ele>215.9</ele>
        <time>2018-06-02T10:34:18Z</time>
      </trkpt>
      <trkpt lat="43.58489" lon="0.2347">
        <ele>215.9</ele>
        <time>2018-06-02T10:34:19Z</time>
      </trkpt>
      <trkpt lat="43.58486" lon="0.23469">
        <ele>216</ele>
        <time>2018-06-02T10:34:22Z</time>
      </trkpt>
      <trkpt lat="43.58484" lon="0.23467">
        <ele>216</ele>
        <time>2018-06-02T10:34:24Z</time>
      </trkpt>
      <trkpt lat="43.5848" lon="0.23465">
        <ele>216.1</ele>
        <time>2018-06-02T10:34:27Z</time>
      </trkpt>
      <trkpt lat="43.58478" lon="0.23464">
        <ele>216.2</ele>
        <time>2018-06-02T10:34:29Z</time>
      </trkpt>
      <trkpt lat="43.58475" lon="0.23462">
        <ele>216.2</ele>
        <time>2018-06-02T10:34:32Z</time>
      </trkpt>
      <trkpt lat="43.58473" lon="0.2346">
        <ele>216.3</ele>
        <time>2018-06-02T10:34:34Z</time>
      </trkpt>
      <trkpt lat="43.5847" lon="0.23458">
        <ele>216.4</ele>
        <time>2018-06-02T10:34:37Z</time>
      </trkpt>
      <trkpt lat="43.58467" lon="0.23456">
        <ele>216.5</ele>
        <time>2018-06-02T10:34:40Z</time>
      </trkpt>
      <trkpt lat="43.58466" lon="0.23455">
        <ele>216.5</ele>
        <time>2018-06-02T10:34:41Z</time>
      </trkpt>
      <trkpt lat="43.58464" lon="0.23455">
        <ele>216.5</ele>
        <time>2018-06-02T10:34:42Z</time>
      </trkpt>
      <trkpt lat="43.58461" lon="0.23453">
        <ele>216.6</ele>
        <time>2018-06-02T10:34:45Z</time>
      </trkpt>
      <trkpt lat="43.58459" lon="0.23452">
        <ele>216.7</ele>
        <time>2018-06-02T10:34:47Z</time>
      </trkpt>
      <trkpt lat="43.58456" lon="0.23451">
        <ele>216.7</ele>
        <time>2018-06-02T10:34:50Z</time>
      </trkpt>
      <trkpt lat="43.58453" lon="0.2345">
        <ele>216.8</ele>
        <time>2018-06-02T10:34:52Z</time>
      </trkpt>
      <trkpt lat="43.58452" lon="0.23449">
        <ele>216.8</ele>
        <time>2018-06-02T10:34:53Z</time>
      </trkpt>
      <trkpt lat="43.5845" lon="0.23448">
        <ele>216.9</ele>
        <time>2018-06-02T10:34:55Z</time>
      </trkpt>
      <trkpt lat="43.58448" lon="0.23446">
        <ele>216.9</ele>
        <time>2018-06-02T10:34:57Z</time>
      </trkpt>
      <trkpt lat="43.58444" lon="0.23444">
        <ele>217</ele>
        <time>2018-06-02T10:35:00Z</time>
      </trkpt>
      <trkpt lat="43.58441" lon="0.23442">
        <ele>217.1</ele>
        <time>2018-06-02T10:35:03Z</time>
      </trkpt>
      <trkpt lat="43.5844" lon="0.23441">
        <ele>217.1</ele>
        <time>2018-06-02T10:35:04Z</time>
      </trkpt>
      <trkpt lat="43.58438" lon="0.2344">
        <ele>217.1</ele>
        <time>2018-06-02T10:35:05Z</time>
      </trkpt>
      <trkpt lat="43.58435" lon="0.23438">
        <ele>217.2</ele>
        <time>2018-06-02T10:35:08Z</time>
      </trkpt>
      <trkpt lat="43.58433" lon="0.23436">
        <ele>217.3</ele>
        <time>2018-06-02T10:35:10Z</time>
      </trkpt>
      <trkpt lat="43.5843" lon="0.23434">
        <ele>217.4</ele>
        <time>2018-06-02T10:35:13Z</time>
      </trkpt>
      <trkpt lat="43.58428" lon="0.23433">
        <ele>217.4</ele>
        <time>2018-06-02T10:35:15Z</time>
      </trkpt>
      <trkpt lat="43.58427" lon="0.23432">
        <ele>217.4</ele>
        <time>2018-06-02T10:35:16Z</time>
      </trkpt>
      <trkpt lat="43.58424" lon="0.23431">
        <ele>217.5</ele>
        <time>2018-06-02T10:35:18Z</time>
      </trkpt>
      <trkpt lat="43.58421" lon="0.2343">
        <ele>217.5</ele>
        <time>2018-06-02T10:35:20Z</time>
      </trkpt>
      <trkpt lat="43.58418" lon="0.23428">
        <ele>217.6</ele>
        <time>2018-06-02T10:35:23Z</time>
      </trkpt>
      <trkpt lat="43.58414" lon="0.23426">
        <ele>217.7</ele>
        <time>2018-06-02T10:35:26Z</time>
      </trkpt>
      <trkpt lat="43.58411" lon="0.23425">
        <ele>217.8</ele>
        <time>2018-06-02T10:35:28Z</time>
      </trkpt>
      <trkpt lat="43.58407" lon="0.23423">
        <ele>217.8</ele>
        <time>2018-06-02T10:35:31Z</time>
      </trkpt>
      <trkpt lat="43.58405" lon="0.23422">
        <ele>217.9</ele>
        <time>2018-06-02T10:35:33Z</time>
      </trkpt>
      <trkpt lat="43.58401" lon="0.2342">
        <ele>218</ele>
        <time>2018-06-02T10:35:36Z</time>
      </trkpt>
      <trkpt lat="43.584" lon="0.23419">
        <ele>218</ele>
        <time>2018-06-02T10:35:37Z</time>
      </trkpt>
      <trkpt lat="43.58399" lon="0.23418">
        <ele>218</ele>
        <time>2018-06-02T10:35:38Z</time>
      </trkpt>
      <trkpt lat="43.58395" lon="0.23416">
        <ele>218.1</ele>
        <time>2018-06-02T10:35:41Z</time>
      </trkpt>
      <trkpt lat="43.58393" lon="0.23414">
        <ele>218.2</ele>
        <time>2018-06-02T10:35:43Z</time>
      </trkpt>
      <trkpt lat="43.5839" lon="0.23412">
        <ele>218.3</ele>
        <time>2018-06-02T10:35:46Z</time>
      </trkpt>
      <trkpt lat="43.58387" lon="0.2341">
        <ele>218.3</ele>
        <time>2018-06-02T10:35:48Z</time>
      </trkpt>
      <trkpt lat="43.58386" lon="0.23409">
        <ele>218.3</ele>
        <time>2018-06-02T10:35:49Z</time>
      </trkpt>
      <trkpt lat="43.58384" lon="0.23407">
        <ele>218.4</ele>
        <time>2018-06-02T10:35:51Z</time>
      </trkpt>
      <trkpt lat="43.5838" lon="0.23404">
        <ele>218.5</ele>
        <time>2018-06-02T10:35:54Z</time>
      </trkpt>
      <trkpt lat="43.58378" lon="0.23402">
        <ele>218.5</ele>
        <time>2018-06-02T10:35:56Z</time>
      </trkpt>
      <trkpt lat="43.58376" lon="0.234">
        <ele>218.6</ele>
        <time>2018-06-02T10:35:58Z</time>
      </trkpt>
      <trkpt lat="43.58375" lon="0.23399">
        <ele>218.6</ele>
        <time>2018-06-02T10:35:59Z</time>
      </trkpt>
      <trkpt lat="43.58374" lon="0.23396">
        <ele>218.7</ele>
        <time>2018-06-02T10:36:01Z</time>
      </trkpt>
      <trkpt lat="43.58371" lon="0.23392">
        <ele>218.7</ele>
        <time>2018-06-02T10:36:04Z</time>
      </trkpt>
      <trkpt lat="43.5837" lon="0.23389">
        <ele>218.8</ele>
        <time>2018-06-02T10:36:06Z</time>
      </trkpt>
      <trkpt lat="43.58368" lon="0.23385">
        <ele>218.9</ele>
        <time>2018-06-02T10:36:09Z</time>
      </trkpt>
      <trkpt lat="43.58367" lon="0.23384">
        <ele>218.9</ele>
        <time>2018-06-02T10:36:10Z</time>
      </trkpt>
      <trkpt lat="43.58365" lon="0.23381">
        <ele>219</ele>
        <time>2018-06-02T10:36:12Z</time>
      </trkpt>
      <trkpt lat="43.5835" lon="0.23386">
        <ele>221.2</ele>
        <time>2018-06-02T10:36:15Z</time>
      </trkpt>
      <trkpt lat="43.5835" lon="0.23386">
        <ele>221.2</ele>
        <time>2018-06-02T10:39:01Z</time>
      </trkpt>
      <trkpt lat="43.58336" lon="0.23394">
        <ele>223.3</ele>
        <time>2018-06-02T10:39:01Z</time>
      </trkpt>
      <trkpt lat="43.58335" lon="0.23395">
        <ele>223.5</ele>
        <time>2018-06-02T10:39:02Z</time>
      </trkpt>
      <trkpt lat="43.58334" lon="0.23395">
        <ele>223.7</ele>
        <time>2018-06-02T10:39:03Z</time>
      </trkpt>
      <trkpt lat="43.58332" lon="0.23396">
        <ele>224.1</ele>
        <time>2018-06-02T10:39:05Z</time>
      </trkpt>
      <trkpt lat="43.5833" lon="0.23398">
        <ele>224.7</ele>
        <time>2018-06-02T10:39:08Z</time>
      </trkpt>
      <trkpt lat="43.58328" lon="0.23399">
        <ele>225</ele>
        <time>2018-06-02T10:39:10Z</time>
      </trkpt>
      <trkpt lat="43.58325" lon="0.234">
        <ele>225.6</ele>
        <time>2018-06-02T10:39:13Z</time>
      </trkpt>
      <trkpt lat="43.58322" lon="0.23402">
        <ele>226.2</ele>
        <time>2018-06-02T10:39:16Z</time>
      </trkpt>
      <trkpt lat="43.58321" lon="0.23402">
        <ele>226.3</ele>
        <time>2018-06-02T10:39:17Z</time>
      </trkpt>
      <trkpt lat="43.5832" lon="0.23403">
        <ele>226.3</ele>
        <time>2018-06-02T10:39:18Z</time>
      </trkpt>
      <trkpt lat="43.58316" lon="0.23403">
        <ele>226.2</ele>
        <time>2018-06-02T10:39:21Z</time>
      </trkpt>
      <trkpt lat="43.58314" lon="0.23404">
        <ele>226.2</ele>
        <time>2018-06-02T10:39:23Z</time>
      </trkpt>
      <trkpt lat="43.5831" lon="0.23405">
        <ele>226.1</ele>
        <time>2018-06-02T10:39:26Z</time>
      </trkpt>
      <trkpt lat="43.58308" lon="0.23406">
        <ele>226</ele>
        <time>2018-06-02T10:39:28Z</time>
      </trkpt>
      <trkpt lat="43.58306" lon="0.23411">
        <ele>226</ele>
        <time>2018-06-02T10:39:31Z</time>
      </trkpt>
      <trkpt lat="43.58306" lon="0.23414">
        <ele>225.9</ele>
        <time>2018-06-02T10:39:33Z</time>
      </trkpt>
      <trkpt lat="43.58304" lon="0.23419">
        <ele>225.9</ele>
        <time>2018-06-02T10:39:36Z</time>
      </trkpt>
      <trkpt lat="43.58303" lon="0.23424">
        <ele>225.8</ele>
        <time>2018-06-02T10:39:39Z</time>
      </trkpt>
      <trkpt lat="43.58302" lon="0.23428">
        <ele>225.7</ele>
        <time>2018-06-02T10:39:41Z</time>
      </trkpt>
      <trkpt lat="43.58302" lon="0.23434">
        <ele>225.7</ele>
        <time>2018-06-02T10:39:44Z</time>
      </trkpt>
      <trkpt lat="43.58301" lon="0.23438">
        <ele>225.6</ele>
        <time>2018-06-02T10:39:46Z</time>
      </trkpt>
      <trkpt lat="43.583" lon="0.23444">
        <ele>225.6</ele>
        <time>2018-06-02T10:39:49Z</time>
      </trkpt>
      <trkpt lat="43.583" lon="0.23448">
        <ele>225.5</ele>
        <time>2018-06-02T10:39:51Z</time>
      </trkpt>
      <trkpt lat="43.58299" lon="0.23453">
        <ele>225.4</ele>
        <time>2018-06-02T10:39:54Z</time>
      </trkpt>
      <trkpt lat="43.58299" lon="0.23459">
        <ele>225.4</ele>
        <time>2018-06-02T10:39:57Z</time>
      </trkpt>
      <trkpt lat="43.58298" lon="0.23463">
        <ele>225.3</ele>
        <time>2018-06-02T10:39:59Z</time>
      </trkpt>
      <trkpt lat="43.58299" lon="0.23468">
        <ele>225.3</ele>
        <time>2018-06-02T10:40:02Z</time>
      </trkpt>
      <trkpt lat="43.58299" lon="0.23471">
        <ele>225.2</ele>
        <time>2018-06-02T10:40:04Z</time>
      </trkpt>
      <trkpt lat="43.58299" lon="0.23477">
        <ele>225.1</ele>
        <time>2018-06-02T10:40:07Z</time>
      </trkpt>
      <trkpt lat="43.58299" lon="0.2348">
        <ele>225.1</ele>
        <time>2018-06-02T10:40:09Z</time>
      </trkpt>
      <trkpt lat="43.58299" lon="0.23482">
        <ele>225.1</ele>
        <time>2018-06-02T10:40:10Z</time>
      </trkpt>
      <trkpt lat="43.58299" lon="0.23484">
        <ele>225</ele>
        <time>2018-06-02T10:40:12Z</time>
      </trkpt>
      <trkpt lat="43.58298" lon="0.23486">
        <ele>225</ele>
        <time>2018-06-02T10:40:14Z</time>
      </trkpt>
      <trkpt lat="43.58298" lon="0.2349">
        <ele>224.9</ele>
        <time>2018-06-02T10:40:17Z</time>
      </trkpt>
      <trkpt lat="43.58297" lon="0.23494">
        <ele>224.8</ele>
        <time>2018-06-02T10:40:20Z</time>
      </trkpt>
      <trkpt lat="43.58297" lon="0.23496">
        <ele>224.8</ele>
        <time>2018-06-02T10:40:22Z</time>
      </trkpt>
      <trkpt lat="43.58296" lon="0.235">
        <ele>224.7</ele>
        <time>2018-06-02T10:40:25Z</time>
      </trkpt>
      <trkpt lat="43.58296" lon="0.23503">
        <ele>224.7</ele>
        <time>2018-06-02T10:40:27Z</time>
      </trkpt>
      <trkpt lat="43.58296" lon="0.23507">
        <ele>224.6</ele>
        <time>2018-06-02T10:40:30Z</time>
      </trkpt>
      <trkpt lat="43.58296" lon="0.2351">
        <ele>224.6</ele>
        <time>2018-06-02T10:40:32Z</time>
      </trkpt>
      <trkpt lat="43.58296" lon="0.23514">
        <ele>224.5</ele>
        <time>2018-06-02T10:40:35Z</time>
      </trkpt>
      <trkpt lat="43.58296" lon="0.23517">
        <ele>224.4</ele>
        <time>2018-06-02T10:40:37Z</time>
      </trkpt>
      <trkpt lat="43.58296" lon="0.23519">
        <ele>224.4</ele>
        <time>2018-06-02T10:40:38Z</time>
      </trkpt>
      <trkpt lat="43.58295" lon="0.23521">
        <ele>224.4</ele>
        <time>2018-06-02T10:40:40Z</time>
      </trkpt>
      <trkpt lat="43.58295" lon="0.23525">
        <ele>224.3</ele>
        <time>2018-06-02T10:40:43Z</time>
      </trkpt>
      <trkpt lat="43.58294" lon="0.23528">
        <ele>224.3</ele>
        <time>2018-06-02T10:40:45Z</time>
      </trkpt>
      <trkpt lat="43.58293" lon="0.23532">
        <ele>224.2</ele>
        <time>2018-06-02T10:40:48Z</time>
      </trkpt>
      <trkpt lat="43.58293" lon="0.23535">
        <ele>224.1</ele>
        <time>2018-06-02T10:40:50Z</time>
      </trkpt>
      <trkpt lat="43.58292" lon="0.23537">
        <ele>224.1</ele>
        <time>2018-06-02T10:40:52Z</time>
      </trkpt>
      <trkpt lat="43.58292" lon="0.23539">
        <ele>224.1</ele>
        <time>2018-06-02T10:40:53Z</time>
      </trkpt>
      <trkpt lat="43.58291" lon="0.23541">
        <ele>224</ele>
        <time>2018-06-02T10:40:55Z</time>
      </trkpt>
      <trkpt lat="43.58291" lon="0.23546">
        <ele>224</ele>
        <time>2018-06-02T10:40:58Z</time>
      </trkpt>
      <trkpt lat="43.5829" lon="0.23548">
        <ele>223.9</ele>
        <time>2018-06-02T10:41:00Z</time>
      </trkpt>
      <trkpt lat="43.58289" lon="0.23553">
        <ele>223.8</ele>
        <time>2018-06-02T10:41:03Z</time>
      </trkpt>
      <trkpt lat="43.58289" lon="0.23555">
        <ele>223.8</ele>
        <time>2018-06-02T10:41:05Z</time>
      </trkpt>
      <trkpt lat="43.58288" lon="0.23557">
        <ele>223.8</ele>
        <time>2018-06-02T10:41:06Z</time>
      </trkpt>
      <trkpt lat="43.58288" lon="0.23559">
        <ele>223.7</ele>
        <time>2018-06-02T10:41:08Z</time>
      </trkpt>
      <trkpt lat="43.58287" lon="0.23562">
        <ele>223.7</ele>
        <time>2018-06-02T10:41:11Z</time>
      </trkpt>
      <trkpt lat="43.58286" lon="0.23565">
        <ele>223.6</ele>
        <time>2018-06-02T10:41:13Z</time>
      </trkpt>
      <trkpt lat="43.58285" lon="0.23568">
        <ele>223.5</ele>
        <time>2018-06-02T10:41:16Z</time>
      </trkpt>
      <trkpt lat="43.58285" lon="0.23571">
        <ele>223.5</ele>
        <time>2018-06-02T10:41:18Z</time>
      </trkpt>
      <trkpt lat="43.58284" lon="0.23573">
        <ele>223.5</ele>
        <time>2018-06-02T10:41:20Z</time>
      </trkpt>
      <trkpt lat="43.58284" lon="0.23574">
        <ele>223.4</ele>
        <time>2018-06-02T10:41:21Z</time>
      </trkpt>
      <trkpt lat="43.58284" lon="0.23577">
        <ele>223.4</ele>
        <time>2018-06-02T10:41:23Z</time>
      </trkpt>
      <trkpt lat="43.58283" lon="0.23582">
        <ele>223.3</ele>
        <time>2018-06-02T10:41:26Z</time>
      </trkpt>
      <trkpt lat="43.58283" lon="0.23586">
        <ele>223.2</ele>
        <time>2018-06-02T10:41:29Z</time>
      </trkpt>
      <trkpt lat="43.58283" lon="0.23588">
        <ele>223.2</ele>
        <time>2018-06-02T10:41:30Z</time>
      </trkpt>
      <trkpt lat="43.58283" lon="0.23589">
        <ele>223.2</ele>
        <time>2018-06-02T10:41:31Z</time>
      </trkpt>
      <trkpt lat="43.58283" lon="0.23592">
        <ele>223.1</ele>
        <time>2018-06-02T10:41:33Z</time>
      </trkpt>
      <trkpt lat="43.58283" lon="0.23594">
        <ele>223</ele>
        <time>2018-06-02T10:41:34Z</time>
      </trkpt>
      <trkpt lat="43.58282" lon="0.23597">
        <ele>223</ele>
        <time>2018-06-02T10:41:36Z</time>
      </trkpt>
      <trkpt lat="43.58281" lon="0.23601">
        <ele>222.8</ele>
        <time>2018-06-02T10:41:39Z</time>
      </trkpt>
      <trkpt lat="43.58281" lon="0.23604">
        <ele>222.7</ele>
        <time>2018-06-02T10:41:41Z</time>
      </trkpt>
      <trkpt lat="43.5828" lon="0.23608">
        <ele>222.6</ele>
        <time>2018-06-02T10:41:44Z</time>
      </trkpt>
      <trkpt lat="43.5828" lon="0.23611">
        <ele>222.5</ele>
        <time>2018-06-02T10:41:46Z</time>
      </trkpt>
      <trkpt lat="43.58279" lon="0.23615">
        <ele>222.4</ele>
        <time>2018-06-02T10:41:49Z</time>
      </trkpt>
      <trkpt lat="43.58279" lon="0.2362">
        <ele>222.2</ele>
        <time>2018-06-02T10:41:52Z</time>
      </trkpt>
      <trkpt lat="43.58278" lon="0.23622">
        <ele>222.1</ele>
        <time>2018-06-02T10:41:54Z</time>
      </trkpt>
      <trkpt lat="43.58278" lon="0.23626">
        <ele>222</ele>
        <time>2018-06-02T10:41:57Z</time>
      </trkpt>
      <trkpt lat="43.58277" lon="0.23629">
        <ele>221.9</ele>
        <time>2018-06-02T10:41:59Z</time>
      </trkpt>
      <trkpt lat="43.58277" lon="0.2363">
        <ele>221.9</ele>
        <time>2018-06-02T10:42:00Z</time>
      </trkpt>
      <trkpt lat="43.58277" lon="0.23633">
        <ele>221.8</ele>
        <time>2018-06-02T10:42:02Z</time>
      </trkpt>
      <trkpt lat="43.58276" lon="0.23636">
        <ele>221.7</ele>
        <time>2018-06-02T10:42:04Z</time>
      </trkpt>
      <trkpt lat="43.58275" lon="0.23641">
        <ele>221.6</ele>
        <time>2018-06-02T10:42:07Z</time>
      </trkpt>
      <trkpt lat="43.58275" lon="0.23644">
        <ele>221.5</ele>
        <time>2018-06-02T10:42:09Z</time>
      </trkpt>
      <trkpt lat="43.58274" lon="0.23648">
        <ele>221.3</ele>
        <time>2018-06-02T10:42:12Z</time>
      </trkpt>
      <trkpt lat="43.58274" lon="0.23649">
        <ele>221.3</ele>
        <time>2018-06-02T10:42:13Z</time>
      </trkpt>
      <trkpt lat="43.58273" lon="0.23652">
        <ele>221.2</ele>
        <time>2018-06-02T10:42:15Z</time>
      </trkpt>
      <trkpt lat="43.58272" lon="0.23655">
        <ele>221.1</ele>
        <time>2018-06-02T10:42:17Z</time>
      </trkpt>
      <trkpt lat="43.58271" lon="0.2366">
        <ele>221</ele>
        <time>2018-06-02T10:42:20Z</time>
      </trkpt>
      <trkpt lat="43.5827" lon="0.23663">
        <ele>220.9</ele>
        <time>2018-06-02T10:42:22Z</time>
      </trkpt>
      <trkpt lat="43.58269" lon="0.23667">
        <ele>220.8</ele>
        <time>2018-06-02T10:42:25Z</time>
      </trkpt>
      <trkpt lat="43.58268" lon="0.23668">
        <ele>220.7</ele>
        <time>2018-06-02T10:42:26Z</time>
      </trkpt>
      <trkpt lat="43.58268" lon="0.23669">
        <ele>220.7</ele>
        <time>2018-06-02T10:42:27Z</time>
      </trkpt>
      <trkpt lat="43.58266" lon="0.23672">
        <ele>220.5</ele>
        <time>2018-06-02T10:42:30Z</time>
      </trkpt>
      <trkpt lat="43.58265" lon="0.23674">
        <ele>220.4</ele>
        <time>2018-06-02T10:42:32Z</time>
      </trkpt>
      <trkpt lat="43.58264" lon="0.23677">
        <ele>220.3</ele>
        <time>2018-06-02T10:42:35Z</time>
      </trkpt>
      <trkpt lat="43.58263" lon="0.2368">
        <ele>220.2</ele>
        <time>2018-06-02T10:42:38Z</time>
      </trkpt>
      <trkpt lat="43.58262" lon="0.23682">
        <ele>220.1</ele>
        <time>2018-06-02T10:42:40Z</time>
      </trkpt>
      <trkpt lat="43.5826" lon="0.23684">
        <ele>220</ele>
        <time>2018-06-02T10:42:43Z</time>
      </trkpt>
      <trkpt lat="43.58259" lon="0.23687">
        <ele>219.9</ele>
        <time>2018-06-02T10:42:45Z</time>
      </trkpt>
      <trkpt lat="43.58256" lon="0.2369">
        <ele>219.7</ele>
        <time>2018-06-02T10:42:48Z</time>
      </trkpt>
      <trkpt lat="43.58255" lon="0.23692">
        <ele>219.5</ele>
        <time>2018-06-02T10:42:50Z</time>
      </trkpt>
      <trkpt lat="43.58253" lon="0.23695">
        <ele>219.3</ele>
        <time>2018-06-02T10:42:53Z</time>
      </trkpt>
      <trkpt lat="43.58251" lon="0.23698">
        <ele>219.1</ele>
        <time>2018-06-02T10:42:55Z</time>
      </trkpt>
      <trkpt lat="43.5825" lon="0.23699">
        <ele>219</ele>
        <time>2018-06-02T10:42:56Z</time>
      </trkpt>
      <trkpt lat="43.58248" lon="0.23701">
        <ele>218.9</ele>
        <time>2018-06-02T10:42:58Z</time>
      </trkpt>
      <trkpt lat="43.58246" lon="0.23705">
        <ele>218.6</ele>
        <time>2018-06-02T10:43:01Z</time>
      </trkpt>
      <trkpt lat="43.58244" lon="0.23708">
        <ele>218.4</ele>
        <time>2018-06-02T10:43:03Z</time>
      </trkpt>
      <trkpt lat="43.58241" lon="0.23712">
        <ele>218.2</ele>
        <time>2018-06-02T10:43:06Z</time>
      </trkpt>
      <trkpt lat="43.5824" lon="0.23713">
        <ele>218.1</ele>
        <time>2018-06-02T10:43:07Z</time>
      </trkpt>
      <trkpt lat="43.58239" lon="0.23715">
        <ele>218</ele>
        <time>2018-06-02T10:43:08Z</time>
      </trkpt>
      <trkpt lat="43.58236" lon="0.23719">
        <ele>217.7</ele>
        <time>2018-06-02T10:43:11Z</time>
      </trkpt>
      <trkpt lat="43.58234" lon="0.23722">
        <ele>217.6</ele>
        <time>2018-06-02T10:43:13Z</time>
      </trkpt>
      <trkpt lat="43.58231" lon="0.23726">
        <ele>217.3</ele>
        <time>2018-06-02T10:43:16Z</time>
      </trkpt>
      <trkpt lat="43.5823" lon="0.23727">
        <ele>217.2</ele>
        <time>2018-06-02T10:43:17Z</time>
      </trkpt>
      <trkpt lat="43.58229" lon="0.23728">
        <ele>217.1</ele>
        <time>2018-06-02T10:43:18Z</time>
      </trkpt>
      <trkpt lat="43.58227" lon="0.23732">
        <ele>216.9</ele>
        <time>2018-06-02T10:43:21Z</time>
      </trkpt>
      <trkpt lat="43.58226" lon="0.23736">
        <ele>216.6</ele>
        <time>2018-06-02T10:43:24Z</time>
      </trkpt>
      <trkpt lat="43.58224" lon="0.23739">
        <ele>216.5</ele>
        <time>2018-06-02T10:43:26Z</time>
      </trkpt>
      <trkpt lat="43.58223" lon="0.23743">
        <ele>216.2</ele>
        <time>2018-06-02T10:43:29Z</time>
      </trkpt>
      <trkpt lat="43.58222" lon="0.23744">
        <ele>216.1</ele>
        <time>2018-06-02T10:43:30Z</time>
      </trkpt>
      <trkpt lat="43.58222" lon="0.23746">
        <ele>216</ele>
        <time>2018-06-02T10:43:31Z</time>
      </trkpt>
      <trkpt lat="43.5822" lon="0.2375">
        <ele>215.7</ele>
        <time>2018-06-02T10:43:34Z</time>
      </trkpt>
      <trkpt lat="43.58219" lon="0.23752">
        <ele>215.5</ele>
        <time>2018-06-02T10:43:36Z</time>
      </trkpt>
      <trkpt lat="43.58218" lon="0.23756">
        <ele>215.2</ele>
        <time>2018-06-02T10:43:39Z</time>
      </trkpt>
      <trkpt lat="43.58217" lon="0.23759">
        <ele>215</ele>
        <time>2018-06-02T10:43:41Z</time>
      </trkpt>
      <trkpt lat="43.58216" lon="0.2376">
        <ele>214.9</ele>
        <time>2018-06-02T10:43:42Z</time>
      </trkpt>
      <trkpt lat="43.58215" lon="0.23763">
        <ele>214.7</ele>
        <time>2018-06-02T10:43:44Z</time>
      </trkpt>
      <trkpt lat="43.58214" lon="0.23767">
        <ele>214.4</ele>
        <time>2018-06-02T10:43:47Z</time>
      </trkpt>
      <trkpt lat="43.58213" lon="0.23769">
        <ele>214.2</ele>
        <time>2018-06-02T10:43:49Z</time>
      </trkpt>
      <trkpt lat="43.58211" lon="0.23773">
        <ele>213.9</ele>
        <time>2018-06-02T10:43:52Z</time>
      </trkpt>
      <trkpt lat="43.5821" lon="0.23776">
        <ele>213.7</ele>
        <time>2018-06-02T10:43:54Z</time>
      </trkpt>
      <trkpt lat="43.5821" lon="0.23777">
        <ele>213.6</ele>
        <time>2018-06-02T10:43:55Z</time>
      </trkpt>
      <trkpt lat="43.58209" lon="0.2378">
        <ele>213.4</ele>
        <time>2018-06-02T10:43:57Z</time>
      </trkpt>
      <trkpt lat="43.58208" lon="0.23783">
        <ele>213.2</ele>
        <time>2018-06-02T10:43:59Z</time>
      </trkpt>
      <trkpt lat="43.58207" lon="0.23784">
        <ele>213.1</ele>
        <time>2018-06-02T10:44:00Z</time>
      </trkpt>
      <trkpt lat="43.58206" lon="0.23787">
        <ele>212.9</ele>
        <time>2018-06-02T10:44:02Z</time>
      </trkpt>
      <trkpt lat="43.58205" lon="0.2379">
        <ele>212.6</ele>
        <time>2018-06-02T10:44:04Z</time>
      </trkpt>
      <trkpt lat="43.58204" lon="0.23794">
        <ele>212.3</ele>
        <time>2018-06-02T10:44:07Z</time>
      </trkpt>
      <trkpt lat="43.58202" lon="0.23799">
        <ele>212</ele>
        <time>2018-06-02T10:44:10Z</time>
      </trkpt>
      <trkpt lat="43.58202" lon="0.23801">
        <ele>211.8</ele>
        <time>2018-06-02T10:44:12Z</time>
      </trkpt>
      <trkpt lat="43.582" lon="0.23806">
        <ele>211.5</ele>
        <time>2018-06-02T10:44:15Z</time>
      </trkpt>
      <trkpt lat="43.582" lon="0.23808">
        <ele>211.3</ele>
        <time>2018-06-02T10:44:17Z</time>
      </trkpt>
      <trkpt lat="43.58198" lon="0.23813">
        <ele>211</ele>
        <time>2018-06-02T10:44:20Z</time>
      </trkpt>
      <trkpt lat="43.58198" lon="0.23815">
        <ele>210.8</ele>
        <time>2018-06-02T10:44:22Z</time>
      </trkpt>
      <trkpt lat="43.58197" lon="0.23819">
        <ele>210.5</ele>
        <time>2018-06-02T10:44:25Z</time>
      </trkpt>
      <trkpt lat="43.58196" lon="0.23823">
        <ele>210.2</ele>
        <time>2018-06-02T10:44:28Z</time>
      </trkpt>
      <trkpt lat="43.58195" lon="0.23825">
        <ele>210</ele>
        <time>2018-06-02T10:44:30Z</time>
      </trkpt>
      <trkpt lat="43.58194" lon="0.23829">
        <ele>209.6</ele>
        <time>2018-06-02T10:44:33Z</time>
      </trkpt>
      <trkpt lat="43.58193" lon="0.23831">
        <ele>209.4</ele>
        <time>2018-06-02T10:44:35Z</time>
      </trkpt>
      <trkpt lat="43.58192" lon="0.23836">
        <ele>209</ele>
        <time>2018-06-02T10:44:38Z</time>
      </trkpt>
      <trkpt lat="43.58191" lon="0.23838">
        <ele>208.7</ele>
        <time>2018-06-02T10:44:40Z</time>
      </trkpt>
      <trkpt lat="43.5819" lon="0.23843">
        <ele>208.3</ele>
        <time>2018-06-02T10:44:43Z</time>
      </trkpt>
      <trkpt lat="43.5819" lon="0.23845">
        <ele>208.1</ele>
        <time>2018-06-02T10:44:45Z</time>
      </trkpt>
      <trkpt lat="43.58189" lon="0.2385">
        <ele>207.7</ele>
        <time>2018-06-02T10:44:48Z</time>
      </trkpt>
      <trkpt lat="43.58188" lon="0.23854">
        <ele>207.3</ele>
        <time>2018-06-02T10:44:51Z</time>
      </trkpt>
      <trkpt lat="43.58187" lon="0.23857">
        <ele>207</ele>
        <time>2018-06-02T10:44:53Z</time>
      </trkpt>
      <trkpt lat="43.58187" lon="0.23859">
        <ele>206.9</ele>
        <time>2018-06-02T10:44:54Z</time>
      </trkpt>
      <trkpt lat="43.58187" lon="0.23862">
        <ele>206.7</ele>
        <time>2018-06-02T10:44:56Z</time>
      </trkpt>
      <trkpt lat="43.58186" lon="0.23865">
        <ele>206.6</ele>
        <time>2018-06-02T10:44:58Z</time>
      </trkpt>
      <trkpt lat="43.58186" lon="0.23868">
        <ele>206.4</ele>
        <time>2018-06-02T10:45:00Z</time>
      </trkpt>
      <trkpt lat="43.58186" lon="0.23869">
        <ele>206.3</ele>
        <time>2018-06-02T10:45:01Z</time>
      </trkpt>
      <trkpt lat="43.58186" lon="0.23872">
        <ele>206.1</ele>
        <time>2018-06-02T10:45:03Z</time>
      </trkpt>
      <trkpt lat="43.58186" lon="0.23876">
        <ele>205.9</ele>
        <time>2018-06-02T10:45:06Z</time>
      </trkpt>
      <trkpt lat="43.58185" lon="0.23878">
        <ele>205.7</ele>
        <time>2018-06-02T10:45:08Z</time>
      </trkpt>
      <trkpt lat="43.58185" lon="0.23882">
        <ele>205.5</ele>
        <time>2018-06-02T10:45:11Z</time>
      </trkpt>
      <trkpt lat="43.58185" lon="0.23886">
        <ele>205.2</ele>
        <time>2018-06-02T10:45:14Z</time>
      </trkpt>
      <trkpt lat="43.58185" lon="0.23887">
        <ele>205.1</ele>
        <time>2018-06-02T10:45:15Z</time>
      </trkpt>
      <trkpt lat="43.58185" lon="0.23889">
        <ele>205.1</ele>
        <time>2018-06-02T10:45:16Z</time>
      </trkpt>
      <trkpt lat="43.58184" lon="0.23893">
        <ele>204.8</ele>
        <time>2018-06-02T10:45:19Z</time>
      </trkpt>
      <trkpt lat="43.58184" lon="0.23896">
        <ele>204.6</ele>
        <time>2018-06-02T10:45:21Z</time>
      </trkpt>
      <trkpt lat="43.58184" lon="0.23901">
        <ele>204.4</ele>
        <time>2018-06-02T10:45:24Z</time>
      </trkpt>
      <trkpt lat="43.58183" lon="0.23904">
        <ele>204.2</ele>
        <time>2018-06-02T10:45:26Z</time>
      </trkpt>
      <trkpt lat="43.58183" lon="0.23906">
        <ele>204.1</ele>
        <time>2018-06-02T10:45:27Z</time>
      </trkpt>
      <trkpt lat="43.58183" lon="0.23909">
        <ele>204</ele>
        <time>2018-06-02T10:45:29Z</time>
      </trkpt>
      <trkpt lat="43.58182" lon="0.23911">
        <ele>203.9</ele>
        <time>2018-06-02T10:45:30Z</time>
      </trkpt>
      <trkpt lat="43.58182" lon="0.23912">
        <ele>203.8</ele>
        <time>2018-06-02T10:45:31Z</time>
      </trkpt>
      <trkpt lat="43.58182" lon="0.23917">
        <ele>203.4</ele>
        <time>2018-06-02T10:45:34Z</time>
      </trkpt>
      <trkpt lat="43.58181" lon="0.23922">
        <ele>203</ele>
        <time>2018-06-02T10:45:37Z</time>
      </trkpt>
      <trkpt lat="43.5818" lon="0.23925">
        <ele>202.7</ele>
        <time>2018-06-02T10:45:39Z</time>
      </trkpt>
      <trkpt lat="43.5818" lon="0.23929">
        <ele>202.4</ele>
        <time>2018-06-02T10:45:42Z</time>
      </trkpt>
      <trkpt lat="43.58179" lon="0.23932">
        <ele>202.1</ele>
        <time>2018-06-02T10:45:44Z</time>
      </trkpt>
      <trkpt lat="43.58178" lon="0.23936">
        <ele>201.7</ele>
        <time>2018-06-02T10:45:47Z</time>
      </trkpt>
      <trkpt lat="43.58178" lon="0.23939">
        <ele>201.5</ele>
        <time>2018-06-02T10:45:49Z</time>
      </trkpt>
      <trkpt lat="43.58177" lon="0.23944">
        <ele>201.1</ele>
        <time>2018-06-02T10:45:52Z</time>
      </trkpt>
      <trkpt lat="43.58177" lon="0.23945">
        <ele>201</ele>
        <time>2018-06-02T10:45:53Z</time>
      </trkpt>
      <trkpt lat="43.58177" lon="0.23946">
        <ele>200.8</ele>
        <time>2018-06-02T10:45:54Z</time>
      </trkpt>
      <trkpt lat="43.58177" lon="0.2395">
        <ele>200.4</ele>
        <time>2018-06-02T10:45:57Z</time>
      </trkpt>
      <trkpt lat="43.58176" lon="0.23954">
        <ele>199.9</ele>
        <time>2018-06-02T10:46:00Z</time>
      </trkpt>
      <trkpt lat="43.58176" lon="0.23956">
        <ele>199.6</ele>
        <time>2018-06-02T10:46:02Z</time>
      </trkpt>
      <trkpt lat="43.58176" lon="0.2396">
        <ele>199.1</ele>
        <time>2018-06-02T10:46:05Z</time>
      </trkpt>
      <trkpt lat="43.58175" lon="0.23962">
        <ele>198.8</ele>
        <time>2018-06-02T10:46:07Z</time>
      </trkpt>
      <trkpt lat="43.58175" lon="0.23964">
        <ele>198.7</ele>
        <time>2018-06-02T10:46:08Z</time>
      </trkpt>
      <trkpt lat="43.58176" lon="0.23967">
        <ele>198.4</ele>
        <time>2018-06-02T10:46:10Z</time>
      </trkpt>
      <trkpt lat="43.58176" lon="0.2397">
        <ele>198.1</ele>
        <time>2018-06-02T10:46:12Z</time>
      </trkpt>
      <trkpt lat="43.58177" lon="0.23974">
        <ele>197.6</ele>
        <time>2018-06-02T10:46:15Z</time>
      </trkpt>
      <trkpt lat="43.58177" lon="0.23977">
        <ele>197.3</ele>
        <time>2018-06-02T10:46:17Z</time>
      </trkpt>
      <trkpt lat="43.58177" lon="0.23978">
        <ele>197.1</ele>
        <time>2018-06-02T10:46:18Z</time>
      </trkpt>
      <trkpt lat="43.58178" lon="0.23981">
        <ele>196.7</ele>
        <time>2018-06-02T10:46:20Z</time>
      </trkpt>
      <trkpt lat="43.58178" lon="0.23982">
        <ele>196.6</ele>
        <time>2018-06-02T10:46:21Z</time>
      </trkpt>
      <trkpt lat="43.58178" lon="0.23985">
        <ele>196.2</ele>
        <time>2018-06-02T10:46:23Z</time>
      </trkpt>
      <trkpt lat="43.58179" lon="0.23988">
        <ele>195.8</ele>
        <time>2018-06-02T10:46:25Z</time>
      </trkpt>
      <trkpt lat="43.58179" lon="0.23993">
        <ele>195.3</ele>
        <time>2018-06-02T10:46:28Z</time>
      </trkpt>
      <trkpt lat="43.5818" lon="0.23996">
        <ele>194.9</ele>
        <time>2018-06-02T10:46:30Z</time>
      </trkpt>
      <trkpt lat="43.5818" lon="0.24">
        <ele>194.3</ele>
        <time>2018-06-02T10:46:33Z</time>
      </trkpt>
      <trkpt lat="43.5818" lon="0.24002">
        <ele>194.1</ele>
        <time>2018-06-02T10:46:34Z</time>
      </trkpt>
      <trkpt lat="43.5818" lon="0.24003">
        <ele>193.9</ele>
        <time>2018-06-02T10:46:35Z</time>
      </trkpt>
      <trkpt lat="43.58181" lon="0.24004">
        <ele>193.8</ele>
        <time>2018-06-02T10:46:36Z</time>
      </trkpt>
      <trkpt lat="43.58181" lon="0.24006">
        <ele>193.4</ele>
        <time>2018-06-02T10:46:38Z</time>
      </trkpt>
      <trkpt lat="43.58182" lon="0.24008">
        <ele>193</ele>
        <time>2018-06-02T10:46:40Z</time>
      </trkpt>
      <trkpt lat="43.58182" lon="0.24011">
        <ele>192.4</ele>
        <time>2018-06-02T10:46:43Z</time>
      </trkpt>
      <trkpt lat="43.58183" lon="0.24014">
        <ele>191.9</ele>
        <time>2018-06-02T10:46:46Z</time>
      </trkpt>
      <trkpt lat="43.58183" lon="0.24016">
        <ele>191.5</ele>
        <time>2018-06-02T10:46:48Z</time>
      </trkpt>
      <trkpt lat="43.58184" lon="0.24019">
        <ele>190.9</ele>
        <time>2018-06-02T10:46:51Z</time>
      </trkpt>
      <trkpt lat="43.58184" lon="0.2402">
        <ele>190.8</ele>
        <time>2018-06-02T10:46:52Z</time>
      </trkpt>
      <trkpt lat="43.58184" lon="0.24022">
        <ele>190.4</ele>
        <time>2018-06-02T10:46:54Z</time>
      </trkpt>
      <trkpt lat="43.58184" lon="0.24024">
        <ele>190</ele>
        <time>2018-06-02T10:46:56Z</time>
      </trkpt>
      <trkpt lat="43.58184" lon="0.24025">
        <ele>189.8</ele>
        <time>2018-06-02T10:46:57Z</time>
      </trkpt>
      <trkpt lat="43.58184" lon="0.24028">
        <ele>189.1</ele>
        <time>2018-06-02T10:47:00Z</time>
      </trkpt>
      <trkpt lat="43.58184" lon="0.24032">
        <ele>188.5</ele>
        <time>2018-06-02T10:47:03Z</time>
      </trkpt>
      <trkpt lat="43.58184" lon="0.24035">
        <ele>187.9</ele>
        <time>2018-06-02T10:47:06Z</time>
      </trkpt>
      <trkpt lat="43.58184" lon="0.24039">
        <ele>187</ele>
        <time>2018-06-02T10:47:10Z</time>
      </trkpt>
      <trkpt lat="43.58184" lon="0.2404">
        <ele>186.8</ele>
        <time>2018-06-02T10:47:11Z</time>
      </trkpt>
      <trkpt lat="43.58184" lon="0.24043">
        <ele>186</ele>
        <time>2018-06-02T10:47:14Z</time>
      </trkpt>
      <trkpt lat="43.58184" lon="0.24043">
        <ele>185.7</ele>
        <time>2018-06-02T10:47:15Z</time>
      </trkpt>
      <trkpt lat="43.58184" lon="0.24046">
        <ele>184.9</ele>
        <time>2018-06-02T10:47:18Z</time>
      </trkpt>
      <trkpt lat="43.58184" lon="0.24047">
        <ele>184.7</ele>
        <time>2018-06-02T10:47:19Z</time>
      </trkpt>
      <trkpt lat="43.58184" lon="0.24048">
        <ele>184.1</ele>
        <time>2018-06-02T10:47:21Z</time>
      </trkpt>
      <trkpt lat="43.58183" lon="0.24051">
        <ele>183.3</ele>
        <time>2018-06-02T10:47:24Z</time>
      </trkpt>
      <trkpt lat="43.58183" lon="0.24053">
        <ele>182.8</ele>
        <time>2018-06-02T10:47:26Z</time>
      </trkpt>
      <trkpt lat="43.58183" lon="0.24055">
        <ele>182.2</ele>
        <time>2018-06-02T10:47:29Z</time>
      </trkpt>
      <trkpt lat="43.58183" lon="0.24058">
        <ele>181.6</ele>
        <time>2018-06-02T10:47:32Z</time>
      </trkpt>
      <trkpt lat="43.58183" lon="0.24061">
        <ele>181.2</ele>
        <time>2018-06-02T10:47:34Z</time>
      </trkpt>
      <trkpt lat="43.58182" lon="0.24065">
        <ele>180.6</ele>
        <time>2018-06-02T10:47:37Z</time>
      </trkpt>
      <trkpt lat="43.58182" lon="0.24068">
        <ele>180.2</ele>
        <time>2018-06-02T10:47:39Z</time>
      </trkpt>
      <trkpt lat="43.58181" lon="0.24072">
        <ele>179.6</ele>
        <time>2018-06-02T10:47:42Z</time>
      </trkpt>
      <trkpt lat="43.58181" lon="0.24075">
        <ele>179.2</ele>
        <time>2018-06-02T10:47:44Z</time>
      </trkpt>
      <trkpt lat="43.58181" lon="0.24077">
        <ele>179.1</ele>
        <time>2018-06-02T10:47:45Z</time>
      </trkpt>
      <trkpt lat="43.5818" lon="0.2408">
        <ele>178.8</ele>
        <time>2018-06-02T10:47:47Z</time>
      </trkpt>
      <trkpt lat="43.5818" lon="0.24083">
        <ele>178.5</ele>
        <time>2018-06-02T10:47:49Z</time>
      </trkpt>
      <trkpt lat="43.5818" lon="0.24088">
        <ele>178.1</ele>
        <time>2018-06-02T10:47:52Z</time>
      </trkpt>
      <trkpt lat="43.5818" lon="0.24093">
        <ele>177.7</ele>
        <time>2018-06-02T10:47:55Z</time>
      </trkpt>
      <trkpt lat="43.58179" lon="0.24096">
        <ele>177.4</ele>
        <time>2018-06-02T10:47:57Z</time>
      </trkpt>
      <trkpt lat="43.58178" lon="0.241">
        <ele>177</ele>
        <time>2018-06-02T10:48:00Z</time>
      </trkpt>
      <trkpt lat="43.58177" lon="0.24102">
        <ele>176.7</ele>
        <time>2018-06-02T10:48:02Z</time>
      </trkpt>
      <trkpt lat="43.58175" lon="0.24106">
        <ele>176.3</ele>
        <time>2018-06-02T10:48:05Z</time>
      </trkpt>
      <trkpt lat="43.58174" lon="0.24109">
        <ele>176</ele>
        <time>2018-06-02T10:48:07Z</time>
      </trkpt>
      <trkpt lat="43.58174" lon="0.2411">
        <ele>175.9</ele>
        <time>2018-06-02T10:48:08Z</time>
      </trkpt>
      <trkpt lat="43.58172" lon="0.24112">
        <ele>175.9</ele>
        <time>2018-06-02T10:48:10Z</time>
      </trkpt>
      <trkpt lat="43.58171" lon="0.24115">
        <ele>175.8</ele>
        <time>2018-06-02T10:48:12Z</time>
      </trkpt>
      <trkpt lat="43.58168" lon="0.24119">
        <ele>175.7</ele>
        <time>2018-06-02T10:48:15Z</time>
      </trkpt>
      <trkpt lat="43.58166" lon="0.24122">
        <ele>175.6</ele>
        <time>2018-06-02T10:48:18Z</time>
      </trkpt>
      <trkpt lat="43.58164" lon="0.24125">
        <ele>175.5</ele>
        <time>2018-06-02T10:48:20Z</time>
      </trkpt>
      <trkpt lat="43.58163" lon="0.24126">
        <ele>175.5</ele>
        <time>2018-06-02T10:48:21Z</time>
      </trkpt>
      <trkpt lat="43.58162" lon="0.24128">
        <ele>175.4</ele>
        <time>2018-06-02T10:48:23Z</time>
      </trkpt>
      <trkpt lat="43.5816" lon="0.24131">
        <ele>175.4</ele>
        <time>2018-06-02T10:48:25Z</time>
      </trkpt>
      <trkpt lat="43.58157" lon="0.24134">
        <ele>175.3</ele>
        <time>2018-06-02T10:48:28Z</time>
      </trkpt>
      <trkpt lat="43.58156" lon="0.24137">
        <ele>175.2</ele>
        <time>2018-06-02T10:48:30Z</time>
      </trkpt>
      <trkpt lat="43.58154" lon="0.24139">
        <ele>175.1</ele>
        <time>2018-06-02T10:48:32Z</time>
      </trkpt>
      <trkpt lat="43.58154" lon="0.2414">
        <ele>175.1</ele>
        <time>2018-06-02T10:48:33Z</time>
      </trkpt>
      <trkpt lat="43.58154" lon="0.24142">
        <ele>175.1</ele>
        <time>2018-06-02T10:48:35Z</time>
      </trkpt>
      <trkpt lat="43.58154" lon="0.24145">
        <ele>175</ele>
        <time>2018-06-02T10:48:38Z</time>
      </trkpt>
      <trkpt lat="43.58155" lon="0.24149">
        <ele>175</ele>
        <time>2018-06-02T10:48:41Z</time>
      </trkpt>
      <trkpt lat="43.58155" lon="0.24151">
        <ele>175</ele>
        <time>2018-06-02T10:48:43Z</time>
      </trkpt>
      <trkpt lat="43.58155" lon="0.24154">
        <ele>174.9</ele>
        <time>2018-06-02T10:48:46Z</time>
      </trkpt>
      <trkpt lat="43.58155" lon="0.24156">
        <ele>174.9</ele>
        <time>2018-06-02T10:48:48Z</time>
      </trkpt>
      <trkpt lat="43.58156" lon="0.24159">
        <ele>174.8</ele>
        <time>2018-06-02T10:48:51Z</time>
      </trkpt>
      <trkpt lat="43.58156" lon="0.24161">
        <ele>174.8</ele>
        <time>2018-06-02T10:48:53Z</time>
      </trkpt>
      <trkpt lat="43.58156" lon="0.24164">
        <ele>174.8</ele>
        <time>2018-06-02T10:48:56Z</time>
      </trkpt>
      <trkpt lat="43.58156" lon="0.24166">
        <ele>174.7</ele>
        <time>2018-06-02T10:48:59Z</time>
      </trkpt>
      <trkpt lat="43.58156" lon="0.24168">
        <ele>174.7</ele>
        <time>2018-06-02T10:49:01Z</time>
      </trkpt>
      <trkpt lat="43.58156" lon="0.24171">
        <ele>174.7</ele>
        <time>2018-06-02T10:49:04Z</time>
      </trkpt>
      <trkpt lat="43.58156" lon="0.24173">
        <ele>174.6</ele>
        <time>2018-06-02T10:49:06Z</time>
      </trkpt>
      <trkpt lat="43.58156" lon="0.24175">
        <ele>174.6</ele>
        <time>2018-06-02T10:49:09Z</time>
      </trkpt>
      <trkpt lat="43.58156" lon="0.24177">
        <ele>174.5</ele>
        <time>2018-06-02T10:49:11Z</time>
      </trkpt>
      <trkpt lat="43.58156" lon="0.24179">
        <ele>174.5</ele>
        <time>2018-06-02T10:49:14Z</time>
      </trkpt>
      <trkpt lat="43.58157" lon="0.2418">
        <ele>174.5</ele>
        <time>2018-06-02T10:49:16Z</time>
      </trkpt>
      <trkpt lat="43.58157" lon="0.24183">
        <ele>174.4</ele>
        <time>2018-06-02T10:49:19Z</time>
      </trkpt>
      <trkpt lat="43.58158" lon="0.24185">
        <ele>174.4</ele>
        <time>2018-06-02T10:49:22Z</time>
      </trkpt>
      <trkpt lat="43.58158" lon="0.24187">
        <ele>174.4</ele>
        <time>2018-06-02T10:49:24Z</time>
      </trkpt>
      <trkpt lat="43.58158" lon="0.24189">
        <ele>174.3</ele>
        <time>2018-06-02T10:49:27Z</time>
      </trkpt>
      <trkpt lat="43.58159" lon="0.24191">
        <ele>174.3</ele>
        <time>2018-06-02T10:49:30Z</time>
      </trkpt>
      <trkpt lat="43.58159" lon="0.24193">
        <ele>174.2</ele>
        <time>2018-06-02T10:49:32Z</time>
      </trkpt>
      <trkpt lat="43.58159" lon="0.24194">
        <ele>174.2</ele>
        <time>2018-06-02T10:49:34Z</time>
      </trkpt>
      <trkpt lat="43.5816" lon="0.24196">
        <ele>174.2</ele>
        <time>2018-06-02T10:49:37Z</time>
      </trkpt>
      <trkpt lat="43.5816" lon="0.24197">
        <ele>174.1</ele>
        <time>2018-06-02T10:49:39Z</time>
      </trkpt>
      <trkpt lat="43.58165" lon="0.24216">
        <ele>173.5</ele>
        <time>2018-06-02T10:49:43Z</time>
      </trkpt>
      <trkpt lat="43.58165" lon="0.24216">
        <ele>173.5</ele>
        <time>2018-06-02T10:51:04Z</time>
      </trkpt>
      <trkpt lat="43.58168" lon="0.24234">
        <ele>172.8</ele>
        <time>2018-06-02T10:51:04Z</time>
      </trkpt>
      <trkpt lat="43.58169" lon="0.24235">
        <ele>172.8</ele>
        <time>2018-06-02T10:51:06Z</time>
      </trkpt>
      <trkpt lat="43.58172" lon="0.24238">
        <ele>172.8</ele>
        <time>2018-06-02T10:51:09Z</time>
      </trkpt>
      <trkpt lat="43.58173" lon="0.24241">
        <ele>172.7</ele>
        <time>2018-06-02T10:51:11Z</time>
      </trkpt>
      <trkpt lat="43.58176" lon="0.24244">
        <ele>172.7</ele>
        <time>2018-06-02T10:51:14Z</time>
      </trkpt>
      <trkpt lat="43.58179" lon="0.24247">
        <ele>172.6</ele>
        <time>2018-06-02T10:51:17Z</time>
      </trkpt>
      <trkpt lat="43.5818" lon="0.24248">
        <ele>172.6</ele>
        <time>2018-06-02T10:51:18Z</time>
      </trkpt>
      <trkpt lat="43.58181" lon="0.2425">
        <ele>172.6</ele>
        <time>2018-06-02T10:51:19Z</time>
      </trkpt>
      <trkpt lat="43.58184" lon="0.24253">
        <ele>172.6</ele>
        <time>2018-06-02T10:51:22Z</time>
      </trkpt>
      <trkpt lat="43.58186" lon="0.24255">
        <ele>172.5</ele>
        <time>2018-06-02T10:51:24Z</time>
      </trkpt>
      <trkpt lat="43.58189" lon="0.24258">
        <ele>172.5</ele>
        <time>2018-06-02T10:51:27Z</time>
      </trkpt>
      <trkpt lat="43.58191" lon="0.24261">
        <ele>172.5</ele>
        <time>2018-06-02T10:51:29Z</time>
      </trkpt>
      <trkpt lat="43.58194" lon="0.24264">
        <ele>172.4</ele>
        <time>2018-06-02T10:51:32Z</time>
      </trkpt>
      <trkpt lat="43.58197" lon="0.24266">
        <ele>172.4</ele>
        <time>2018-06-02T10:51:34Z</time>
      </trkpt>
      <trkpt lat="43.58201" lon="0.24269">
        <ele>172.3</ele>
        <time>2018-06-02T10:51:37Z</time>
      </trkpt>
      <trkpt lat="43.58203" lon="0.24271">
        <ele>172.3</ele>
        <time>2018-06-02T10:51:39Z</time>
      </trkpt>
      <trkpt lat="43.58204" lon="0.24272">
        <ele>172.3</ele>
        <time>2018-06-02T10:51:40Z</time>
      </trkpt>
      <trkpt lat="43.58207" lon="0.24277">
        <ele>172.2</ele>
        <time>2018-06-02T10:51:44Z</time>
      </trkpt>
      <trkpt lat="43.58209" lon="0.24281">
        <ele>172.2</ele>
        <time>2018-06-02T10:51:47Z</time>
      </trkpt>
      <trkpt lat="43.58212" lon="0.24284">
        <ele>172.1</ele>
        <time>2018-06-02T10:51:50Z</time>
      </trkpt>
      <trkpt lat="43.58213" lon="0.24285">
        <ele>172.1</ele>
        <time>2018-06-02T10:51:51Z</time>
      </trkpt>
      <trkpt lat="43.58214" lon="0.24287">
        <ele>172.1</ele>
        <time>2018-06-02T10:51:52Z</time>
      </trkpt>
      <trkpt lat="43.58217" lon="0.24291">
        <ele>172.1</ele>
        <time>2018-06-02T10:51:55Z</time>
      </trkpt>
      <trkpt lat="43.5822" lon="0.24294">
        <ele>172</ele>
        <time>2018-06-02T10:51:57Z</time>
      </trkpt>
      <trkpt lat="43.58223" lon="0.24299">
        <ele>172</ele>
        <time>2018-06-02T10:52:00Z</time>
      </trkpt>
      <trkpt lat="43.58227" lon="0.24305">
        <ele>172</ele>
        <time>2018-06-02T10:52:03Z</time>
      </trkpt>
      <trkpt lat="43.58229" lon="0.24308">
        <ele>171.9</ele>
        <time>2018-06-02T10:52:05Z</time>
      </trkpt>
      <trkpt lat="43.58233" lon="0.24314">
        <ele>171.9</ele>
        <time>2018-06-02T10:52:08Z</time>
      </trkpt>
      <trkpt lat="43.58234" lon="0.24317">
        <ele>171.8</ele>
        <time>2018-06-02T10:52:10Z</time>
      </trkpt>
      <trkpt lat="43.58235" lon="0.24322">
        <ele>171.8</ele>
        <time>2018-06-02T10:52:13Z</time>
      </trkpt>
      <trkpt lat="43.58236" lon="0.24324">
        <ele>171.8</ele>
        <time>2018-06-02T10:52:14Z</time>
      </trkpt>
      <trkpt lat="43.58236" lon="0.24325">
        <ele>171.8</ele>
        <time>2018-06-02T10:52:15Z</time>
      </trkpt>
      <trkpt lat="43.58238" lon="0.2433">
        <ele>172</ele>
        <time>2018-06-02T10:52:18Z</time>
      </trkpt>
      <trkpt lat="43.58238" lon="0.24332">
        <ele>172</ele>
        <time>2018-06-02T10:52:19Z</time>
      </trkpt>
      <trkpt lat="43.58239" lon="0.24333">
        <ele>172</ele>
        <time>2018-06-02T10:52:20Z</time>
      </trkpt>
      <trkpt lat="43.58241" lon="0.24338">
        <ele>172.2</ele>
        <time>2018-06-02T10:52:23Z</time>
      </trkpt>
      <trkpt lat="43.58243" lon="0.24343">
        <ele>172.3</ele>
        <time>2018-06-02T10:52:26Z</time>
      </trkpt>
      <trkpt lat="43.58245" lon="0.24346">
        <ele>172.4</ele>
        <time>2018-06-02T10:52:28Z</time>
      </trkpt>
      <trkpt lat="43.58245" lon="0.24347">
        <ele>172.4</ele>
        <time>2018-06-02T10:52:29Z</time>
      </trkpt>
      <trkpt lat="43.58246" lon="0.2435">
        <ele>172.5</ele>
        <time>2018-06-02T10:52:31Z</time>
      </trkpt>
      <trkpt lat="43.58247" lon="0.24353">
        <ele>172.6</ele>
        <time>2018-06-02T10:52:33Z</time>
      </trkpt>
      <trkpt lat="43.58249" lon="0.24357">
        <ele>172.7</ele>
        <time>2018-06-02T10:52:36Z</time>
      </trkpt>
      <trkpt lat="43.5825" lon="0.2436">
        <ele>172.8</ele>
        <time>2018-06-02T10:52:38Z</time>
      </trkpt>
      <trkpt lat="43.58252" lon="0.24363">
        <ele>172.9</ele>
        <time>2018-06-02T10:52:41Z</time>
      </trkpt>
      <trkpt lat="43.58254" lon="0.24361">
        <ele>173</ele>
        <time>2018-06-02T10:52:43Z</time>
      </trkpt>
      <trkpt lat="43.58257" lon="0.24358">
        <ele>173.1</ele>
        <time>2018-06-02T10:52:46Z</time>
      </trkpt>
      <trkpt lat="43.5826" lon="0.24354">
        <ele>173.3</ele>
        <time>2018-06-02T10:52:49Z</time>
      </trkpt>
      <trkpt lat="43.58262" lon="0.24352">
        <ele>173.3</ele>
        <time>2018-06-02T10:52:51Z</time>
      </trkpt>
      <trkpt lat="43.58264" lon="0.24348">
        <ele>173.5</ele>
        <time>2018-06-02T10:52:54Z</time>
      </trkpt>
      <trkpt lat="43.58266" lon="0.24346">
        <ele>173.5</ele>
        <time>2018-06-02T10:52:56Z</time>
      </trkpt>
      <trkpt lat="43.58268" lon="0.24342">
        <ele>173.7</ele>
        <time>2018-06-02T10:52:59Z</time>
      </trkpt>
      <trkpt lat="43.5827" lon="0.2434">
        <ele>173.7</ele>
        <time>2018-06-02T10:53:01Z</time>
      </trkpt>
      <trkpt lat="43.58272" lon="0.24336">
        <ele>173.9</ele>
        <time>2018-06-02T10:53:04Z</time>
      </trkpt>
      <trkpt lat="43.58272" lon="0.24333">
        <ele>174</ele>
        <time>2018-06-02T10:53:06Z</time>
      </trkpt>
      <trkpt lat="43.58272" lon="0.24328">
        <ele>174.1</ele>
        <time>2018-06-02T10:53:09Z</time>
      </trkpt>
      <trkpt lat="43.58272" lon="0.24323">
        <ele>174.2</ele>
        <time>2018-06-02T10:53:12Z</time>
      </trkpt>
      <trkpt lat="43.58272" lon="0.2432">
        <ele>174.3</ele>
        <time>2018-06-02T10:53:14Z</time>
      </trkpt>
      <trkpt lat="43.58273" lon="0.24316">
        <ele>174.4</ele>
        <time>2018-06-02T10:53:16Z</time>
      </trkpt>
      <trkpt lat="43.58273" lon="0.24314">
        <ele>174.4</ele>
        <time>2018-06-02T10:53:17Z</time>
      </trkpt>
      <trkpt lat="43.58273" lon="0.24311">
        <ele>174.5</ele>
        <time>2018-06-02T10:53:19Z</time>
      </trkpt>
      <trkpt lat="43.58273" lon="0.24305">
        <ele>174.6</ele>
        <time>2018-06-02T10:53:22Z</time>
      </trkpt>
      <trkpt lat="43.58274" lon="0.24301">
        <ele>174.7</ele>
        <time>2018-06-02T10:53:24Z</time>
      </trkpt>
      <trkpt lat="43.58274" lon="0.24297">
        <ele>174.8</ele>
        <time>2018-06-02T10:53:26Z</time>
      </trkpt>
      <trkpt lat="43.58274" lon="0.24295">
        <ele>174.8</ele>
        <time>2018-06-02T10:53:27Z</time>
      </trkpt>
      <trkpt lat="43.58274" lon="0.24292">
        <ele>174.9</ele>
        <time>2018-06-02T10:53:29Z</time>
      </trkpt>
      <trkpt lat="43.58274" lon="0.24286">
        <ele>175</ele>
        <time>2018-06-02T10:53:32Z</time>
      </trkpt>
      <trkpt lat="43.58274" lon="0.2428">
        <ele>175.2</ele>
        <time>2018-06-02T10:53:35Z</time>
      </trkpt>
      <trkpt lat="43.58275" lon="0.24277">
        <ele>175.2</ele>
        <time>2018-06-02T10:53:37Z</time>
      </trkpt>
      <trkpt lat="43.58275" lon="0.24275">
        <ele>175.3</ele>
        <time>2018-06-02T10:53:38Z</time>
      </trkpt>
      <trkpt lat="43.58275" lon="0.24271">
        <ele>175.5</ele>
        <time>2018-06-02T10:53:40Z</time>
      </trkpt>
      <trkpt lat="43.58275" lon="0.24268">
        <ele>175.8</ele>
        <time>2018-06-02T10:53:42Z</time>
      </trkpt>
      <trkpt lat="43.58275" lon="0.24262">
        <ele>176.1</ele>
        <time>2018-06-02T10:53:45Z</time>
      </trkpt>
      <trkpt lat="43.58275" lon="0.24259">
        <ele>176.4</ele>
        <time>2018-06-02T10:53:47Z</time>
      </trkpt>
      <trkpt lat="43.58275" lon="0.24257">
        <ele>176.5</ele>
        <time>2018-06-02T10:53:48Z</time>
      </trkpt>
      <trkpt lat="43.58276" lon="0.24255">
        <ele>176.7</ele>
        <time>2018-06-02T10:53:50Z</time>
      </trkpt>
      <trkpt lat="43.58277" lon="0.24253">
        <ele>177</ele>
        <time>2018-06-02T10:53:52Z</time>
      </trkpt>
      <trkpt lat="43.58279" lon="0.2425">
        <ele>177.3</ele>
        <time>2018-06-02T10:53:55Z</time>
      </trkpt>
      <trkpt lat="43.58281" lon="0.24248">
        <ele>177.7</ele>
        <time>2018-06-02T10:53:58Z</time>
      </trkpt>
      <trkpt lat="43.58282" lon="0.24246">
        <ele>177.9</ele>
        <time>2018-06-02T10:54:00Z</time>
      </trkpt>
      <trkpt lat="43.58285" lon="0.24249">
        <ele>178.3</ele>
        <time>2018-06-02T10:54:03Z</time>
      </trkpt>
      <trkpt lat="43.58286" lon="0.24251">
        <ele>178.5</ele>
        <time>2018-06-02T10:54:05Z</time>
      </trkpt>
      <trkpt lat="43.58289" lon="0.24254">
        <ele>178.6</ele>
        <time>2018-06-02T10:54:08Z</time>
      </trkpt>
      <trkpt lat="43.58291" lon="0.24256">
        <ele>178.7</ele>
        <time>2018-06-02T10:54:10Z</time>
      </trkpt>
      <trkpt lat="43.58293" lon="0.24259">
        <ele>178.8</ele>
        <time>2018-06-02T10:54:13Z</time>
      </trkpt>
      <trkpt lat="43.58296" lon="0.24261">
        <ele>178.9</ele>
        <time>2018-06-02T10:54:16Z</time>
      </trkpt>
      <trkpt lat="43.58298" lon="0.24262">
        <ele>179</ele>
        <time>2018-06-02T10:54:18Z</time>
      </trkpt>
      <trkpt lat="43.58301" lon="0.24265">
        <ele>179.1</ele>
        <time>2018-06-02T10:54:21Z</time>
      </trkpt>
      <trkpt lat="43.58303" lon="0.24266">
        <ele>179.2</ele>
        <time>2018-06-02T10:54:23Z</time>
      </trkpt>
      <trkpt lat="43.58306" lon="0.24268">
        <ele>179.4</ele>
        <time>2018-06-02T10:54:26Z</time>
      </trkpt>
      <trkpt lat="43.58308" lon="0.2427">
        <ele>179.4</ele>
        <time>2018-06-02T10:54:28Z</time>
      </trkpt>
      <trkpt lat="43.58311" lon="0.24273">
        <ele>179.6</ele>
        <time>2018-06-02T10:54:31Z</time>
      </trkpt>
      <trkpt lat="43.58313" lon="0.24274">
        <ele>179.6</ele>
        <time>2018-06-02T10:54:33Z</time>
      </trkpt>
      <trkpt lat="43.58316" lon="0.24277">
        <ele>179.8</ele>
        <time>2018-06-02T10:54:36Z</time>
      </trkpt>
      <trkpt lat="43.58317" lon="0.24278">
        <ele>179.8</ele>
        <time>2018-06-02T10:54:37Z</time>
      </trkpt>
      <trkpt lat="43.58319" lon="0.24279">
        <ele>179.9</ele>
        <time>2018-06-02T10:54:39Z</time>
      </trkpt>
      <trkpt lat="43.5832" lon="0.2428">
        <ele>180</ele>
        <time>2018-06-02T10:54:41Z</time>
      </trkpt>
      <trkpt lat="43.58321" lon="0.24281">
        <ele>180.1</ele>
        <time>2018-06-02T10:54:44Z</time>
      </trkpt>
      <trkpt lat="43.58323" lon="0.24282">
        <ele>180.2</ele>
        <time>2018-06-02T10:54:46Z</time>
      </trkpt>
      <trkpt lat="43.58324" lon="0.24284">
        <ele>180.3</ele>
        <time>2018-06-02T10:54:49Z</time>
      </trkpt>
      <trkpt lat="43.58325" lon="0.24285">
        <ele>180.4</ele>
        <time>2018-06-02T10:54:51Z</time>
      </trkpt>
      <trkpt lat="43.58327" lon="0.24287">
        <ele>180.5</ele>
        <time>2018-06-02T10:54:54Z</time>
      </trkpt>
      <trkpt lat="43.58328" lon="0.24288">
        <ele>180.6</ele>
        <time>2018-06-02T10:54:56Z</time>
      </trkpt>
      <trkpt lat="43.58329" lon="0.24288">
        <ele>180.6</ele>
        <time>2018-06-02T10:54:57Z</time>
      </trkpt>
      <trkpt lat="43.58331" lon="0.2429">
        <ele>180.7</ele>
        <time>2018-06-02T10:54:59Z</time>
      </trkpt>
      <trkpt lat="43.58335" lon="0.24293">
        <ele>180.8</ele>
        <time>2018-06-02T10:55:02Z</time>
      </trkpt>
      <trkpt lat="43.58337" lon="0.24295">
        <ele>180.9</ele>
        <time>2018-06-02T10:55:04Z</time>
      </trkpt>
      <trkpt lat="43.5834" lon="0.24298">
        <ele>181</ele>
        <time>2018-06-02T10:55:07Z</time>
      </trkpt>
      <trkpt lat="43.58344" lon="0.243">
        <ele>181.2</ele>
        <time>2018-06-02T10:55:10Z</time>
      </trkpt>
      <trkpt lat="43.58347" lon="0.24301">
        <ele>181.3</ele>
        <time>2018-06-02T10:55:12Z</time>
      </trkpt>
      <trkpt lat="43.58349" lon="0.24303">
        <ele>181.3</ele>
        <time>2018-06-02T10:55:14Z</time>
      </trkpt>
      <trkpt lat="43.58353" lon="0.24305">
        <ele>181.5</ele>
        <time>2018-06-02T10:55:17Z</time>
      </trkpt>
      <trkpt lat="43.58354" lon="0.24305">
        <ele>181.5</ele>
        <time>2018-06-02T10:55:18Z</time>
      </trkpt>
      <trkpt lat="43.58355" lon="0.24306">
        <ele>181.5</ele>
        <time>2018-06-02T10:55:19Z</time>
      </trkpt>
      <trkpt lat="43.58358" lon="0.24307">
        <ele>181.7</ele>
        <time>2018-06-02T10:55:22Z</time>
      </trkpt>
      <trkpt lat="43.58361" lon="0.24309">
        <ele>181.8</ele>
        <time>2018-06-02T10:55:25Z</time>
      </trkpt>
      <trkpt lat="43.58364" lon="0.24309">
        <ele>181.9</ele>
        <time>2018-06-02T10:55:27Z</time>
      </trkpt>
      <trkpt lat="43.58367" lon="0.24311">
        <ele>182</ele>
        <time>2018-06-02T10:55:30Z</time>
      </trkpt>
      <trkpt lat="43.58369" lon="0.24311">
        <ele>182.1</ele>
        <time>2018-06-02T10:55:32Z</time>
      </trkpt>
      <trkpt lat="43.58372" lon="0.24312">
        <ele>182.2</ele>
        <time>2018-06-02T10:55:35Z</time>
      </trkpt>
      <trkpt lat="43.58374" lon="0.24312">
        <ele>182.3</ele>
        <time>2018-06-02T10:55:37Z</time>
      </trkpt>
      <trkpt lat="43.58377" lon="0.24313">
        <ele>182.4</ele>
        <time>2018-06-02T10:55:40Z</time>
      </trkpt>
      <trkpt lat="43.5838" lon="0.24314">
        <ele>182.8</ele>
        <time>2018-06-02T10:55:42Z</time>
      </trkpt>
      <trkpt lat="43.58381" lon="0.24314">
        <ele>182.9</ele>
        <time>2018-06-02T10:55:43Z</time>
      </trkpt>
      <trkpt lat="43.58382" lon="0.24314">
        <ele>183.3</ele>
        <time>2018-06-02T10:55:45Z</time>
      </trkpt>
      <trkpt lat="43.58385" lon="0.24314">
        <ele>183.8</ele>
        <time>2018-06-02T10:55:48Z</time>
      </trkpt>
      <trkpt lat="43.58387" lon="0.24315">
        <ele>184.1</ele>
        <time>2018-06-02T10:55:50Z</time>
      </trkpt>
      <trkpt lat="43.5839" lon="0.24315">
        <ele>184.6</ele>
        <time>2018-06-02T10:55:53Z</time>
      </trkpt>
      <trkpt lat="43.58392" lon="0.24316">
        <ele>185</ele>
        <time>2018-06-02T10:55:55Z</time>
      </trkpt>
      <trkpt lat="43.58395" lon="0.24316">
        <ele>185.5</ele>
        <time>2018-06-02T10:55:58Z</time>
      </trkpt>
      <trkpt lat="43.58396" lon="0.24316">
        <ele>185.7</ele>
        <time>2018-06-02T10:56:00Z</time>
      </trkpt>
      <trkpt lat="43.58399" lon="0.24317">
        <ele>186</ele>
        <time>2018-06-02T10:56:03Z</time>
      </trkpt>
      <trkpt lat="43.58401" lon="0.24317">
        <ele>186.2</ele>
        <time>2018-06-02T10:56:05Z</time>
      </trkpt>
      <trkpt lat="43.58404" lon="0.24318">
        <ele>186.5</ele>
        <time>2018-06-02T10:56:08Z</time>
      </trkpt>
      <trkpt lat="43.58407" lon="0.24318">
        <ele>186.8</ele>
        <time>2018-06-02T10:56:11Z</time>
      </trkpt>
      <trkpt lat="43.58408" lon="0.24318">
        <ele>187</ele>
        <time>2018-06-02T10:56:13Z</time>
      </trkpt>
      <trkpt lat="43.58411" lon="0.2432">
        <ele>187.3</ele>
        <time>2018-06-02T10:56:16Z</time>
      </trkpt>
      <trkpt lat="43.58412" lon="0.2432">
        <ele>187.6</ele>
        <time>2018-06-02T10:56:18Z</time>
      </trkpt>
      <trkpt lat="43.58415" lon="0.24321">
        <ele>188</ele>
        <time>2018-06-02T10:56:21Z</time>
      </trkpt>
      <trkpt lat="43.58417" lon="0.24322">
        <ele>188.3</ele>
        <time>2018-06-02T10:56:23Z</time>
      </trkpt>
      <trkpt lat="43.58419" lon="0.24323">
        <ele>188.7</ele>
        <time>2018-06-02T10:56:26Z</time>
      </trkpt>
      <trkpt lat="43.58421" lon="0.24324">
        <ele>189</ele>
        <time>2018-06-02T10:56:28Z</time>
      </trkpt>
      <trkpt lat="43.58421" lon="0.24324">
        <ele>189.2</ele>
        <time>2018-06-02T10:56:29Z</time>
      </trkpt>
      <trkpt lat="43.58423" lon="0.24324">
        <ele>189.4</ele>
        <time>2018-06-02T10:56:31Z</time>
      </trkpt>
      <trkpt lat="43.58426" lon="0.24325">
        <ele>189.9</ele>
        <time>2018-06-02T10:56:34Z</time>
      </trkpt>
      <trkpt lat="43.58428" lon="0.24325">
        <ele>190.2</ele>
        <time>2018-06-02T10:56:36Z</time>
      </trkpt>
      <trkpt lat="43.58431" lon="0.24326">
        <ele>190.6</ele>
        <time>2018-06-02T10:56:39Z</time>
      </trkpt>
      <trkpt lat="43.58431" lon="0.24326">
        <ele>190.8</ele>
        <time>2018-06-02T10:56:40Z</time>
      </trkpt>
      <trkpt lat="43.58432" lon="0.24326">
        <ele>191</ele>
        <time>2018-06-02T10:56:41Z</time>
      </trkpt>
      <trkpt lat="43.58435" lon="0.24327">
        <ele>191.6</ele>
        <time>2018-06-02T10:56:44Z</time>
      </trkpt>
      <trkpt lat="43.58437" lon="0.24328">
        <ele>192.1</ele>
        <time>2018-06-02T10:56:46Z</time>
      </trkpt>
      <trkpt lat="43.5844" lon="0.24329">
        <ele>192.7</ele>
        <time>2018-06-02T10:56:49Z</time>
      </trkpt>
      <trkpt lat="43.58442" lon="0.24329">
        <ele>193.2</ele>
        <time>2018-06-02T10:56:51Z</time>
      </trkpt>
      <trkpt lat="43.58445" lon="0.24331">
        <ele>193.8</ele>
        <time>2018-06-02T10:56:54Z</time>
      </trkpt>
      <trkpt lat="43.58448" lon="0.24332">
        <ele>194.5</ele>
        <time>2018-06-02T10:56:57Z</time>
      </trkpt>
      <trkpt lat="43.5845" lon="0.24332">
        <ele>194.7</ele>
        <time>2018-06-02T10:56:58Z</time>
      </trkpt>
      <trkpt lat="43.58451" lon="0.24332">
        <ele>194.9</ele>
        <time>2018-06-02T10:56:59Z</time>
      </trkpt>
      <trkpt lat="43.58455" lon="0.24332">
        <ele>195.6</ele>
        <time>2018-06-02T10:57:02Z</time>
      </trkpt>
      <trkpt lat="43.58457" lon="0.24333">
        <ele>196</ele>
        <time>2018-06-02T10:57:04Z</time>
      </trkpt>
      <trkpt lat="43.58461" lon="0.24333">
        <ele>196.7</ele>
        <time>2018-06-02T10:57:07Z</time>
      </trkpt>
      <trkpt lat="43.58463" lon="0.24333">
        <ele>197.1</ele>
        <time>2018-06-02T10:57:09Z</time>
      </trkpt>
      <trkpt lat="43.58467" lon="0.24335">
        <ele>197.8</ele>
        <time>2018-06-02T10:57:12Z</time>
      </trkpt>
      <trkpt lat="43.58469" lon="0.24336">
        <ele>198.2</ele>
        <time>2018-06-02T10:57:14Z</time>
      </trkpt>
      <trkpt lat="43.58471" lon="0.24337">
        <ele>198.6</ele>
        <time>2018-06-02T10:57:16Z</time>
      </trkpt>
      <trkpt lat="43.58473" lon="0.24338">
        <ele>198.9</ele>
        <time>2018-06-02T10:57:17Z</time>
      </trkpt>
      <trkpt lat="43.58476" lon="0.24339">
        <ele>199.5</ele>
        <time>2018-06-02T10:57:20Z</time>
      </trkpt>
      <trkpt lat="43.58477" lon="0.2434">
        <ele>199.7</ele>
        <time>2018-06-02T10:57:21Z</time>
      </trkpt>
      <trkpt lat="43.58478" lon="0.2434">
        <ele>200</ele>
        <time>2018-06-02T10:57:22Z</time>
      </trkpt>
      <trkpt lat="43.58482" lon="0.24341">
        <ele>200.6</ele>
        <time>2018-06-02T10:57:25Z</time>
      </trkpt>
      <trkpt lat="43.58485" lon="0.24341">
        <ele>201</ele>
        <time>2018-06-02T10:57:27Z</time>
      </trkpt>
      <trkpt lat="43.58488" lon="0.24342">
        <ele>201.7</ele>
        <time>2018-06-02T10:57:30Z</time>
      </trkpt>
      <trkpt lat="43.58491" lon="0.24342">
        <ele>202.1</ele>
        <time>2018-06-02T10:57:32Z</time>
      </trkpt>
      <trkpt lat="43.58493" lon="0.24343">
        <ele>202.5</ele>
        <time>2018-06-02T10:57:34Z</time>
      </trkpt>
      <trkpt lat="43.58495" lon="0.24343">
        <ele>202.5</ele>
        <time>2018-06-02T10:57:35Z</time>
      </trkpt>
      <trkpt lat="43.58497" lon="0.24344">
        <ele>202.6</ele>
        <time>2018-06-02T10:57:37Z</time>
      </trkpt>
      <trkpt lat="43.58501" lon="0.24345">
        <ele>202.6</ele>
        <time>2018-06-02T10:57:40Z</time>
      </trkpt>
      <trkpt lat="43.58504" lon="0.24347">
        <ele>202.7</ele>
        <time>2018-06-02T10:57:43Z</time>
      </trkpt>
      <trkpt lat="43.58504" lon="0.24349">
        <ele>202.7</ele>
        <time>2018-06-02T10:57:45Z</time>
      </trkpt>
      <trkpt lat="43.58504" lon="0.24353">
        <ele>202.7</ele>
        <time>2018-06-02T10:57:48Z</time>
      </trkpt>
      <trkpt lat="43.58504" lon="0.24356">
        <ele>202.8</ele>
        <time>2018-06-02T10:57:50Z</time>
      </trkpt>
      <trkpt lat="43.58504" lon="0.24359">
        <ele>202.8</ele>
        <time>2018-06-02T10:57:53Z</time>
      </trkpt>
      <trkpt lat="43.58503" lon="0.24362">
        <ele>202.8</ele>
        <time>2018-06-02T10:57:55Z</time>
      </trkpt>
      <trkpt lat="43.58503" lon="0.24366">
        <ele>202.9</ele>
        <time>2018-06-02T10:57:58Z</time>
      </trkpt>
      <trkpt lat="43.58502" lon="0.24369">
        <ele>202.9</ele>
        <time>2018-06-02T10:58:00Z</time>
      </trkpt>
      <trkpt lat="43.58501" lon="0.24374">
        <ele>203</ele>
        <time>2018-06-02T10:58:03Z</time>
      </trkpt>
      <trkpt lat="43.585" lon="0.24375">
        <ele>203</ele>
        <time>2018-06-02T10:58:04Z</time>
      </trkpt>
      <trkpt lat="43.58499" lon="0.24378">
        <ele>202.9</ele>
        <time>2018-06-02T10:58:06Z</time>
      </trkpt>
      <trkpt lat="43.58498" lon="0.24381">
        <ele>202.9</ele>
        <time>2018-06-02T10:58:08Z</time>
      </trkpt>
      <trkpt lat="43.58498" lon="0.24383">
        <ele>202.9</ele>
        <time>2018-06-02T10:58:09Z</time>
      </trkpt>
      <trkpt lat="43.58497" lon="0.24386">
        <ele>202.9</ele>
        <time>2018-06-02T10:58:11Z</time>
      </trkpt>
      <trkpt lat="43.58496" lon="0.2439">
        <ele>202.8</ele>
        <time>2018-06-02T10:58:13Z</time>
      </trkpt>
      <trkpt lat="43.5849" lon="0.24411">
        <ele>202.2</ele>
        <time>2018-06-02T10:58:18Z</time>
      </trkpt>
      <trkpt lat="43.5849" lon="0.24411">
        <ele>202.2</ele>
        <time>2018-06-02T10:59:26Z</time>
      </trkpt>
      <trkpt lat="43.58485" lon="0.24428">
        <ele>201.7</ele>
        <time>2018-06-02T10:59:27Z</time>
      </trkpt>
      <trkpt lat="43.58484" lon="0.24431">
        <ele>201.7</ele>
        <time>2018-06-02T10:59:29Z</time>
      </trkpt>
      <trkpt lat="43.58483" lon="0.24433">
        <ele>201.6</ele>
        <time>2018-06-02T10:59:30Z</time>
      </trkpt>
      <trkpt lat="43.58481" lon="0.24438">
        <ele>201.6</ele>
        <time>2018-06-02T10:59:33Z</time>
      </trkpt>
      <trkpt lat="43.5848" lon="0.24442">
        <ele>201.6</ele>
        <time>2018-06-02T10:59:35Z</time>
      </trkpt>
      <trkpt lat="43.58479" lon="0.24445">
        <ele>201.5</ele>
        <time>2018-06-02T10:59:37Z</time>
      </trkpt>
      <trkpt lat="43.58478" lon="0.24447">
        <ele>201.5</ele>
        <time>2018-06-02T10:59:38Z</time>
      </trkpt>
      <trkpt lat="43.58477" lon="0.2445">
        <ele>201.5</ele>
        <time>2018-06-02T10:59:40Z</time>
      </trkpt>
      <trkpt lat="43.58476" lon="0.24455">
        <ele>201.4</ele>
        <time>2018-06-02T10:59:43Z</time>
      </trkpt>
      <trkpt lat="43.58475" lon="0.24458">
        <ele>201.4</ele>
        <time>2018-06-02T10:59:45Z</time>
      </trkpt>
      <trkpt lat="43.58474" lon="0.24463">
        <ele>201.4</ele>
        <time>2018-06-02T10:59:48Z</time>
      </trkpt>
      <trkpt lat="43.58473" lon="0.24464">
        <ele>201.3</ele>
        <time>2018-06-02T10:59:49Z</time>
      </trkpt>
      <trkpt lat="43.58473" lon="0.24466">
        <ele>201.3</ele>
        <time>2018-06-02T10:59:50Z</time>
      </trkpt>
      <trkpt lat="43.58471" lon="0.24471">
        <ele>201.3</ele>
        <time>2018-06-02T10:59:53Z</time>
      </trkpt>
      <trkpt lat="43.58469" lon="0.24476">
        <ele>201.2</ele>
        <time>2018-06-02T10:59:56Z</time>
      </trkpt>
      <trkpt lat="43.58468" lon="0.2448">
        <ele>201.2</ele>
        <time>2018-06-02T10:59:58Z</time>
      </trkpt>
      <trkpt lat="43.58468" lon="0.24481">
        <ele>201.2</ele>
        <time>2018-06-02T10:59:59Z</time>
      </trkpt>
      <trkpt lat="43.58466" lon="0.24484">
        <ele>201.2</ele>
        <time>2018-06-02T11:00:01Z</time>
      </trkpt>
      <trkpt lat="43.58465" lon="0.24488">
        <ele>201.1</ele>
        <time>2018-06-02T11:00:03Z</time>
      </trkpt>
      <trkpt lat="43.58464" lon="0.24492">
        <ele>201.1</ele>
        <time>2018-06-02T11:00:06Z</time>
      </trkpt>
      <trkpt lat="43.58463" lon="0.24496">
        <ele>201</ele>
        <time>2018-06-02T11:00:08Z</time>
      </trkpt>
      <trkpt lat="43.58462" lon="0.24499">
        <ele>201</ele>
        <time>2018-06-02T11:00:10Z</time>
      </trkpt>
      <trkpt lat="43.58461" lon="0.24501">
        <ele>201</ele>
        <time>2018-06-02T11:00:11Z</time>
      </trkpt>
      <trkpt lat="43.58461" lon="0.24504">
        <ele>201</ele>
        <time>2018-06-02T11:00:13Z</time>
      </trkpt>
      <trkpt lat="43.5846" lon="0.2451">
        <ele>200.9</ele>
        <time>2018-06-02T11:00:16Z</time>
      </trkpt>
      <trkpt lat="43.58459" lon="0.24515">
        <ele>200.9</ele>
        <time>2018-06-02T11:00:19Z</time>
      </trkpt>
      <trkpt lat="43.58458" lon="0.24519">
        <ele>200.8</ele>
        <time>2018-06-02T11:00:21Z</time>
      </trkpt>
      <trkpt lat="43.58457" lon="0.24524">
        <ele>200.8</ele>
        <time>2018-06-02T11:00:24Z</time>
      </trkpt>
      <trkpt lat="43.58456" lon="0.24528">
        <ele>200.8</ele>
        <time>2018-06-02T11:00:26Z</time>
      </trkpt>
      <trkpt lat="43.58455" lon="0.24534">
        <ele>200.7</ele>
        <time>2018-06-02T11:00:29Z</time>
      </trkpt>
      <trkpt lat="43.58454" lon="0.24538">
        <ele>200.7</ele>
        <time>2018-06-02T11:00:31Z</time>
      </trkpt>
      <trkpt lat="43.58452" lon="0.24543">
        <ele>200.6</ele>
        <time>2018-06-02T11:00:34Z</time>
      </trkpt>
      <trkpt lat="43.58451" lon="0.24547">
        <ele>200.6</ele>
        <time>2018-06-02T11:00:36Z</time>
      </trkpt>
      <trkpt lat="43.58449" lon="0.24553">
        <ele>200.6</ele>
        <time>2018-06-02T11:00:39Z</time>
      </trkpt>
      <trkpt lat="43.58448" lon="0.24556">
        <ele>200.5</ele>
        <time>2018-06-02T11:00:41Z</time>
      </trkpt>
      <trkpt lat="43.58448" lon="0.24558">
        <ele>200.5</ele>
        <time>2018-06-02T11:00:42Z</time>
      </trkpt>
      <trkpt lat="43.58447" lon="0.24561">
        <ele>200.5</ele>
        <time>2018-06-02T11:00:44Z</time>
      </trkpt>
      <trkpt lat="43.58446" lon="0.24567">
        <ele>200.4</ele>
        <time>2018-06-02T11:00:47Z</time>
      </trkpt>
      <trkpt lat="43.58445" lon="0.2457">
        <ele>200.4</ele>
        <time>2018-06-02T11:00:49Z</time>
      </trkpt>
      <trkpt lat="43.58443" lon="0.24575">
        <ele>200.4</ele>
        <time>2018-06-02T11:00:52Z</time>
      </trkpt>
      <trkpt lat="43.58443" lon="0.24578">
        <ele>200.3</ele>
        <time>2018-06-02T11:00:54Z</time>
      </trkpt>
      <trkpt lat="43.58441" lon="0.24584">
        <ele>200.3</ele>
        <time>2018-06-02T11:00:57Z</time>
      </trkpt>
      <trkpt lat="43.5844" lon="0.24587">
        <ele>200.3</ele>
        <time>2018-06-02T11:00:59Z</time>
      </trkpt>
      <trkpt lat="43.58439" lon="0.24592">
        <ele>200.2</ele>
        <time>2018-06-02T11:01:02Z</time>
      </trkpt>
      <trkpt lat="43.58438" lon="0.24594">
        <ele>200.2</ele>
        <time>2018-06-02T11:01:03Z</time>
      </trkpt>
      <trkpt lat="43.58437" lon="0.24597">
        <ele>200.2</ele>
        <time>2018-06-02T11:01:05Z</time>
      </trkpt>
      <trkpt lat="43.58436" lon="0.24601">
        <ele>200.1</ele>
        <time>2018-06-02T11:01:07Z</time>
      </trkpt>
      <trkpt lat="43.58434" lon="0.24606">
        <ele>200.1</ele>
        <time>2018-06-02T11:01:10Z</time>
      </trkpt>
      <trkpt lat="43.58433" lon="0.2461">
        <ele>200.1</ele>
        <time>2018-06-02T11:01:12Z</time>
      </trkpt>
      <trkpt lat="43.58433" lon="0.24612">
        <ele>200</ele>
        <time>2018-06-02T11:01:13Z</time>
      </trkpt>
      <trkpt lat="43.58432" lon="0.24616">
        <ele>200</ele>
        <time>2018-06-02T11:01:15Z</time>
      </trkpt>
      <trkpt lat="43.58431" lon="0.24619">
        <ele>200</ele>
        <time>2018-06-02T11:01:17Z</time>
      </trkpt>
      <trkpt lat="43.5843" lon="0.24625">
        <ele>199.9</ele>
        <time>2018-06-02T11:01:20Z</time>
      </trkpt>
      <trkpt lat="43.58429" lon="0.24629">
        <ele>199.9</ele>
        <time>2018-06-02T11:01:22Z</time>
      </trkpt>
      <trkpt lat="43.58429" lon="0.24631">
        <ele>199.9</ele>
        <time>2018-06-02T11:01:23Z</time>
      </trkpt>
      <trkpt lat="43.58428" lon="0.24635">
        <ele>199.9</ele>
        <time>2018-06-02T11:01:25Z</time>
      </trkpt>
      <trkpt lat="43.58427" lon="0.24641">
        <ele>199.8</ele>
        <time>2018-06-02T11:01:28Z</time>
      </trkpt>
      <trkpt lat="43.58426" lon="0.24645">
        <ele>199.8</ele>
        <time>2018-06-02T11:01:30Z</time>
      </trkpt>
      <trkpt lat="43.58425" lon="0.24649">
        <ele>199.7</ele>
        <time>2018-06-02T11:01:32Z</time>
      </trkpt>
      <trkpt lat="43.58425" lon="0.24651">
        <ele>199.7</ele>
        <time>2018-06-02T11:01:33Z</time>
      </trkpt>
      <trkpt lat="43.58424" lon="0.24656">
        <ele>199.5</ele>
        <time>2018-06-02T11:01:35Z</time>
      </trkpt>
      <trkpt lat="43.58423" lon="0.24662">
        <ele>199.2</ele>
        <time>2018-06-02T11:01:38Z</time>
      </trkpt>
      <trkpt lat="43.58422" lon="0.24666">
        <ele>199</ele>
        <time>2018-06-02T11:01:40Z</time>
      </trkpt>
      <trkpt lat="43.58422" lon="0.24668">
        <ele>198.9</ele>
        <time>2018-06-02T11:01:41Z</time>
      </trkpt>
      <trkpt lat="43.58422" lon="0.24672">
        <ele>198.7</ele>
        <time>2018-06-02T11:01:43Z</time>
      </trkpt>
      <trkpt lat="43.58421" lon="0.24676">
        <ele>198.5</ele>
        <time>2018-06-02T11:01:45Z</time>
      </trkpt>
      <trkpt lat="43.58421" lon="0.24682">
        <ele>198.2</ele>
        <time>2018-06-02T11:01:48Z</time>
      </trkpt>
      <trkpt lat="43.5842" lon="0.24688">
        <ele>197.9</ele>
        <time>2018-06-02T11:01:51Z</time>
      </trkpt>
      <trkpt lat="43.58419" lon="0.24691">
        <ele>197.7</ele>
        <time>2018-06-02T11:01:53Z</time>
      </trkpt>
      <trkpt lat="43.58417" lon="0.24697">
        <ele>197.4</ele>
        <time>2018-06-02T11:01:56Z</time>
      </trkpt>
      <trkpt lat="43.58416" lon="0.247">
        <ele>197.2</ele>
        <time>2018-06-02T11:01:58Z</time>
      </trkpt>
      <trkpt lat="43.58414" lon="0.24706">
        <ele>196.9</ele>
        <time>2018-06-02T11:02:01Z</time>
      </trkpt>
      <trkpt lat="43.58413" lon="0.2471">
        <ele>196.7</ele>
        <time>2018-06-02T11:02:03Z</time>
      </trkpt>
      <trkpt lat="43.58412" lon="0.24716">
        <ele>196.4</ele>
        <time>2018-06-02T11:02:06Z</time>
      </trkpt>
      <trkpt lat="43.58411" lon="0.24719">
        <ele>196.1</ele>
        <time>2018-06-02T11:02:08Z</time>
      </trkpt>
      <trkpt lat="43.5841" lon="0.24723">
        <ele>195.8</ele>
        <time>2018-06-02T11:02:10Z</time>
      </trkpt>
      <trkpt lat="43.5841" lon="0.24725">
        <ele>195.7</ele>
        <time>2018-06-02T11:02:11Z</time>
      </trkpt>
      <trkpt lat="43.5841" lon="0.2473">
        <ele>195.3</ele>
        <time>2018-06-02T11:02:14Z</time>
      </trkpt>
      <trkpt lat="43.5841" lon="0.24734">
        <ele>195</ele>
        <time>2018-06-02T11:02:16Z</time>
      </trkpt>
      <trkpt lat="43.5841" lon="0.24739">
        <ele>194.6</ele>
        <time>2018-06-02T11:02:19Z</time>
      </trkpt>
      <trkpt lat="43.5841" lon="0.24742">
        <ele>194.3</ele>
        <time>2018-06-02T11:02:21Z</time>
      </trkpt>
      <trkpt lat="43.58409" lon="0.24748">
        <ele>193.9</ele>
        <time>2018-06-02T11:02:24Z</time>
      </trkpt>
      <trkpt lat="43.58409" lon="0.24752">
        <ele>193.6</ele>
        <time>2018-06-02T11:02:26Z</time>
      </trkpt>
      <trkpt lat="43.58408" lon="0.24757">
        <ele>193.2</ele>
        <time>2018-06-02T11:02:29Z</time>
      </trkpt>
      <trkpt lat="43.58408" lon="0.24759">
        <ele>193.1</ele>
        <time>2018-06-02T11:02:30Z</time>
      </trkpt>
      <trkpt lat="43.58408" lon="0.24761">
        <ele>192.9</ele>
        <time>2018-06-02T11:02:31Z</time>
      </trkpt>
      <trkpt lat="43.58408" lon="0.24766">
        <ele>192.6</ele>
        <time>2018-06-02T11:02:34Z</time>
      </trkpt>
      <trkpt lat="43.58407" lon="0.24772">
        <ele>192.2</ele>
        <time>2018-06-02T11:02:37Z</time>
      </trkpt>
      <trkpt lat="43.58407" lon="0.24775">
        <ele>191.9</ele>
        <time>2018-06-02T11:02:39Z</time>
      </trkpt>
      <trkpt lat="43.58407" lon="0.2478">
        <ele>191.6</ele>
        <time>2018-06-02T11:02:42Z</time>
      </trkpt>
      <trkpt lat="43.58406" lon="0.24784">
        <ele>191.3</ele>
        <time>2018-06-02T11:02:44Z</time>
      </trkpt>
      <trkpt lat="43.58406" lon="0.2479">
        <ele>191</ele>
        <time>2018-06-02T11:02:47Z</time>
      </trkpt>
      <trkpt lat="43.58405" lon="0.24794">
        <ele>190.7</ele>
        <time>2018-06-02T11:02:49Z</time>
      </trkpt>
      <trkpt lat="43.58405" lon="0.24799">
        <ele>190.4</ele>
        <time>2018-06-02T11:02:52Z</time>
      </trkpt>
      <trkpt lat="43.58404" lon="0.24803">
        <ele>190.1</ele>
        <time>2018-06-02T11:02:54Z</time>
      </trkpt>
      <trkpt lat="43.58403" lon="0.24808">
        <ele>189.7</ele>
        <time>2018-06-02T11:02:57Z</time>
      </trkpt>
      <trkpt lat="43.58402" lon="0.24813">
        <ele>189.4</ele>
        <time>2018-06-02T11:03:00Z</time>
      </trkpt>
      <trkpt lat="43.58401" lon="0.24817">
        <ele>189.2</ele>
        <time>2018-06-02T11:03:02Z</time>
      </trkpt>
      <trkpt lat="43.58401" lon="0.24818">
        <ele>189.2</ele>
        <time>2018-06-02T11:03:03Z</time>
      </trkpt>
      <trkpt lat="43.58401" lon="0.24822">
        <ele>189</ele>
        <time>2018-06-02T11:03:05Z</time>
      </trkpt>
      <trkpt lat="43.584" lon="0.24824">
        <ele>188.9</ele>
        <time>2018-06-02T11:03:06Z</time>
      </trkpt>
      <trkpt lat="43.584" lon="0.24826">
        <ele>188.9</ele>
        <time>2018-06-02T11:03:07Z</time>
      </trkpt>
      <trkpt lat="43.58399" lon="0.24832">
        <ele>188.8</ele>
        <time>2018-06-02T11:03:10Z</time>
      </trkpt>
      <trkpt lat="43.58399" lon="0.24836">
        <ele>188.7</ele>
        <time>2018-06-02T11:03:12Z</time>
      </trkpt>
      <trkpt lat="43.58399" lon="0.24838">
        <ele>188.7</ele>
        <time>2018-06-02T11:03:13Z</time>
      </trkpt>
      <trkpt lat="43.58398" lon="0.24841">
        <ele>188.6</ele>
        <time>2018-06-02T11:03:15Z</time>
      </trkpt>
      <trkpt lat="43.58398" lon="0.24845">
        <ele>188.6</ele>
        <time>2018-06-02T11:03:17Z</time>
      </trkpt>
      <trkpt lat="43.58397" lon="0.24851">
        <ele>188.4</ele>
        <time>2018-06-02T11:03:20Z</time>
      </trkpt>
      <trkpt lat="43.58396" lon="0.24856">
        <ele>188.3</ele>
        <time>2018-06-02T11:03:23Z</time>
      </trkpt>
      <trkpt lat="43.58396" lon="0.24861">
        <ele>188.3</ele>
        <time>2018-06-02T11:03:25Z</time>
      </trkpt>
      <trkpt lat="43.58396" lon="0.24867">
        <ele>188.2</ele>
        <time>2018-06-02T11:03:28Z</time>
      </trkpt>
      <trkpt lat="43.58395" lon="0.24871">
        <ele>188.1</ele>
        <time>2018-06-02T11:03:30Z</time>
      </trkpt>
      <trkpt lat="43.58395" lon="0.24875">
        <ele>188</ele>
        <time>2018-06-02T11:03:32Z</time>
      </trkpt>
      <trkpt lat="43.58395" lon="0.24877">
        <ele>188</ele>
        <time>2018-06-02T11:03:33Z</time>
      </trkpt>
      <trkpt lat="43.58394" lon="0.24881">
        <ele>187.9</ele>
        <time>2018-06-02T11:03:35Z</time>
      </trkpt>
      <trkpt lat="43.58394" lon="0.24886">
        <ele>187.8</ele>
        <time>2018-06-02T11:03:38Z</time>
      </trkpt>
      <trkpt lat="43.58393" lon="0.24892">
        <ele>187.7</ele>
        <time>2018-06-02T11:03:41Z</time>
      </trkpt>
      <trkpt lat="43.58392" lon="0.24895">
        <ele>187.6</ele>
        <time>2018-06-02T11:03:43Z</time>
      </trkpt>
      <trkpt lat="43.58393" lon="0.24901">
        <ele>187.5</ele>
        <time>2018-06-02T11:03:46Z</time>
      </trkpt>
      <trkpt lat="43.58393" lon="0.24905">
        <ele>187.4</ele>
        <time>2018-06-02T11:03:48Z</time>
      </trkpt>
      <trkpt lat="43.58393" lon="0.24911">
        <ele>187.3</ele>
        <time>2018-06-02T11:03:51Z</time>
      </trkpt>
      <trkpt lat="43.58393" lon="0.24914">
        <ele>187.3</ele>
        <time>2018-06-02T11:03:53Z</time>
      </trkpt>
      <trkpt lat="43.58393" lon="0.24918">
        <ele>187.1</ele>
        <time>2018-06-02T11:03:56Z</time>
      </trkpt>
      <trkpt lat="43.58393" lon="0.2492">
        <ele>187.1</ele>
        <time>2018-06-02T11:03:58Z</time>
      </trkpt>
      <trkpt lat="43.58392" lon="0.24923">
        <ele>187</ele>
        <time>2018-06-02T11:04:01Z</time>
      </trkpt>
      <trkpt lat="43.58392" lon="0.24927">
        <ele>186.9</ele>
        <time>2018-06-02T11:04:04Z</time>
      </trkpt>
      <trkpt lat="43.58392" lon="0.24928">
        <ele>186.8</ele>
        <time>2018-06-02T11:04:05Z</time>
      </trkpt>
      <trkpt lat="43.58392" lon="0.24929">
        <ele>186.8</ele>
        <time>2018-06-02T11:04:06Z</time>
      </trkpt>
      <trkpt lat="43.58392" lon="0.24932">
        <ele>186.7</ele>
        <time>2018-06-02T11:04:09Z</time>
      </trkpt>
      <trkpt lat="43.58391" lon="0.24935">
        <ele>186.6</ele>
        <time>2018-06-02T11:04:12Z</time>
      </trkpt>
      <trkpt lat="43.58391" lon="0.24938">
        <ele>186.5</ele>
        <time>2018-06-02T11:04:14Z</time>
      </trkpt>
      <trkpt lat="43.58391" lon="0.24941">
        <ele>186.4</ele>
        <time>2018-06-02T11:04:17Z</time>
      </trkpt>
      <trkpt lat="43.5839" lon="0.24943">
        <ele>186.3</ele>
        <time>2018-06-02T11:04:19Z</time>
      </trkpt>
      <trkpt lat="43.5839" lon="0.24945">
        <ele>186.2</ele>
        <time>2018-06-02T11:04:21Z</time>
      </trkpt>
      <trkpt lat="43.5839" lon="0.24947">
        <ele>186.2</ele>
        <time>2018-06-02T11:04:23Z</time>
      </trkpt>
      <trkpt lat="43.5839" lon="0.2495">
        <ele>186.1</ele>
        <time>2018-06-02T11:04:24Z</time>
      </trkpt>
      <trkpt lat="43.5839" lon="0.24956">
        <ele>186</ele>
        <time>2018-06-02T11:04:27Z</time>
      </trkpt>
      <trkpt lat="43.58391" lon="0.2496">
        <ele>186</ele>
        <time>2018-06-02T11:04:29Z</time>
      </trkpt>
      <trkpt lat="43.58391" lon="0.24963">
        <ele>185.9</ele>
        <time>2018-06-02T11:04:30Z</time>
      </trkpt>
      <trkpt lat="43.58391" lon="0.24967">
        <ele>185.8</ele>
        <time>2018-06-02T11:04:32Z</time>
      </trkpt>
      <trkpt lat="43.58391" lon="0.24971">
        <ele>185.7</ele>
        <time>2018-06-02T11:04:34Z</time>
      </trkpt>
      <trkpt lat="43.58391" lon="0.24977">
        <ele>185.5</ele>
        <time>2018-06-02T11:04:37Z</time>
      </trkpt>
      <trkpt lat="43.58391" lon="0.24981">
        <ele>185.3</ele>
        <time>2018-06-02T11:04:39Z</time>
      </trkpt>
      <trkpt lat="43.58391" lon="0.24987">
        <ele>185.2</ele>
        <time>2018-06-02T11:04:42Z</time>
      </trkpt>
      <trkpt lat="43.58391" lon="0.24991">
        <ele>185</ele>
        <time>2018-06-02T11:04:44Z</time>
      </trkpt>
      <trkpt lat="43.5839" lon="0.24998">
        <ele>184.8</ele>
        <time>2018-06-02T11:04:47Z</time>
      </trkpt>
      <trkpt lat="43.58389" lon="0.25004">
        <ele>184.7</ele>
        <time>2018-06-02T11:04:50Z</time>
      </trkpt>
      <trkpt lat="43.58388" lon="0.25006">
        <ele>184.6</ele>
        <time>2018-06-02T11:04:51Z</time>
      </trkpt>
      <trkpt lat="43.58388" lon="0.25008">
        <ele>184.5</ele>
        <time>2018-06-02T11:04:52Z</time>
      </trkpt>
      <trkpt lat="43.58388" lon="0.25014">
        <ele>184.3</ele>
        <time>2018-06-02T11:04:55Z</time>
      </trkpt>
      <trkpt lat="43.58388" lon="0.25018">
        <ele>184.2</ele>
        <time>2018-06-02T11:04:57Z</time>
      </trkpt>
      <trkpt lat="43.58387" lon="0.25024">
        <ele>184</ele>
        <time>2018-06-02T11:05:00Z</time>
      </trkpt>
      <trkpt lat="43.58387" lon="0.25026">
        <ele>184</ele>
        <time>2018-06-02T11:05:01Z</time>
      </trkpt>
      <trkpt lat="43.58387" lon="0.25027">
        <ele>183.9</ele>
        <time>2018-06-02T11:05:02Z</time>
      </trkpt>
      <trkpt lat="43.58387" lon="0.25033">
        <ele>183.7</ele>
        <time>2018-06-02T11:05:05Z</time>
      </trkpt>
      <trkpt lat="43.58386" lon="0.25037">
        <ele>183.6</ele>
        <time>2018-06-02T11:05:07Z</time>
      </trkpt>
      <trkpt lat="43.58386" lon="0.25042">
        <ele>183.4</ele>
        <time>2018-06-02T11:05:10Z</time>
      </trkpt>
      <trkpt lat="43.58386" lon="0.25046">
        <ele>183.3</ele>
        <time>2018-06-02T11:05:12Z</time>
      </trkpt>
      <trkpt lat="43.58386" lon="0.25048">
        <ele>183.2</ele>
        <time>2018-06-02T11:05:13Z</time>
      </trkpt>
      <trkpt lat="43.58386" lon="0.25052">
        <ele>183.1</ele>
        <time>2018-06-02T11:05:15Z</time>
      </trkpt>
      <trkpt lat="43.58385" lon="0.25058">
        <ele>182.9</ele>
        <time>2018-06-02T11:05:18Z</time>
      </trkpt>
      <trkpt lat="43.58385" lon="0.25063">
        <ele>182.6</ele>
        <time>2018-06-02T11:05:20Z</time>
      </trkpt>
      <trkpt lat="43.58385" lon="0.25065">
        <ele>182.5</ele>
        <time>2018-06-02T11:05:21Z</time>
      </trkpt>
      <trkpt lat="43.58385" lon="0.25069">
        <ele>182.3</ele>
        <time>2018-06-02T11:05:23Z</time>
      </trkpt>
      <trkpt lat="43.58386" lon="0.25073">
        <ele>182</ele>
        <time>2018-06-02T11:05:25Z</time>
      </trkpt>
      <trkpt lat="43.58386" lon="0.25079">
        <ele>181.6</ele>
        <time>2018-06-02T11:05:28Z</time>
      </trkpt>
      <trkpt lat="43.58387" lon="0.25083">
        <ele>181.4</ele>
        <time>2018-06-02T11:05:30Z</time>
      </trkpt>
      <trkpt lat="43.58388" lon="0.2509">
        <ele>181</ele>
        <time>2018-06-02T11:05:33Z</time>
      </trkpt>
      <trkpt lat="43.58389" lon="0.25096">
        <ele>180.6</ele>
        <time>2018-06-02T11:05:36Z</time>
      </trkpt>
      <trkpt lat="43.5839" lon="0.251">
        <ele>180.4</ele>
        <time>2018-06-02T11:05:38Z</time>
      </trkpt>
      <trkpt lat="43.5839" lon="0.25102">
        <ele>180.3</ele>
        <time>2018-06-02T11:05:39Z</time>
      </trkpt>
      <trkpt lat="43.5839" lon="0.25105">
        <ele>180</ele>
        <time>2018-06-02T11:05:41Z</time>
      </trkpt>
      <trkpt lat="43.58391" lon="0.25109">
        <ele>179.8</ele>
        <time>2018-06-02T11:05:43Z</time>
      </trkpt>
      <trkpt lat="43.58391" lon="0.25114">
        <ele>179.4</ele>
        <time>2018-06-02T11:05:46Z</time>
      </trkpt>
      <trkpt lat="43.58392" lon="0.25117">
        <ele>179.2</ele>
        <time>2018-06-02T11:05:48Z</time>
      </trkpt>
      <trkpt lat="43.58392" lon="0.25121">
        <ele>179</ele>
        <time>2018-06-02T11:05:50Z</time>
      </trkpt>
      <trkpt lat="43.58392" lon="0.25122">
        <ele>178.9</ele>
        <time>2018-06-02T11:05:51Z</time>
      </trkpt>
      <trkpt lat="43.58393" lon="0.25126">
        <ele>178.8</ele>
        <time>2018-06-02T11:05:53Z</time>
      </trkpt>
      <trkpt lat="43.58393" lon="0.25131">
        <ele>178.6</ele>
        <time>2018-06-02T11:05:56Z</time>
      </trkpt>
      <trkpt lat="43.58394" lon="0.25136">
        <ele>178.4</ele>
        <time>2018-06-02T11:05:59Z</time>
      </trkpt>
      <trkpt lat="43.58394" lon="0.25139">
        <ele>178.2</ele>
        <time>2018-06-02T11:06:01Z</time>
      </trkpt>
      <trkpt lat="43.58395" lon="0.25145">
        <ele>178</ele>
        <time>2018-06-02T11:06:04Z</time>
      </trkpt>
      <trkpt lat="43.58396" lon="0.25148">
        <ele>177.9</ele>
        <time>2018-06-02T11:06:06Z</time>
      </trkpt>
      <trkpt lat="43.58397" lon="0.25154">
        <ele>177.6</ele>
        <time>2018-06-02T11:06:09Z</time>
      </trkpt>
      <trkpt lat="43.58397" lon="0.25158">
        <ele>177.5</ele>
        <time>2018-06-02T11:06:11Z</time>
      </trkpt>
      <trkpt lat="43.58397" lon="0.25163">
        <ele>177.3</ele>
        <time>2018-06-02T11:06:14Z</time>
      </trkpt>
      <trkpt lat="43.58396" lon="0.25166">
        <ele>177.1</ele>
        <time>2018-06-02T11:06:16Z</time>
      </trkpt>
      <trkpt lat="43.58396" lon="0.25171">
        <ele>176.9</ele>
        <time>2018-06-02T11:06:19Z</time>
      </trkpt>
      <trkpt lat="43.58396" lon="0.25176">
        <ele>176.7</ele>
        <time>2018-06-02T11:06:22Z</time>
      </trkpt>
      <trkpt lat="43.58395" lon="0.2518">
        <ele>176.6</ele>
        <time>2018-06-02T11:06:24Z</time>
      </trkpt>
      <trkpt lat="43.58395" lon="0.25185">
        <ele>176.4</ele>
        <time>2018-06-02T11:06:27Z</time>
      </trkpt>
      <trkpt lat="43.58395" lon="0.25188">
        <ele>176.2</ele>
        <time>2018-06-02T11:06:29Z</time>
      </trkpt>
      <trkpt lat="43.58395" lon="0.2519">
        <ele>176.2</ele>
        <time>2018-06-02T11:06:30Z</time>
      </trkpt>
      <trkpt lat="43.58394" lon="0.25193">
        <ele>176.1</ele>
        <time>2018-06-02T11:06:32Z</time>
      </trkpt>
      <trkpt lat="43.58394" lon="0.25195">
        <ele>176</ele>
        <time>2018-06-02T11:06:33Z</time>
      </trkpt>
      <trkpt lat="43.58393" lon="0.25196">
        <ele>176</ele>
        <time>2018-06-02T11:06:34Z</time>
      </trkpt>
      <trkpt lat="43.58392" lon="0.25201">
        <ele>175.9</ele>
        <time>2018-06-02T11:06:37Z</time>
      </trkpt>
      <trkpt lat="43.58391" lon="0.25204">
        <ele>175.8</ele>
        <time>2018-06-02T11:06:39Z</time>
      </trkpt>
      <trkpt lat="43.58389" lon="0.25209">
        <ele>175.7</ele>
        <time>2018-06-02T11:06:42Z</time>
      </trkpt>
      <trkpt lat="43.58387" lon="0.25213">
        <ele>175.6</ele>
        <time>2018-06-02T11:06:45Z</time>
      </trkpt>
      <trkpt lat="43.58386" lon="0.25216">
        <ele>175.5</ele>
        <time>2018-06-02T11:06:47Z</time>
      </trkpt>
      <trkpt lat="43.58385" lon="0.25221">
        <ele>175.4</ele>
        <time>2018-06-02T11:06:50Z</time>
      </trkpt>
      <trkpt lat="43.58384" lon="0.25225">
        <ele>175.3</ele>
        <time>2018-06-02T11:06:52Z</time>
      </trkpt>
      <trkpt lat="43.58383" lon="0.25229">
        <ele>175.2</ele>
        <time>2018-06-02T11:06:55Z</time>
      </trkpt>
      <trkpt lat="43.58383" lon="0.25231">
        <ele>175.2</ele>
        <time>2018-06-02T11:06:56Z</time>
      </trkpt>
      <trkpt lat="43.58382" lon="0.25233">
        <ele>175.2</ele>
        <time>2018-06-02T11:06:57Z</time>
      </trkpt>
      <trkpt lat="43.58382" lon="0.25239">
        <ele>175</ele>
        <time>2018-06-02T11:07:00Z</time>
      </trkpt>
      <trkpt lat="43.58382" lon="0.25242">
        <ele>175</ele>
        <time>2018-06-02T11:07:02Z</time>
      </trkpt>
      <trkpt lat="43.58381" lon="0.25248">
        <ele>174.9</ele>
        <time>2018-06-02T11:07:05Z</time>
      </trkpt>
      <trkpt lat="43.58381" lon="0.2525">
        <ele>174.8</ele>
        <time>2018-06-02T11:07:06Z</time>
      </trkpt>
      <trkpt lat="43.5838" lon="0.25253">
        <ele>174.7</ele>
        <time>2018-06-02T11:07:08Z</time>
      </trkpt>
      <trkpt lat="43.58379" lon="0.25256">
        <ele>174.7</ele>
        <time>2018-06-02T11:07:10Z</time>
      </trkpt>
      <trkpt lat="43.58378" lon="0.2526">
        <ele>174.6</ele>
        <time>2018-06-02T11:07:13Z</time>
      </trkpt>
      <trkpt lat="43.58377" lon="0.25263">
        <ele>174.5</ele>
        <time>2018-06-02T11:07:15Z</time>
      </trkpt>
      <trkpt lat="43.58376" lon="0.25267">
        <ele>174.4</ele>
        <time>2018-06-02T11:07:18Z</time>
      </trkpt>
      <trkpt lat="43.58375" lon="0.2527">
        <ele>174.3</ele>
        <time>2018-06-02T11:07:20Z</time>
      </trkpt>
      <trkpt lat="43.58374" lon="0.25275">
        <ele>174.2</ele>
        <time>2018-06-02T11:07:23Z</time>
      </trkpt>
      <trkpt lat="43.58373" lon="0.25278">
        <ele>174.1</ele>
        <time>2018-06-02T11:07:25Z</time>
      </trkpt>
      <trkpt lat="43.58372" lon="0.25282">
        <ele>174</ele>
        <time>2018-06-02T11:07:28Z</time>
      </trkpt>
      <trkpt lat="43.58371" lon="0.25285">
        <ele>173.9</ele>
        <time>2018-06-02T11:07:30Z</time>
      </trkpt>
      <trkpt lat="43.58371" lon="0.25287">
        <ele>173.9</ele>
        <time>2018-06-02T11:07:31Z</time>
      </trkpt>
      <trkpt lat="43.58369" lon="0.25291">
        <ele>173.8</ele>
        <time>2018-06-02T11:07:33Z</time>
      </trkpt>
      <trkpt lat="43.58367" lon="0.25296">
        <ele>173.7</ele>
        <time>2018-06-02T11:07:36Z</time>
      </trkpt>
      <trkpt lat="43.58366" lon="0.25299">
        <ele>173.6</ele>
        <time>2018-06-02T11:07:38Z</time>
      </trkpt>
      <trkpt lat="43.58364" lon="0.25303">
        <ele>173.6</ele>
        <time>2018-06-02T11:07:40Z</time>
      </trkpt>
      <trkpt lat="43.58364" lon="0.25305">
        <ele>173.5</ele>
        <time>2018-06-02T11:07:41Z</time>
      </trkpt>
      <trkpt lat="43.58363" lon="0.25309">
        <ele>173.4</ele>
        <time>2018-06-02T11:07:43Z</time>
      </trkpt>
      <trkpt lat="43.58362" lon="0.25316">
        <ele>173.3</ele>
        <time>2018-06-02T11:07:46Z</time>
      </trkpt>
      <trkpt lat="43.58362" lon="0.2532">
        <ele>173.3</ele>
        <time>2018-06-02T11:07:48Z</time>
      </trkpt>
      <trkpt lat="43.58361" lon="0.25322">
        <ele>173.2</ele>
        <time>2018-06-02T11:07:49Z</time>
      </trkpt>
      <trkpt lat="43.5836" lon="0.25325">
        <ele>173.2</ele>
        <time>2018-06-02T11:07:51Z</time>
      </trkpt>
      <trkpt lat="43.58358" lon="0.25329">
        <ele>173</ele>
        <time>2018-06-02T11:07:54Z</time>
      </trkpt>
      <trkpt lat="43.58356" lon="0.25332">
        <ele>172.8</ele>
        <time>2018-06-02T11:07:56Z</time>
      </trkpt>
      <trkpt lat="43.58354" lon="0.25337">
        <ele>172.4</ele>
        <time>2018-06-02T11:07:59Z</time>
      </trkpt>
      <trkpt lat="43.58353" lon="0.25338">
        <ele>172.2</ele>
        <time>2018-06-02T11:08:00Z</time>
      </trkpt>
      <trkpt lat="43.58353" lon="0.2534">
        <ele>172.1</ele>
        <time>2018-06-02T11:08:01Z</time>
      </trkpt>
      <trkpt lat="43.58352" lon="0.25344">
        <ele>171.7</ele>
        <time>2018-06-02T11:08:04Z</time>
      </trkpt>
      <trkpt lat="43.58351" lon="0.25347">
        <ele>171.4</ele>
        <time>2018-06-02T11:08:06Z</time>
      </trkpt>
      <trkpt lat="43.58351" lon="0.25352">
        <ele>171.1</ele>
        <time>2018-06-02T11:08:09Z</time>
      </trkpt>
      <trkpt lat="43.5835" lon="0.25355">
        <ele>170.8</ele>
        <time>2018-06-02T11:08:11Z</time>
      </trkpt>
      <trkpt lat="43.5835" lon="0.25356">
        <ele>170.7</ele>
        <time>2018-06-02T11:08:12Z</time>
      </trkpt>
      <trkpt lat="43.58349" lon="0.25359">
        <ele>170.4</ele>
        <time>2018-06-02T11:08:14Z</time>
      </trkpt>
      <trkpt lat="43.58347" lon="0.25364">
        <ele>170</ele>
        <time>2018-06-02T11:08:17Z</time>
      </trkpt>
      <trkpt lat="43.58346" lon="0.25367">
        <ele>169.7</ele>
        <time>2018-06-02T11:08:19Z</time>
      </trkpt>
      <trkpt lat="43.58345" lon="0.25371">
        <ele>169.3</ele>
        <time>2018-06-02T11:08:22Z</time>
      </trkpt>
      <trkpt lat="43.58344" lon="0.25374">
        <ele>169</ele>
        <time>2018-06-02T11:08:24Z</time>
      </trkpt>
      <trkpt lat="43.58343" lon="0.25375">
        <ele>168.8</ele>
        <time>2018-06-02T11:08:25Z</time>
      </trkpt>
      <trkpt lat="43.58343" lon="0.25379">
        <ele>168.5</ele>
        <time>2018-06-02T11:08:27Z</time>
      </trkpt>
      <trkpt lat="43.58342" lon="0.25383">
        <ele>168.1</ele>
        <time>2018-06-02T11:08:29Z</time>
      </trkpt>
      <trkpt lat="43.58341" lon="0.25389">
        <ele>167.6</ele>
        <time>2018-06-02T11:08:32Z</time>
      </trkpt>
      <trkpt lat="43.58341" lon="0.25393">
        <ele>167.3</ele>
        <time>2018-06-02T11:08:34Z</time>
      </trkpt>
      <trkpt lat="43.5834" lon="0.25395">
        <ele>167.1</ele>
        <time>2018-06-02T11:08:35Z</time>
      </trkpt>
      <trkpt lat="43.58338" lon="0.25398">
        <ele>166.7</ele>
        <time>2018-06-02T11:08:37Z</time>
      </trkpt>
      <trkpt lat="43.58335" lon="0.25404">
        <ele>166.2</ele>
        <time>2018-06-02T11:08:40Z</time>
      </trkpt>
      <trkpt lat="43.58332" lon="0.25407">
        <ele>165.9</ele>
        <time>2018-06-02T11:08:42Z</time>
      </trkpt>
      <trkpt lat="43.58331" lon="0.25409">
        <ele>165.7</ele>
        <time>2018-06-02T11:08:43Z</time>
      </trkpt>
      <trkpt lat="43.58331" lon="0.25412">
        <ele>165.5</ele>
        <time>2018-06-02T11:08:45Z</time>
      </trkpt>
      <trkpt lat="43.58331" lon="0.25415">
        <ele>165.2</ele>
        <time>2018-06-02T11:08:47Z</time>
      </trkpt>
      <trkpt lat="43.58331" lon="0.2542">
        <ele>164.8</ele>
        <time>2018-06-02T11:08:50Z</time>
      </trkpt>
      <trkpt lat="43.58331" lon="0.25423">
        <ele>164.5</ele>
        <time>2018-06-02T11:08:52Z</time>
      </trkpt>
      <trkpt lat="43.58331" lon="0.25427">
        <ele>164.1</ele>
        <time>2018-06-02T11:08:55Z</time>
      </trkpt>
      <trkpt lat="43.58331" lon="0.25429">
        <ele>163.9</ele>
        <time>2018-06-02T11:08:56Z</time>
      </trkpt>
      <trkpt lat="43.58331" lon="0.25433">
        <ele>163.7</ele>
        <time>2018-06-02T11:08:58Z</time>
      </trkpt>
      <trkpt lat="43.58331" lon="0.25437">
        <ele>163.4</ele>
        <time>2018-06-02T11:09:00Z</time>
      </trkpt>
      <trkpt lat="43.58331" lon="0.25443">
        <ele>163</ele>
        <time>2018-06-02T11:09:03Z</time>
      </trkpt>
      <trkpt lat="43.58332" lon="0.25447">
        <ele>162.7</ele>
        <time>2018-06-02T11:09:05Z</time>
      </trkpt>
      <trkpt lat="43.58332" lon="0.25449">
        <ele>162.5</ele>
        <time>2018-06-02T11:09:06Z</time>
      </trkpt>
      <trkpt lat="43.58331" lon="0.25452">
        <ele>162.3</ele>
        <time>2018-06-02T11:09:08Z</time>
      </trkpt>
      <trkpt lat="43.58331" lon="0.25454">
        <ele>162.1</ele>
        <time>2018-06-02T11:09:09Z</time>
      </trkpt>
      <trkpt lat="43.58331" lon="0.25455">
        <ele>162</ele>
        <time>2018-06-02T11:09:10Z</time>
      </trkpt>
      <trkpt lat="43.5833" lon="0.2546">
        <ele>161.5</ele>
        <time>2018-06-02T11:09:13Z</time>
      </trkpt>
      <trkpt lat="43.5833" lon="0.25463">
        <ele>161.3</ele>
        <time>2018-06-02T11:09:15Z</time>
      </trkpt>
      <trkpt lat="43.58329" lon="0.25468">
        <ele>160.8</ele>
        <time>2018-06-02T11:09:18Z</time>
      </trkpt>
      <trkpt lat="43.58328" lon="0.25474">
        <ele>160.4</ele>
        <time>2018-06-02T11:09:21Z</time>
      </trkpt>
      <trkpt lat="43.58328" lon="0.25477">
        <ele>160.1</ele>
        <time>2018-06-02T11:09:23Z</time>
      </trkpt>
      <trkpt lat="43.58327" lon="0.25482">
        <ele>159.7</ele>
        <time>2018-06-02T11:09:26Z</time>
      </trkpt>
      <trkpt lat="43.58326" lon="0.25486">
        <ele>159.4</ele>
        <time>2018-06-02T11:09:28Z</time>
      </trkpt>
      <trkpt lat="43.58326" lon="0.25487">
        <ele>159.3</ele>
        <time>2018-06-02T11:09:29Z</time>
      </trkpt>
      <trkpt lat="43.58326" lon="0.25492">
        <ele>159</ele>
        <time>2018-06-02T11:09:31Z</time>
      </trkpt>
      <trkpt lat="43.58325" lon="0.25497">
        <ele>158.7</ele>
        <time>2018-06-02T11:09:33Z</time>
      </trkpt>
      <trkpt lat="43.58324" lon="0.25504">
        <ele>158.5</ele>
        <time>2018-06-02T11:09:36Z</time>
      </trkpt>
      <trkpt lat="43.58324" lon="0.25506">
        <ele>158.4</ele>
        <time>2018-06-02T11:09:37Z</time>
      </trkpt>
      <trkpt lat="43.58323" lon="0.25509">
        <ele>158.3</ele>
        <time>2018-06-02T11:09:38Z</time>
      </trkpt>
      <trkpt lat="43.58322" lon="0.25518">
        <ele>158</ele>
        <time>2018-06-02T11:09:41Z</time>
      </trkpt>
      <trkpt lat="43.5832" lon="0.25528">
        <ele>157.7</ele>
        <time>2018-06-02T11:09:44Z</time>
      </trkpt>
      <trkpt lat="43.58319" lon="0.2553">
        <ele>157.7</ele>
        <time>2018-06-02T11:09:45Z</time>
      </trkpt>
      <trkpt lat="43.58318" lon="0.25531">
        <ele>157.6</ele>
        <time>2018-06-02T11:09:46Z</time>
      </trkpt>
      <trkpt lat="43.58316" lon="0.25534">
        <ele>157.3</ele>
        <time>2018-06-02T11:09:49Z</time>
      </trkpt>
      <trkpt lat="43.58314" lon="0.25536">
        <ele>157.1</ele>
        <time>2018-06-02T11:09:51Z</time>
      </trkpt>
      <trkpt lat="43.58312" lon="0.25539">
        <ele>156.8</ele>
        <time>2018-06-02T11:09:54Z</time>
      </trkpt>
      <trkpt lat="43.5831" lon="0.25541">
        <ele>156.7</ele>
        <time>2018-06-02T11:09:56Z</time>
      </trkpt>
      <trkpt lat="43.58309" lon="0.25543">
        <ele>156.5</ele>
        <time>2018-06-02T11:09:58Z</time>
      </trkpt>
      <trkpt lat="43.58308" lon="0.25544">
        <ele>156.4</ele>
        <time>2018-06-02T11:09:59Z</time>
      </trkpt>
      <trkpt lat="43.58305" lon="0.25547">
        <ele>156.2</ele>
        <time>2018-06-02T11:10:01Z</time>
      </trkpt>
      <trkpt lat="43.58303" lon="0.2555">
        <ele>156.1</ele>
        <time>2018-06-02T11:10:03Z</time>
      </trkpt>
      <trkpt lat="43.58302" lon="0.25552">
        <ele>156.1</ele>
        <time>2018-06-02T11:10:04Z</time>
      </trkpt>
      <trkpt lat="43.58299" lon="0.25556">
        <ele>156.1</ele>
        <time>2018-06-02T11:10:07Z</time>
      </trkpt>
      <trkpt lat="43.58299" lon="0.25558">
        <ele>156.2</ele>
        <time>2018-06-02T11:10:08Z</time>
      </trkpt>
      <trkpt lat="43.58298" lon="0.2556">
        <ele>156.2</ele>
        <time>2018-06-02T11:10:09Z</time>
      </trkpt>
      <trkpt lat="43.58297" lon="0.25565">
        <ele>156.2</ele>
        <time>2018-06-02T11:10:12Z</time>
      </trkpt>
      <trkpt lat="43.58297" lon="0.25569">
        <ele>156.3</ele>
        <time>2018-06-02T11:10:14Z</time>
      </trkpt>
      <trkpt lat="43.58296" lon="0.25575">
        <ele>156.3</ele>
        <time>2018-06-02T11:10:17Z</time>
      </trkpt>
      <trkpt lat="43.58295" lon="0.25577">
        <ele>156.3</ele>
        <time>2018-06-02T11:10:18Z</time>
      </trkpt>
      <trkpt lat="43.58296" lon="0.25579">
        <ele>156.4</ele>
        <time>2018-06-02T11:10:19Z</time>
      </trkpt>
      <trkpt lat="43.58297" lon="0.25585">
        <ele>156.4</ele>
        <time>2018-06-02T11:10:22Z</time>
      </trkpt>
      <trkpt lat="43.58298" lon="0.25589">
        <ele>156.4</ele>
        <time>2018-06-02T11:10:24Z</time>
      </trkpt>
      <trkpt lat="43.58299" lon="0.25595">
        <ele>156.5</ele>
        <time>2018-06-02T11:10:27Z</time>
      </trkpt>
      <trkpt lat="43.583" lon="0.25601">
        <ele>156.6</ele>
        <time>2018-06-02T11:10:30Z</time>
      </trkpt>
      <trkpt lat="43.583" lon="0.25605">
        <ele>156.6</ele>
        <time>2018-06-02T11:10:32Z</time>
      </trkpt>
      <trkpt lat="43.58301" lon="0.25611">
        <ele>156.6</ele>
        <time>2018-06-02T11:10:35Z</time>
      </trkpt>
      <trkpt lat="43.58302" lon="0.25615">
        <ele>156.7</ele>
        <time>2018-06-02T11:10:37Z</time>
      </trkpt>
      <trkpt lat="43.58302" lon="0.25621">
        <ele>156.7</ele>
        <time>2018-06-02T11:10:40Z</time>
      </trkpt>
      <trkpt lat="43.58303" lon="0.25626">
        <ele>156.8</ele>
        <time>2018-06-02T11:10:42Z</time>
      </trkpt>
      <trkpt lat="43.58303" lon="0.25632">
        <ele>156.8</ele>
        <time>2018-06-02T11:10:45Z</time>
      </trkpt>
      <trkpt lat="43.58303" lon="0.25634">
        <ele>156.8</ele>
        <time>2018-06-02T11:10:46Z</time>
      </trkpt>
      <trkpt lat="43.58304" lon="0.25635">
        <ele>156.9</ele>
        <time>2018-06-02T11:10:47Z</time>
      </trkpt>
      <trkpt lat="43.58304" lon="0.25638">
        <ele>156.9</ele>
        <time>2018-06-02T11:10:50Z</time>
      </trkpt>
      <trkpt lat="43.58305" lon="0.25642">
        <ele>157</ele>
        <time>2018-06-02T11:10:53Z</time>
      </trkpt>
      <trkpt lat="43.58305" lon="0.25644">
        <ele>157</ele>
        <time>2018-06-02T11:10:55Z</time>
      </trkpt>
      <trkpt lat="43.58306" lon="0.25648">
        <ele>157</ele>
        <time>2018-06-02T11:10:58Z</time>
      </trkpt>
      <trkpt lat="43.58306" lon="0.2565">
        <ele>157.1</ele>
        <time>2018-06-02T11:11:00Z</time>
      </trkpt>
      <trkpt lat="43.58307" lon="0.25652">
        <ele>157.1</ele>
        <time>2018-06-02T11:11:02Z</time>
      </trkpt>
      <trkpt lat="43.58307" lon="0.25654">
        <ele>157.1</ele>
        <time>2018-06-02T11:11:03Z</time>
      </trkpt>
      <trkpt lat="43.58307" lon="0.25658">
        <ele>157.2</ele>
        <time>2018-06-02T11:11:05Z</time>
      </trkpt>
      <trkpt lat="43.58307" lon="0.25664">
        <ele>157.2</ele>
        <time>2018-06-02T11:11:08Z</time>
      </trkpt>
      <trkpt lat="43.58307" lon="0.25668">
        <ele>157.3</ele>
        <time>2018-06-02T11:11:10Z</time>
      </trkpt>
      <trkpt lat="43.58307" lon="0.25672">
        <ele>157.3</ele>
        <time>2018-06-02T11:11:12Z</time>
      </trkpt>
      <trkpt lat="43.58308" lon="0.25674">
        <ele>157.3</ele>
        <time>2018-06-02T11:11:13Z</time>
      </trkpt>
      <trkpt lat="43.58309" lon="0.2568">
        <ele>157.4</ele>
        <time>2018-06-02T11:11:16Z</time>
      </trkpt>
      <trkpt lat="43.58309" lon="0.25685">
        <ele>157.4</ele>
        <time>2018-06-02T11:11:18Z</time>
      </trkpt>
      <trkpt lat="43.5831" lon="0.25691">
        <ele>157.5</ele>
        <time>2018-06-02T11:11:21Z</time>
      </trkpt>
      <trkpt lat="43.58311" lon="0.25696">
        <ele>157.5</ele>
        <time>2018-06-02T11:11:23Z</time>
      </trkpt>
      <trkpt lat="43.58312" lon="0.25702">
        <ele>157.5</ele>
        <time>2018-06-02T11:11:26Z</time>
      </trkpt>
      <trkpt lat="43.58313" lon="0.25706">
        <ele>157.6</ele>
        <time>2018-06-02T11:11:28Z</time>
      </trkpt>
      <trkpt lat="43.58314" lon="0.2571">
        <ele>157.6</ele>
        <time>2018-06-02T11:11:30Z</time>
      </trkpt>
      <trkpt lat="43.58314" lon="0.25712">
        <ele>157.6</ele>
        <time>2018-06-02T11:11:31Z</time>
      </trkpt>
      <trkpt lat="43.58315" lon="0.25716">
        <ele>157.7</ele>
        <time>2018-06-02T11:11:33Z</time>
      </trkpt>
      <trkpt lat="43.58315" lon="0.25721">
        <ele>157.7</ele>
        <time>2018-06-02T11:11:36Z</time>
      </trkpt>
      <trkpt lat="43.58316" lon="0.25726">
        <ele>157.8</ele>
        <time>2018-06-02T11:11:39Z</time>
      </trkpt>
      <trkpt lat="43.58316" lon="0.25729">
        <ele>157.8</ele>
        <time>2018-06-02T11:11:41Z</time>
      </trkpt>
      <trkpt lat="43.58316" lon="0.25734">
        <ele>157.9</ele>
        <time>2018-06-02T11:11:44Z</time>
      </trkpt>
      <trkpt lat="43.58316" lon="0.25737">
        <ele>157.9</ele>
        <time>2018-06-02T11:11:46Z</time>
      </trkpt>
      <trkpt lat="43.58315" lon="0.25743">
        <ele>158</ele>
        <time>2018-06-02T11:11:49Z</time>
      </trkpt>
      <trkpt lat="43.58315" lon="0.25746">
        <ele>158</ele>
        <time>2018-06-02T11:11:51Z</time>
      </trkpt>
      <trkpt lat="43.58315" lon="0.25747">
        <ele>158</ele>
        <time>2018-06-02T11:11:52Z</time>
      </trkpt>
      <trkpt lat="43.58313" lon="0.25747">
        <ele>158</ele>
        <time>2018-06-02T11:11:54Z</time>
      </trkpt>
      <trkpt lat="43.58312" lon="0.25748">
        <ele>158.1</ele>
        <time>2018-06-02T11:11:56Z</time>
      </trkpt>
      <trkpt lat="43.58309" lon="0.25748">
        <ele>158.1</ele>
        <time>2018-06-02T11:11:59Z</time>
      </trkpt>
      <trkpt lat="43.58307" lon="0.25748">
        <ele>158.2</ele>
        <time>2018-06-02T11:12:02Z</time>
      </trkpt>
      <trkpt lat="43.58305" lon="0.25749">
        <ele>158.2</ele>
        <time>2018-06-02T11:12:04Z</time>
      </trkpt>
      <trkpt lat="43.58303" lon="0.25749">
        <ele>158.3</ele>
        <time>2018-06-02T11:12:07Z</time>
      </trkpt>
      <trkpt lat="43.58301" lon="0.25749">
        <ele>158.3</ele>
        <time>2018-06-02T11:12:09Z</time>
      </trkpt>
      <trkpt lat="43.583" lon="0.2575">
        <ele>158.3</ele>
        <time>2018-06-02T11:12:10Z</time>
      </trkpt>
      <trkpt lat="43.58297" lon="0.25752">
        <ele>158.4</ele>
        <time>2018-06-02T11:12:12Z</time>
      </trkpt>
      <trkpt lat="43.58294" lon="0.25755">
        <ele>158.4</ele>
        <time>2018-06-02T11:12:14Z</time>
      </trkpt>
      <trkpt lat="43.5829" lon="0.25758">
        <ele>158.5</ele>
        <time>2018-06-02T11:12:17Z</time>
      </trkpt>
      <trkpt lat="43.58288" lon="0.25761">
        <ele>158.5</ele>
        <time>2018-06-02T11:12:19Z</time>
      </trkpt>
      <trkpt lat="43.58284" lon="0.25764">
        <ele>158.5</ele>
        <time>2018-06-02T11:12:22Z</time>
      </trkpt>
      <trkpt lat="43.5828" lon="0.25767">
        <ele>158.6</ele>
        <time>2018-06-02T11:12:25Z</time>
      </trkpt>
      <trkpt lat="43.58278" lon="0.25768">
        <ele>158.6</ele>
        <time>2018-06-02T11:12:27Z</time>
      </trkpt>
      <trkpt lat="43.58275" lon="0.2577">
        <ele>158.7</ele>
        <time>2018-06-02T11:12:29Z</time>
      </trkpt>
      <trkpt lat="43.58274" lon="0.25771">
        <ele>158.7</ele>
        <time>2018-06-02T11:12:30Z</time>
      </trkpt>
      <trkpt lat="43.58272" lon="0.25772">
        <ele>158.7</ele>
        <time>2018-06-02T11:12:32Z</time>
      </trkpt>
      <trkpt lat="43.58269" lon="0.25774">
        <ele>158.8</ele>
        <time>2018-06-02T11:12:35Z</time>
      </trkpt>
      <trkpt lat="43.58267" lon="0.25775">
        <ele>158.8</ele>
        <time>2018-06-02T11:12:37Z</time>
      </trkpt>
      <trkpt lat="43.58264" lon="0.25776">
        <ele>158.9</ele>
        <time>2018-06-02T11:12:40Z</time>
      </trkpt>
      <trkpt lat="43.58262" lon="0.25778">
        <ele>158.9</ele>
        <time>2018-06-02T11:12:42Z</time>
      </trkpt>
      <trkpt lat="43.5826" lon="0.25779">
        <ele>158.9</ele>
        <time>2018-06-02T11:12:45Z</time>
      </trkpt>
      <trkpt lat="43.58258" lon="0.25781">
        <ele>159</ele>
        <time>2018-06-02T11:12:48Z</time>
      </trkpt>
      <trkpt lat="43.58257" lon="0.25782">
        <ele>159</ele>
        <time>2018-06-02T11:12:50Z</time>
      </trkpt>
      <trkpt lat="43.58255" lon="0.25784">
        <ele>159.1</ele>
        <time>2018-06-02T11:12:53Z</time>
      </trkpt>
      <trkpt lat="43.58254" lon="0.25785">
        <ele>159.1</ele>
        <time>2018-06-02T11:12:55Z</time>
      </trkpt>
      <trkpt lat="43.58252" lon="0.25786">
        <ele>159.2</ele>
        <time>2018-06-02T11:12:58Z</time>
      </trkpt>
      <trkpt lat="43.58251" lon="0.25788">
        <ele>159.2</ele>
        <time>2018-06-02T11:13:00Z</time>
      </trkpt>
      <trkpt lat="43.58249" lon="0.25793">
        <ele>159.3</ele>
        <time>2018-06-02T11:13:03Z</time>
      </trkpt>
      <trkpt lat="43.58249" lon="0.25797">
        <ele>159.3</ele>
        <time>2018-06-02T11:13:05Z</time>
      </trkpt>
      <trkpt lat="43.58247" lon="0.25801">
        <ele>159.4</ele>
        <time>2018-06-02T11:13:08Z</time>
      </trkpt>
      <trkpt lat="43.58247" lon="0.25802">
        <ele>159.4</ele>
        <time>2018-06-02T11:13:11Z</time>
      </trkpt>
      <trkpt lat="43.58247" lon="0.25802">
        <ele>159.4</ele>
        <time>2018-06-02T11:13:13Z</time>
      </trkpt>
      <trkpt lat="43.58247" lon="0.25802">
        <ele>159.5</ele>
        <time>2018-06-02T11:13:15Z</time>
      </trkpt>
    </trkseg>
  </trk>
</gpx>